<?xml version="1.0" encoding="UTF-8" standalone="no" ?>
<gpx xmlns="http://www.topografix.com/GPX/1/1" xmlns:xsi="http://www.w3.org/2001/XMLSchema-instance" xsi:schemaLocation="http://www.topografix.com/GPX/1/1 http://www.topografix.com/GPX/1/1/gpx.xsd" version="1.1" creator="VisuGPX - https://www.visugpx.com">
  <metadata>
    <name>Maladraye</name>
    <desc><![CDATA[Trace AlpineQuest 07/11/2021 09:30:47]]></desc>
  </metadata>
  <trk>
    <name><![CDATA[Maladraye_1]]></name>
    <trkseg>
      <trkpt lat="44.87027" lon="5.59751">
        <ele>885.92</ele>
        <time>2021-11-07T08:30:47Z</time>
      </trkpt>
      <trkpt lat="44.87027" lon="5.59752">
        <ele>887.528</ele>
        <time>2021-11-07T08:30:52Z</time>
      </trkpt>
      <trkpt lat="44.87026" lon="5.59753">
        <ele>889.052</ele>
        <time>2021-11-07T08:30:57Z</time>
      </trkpt>
      <trkpt lat="44.87028" lon="5.59751">
        <ele>886.993</ele>
        <time>2021-11-07T08:31:02Z</time>
      </trkpt>
      <trkpt lat="44.87028" lon="5.59752">
        <ele>888</ele>
        <time>2021-11-07T08:31:07Z</time>
      </trkpt>
      <trkpt lat="44.87026" lon="5.59755">
        <ele>888.651</ele>
        <time>2021-11-07T08:31:12Z</time>
      </trkpt>
      <trkpt lat="44.87024" lon="5.59755">
        <ele>889.624</ele>
        <time>2021-11-07T08:31:17Z</time>
      </trkpt>
      <trkpt lat="44.87025" lon="5.59755">
        <ele>889.201</ele>
        <time>2021-11-07T08:31:22Z</time>
      </trkpt>
      <trkpt lat="44.87026" lon="5.59755">
        <ele>889.119</ele>
        <time>2021-11-07T08:31:27Z</time>
      </trkpt>
      <trkpt lat="44.87026" lon="5.59756">
        <ele>888.459</ele>
        <time>2021-11-07T08:31:32Z</time>
      </trkpt>
      <trkpt lat="44.87027" lon="5.59757">
        <ele>888.268</ele>
        <time>2021-11-07T08:31:37Z</time>
      </trkpt>
      <trkpt lat="44.87026" lon="5.59757">
        <ele>888.229</ele>
        <time>2021-11-07T08:31:42Z</time>
      </trkpt>
      <trkpt lat="44.87025" lon="5.59757">
        <ele>887.89</ele>
        <time>2021-11-07T08:31:47Z</time>
      </trkpt>
      <trkpt lat="44.87025" lon="5.59756">
        <ele>887.824</ele>
        <time>2021-11-07T08:31:52Z</time>
      </trkpt>
      <trkpt lat="44.87026" lon="5.59754">
        <ele>886.852</ele>
        <time>2021-11-07T08:31:57Z</time>
      </trkpt>
      <trkpt lat="44.87026" lon="5.59752">
        <ele>885.768</ele>
        <time>2021-11-07T08:32:02Z</time>
      </trkpt>
      <trkpt lat="44.87026" lon="5.59751">
        <ele>887.525</ele>
        <time>2021-11-07T08:32:07Z</time>
      </trkpt>
      <trkpt lat="44.87028" lon="5.59751">
        <ele>886.62</ele>
        <time>2021-11-07T08:32:12Z</time>
      </trkpt>
      <trkpt lat="44.87027" lon="5.59752">
        <ele>887.011</ele>
        <time>2021-11-07T08:32:17Z</time>
      </trkpt>
      <trkpt lat="44.87027" lon="5.59752">
        <ele>886.769</ele>
        <time>2021-11-07T08:32:22Z</time>
      </trkpt>
      <trkpt lat="44.87025" lon="5.59745">
        <ele>885.363</ele>
        <time>2021-11-07T08:32:27Z</time>
      </trkpt>
      <trkpt lat="44.87025" lon="5.59739">
        <ele>884.862</ele>
        <time>2021-11-07T08:32:32Z</time>
      </trkpt>
      <trkpt lat="44.87025" lon="5.59734">
        <ele>885.038</ele>
        <time>2021-11-07T08:32:37Z</time>
      </trkpt>
      <trkpt lat="44.87028" lon="5.59732">
        <ele>885.882</ele>
        <time>2021-11-07T08:32:42Z</time>
      </trkpt>
      <trkpt lat="44.87032" lon="5.59737">
        <ele>886.4</ele>
        <time>2021-11-07T08:32:47Z</time>
      </trkpt>
      <trkpt lat="44.87026" lon="5.59748">
        <ele>884.505</ele>
        <time>2021-11-07T08:32:52Z</time>
      </trkpt>
      <trkpt lat="44.87022" lon="5.59745">
        <ele>884.681</ele>
        <time>2021-11-07T08:32:57Z</time>
      </trkpt>
      <trkpt lat="44.87024" lon="5.59743">
        <ele>885.285</ele>
        <time>2021-11-07T08:33:02Z</time>
      </trkpt>
      <trkpt lat="44.87024" lon="5.59743">
        <ele>886.306</ele>
        <time>2021-11-07T08:33:07Z</time>
      </trkpt>
      <trkpt lat="44.87024" lon="5.59743">
        <ele>887.083</ele>
        <time>2021-11-07T08:33:12Z</time>
      </trkpt>
      <trkpt lat="44.87024" lon="5.59743">
        <ele>887.109</ele>
        <time>2021-11-07T08:33:17Z</time>
      </trkpt>
      <trkpt lat="44.87024" lon="5.59743">
        <ele>887.119</ele>
        <time>2021-11-07T08:33:22Z</time>
      </trkpt>
      <trkpt lat="44.87024" lon="5.59743">
        <ele>887.127</ele>
        <time>2021-11-07T08:33:27Z</time>
      </trkpt>
      <trkpt lat="44.87024" lon="5.59743">
        <ele>887.14</ele>
        <time>2021-11-07T08:33:32Z</time>
      </trkpt>
      <trkpt lat="44.87024" lon="5.59743">
        <ele>887.148</ele>
        <time>2021-11-07T08:33:37Z</time>
      </trkpt>
      <trkpt lat="44.87024" lon="5.59743">
        <ele>887.151</ele>
        <time>2021-11-07T08:33:42Z</time>
      </trkpt>
      <trkpt lat="44.87024" lon="5.59743">
        <ele>887.146</ele>
        <time>2021-11-07T08:33:47Z</time>
      </trkpt>
      <trkpt lat="44.87024" lon="5.59743">
        <ele>887.181</ele>
        <time>2021-11-07T08:33:52Z</time>
      </trkpt>
      <trkpt lat="44.87023" lon="5.59743">
        <ele>886.49</ele>
        <time>2021-11-07T08:33:57Z</time>
      </trkpt>
      <trkpt lat="44.87023" lon="5.59742">
        <ele>886.094</ele>
        <time>2021-11-07T08:34:02Z</time>
      </trkpt>
      <trkpt lat="44.87025" lon="5.59739">
        <ele>886.877</ele>
        <time>2021-11-07T08:34:07Z</time>
      </trkpt>
      <trkpt lat="44.87026" lon="5.59726">
        <ele>888.079</ele>
        <time>2021-11-07T08:34:12Z</time>
      </trkpt>
      <trkpt lat="44.87021" lon="5.5971">
        <ele>887.944</ele>
        <time>2021-11-07T08:34:17Z</time>
      </trkpt>
      <trkpt lat="44.87013" lon="5.59688">
        <ele>886.052</ele>
        <time>2021-11-07T08:34:22Z</time>
      </trkpt>
      <trkpt lat="44.87004" lon="5.59659">
        <ele>884.699</ele>
        <time>2021-11-07T08:34:27Z</time>
      </trkpt>
      <trkpt lat="44.86995" lon="5.59637">
        <ele>884.981</ele>
        <time>2021-11-07T08:34:32Z</time>
      </trkpt>
      <trkpt lat="44.86984" lon="5.5962">
        <ele>886.114</ele>
        <time>2021-11-07T08:34:37Z</time>
      </trkpt>
      <trkpt lat="44.86972" lon="5.59601">
        <ele>886.856</ele>
        <time>2021-11-07T08:34:42Z</time>
      </trkpt>
      <trkpt lat="44.86957" lon="5.59585">
        <ele>888.052</ele>
        <time>2021-11-07T08:34:47Z</time>
      </trkpt>
      <trkpt lat="44.86943" lon="5.59564">
        <ele>888.965</ele>
        <time>2021-11-07T08:34:52Z</time>
      </trkpt>
      <trkpt lat="44.86932" lon="5.5954">
        <ele>890.127</ele>
        <time>2021-11-07T08:34:57Z</time>
      </trkpt>
      <trkpt lat="44.86925" lon="5.59521">
        <ele>890.645</ele>
        <time>2021-11-07T08:35:02Z</time>
      </trkpt>
      <trkpt lat="44.86921" lon="5.59505">
        <ele>892.197</ele>
        <time>2021-11-07T08:35:07Z</time>
      </trkpt>
      <trkpt lat="44.86914" lon="5.59489">
        <ele>894.386</ele>
        <time>2021-11-07T08:35:12Z</time>
      </trkpt>
      <trkpt lat="44.86907" lon="5.59477">
        <ele>895.034</ele>
        <time>2021-11-07T08:35:17Z</time>
      </trkpt>
      <trkpt lat="44.86899" lon="5.59467">
        <ele>894.7</ele>
        <time>2021-11-07T08:35:22Z</time>
      </trkpt>
      <trkpt lat="44.86884" lon="5.59461">
        <ele>894.898</ele>
        <time>2021-11-07T08:35:27Z</time>
      </trkpt>
      <trkpt lat="44.86865" lon="5.59456">
        <ele>894.758</ele>
        <time>2021-11-07T08:35:32Z</time>
      </trkpt>
      <trkpt lat="44.86854" lon="5.59455">
        <ele>894.82</ele>
        <time>2021-11-07T08:35:37Z</time>
      </trkpt>
      <trkpt lat="44.86847" lon="5.59447">
        <ele>899.006</ele>
        <time>2021-11-07T08:35:42Z</time>
      </trkpt>
      <trkpt lat="44.86841" lon="5.59442">
        <ele>898.559</ele>
        <time>2021-11-07T08:35:47Z</time>
      </trkpt>
      <trkpt lat="44.86839" lon="5.59443">
        <ele>897.781</ele>
        <time>2021-11-07T08:35:52Z</time>
      </trkpt>
      <trkpt lat="44.8684" lon="5.59444">
        <ele>897.052</ele>
        <time>2021-11-07T08:35:57Z</time>
      </trkpt>
      <trkpt lat="44.86844" lon="5.59446">
        <ele>897.508</ele>
        <time>2021-11-07T08:36:02Z</time>
      </trkpt>
      <trkpt lat="44.8685" lon="5.59448">
        <ele>895.874</ele>
        <time>2021-11-07T08:36:07Z</time>
      </trkpt>
      <trkpt lat="44.86855" lon="5.59455">
        <ele>896.543</ele>
        <time>2021-11-07T08:36:12Z</time>
      </trkpt>
      <trkpt lat="44.86847" lon="5.5946">
        <ele>896.857</ele>
        <time>2021-11-07T08:36:17Z</time>
      </trkpt>
      <trkpt lat="44.8684" lon="5.59465">
        <ele>896.112</ele>
        <time>2021-11-07T08:36:22Z</time>
      </trkpt>
      <trkpt lat="44.86832" lon="5.59469">
        <ele>895.006</ele>
        <time>2021-11-07T08:36:27Z</time>
      </trkpt>
      <trkpt lat="44.86832" lon="5.59469">
        <ele>895.079</ele>
        <time>2021-11-07T08:36:32Z</time>
      </trkpt>
      <trkpt lat="44.86832" lon="5.59469">
        <ele>896.311</ele>
        <time>2021-11-07T08:36:37Z</time>
      </trkpt>
      <trkpt lat="44.86828" lon="5.59467">
        <ele>894.884</ele>
        <time>2021-11-07T08:36:42Z</time>
      </trkpt>
      <trkpt lat="44.86815" lon="5.59453">
        <ele>893.726</ele>
        <time>2021-11-07T08:36:47Z</time>
      </trkpt>
      <trkpt lat="44.86819" lon="5.59421">
        <ele>892.396</ele>
        <time>2021-11-07T08:36:52Z</time>
      </trkpt>
      <trkpt lat="44.86836" lon="5.59383">
        <ele>889.598</ele>
        <time>2021-11-07T08:36:57Z</time>
      </trkpt>
      <trkpt lat="44.86825" lon="5.59336">
        <ele>888.771</ele>
        <time>2021-11-07T08:37:02Z</time>
      </trkpt>
      <trkpt lat="44.86806" lon="5.59291">
        <ele>886.34</ele>
        <time>2021-11-07T08:37:07Z</time>
      </trkpt>
      <trkpt lat="44.86773" lon="5.59269">
        <ele>883.829</ele>
        <time>2021-11-07T08:37:12Z</time>
      </trkpt>
      <trkpt lat="44.86738" lon="5.59255">
        <ele>881.624</ele>
        <time>2021-11-07T08:37:17Z</time>
      </trkpt>
      <trkpt lat="44.86708" lon="5.59239">
        <ele>879.601</ele>
        <time>2021-11-07T08:37:22Z</time>
      </trkpt>
      <trkpt lat="44.86692" lon="5.59204">
        <ele>877.685</ele>
        <time>2021-11-07T08:37:27Z</time>
      </trkpt>
      <trkpt lat="44.86686" lon="5.59162">
        <ele>876.495</ele>
        <time>2021-11-07T08:37:32Z</time>
      </trkpt>
      <trkpt lat="44.86678" lon="5.59119">
        <ele>875.031</ele>
        <time>2021-11-07T08:37:37Z</time>
      </trkpt>
      <trkpt lat="44.86665" lon="5.59077">
        <ele>873.622</ele>
        <time>2021-11-07T08:37:42Z</time>
      </trkpt>
      <trkpt lat="44.86661" lon="5.59035">
        <ele>872.722</ele>
        <time>2021-11-07T08:37:47Z</time>
      </trkpt>
      <trkpt lat="44.86661" lon="5.58996">
        <ele>871.938</ele>
        <time>2021-11-07T08:37:52Z</time>
      </trkpt>
      <trkpt lat="44.86663" lon="5.58959">
        <ele>871.974</ele>
        <time>2021-11-07T08:37:57Z</time>
      </trkpt>
      <trkpt lat="44.86677" lon="5.58935">
        <ele>872.668</ele>
        <time>2021-11-07T08:38:02Z</time>
      </trkpt>
      <trkpt lat="44.86693" lon="5.5892">
        <ele>871.925</ele>
        <time>2021-11-07T08:38:07Z</time>
      </trkpt>
      <trkpt lat="44.86707" lon="5.58897">
        <ele>871.401</ele>
        <time>2021-11-07T08:38:12Z</time>
      </trkpt>
      <trkpt lat="44.86716" lon="5.58866">
        <ele>871.159</ele>
        <time>2021-11-07T08:38:17Z</time>
      </trkpt>
      <trkpt lat="44.86722" lon="5.5884">
        <ele>871.936</ele>
        <time>2021-11-07T08:38:22Z</time>
      </trkpt>
      <trkpt lat="44.86727" lon="5.58815">
        <ele>872.175</ele>
        <time>2021-11-07T08:38:27Z</time>
      </trkpt>
      <trkpt lat="44.86731" lon="5.58789">
        <ele>872.279</ele>
        <time>2021-11-07T08:38:32Z</time>
      </trkpt>
      <trkpt lat="44.8673" lon="5.58757">
        <ele>872.185</ele>
        <time>2021-11-07T08:38:37Z</time>
      </trkpt>
      <trkpt lat="44.86721" lon="5.58728">
        <ele>871.826</ele>
        <time>2021-11-07T08:38:42Z</time>
      </trkpt>
      <trkpt lat="44.8671" lon="5.58701">
        <ele>872.073</ele>
        <time>2021-11-07T08:38:47Z</time>
      </trkpt>
      <trkpt lat="44.86696" lon="5.5868">
        <ele>872.94</ele>
        <time>2021-11-07T08:38:52Z</time>
      </trkpt>
      <trkpt lat="44.8668" lon="5.58664">
        <ele>873.558</ele>
        <time>2021-11-07T08:38:57Z</time>
      </trkpt>
      <trkpt lat="44.86666" lon="5.5864">
        <ele>872.577</ele>
        <time>2021-11-07T08:39:02Z</time>
      </trkpt>
      <trkpt lat="44.86662" lon="5.58605">
        <ele>871.901</ele>
        <time>2021-11-07T08:39:07Z</time>
      </trkpt>
      <trkpt lat="44.86662" lon="5.5857">
        <ele>872.527</ele>
        <time>2021-11-07T08:39:12Z</time>
      </trkpt>
      <trkpt lat="44.86662" lon="5.58539">
        <ele>873.166</ele>
        <time>2021-11-07T08:39:17Z</time>
      </trkpt>
      <trkpt lat="44.8666" lon="5.58507">
        <ele>873.737</ele>
        <time>2021-11-07T08:39:22Z</time>
      </trkpt>
      <trkpt lat="44.86649" lon="5.58476">
        <ele>873.606</ele>
        <time>2021-11-07T08:39:27Z</time>
      </trkpt>
      <trkpt lat="44.86635" lon="5.5845">
        <ele>874.796</ele>
        <time>2021-11-07T08:39:32Z</time>
      </trkpt>
      <trkpt lat="44.86622" lon="5.58431">
        <ele>875.543</ele>
        <time>2021-11-07T08:39:37Z</time>
      </trkpt>
      <trkpt lat="44.86609" lon="5.5841">
        <ele>876.232</ele>
        <time>2021-11-07T08:39:42Z</time>
      </trkpt>
      <trkpt lat="44.86597" lon="5.58391">
        <ele>877.173</ele>
        <time>2021-11-07T08:39:47Z</time>
      </trkpt>
      <trkpt lat="44.86589" lon="5.5837">
        <ele>877.773</ele>
        <time>2021-11-07T08:39:52Z</time>
      </trkpt>
      <trkpt lat="44.86585" lon="5.58344">
        <ele>878.737</ele>
        <time>2021-11-07T08:39:57Z</time>
      </trkpt>
      <trkpt lat="44.86583" lon="5.58316">
        <ele>879.492</ele>
        <time>2021-11-07T08:40:02Z</time>
      </trkpt>
      <trkpt lat="44.86582" lon="5.5829">
        <ele>880.839</ele>
        <time>2021-11-07T08:40:07Z</time>
      </trkpt>
      <trkpt lat="44.8658" lon="5.58263">
        <ele>881.4</ele>
        <time>2021-11-07T08:40:12Z</time>
      </trkpt>
      <trkpt lat="44.86584" lon="5.58236">
        <ele>881.94</ele>
        <time>2021-11-07T08:40:17Z</time>
      </trkpt>
      <trkpt lat="44.8659" lon="5.58211">
        <ele>882.94</ele>
        <time>2021-11-07T08:40:22Z</time>
      </trkpt>
      <trkpt lat="44.86596" lon="5.58186">
        <ele>883.665</ele>
        <time>2021-11-07T08:40:27Z</time>
      </trkpt>
      <trkpt lat="44.86601" lon="5.5816">
        <ele>884.298</ele>
        <time>2021-11-07T08:40:32Z</time>
      </trkpt>
      <trkpt lat="44.86607" lon="5.58135">
        <ele>885.419</ele>
        <time>2021-11-07T08:40:37Z</time>
      </trkpt>
      <trkpt lat="44.86615" lon="5.58112">
        <ele>885.407</ele>
        <time>2021-11-07T08:40:42Z</time>
      </trkpt>
      <trkpt lat="44.86623" lon="5.58088">
        <ele>885.921</ele>
        <time>2021-11-07T08:40:47Z</time>
      </trkpt>
      <trkpt lat="44.86631" lon="5.58065">
        <ele>887.206</ele>
        <time>2021-11-07T08:40:52Z</time>
      </trkpt>
      <trkpt lat="44.86641" lon="5.58043">
        <ele>887.978</ele>
        <time>2021-11-07T08:40:57Z</time>
      </trkpt>
      <trkpt lat="44.86655" lon="5.58028">
        <ele>888.919</ele>
        <time>2021-11-07T08:41:02Z</time>
      </trkpt>
      <trkpt lat="44.86672" lon="5.58023">
        <ele>890.479</ele>
        <time>2021-11-07T08:41:07Z</time>
      </trkpt>
      <trkpt lat="44.86689" lon="5.58019">
        <ele>892.052</ele>
        <time>2021-11-07T08:41:12Z</time>
      </trkpt>
      <trkpt lat="44.86705" lon="5.58009">
        <ele>893.177</ele>
        <time>2021-11-07T08:41:17Z</time>
      </trkpt>
      <trkpt lat="44.86721" lon="5.58">
        <ele>893.997</ele>
        <time>2021-11-07T08:41:22Z</time>
      </trkpt>
      <trkpt lat="44.86737" lon="5.57992">
        <ele>895.686</ele>
        <time>2021-11-07T08:41:27Z</time>
      </trkpt>
      <trkpt lat="44.86753" lon="5.57983">
        <ele>897.325</ele>
        <time>2021-11-07T08:41:32Z</time>
      </trkpt>
      <trkpt lat="44.86767" lon="5.57972">
        <ele>898.735</ele>
        <time>2021-11-07T08:41:37Z</time>
      </trkpt>
      <trkpt lat="44.86781" lon="5.5796">
        <ele>898.754</ele>
        <time>2021-11-07T08:41:42Z</time>
      </trkpt>
      <trkpt lat="44.86793" lon="5.57948">
        <ele>899.598</ele>
        <time>2021-11-07T08:41:47Z</time>
      </trkpt>
      <trkpt lat="44.86803" lon="5.57937">
        <ele>899.613</ele>
        <time>2021-11-07T08:41:52Z</time>
      </trkpt>
      <trkpt lat="44.86812" lon="5.57926">
        <ele>901.367</ele>
        <time>2021-11-07T08:41:57Z</time>
      </trkpt>
      <trkpt lat="44.86821" lon="5.57914">
        <ele>901.742</ele>
        <time>2021-11-07T08:42:02Z</time>
      </trkpt>
      <trkpt lat="44.8683" lon="5.57901">
        <ele>902.325</ele>
        <time>2021-11-07T08:42:07Z</time>
      </trkpt>
      <trkpt lat="44.86838" lon="5.57888">
        <ele>902.417</ele>
        <time>2021-11-07T08:42:12Z</time>
      </trkpt>
      <trkpt lat="44.86845" lon="5.57874">
        <ele>902.88</ele>
        <time>2021-11-07T08:42:17Z</time>
      </trkpt>
      <trkpt lat="44.86851" lon="5.57858">
        <ele>903.391</ele>
        <time>2021-11-07T08:42:22Z</time>
      </trkpt>
      <trkpt lat="44.86857" lon="5.57845">
        <ele>903.602</ele>
        <time>2021-11-07T08:42:27Z</time>
      </trkpt>
      <trkpt lat="44.86862" lon="5.57832">
        <ele>904.721</ele>
        <time>2021-11-07T08:42:32Z</time>
      </trkpt>
      <trkpt lat="44.86865" lon="5.57816">
        <ele>906.603</ele>
        <time>2021-11-07T08:42:37Z</time>
      </trkpt>
      <trkpt lat="44.86871" lon="5.57802">
        <ele>907.056</ele>
        <time>2021-11-07T08:42:42Z</time>
      </trkpt>
      <trkpt lat="44.86877" lon="5.5779">
        <ele>907.042</ele>
        <time>2021-11-07T08:42:47Z</time>
      </trkpt>
      <trkpt lat="44.86885" lon="5.57779">
        <ele>907.757</ele>
        <time>2021-11-07T08:42:52Z</time>
      </trkpt>
      <trkpt lat="44.86893" lon="5.57768">
        <ele>908.85</ele>
        <time>2021-11-07T08:42:57Z</time>
      </trkpt>
      <trkpt lat="44.86897" lon="5.57755">
        <ele>911.117</ele>
        <time>2021-11-07T08:43:02Z</time>
      </trkpt>
      <trkpt lat="44.86899" lon="5.5774">
        <ele>913.24</ele>
        <time>2021-11-07T08:43:07Z</time>
      </trkpt>
      <trkpt lat="44.869" lon="5.57726">
        <ele>913.588</ele>
        <time>2021-11-07T08:43:12Z</time>
      </trkpt>
      <trkpt lat="44.86904" lon="5.57713">
        <ele>915.211</ele>
        <time>2021-11-07T08:43:17Z</time>
      </trkpt>
      <trkpt lat="44.86906" lon="5.577">
        <ele>915.305</ele>
        <time>2021-11-07T08:43:22Z</time>
      </trkpt>
      <trkpt lat="44.86906" lon="5.5769">
        <ele>914.979</ele>
        <time>2021-11-07T08:43:27Z</time>
      </trkpt>
      <trkpt lat="44.86909" lon="5.57679">
        <ele>915.678</ele>
        <time>2021-11-07T08:43:32Z</time>
      </trkpt>
      <trkpt lat="44.86909" lon="5.57662">
        <ele>915.621</ele>
        <time>2021-11-07T08:43:37Z</time>
      </trkpt>
      <trkpt lat="44.86913" lon="5.57644">
        <ele>916.332</ele>
        <time>2021-11-07T08:43:42Z</time>
      </trkpt>
      <trkpt lat="44.8692" lon="5.57633">
        <ele>917.455</ele>
        <time>2021-11-07T08:43:47Z</time>
      </trkpt>
      <trkpt lat="44.86928" lon="5.57625">
        <ele>918.92</ele>
        <time>2021-11-07T08:43:52Z</time>
      </trkpt>
      <trkpt lat="44.86936" lon="5.57616">
        <ele>920.051</ele>
        <time>2021-11-07T08:43:57Z</time>
      </trkpt>
      <trkpt lat="44.86944" lon="5.57608">
        <ele>920.738</ele>
        <time>2021-11-07T08:44:02Z</time>
      </trkpt>
      <trkpt lat="44.8695" lon="5.57597">
        <ele>921.815</ele>
        <time>2021-11-07T08:44:07Z</time>
      </trkpt>
      <trkpt lat="44.86951" lon="5.57584">
        <ele>922.419</ele>
        <time>2021-11-07T08:44:12Z</time>
      </trkpt>
      <trkpt lat="44.86949" lon="5.5757">
        <ele>924.042</ele>
        <time>2021-11-07T08:44:17Z</time>
      </trkpt>
      <trkpt lat="44.86946" lon="5.57556">
        <ele>924.695</ele>
        <time>2021-11-07T08:44:22Z</time>
      </trkpt>
      <trkpt lat="44.86944" lon="5.57542">
        <ele>925.828</ele>
        <time>2021-11-07T08:44:27Z</time>
      </trkpt>
      <trkpt lat="44.86944" lon="5.5753">
        <ele>927.308</ele>
        <time>2021-11-07T08:44:32Z</time>
      </trkpt>
      <trkpt lat="44.86947" lon="5.57516">
        <ele>927.757</ele>
        <time>2021-11-07T08:44:37Z</time>
      </trkpt>
      <trkpt lat="44.8695" lon="5.57503">
        <ele>928.06</ele>
        <time>2021-11-07T08:44:42Z</time>
      </trkpt>
      <trkpt lat="44.86954" lon="5.57491">
        <ele>929.032</ele>
        <time>2021-11-07T08:44:47Z</time>
      </trkpt>
      <trkpt lat="44.86956" lon="5.57478">
        <ele>929.303</ele>
        <time>2021-11-07T08:44:52Z</time>
      </trkpt>
      <trkpt lat="44.8696" lon="5.57466">
        <ele>930.85</ele>
        <time>2021-11-07T08:44:57Z</time>
      </trkpt>
      <trkpt lat="44.86965" lon="5.57453">
        <ele>931.54</ele>
        <time>2021-11-07T08:45:02Z</time>
      </trkpt>
      <trkpt lat="44.8697" lon="5.57441">
        <ele>932.478</ele>
        <time>2021-11-07T08:45:07Z</time>
      </trkpt>
      <trkpt lat="44.86977" lon="5.57431">
        <ele>933.211</ele>
        <time>2021-11-07T08:45:12Z</time>
      </trkpt>
      <trkpt lat="44.86984" lon="5.57422">
        <ele>934.699</ele>
        <time>2021-11-07T08:45:17Z</time>
      </trkpt>
      <trkpt lat="44.8699" lon="5.57412">
        <ele>936.515</ele>
        <time>2021-11-07T08:45:22Z</time>
      </trkpt>
      <trkpt lat="44.86992" lon="5.57399">
        <ele>937.408</ele>
        <time>2021-11-07T08:45:27Z</time>
      </trkpt>
      <trkpt lat="44.86992" lon="5.57387">
        <ele>938.761</ele>
        <time>2021-11-07T08:45:32Z</time>
      </trkpt>
      <trkpt lat="44.86993" lon="5.57375">
        <ele>940.317</ele>
        <time>2021-11-07T08:45:37Z</time>
      </trkpt>
      <trkpt lat="44.86997" lon="5.57364">
        <ele>939.881</ele>
        <time>2021-11-07T08:45:42Z</time>
      </trkpt>
      <trkpt lat="44.87004" lon="5.57353">
        <ele>941.191</ele>
        <time>2021-11-07T08:45:47Z</time>
      </trkpt>
      <trkpt lat="44.87008" lon="5.57342">
        <ele>943.291</ele>
        <time>2021-11-07T08:45:52Z</time>
      </trkpt>
      <trkpt lat="44.87011" lon="5.5733">
        <ele>944.063</ele>
        <time>2021-11-07T08:45:57Z</time>
      </trkpt>
      <trkpt lat="44.87011" lon="5.57316">
        <ele>945.201</ele>
        <time>2021-11-07T08:46:02Z</time>
      </trkpt>
      <trkpt lat="44.87012" lon="5.57302">
        <ele>944.043</ele>
        <time>2021-11-07T08:46:07Z</time>
      </trkpt>
      <trkpt lat="44.87013" lon="5.57288">
        <ele>943.766</ele>
        <time>2021-11-07T08:46:12Z</time>
      </trkpt>
      <trkpt lat="44.87015" lon="5.57274">
        <ele>944.625</ele>
        <time>2021-11-07T08:46:17Z</time>
      </trkpt>
      <trkpt lat="44.87015" lon="5.57259">
        <ele>947.061</ele>
        <time>2021-11-07T08:46:22Z</time>
      </trkpt>
      <trkpt lat="44.87016" lon="5.57245">
        <ele>949.501</ele>
        <time>2021-11-07T08:46:27Z</time>
      </trkpt>
      <trkpt lat="44.87017" lon="5.57232">
        <ele>949.977</ele>
        <time>2021-11-07T08:46:32Z</time>
      </trkpt>
      <trkpt lat="44.87017" lon="5.57217">
        <ele>947.755</ele>
        <time>2021-11-07T08:46:37Z</time>
      </trkpt>
      <trkpt lat="44.87016" lon="5.57202">
        <ele>948.036</ele>
        <time>2021-11-07T08:46:42Z</time>
      </trkpt>
      <trkpt lat="44.87014" lon="5.57188">
        <ele>949.947</ele>
        <time>2021-11-07T08:46:47Z</time>
      </trkpt>
      <trkpt lat="44.87012" lon="5.57177">
        <ele>950.832</ele>
        <time>2021-11-07T08:46:52Z</time>
      </trkpt>
      <trkpt lat="44.8701" lon="5.57165">
        <ele>951.422</ele>
        <time>2021-11-07T08:46:57Z</time>
      </trkpt>
      <trkpt lat="44.87007" lon="5.57154">
        <ele>951.548</ele>
        <time>2021-11-07T08:47:02Z</time>
      </trkpt>
      <trkpt lat="44.87004" lon="5.57142">
        <ele>952.642</ele>
        <time>2021-11-07T08:47:07Z</time>
      </trkpt>
      <trkpt lat="44.87001" lon="5.57129">
        <ele>952.345</ele>
        <time>2021-11-07T08:47:12Z</time>
      </trkpt>
      <trkpt lat="44.86999" lon="5.57115">
        <ele>953.111</ele>
        <time>2021-11-07T08:47:17Z</time>
      </trkpt>
      <trkpt lat="44.86999" lon="5.57101">
        <ele>952.662</ele>
        <time>2021-11-07T08:47:22Z</time>
      </trkpt>
      <trkpt lat="44.87001" lon="5.57088">
        <ele>954.622</ele>
        <time>2021-11-07T08:47:27Z</time>
      </trkpt>
      <trkpt lat="44.87003" lon="5.57075">
        <ele>955.535</ele>
        <time>2021-11-07T08:47:32Z</time>
      </trkpt>
      <trkpt lat="44.87007" lon="5.57063">
        <ele>957.245</ele>
        <time>2021-11-07T08:47:37Z</time>
      </trkpt>
      <trkpt lat="44.87009" lon="5.57049">
        <ele>957.761</ele>
        <time>2021-11-07T08:47:42Z</time>
      </trkpt>
      <trkpt lat="44.8701" lon="5.57034">
        <ele>959.115</ele>
        <time>2021-11-07T08:47:47Z</time>
      </trkpt>
      <trkpt lat="44.87009" lon="5.57019">
        <ele>959.618</ele>
        <time>2021-11-07T08:47:52Z</time>
      </trkpt>
      <trkpt lat="44.87009" lon="5.57004">
        <ele>961.68</ele>
        <time>2021-11-07T08:47:57Z</time>
      </trkpt>
      <trkpt lat="44.87009" lon="5.56989">
        <ele>961.458</ele>
        <time>2021-11-07T08:48:02Z</time>
      </trkpt>
      <trkpt lat="44.87013" lon="5.56974">
        <ele>961.136</ele>
        <time>2021-11-07T08:48:07Z</time>
      </trkpt>
      <trkpt lat="44.87021" lon="5.56962">
        <ele>961.718</ele>
        <time>2021-11-07T08:48:12Z</time>
      </trkpt>
      <trkpt lat="44.87028" lon="5.5695">
        <ele>960.912</ele>
        <time>2021-11-07T08:48:17Z</time>
      </trkpt>
      <trkpt lat="44.8703" lon="5.56937">
        <ele>963.677</ele>
        <time>2021-11-07T08:48:22Z</time>
      </trkpt>
      <trkpt lat="44.87031" lon="5.56923">
        <ele>962.853</ele>
        <time>2021-11-07T08:48:27Z</time>
      </trkpt>
      <trkpt lat="44.87031" lon="5.56908">
        <ele>962.919</ele>
        <time>2021-11-07T08:48:32Z</time>
      </trkpt>
      <trkpt lat="44.87028" lon="5.56893">
        <ele>964.145</ele>
        <time>2021-11-07T08:48:37Z</time>
      </trkpt>
      <trkpt lat="44.87025" lon="5.56878">
        <ele>967.114</ele>
        <time>2021-11-07T08:48:42Z</time>
      </trkpt>
      <trkpt lat="44.87029" lon="5.56861">
        <ele>967.564</ele>
        <time>2021-11-07T08:48:47Z</time>
      </trkpt>
      <trkpt lat="44.87033" lon="5.56848">
        <ele>965.726</ele>
        <time>2021-11-07T08:48:52Z</time>
      </trkpt>
      <trkpt lat="44.87038" lon="5.56831">
        <ele>967.612</ele>
        <time>2021-11-07T08:48:57Z</time>
      </trkpt>
      <trkpt lat="44.87039" lon="5.56812">
        <ele>967.395</ele>
        <time>2021-11-07T08:49:02Z</time>
      </trkpt>
      <trkpt lat="44.87044" lon="5.56798">
        <ele>966.077</ele>
        <time>2021-11-07T08:49:07Z</time>
      </trkpt>
      <trkpt lat="44.8705" lon="5.56782">
        <ele>970.119</ele>
        <time>2021-11-07T08:49:12Z</time>
      </trkpt>
      <trkpt lat="44.8705" lon="5.5676">
        <ele>972.406</ele>
        <time>2021-11-07T08:49:17Z</time>
      </trkpt>
      <trkpt lat="44.87041" lon="5.56742">
        <ele>971.447</ele>
        <time>2021-11-07T08:49:22Z</time>
      </trkpt>
      <trkpt lat="44.87032" lon="5.56725">
        <ele>970.106</ele>
        <time>2021-11-07T08:49:27Z</time>
      </trkpt>
      <trkpt lat="44.87022" lon="5.5671">
        <ele>970.306</ele>
        <time>2021-11-07T08:49:32Z</time>
      </trkpt>
      <trkpt lat="44.87013" lon="5.56694">
        <ele>970.532</ele>
        <time>2021-11-07T08:49:37Z</time>
      </trkpt>
      <trkpt lat="44.86998" lon="5.56687">
        <ele>970.897</ele>
        <time>2021-11-07T08:49:42Z</time>
      </trkpt>
      <trkpt lat="44.86985" lon="5.56704">
        <ele>972.744</ele>
        <time>2021-11-07T08:49:47Z</time>
      </trkpt>
      <trkpt lat="44.86977" lon="5.56722">
        <ele>969.595</ele>
        <time>2021-11-07T08:49:52Z</time>
      </trkpt>
      <trkpt lat="44.86976" lon="5.56746">
        <ele>970.364</ele>
        <time>2021-11-07T08:49:57Z</time>
      </trkpt>
      <trkpt lat="44.86976" lon="5.56768">
        <ele>973.847</ele>
        <time>2021-11-07T08:50:02Z</time>
      </trkpt>
      <trkpt lat="44.86977" lon="5.56783">
        <ele>976.052</ele>
        <time>2021-11-07T08:50:07Z</time>
      </trkpt>
      <trkpt lat="44.86975" lon="5.56798">
        <ele>974.967</ele>
        <time>2021-11-07T08:50:12Z</time>
      </trkpt>
      <trkpt lat="44.86972" lon="5.56813">
        <ele>973.569</ele>
        <time>2021-11-07T08:50:17Z</time>
      </trkpt>
      <trkpt lat="44.8697" lon="5.56828">
        <ele>972.163</ele>
        <time>2021-11-07T08:50:22Z</time>
      </trkpt>
      <trkpt lat="44.86966" lon="5.56843">
        <ele>973.103</ele>
        <time>2021-11-07T08:50:27Z</time>
      </trkpt>
      <trkpt lat="44.86963" lon="5.56858">
        <ele>974.928</ele>
        <time>2021-11-07T08:50:32Z</time>
      </trkpt>
      <trkpt lat="44.86958" lon="5.56873">
        <ele>976.957</ele>
        <time>2021-11-07T08:50:37Z</time>
      </trkpt>
      <trkpt lat="44.86956" lon="5.56889">
        <ele>979.29</ele>
        <time>2021-11-07T08:50:42Z</time>
      </trkpt>
      <trkpt lat="44.86953" lon="5.56904">
        <ele>982.255</ele>
        <time>2021-11-07T08:50:47Z</time>
      </trkpt>
      <trkpt lat="44.86948" lon="5.56917">
        <ele>982.896</ele>
        <time>2021-11-07T08:50:52Z</time>
      </trkpt>
      <trkpt lat="44.86944" lon="5.5693">
        <ele>984.51</ele>
        <time>2021-11-07T08:50:57Z</time>
      </trkpt>
      <trkpt lat="44.86939" lon="5.56941">
        <ele>984.705</ele>
        <time>2021-11-07T08:51:02Z</time>
      </trkpt>
      <trkpt lat="44.86934" lon="5.56952">
        <ele>986.686</ele>
        <time>2021-11-07T08:51:07Z</time>
      </trkpt>
      <trkpt lat="44.8693" lon="5.56964">
        <ele>988.824</ele>
        <time>2021-11-07T08:51:12Z</time>
      </trkpt>
      <trkpt lat="44.86925" lon="5.56975">
        <ele>990.661</ele>
        <time>2021-11-07T08:51:17Z</time>
      </trkpt>
      <trkpt lat="44.8692" lon="5.56987">
        <ele>993.081</ele>
        <time>2021-11-07T08:51:22Z</time>
      </trkpt>
      <trkpt lat="44.86914" lon="5.56997">
        <ele>992.958</ele>
        <time>2021-11-07T08:51:27Z</time>
      </trkpt>
      <trkpt lat="44.86907" lon="5.57006">
        <ele>993.83</ele>
        <time>2021-11-07T08:51:32Z</time>
      </trkpt>
      <trkpt lat="44.869" lon="5.57016">
        <ele>994.398</ele>
        <time>2021-11-07T08:51:37Z</time>
      </trkpt>
      <trkpt lat="44.86895" lon="5.57028">
        <ele>995.146</ele>
        <time>2021-11-07T08:51:42Z</time>
      </trkpt>
      <trkpt lat="44.86891" lon="5.57039">
        <ele>995.373</ele>
        <time>2021-11-07T08:51:47Z</time>
      </trkpt>
      <trkpt lat="44.86887" lon="5.57051">
        <ele>995.75</ele>
        <time>2021-11-07T08:51:52Z</time>
      </trkpt>
      <trkpt lat="44.86883" lon="5.57064">
        <ele>996.719</ele>
        <time>2021-11-07T08:51:57Z</time>
      </trkpt>
      <trkpt lat="44.86881" lon="5.57078">
        <ele>997.05</ele>
        <time>2021-11-07T08:52:02Z</time>
      </trkpt>
      <trkpt lat="44.86875" lon="5.5709">
        <ele>998.555</ele>
        <time>2021-11-07T08:52:07Z</time>
      </trkpt>
      <trkpt lat="44.86865" lon="5.57093">
        <ele>998.987</ele>
        <time>2021-11-07T08:52:12Z</time>
      </trkpt>
      <trkpt lat="44.86864" lon="5.57081">
        <ele>998.745</ele>
        <time>2021-11-07T08:52:17Z</time>
      </trkpt>
      <trkpt lat="44.8687" lon="5.57069">
        <ele>1000.589</ele>
        <time>2021-11-07T08:52:22Z</time>
      </trkpt>
      <trkpt lat="44.86874" lon="5.57057">
        <ele>1001.414</ele>
        <time>2021-11-07T08:52:27Z</time>
      </trkpt>
      <trkpt lat="44.86878" lon="5.5704">
        <ele>999.617</ele>
        <time>2021-11-07T08:52:32Z</time>
      </trkpt>
      <trkpt lat="44.86879" lon="5.57023">
        <ele>1000.105</ele>
        <time>2021-11-07T08:52:37Z</time>
      </trkpt>
      <trkpt lat="44.86884" lon="5.57007">
        <ele>1001.305</ele>
        <time>2021-11-07T08:52:42Z</time>
      </trkpt>
      <trkpt lat="44.8689" lon="5.56993">
        <ele>1000.443</ele>
        <time>2021-11-07T08:52:47Z</time>
      </trkpt>
      <trkpt lat="44.86896" lon="5.56979">
        <ele>1002.039</ele>
        <time>2021-11-07T08:52:52Z</time>
      </trkpt>
      <trkpt lat="44.86902" lon="5.56966">
        <ele>1002.529</ele>
        <time>2021-11-07T08:52:57Z</time>
      </trkpt>
      <trkpt lat="44.86905" lon="5.56953">
        <ele>1002.531</ele>
        <time>2021-11-07T08:53:02Z</time>
      </trkpt>
      <trkpt lat="44.86908" lon="5.56939">
        <ele>1003.117</ele>
        <time>2021-11-07T08:53:07Z</time>
      </trkpt>
      <trkpt lat="44.86912" lon="5.56925">
        <ele>1002.741</ele>
        <time>2021-11-07T08:53:12Z</time>
      </trkpt>
      <trkpt lat="44.86915" lon="5.5691">
        <ele>1003.103</ele>
        <time>2021-11-07T08:53:17Z</time>
      </trkpt>
      <trkpt lat="44.86918" lon="5.56896">
        <ele>1002.86</ele>
        <time>2021-11-07T08:53:22Z</time>
      </trkpt>
      <trkpt lat="44.86917" lon="5.56881">
        <ele>1005.103</ele>
        <time>2021-11-07T08:53:27Z</time>
      </trkpt>
      <trkpt lat="44.86915" lon="5.56866">
        <ele>1005.555</ele>
        <time>2021-11-07T08:53:32Z</time>
      </trkpt>
      <trkpt lat="44.86913" lon="5.56853">
        <ele>1009.086</ele>
        <time>2021-11-07T08:53:37Z</time>
      </trkpt>
      <trkpt lat="44.86913" lon="5.56836">
        <ele>1010.049</ele>
        <time>2021-11-07T08:53:42Z</time>
      </trkpt>
      <trkpt lat="44.86916" lon="5.56822">
        <ele>1011.116</ele>
        <time>2021-11-07T08:53:47Z</time>
      </trkpt>
      <trkpt lat="44.8692" lon="5.56805">
        <ele>1011.527</ele>
        <time>2021-11-07T08:53:52Z</time>
      </trkpt>
      <trkpt lat="44.8692" lon="5.56788">
        <ele>1013.08</ele>
        <time>2021-11-07T08:53:57Z</time>
      </trkpt>
      <trkpt lat="44.8692" lon="5.56773">
        <ele>1012.088</ele>
        <time>2021-11-07T08:54:02Z</time>
      </trkpt>
      <trkpt lat="44.8692" lon="5.5676">
        <ele>1013.394</ele>
        <time>2021-11-07T08:54:07Z</time>
      </trkpt>
      <trkpt lat="44.86917" lon="5.56745">
        <ele>1012.554</ele>
        <time>2021-11-07T08:54:12Z</time>
      </trkpt>
      <trkpt lat="44.86915" lon="5.5673">
        <ele>1012.625</ele>
        <time>2021-11-07T08:54:17Z</time>
      </trkpt>
      <trkpt lat="44.86914" lon="5.56716">
        <ele>1013.533</ele>
        <time>2021-11-07T08:54:22Z</time>
      </trkpt>
      <trkpt lat="44.86912" lon="5.56702">
        <ele>1015.561</ele>
        <time>2021-11-07T08:54:27Z</time>
      </trkpt>
      <trkpt lat="44.86908" lon="5.56688">
        <ele>1015.851</ele>
        <time>2021-11-07T08:54:32Z</time>
      </trkpt>
      <trkpt lat="44.86902" lon="5.56676">
        <ele>1017.566</ele>
        <time>2021-11-07T08:54:37Z</time>
      </trkpt>
      <trkpt lat="44.86897" lon="5.56666">
        <ele>1018.442</ele>
        <time>2021-11-07T08:54:42Z</time>
      </trkpt>
      <trkpt lat="44.8689" lon="5.56657">
        <ele>1019.946</ele>
        <time>2021-11-07T08:54:47Z</time>
      </trkpt>
      <trkpt lat="44.86882" lon="5.56651">
        <ele>1022.303</ele>
        <time>2021-11-07T08:54:52Z</time>
      </trkpt>
      <trkpt lat="44.86873" lon="5.56645">
        <ele>1023.673</ele>
        <time>2021-11-07T08:54:57Z</time>
      </trkpt>
      <trkpt lat="44.86867" lon="5.56636">
        <ele>1024.635</ele>
        <time>2021-11-07T08:55:02Z</time>
      </trkpt>
      <trkpt lat="44.86862" lon="5.56627">
        <ele>1024.243</ele>
        <time>2021-11-07T08:55:07Z</time>
      </trkpt>
      <trkpt lat="44.86858" lon="5.56618">
        <ele>1024.435</ele>
        <time>2021-11-07T08:55:12Z</time>
      </trkpt>
      <trkpt lat="44.86854" lon="5.5661">
        <ele>1025.239</ele>
        <time>2021-11-07T08:55:17Z</time>
      </trkpt>
      <trkpt lat="44.86847" lon="5.56603">
        <ele>1025.558</ele>
        <time>2021-11-07T08:55:22Z</time>
      </trkpt>
      <trkpt lat="44.8684" lon="5.56597">
        <ele>1027.204</ele>
        <time>2021-11-07T08:55:27Z</time>
      </trkpt>
      <trkpt lat="44.86835" lon="5.56595">
        <ele>1028.235</ele>
        <time>2021-11-07T08:55:32Z</time>
      </trkpt>
      <trkpt lat="44.86837" lon="5.56594">
        <ele>1028.43</ele>
        <time>2021-11-07T08:55:37Z</time>
      </trkpt>
      <trkpt lat="44.86837" lon="5.56593">
        <ele>1028.578</ele>
        <time>2021-11-07T08:55:42Z</time>
      </trkpt>
      <trkpt lat="44.86837" lon="5.56593">
        <ele>1028.581</ele>
        <time>2021-11-07T08:55:47Z</time>
      </trkpt>
      <trkpt lat="44.86837" lon="5.56593">
        <ele>1028.582</ele>
        <time>2021-11-07T08:55:52Z</time>
      </trkpt>
      <trkpt lat="44.86837" lon="5.56593">
        <ele>1028.59</ele>
        <time>2021-11-07T08:55:57Z</time>
      </trkpt>
      <trkpt lat="44.86831" lon="5.56594">
        <ele>1030.905</ele>
        <time>2021-11-07T08:56:02Z</time>
      </trkpt>
      <trkpt lat="44.86821" lon="5.56595">
        <ele>1032.848</ele>
        <time>2021-11-07T08:56:07Z</time>
      </trkpt>
      <trkpt lat="44.86807" lon="5.56593">
        <ele>1035.218</ele>
        <time>2021-11-07T08:56:12Z</time>
      </trkpt>
      <trkpt lat="44.86795" lon="5.56588">
        <ele>1035.089</ele>
        <time>2021-11-07T08:56:17Z</time>
      </trkpt>
      <trkpt lat="44.86781" lon="5.56583">
        <ele>1034.737</ele>
        <time>2021-11-07T08:56:22Z</time>
      </trkpt>
      <trkpt lat="44.86769" lon="5.56576">
        <ele>1037.746</ele>
        <time>2021-11-07T08:56:27Z</time>
      </trkpt>
      <trkpt lat="44.86758" lon="5.56569">
        <ele>1038.875</ele>
        <time>2021-11-07T08:56:32Z</time>
      </trkpt>
      <trkpt lat="44.86747" lon="5.56562">
        <ele>1039.798</ele>
        <time>2021-11-07T08:56:37Z</time>
      </trkpt>
      <trkpt lat="44.86736" lon="5.56555">
        <ele>1041.053</ele>
        <time>2021-11-07T08:56:42Z</time>
      </trkpt>
      <trkpt lat="44.86726" lon="5.56546">
        <ele>1041.835</ele>
        <time>2021-11-07T08:56:47Z</time>
      </trkpt>
      <trkpt lat="44.86717" lon="5.56535">
        <ele>1043.219</ele>
        <time>2021-11-07T08:56:52Z</time>
      </trkpt>
      <trkpt lat="44.86708" lon="5.56522">
        <ele>1044.613</ele>
        <time>2021-11-07T08:56:57Z</time>
      </trkpt>
      <trkpt lat="44.86702" lon="5.56507">
        <ele>1045.117</ele>
        <time>2021-11-07T08:57:02Z</time>
      </trkpt>
      <trkpt lat="44.86697" lon="5.56494">
        <ele>1046.602</ele>
        <time>2021-11-07T08:57:07Z</time>
      </trkpt>
      <trkpt lat="44.86693" lon="5.56479">
        <ele>1046.106</ele>
        <time>2021-11-07T08:57:12Z</time>
      </trkpt>
      <trkpt lat="44.86687" lon="5.56467">
        <ele>1045.865</ele>
        <time>2021-11-07T08:57:17Z</time>
      </trkpt>
      <trkpt lat="44.86681" lon="5.56454">
        <ele>1046.528</ele>
        <time>2021-11-07T08:57:22Z</time>
      </trkpt>
      <trkpt lat="44.86675" lon="5.56441">
        <ele>1047.113</ele>
        <time>2021-11-07T08:57:27Z</time>
      </trkpt>
      <trkpt lat="44.86666" lon="5.56432">
        <ele>1048.444</ele>
        <time>2021-11-07T08:57:32Z</time>
      </trkpt>
      <trkpt lat="44.86656" lon="5.56425">
        <ele>1049.234</ele>
        <time>2021-11-07T08:57:37Z</time>
      </trkpt>
      <trkpt lat="44.86647" lon="5.56418">
        <ele>1049.636</ele>
        <time>2021-11-07T08:57:42Z</time>
      </trkpt>
      <trkpt lat="44.86638" lon="5.56411">
        <ele>1050.179</ele>
        <time>2021-11-07T08:57:47Z</time>
      </trkpt>
      <trkpt lat="44.86628" lon="5.56405">
        <ele>1050.677</ele>
        <time>2021-11-07T08:57:52Z</time>
      </trkpt>
      <trkpt lat="44.86618" lon="5.56403">
        <ele>1052.733</ele>
        <time>2021-11-07T08:57:57Z</time>
      </trkpt>
      <trkpt lat="44.8661" lon="5.56404">
        <ele>1053.94</ele>
        <time>2021-11-07T08:58:02Z</time>
      </trkpt>
      <trkpt lat="44.86602" lon="5.56407">
        <ele>1057.941</ele>
        <time>2021-11-07T08:58:07Z</time>
      </trkpt>
      <trkpt lat="44.86592" lon="5.5641">
        <ele>1060.456</ele>
        <time>2021-11-07T08:58:12Z</time>
      </trkpt>
      <trkpt lat="44.8658" lon="5.5641">
        <ele>1059.024</ele>
        <time>2021-11-07T08:58:17Z</time>
      </trkpt>
      <trkpt lat="44.86569" lon="5.56403">
        <ele>1057.884</ele>
        <time>2021-11-07T08:58:22Z</time>
      </trkpt>
      <trkpt lat="44.86559" lon="5.56395">
        <ele>1059.195</ele>
        <time>2021-11-07T08:58:27Z</time>
      </trkpt>
      <trkpt lat="44.8655" lon="5.56385">
        <ele>1062.459</ele>
        <time>2021-11-07T08:58:32Z</time>
      </trkpt>
      <trkpt lat="44.86539" lon="5.56381">
        <ele>1062.724</ele>
        <time>2021-11-07T08:58:37Z</time>
      </trkpt>
      <trkpt lat="44.86528" lon="5.56371">
        <ele>1067.74</ele>
        <time>2021-11-07T08:58:42Z</time>
      </trkpt>
      <trkpt lat="44.86523" lon="5.56353">
        <ele>1069.526</ele>
        <time>2021-11-07T08:58:47Z</time>
      </trkpt>
      <trkpt lat="44.86518" lon="5.56339">
        <ele>1068.727</ele>
        <time>2021-11-07T08:58:52Z</time>
      </trkpt>
      <trkpt lat="44.86512" lon="5.56324">
        <ele>1066.719</ele>
        <time>2021-11-07T08:58:57Z</time>
      </trkpt>
      <trkpt lat="44.86504" lon="5.56312">
        <ele>1063.546</ele>
        <time>2021-11-07T08:59:02Z</time>
      </trkpt>
      <trkpt lat="44.86497" lon="5.56298">
        <ele>1064.63</ele>
        <time>2021-11-07T08:59:07Z</time>
      </trkpt>
      <trkpt lat="44.86492" lon="5.56284">
        <ele>1063.278</ele>
        <time>2021-11-07T08:59:12Z</time>
      </trkpt>
      <trkpt lat="44.86487" lon="5.56269">
        <ele>1063.265</ele>
        <time>2021-11-07T08:59:17Z</time>
      </trkpt>
      <trkpt lat="44.86478" lon="5.56256">
        <ele>1064.287</ele>
        <time>2021-11-07T08:59:22Z</time>
      </trkpt>
      <trkpt lat="44.86467" lon="5.56246">
        <ele>1064.848</ele>
        <time>2021-11-07T08:59:27Z</time>
      </trkpt>
      <trkpt lat="44.86455" lon="5.56241">
        <ele>1065.338</ele>
        <time>2021-11-07T08:59:32Z</time>
      </trkpt>
      <trkpt lat="44.86444" lon="5.56235">
        <ele>1066.038</ele>
        <time>2021-11-07T08:59:37Z</time>
      </trkpt>
      <trkpt lat="44.86433" lon="5.5623">
        <ele>1067.237</ele>
        <time>2021-11-07T08:59:42Z</time>
      </trkpt>
      <trkpt lat="44.86422" lon="5.56224">
        <ele>1068.066</ele>
        <time>2021-11-07T08:59:47Z</time>
      </trkpt>
      <trkpt lat="44.86411" lon="5.56215">
        <ele>1067.04</ele>
        <time>2021-11-07T08:59:52Z</time>
      </trkpt>
      <trkpt lat="44.86404" lon="5.562">
        <ele>1067.721</ele>
        <time>2021-11-07T08:59:57Z</time>
      </trkpt>
      <trkpt lat="44.86399" lon="5.56184">
        <ele>1067.766</ele>
        <time>2021-11-07T09:00:02Z</time>
      </trkpt>
      <trkpt lat="44.86394" lon="5.56169">
        <ele>1067.53</ele>
        <time>2021-11-07T09:00:07Z</time>
      </trkpt>
      <trkpt lat="44.86386" lon="5.56157">
        <ele>1067.314</ele>
        <time>2021-11-07T09:00:12Z</time>
      </trkpt>
      <trkpt lat="44.86378" lon="5.5615">
        <ele>1067.681</ele>
        <time>2021-11-07T09:00:17Z</time>
      </trkpt>
      <trkpt lat="44.8637" lon="5.56145">
        <ele>1067.762</ele>
        <time>2021-11-07T09:00:22Z</time>
      </trkpt>
      <trkpt lat="44.86361" lon="5.56138">
        <ele>1067.984</ele>
        <time>2021-11-07T09:00:27Z</time>
      </trkpt>
      <trkpt lat="44.86353" lon="5.5613">
        <ele>1067.851</ele>
        <time>2021-11-07T09:00:32Z</time>
      </trkpt>
      <trkpt lat="44.86345" lon="5.56121">
        <ele>1068.731</ele>
        <time>2021-11-07T09:00:37Z</time>
      </trkpt>
      <trkpt lat="44.86338" lon="5.56112">
        <ele>1069.556</ele>
        <time>2021-11-07T09:00:42Z</time>
      </trkpt>
      <trkpt lat="44.8633" lon="5.56103">
        <ele>1070.355</ele>
        <time>2021-11-07T09:00:47Z</time>
      </trkpt>
      <trkpt lat="44.86322" lon="5.56094">
        <ele>1071.414</ele>
        <time>2021-11-07T09:00:52Z</time>
      </trkpt>
      <trkpt lat="44.86315" lon="5.56084">
        <ele>1072.047</ele>
        <time>2021-11-07T09:00:57Z</time>
      </trkpt>
      <trkpt lat="44.86307" lon="5.56075">
        <ele>1074.129</ele>
        <time>2021-11-07T09:01:02Z</time>
      </trkpt>
      <trkpt lat="44.86299" lon="5.56066">
        <ele>1074.547</ele>
        <time>2021-11-07T09:01:07Z</time>
      </trkpt>
      <trkpt lat="44.86292" lon="5.56057">
        <ele>1075.794</ele>
        <time>2021-11-07T09:01:12Z</time>
      </trkpt>
      <trkpt lat="44.86285" lon="5.56048">
        <ele>1077.458</ele>
        <time>2021-11-07T09:01:17Z</time>
      </trkpt>
      <trkpt lat="44.86277" lon="5.5604">
        <ele>1078.68</ele>
        <time>2021-11-07T09:01:22Z</time>
      </trkpt>
      <trkpt lat="44.8627" lon="5.56031">
        <ele>1079.065</ele>
        <time>2021-11-07T09:01:27Z</time>
      </trkpt>
      <trkpt lat="44.86263" lon="5.56022">
        <ele>1080.554</ele>
        <time>2021-11-07T09:01:32Z</time>
      </trkpt>
      <trkpt lat="44.86255" lon="5.56014">
        <ele>1081.694</ele>
        <time>2021-11-07T09:01:37Z</time>
      </trkpt>
      <trkpt lat="44.86246" lon="5.56007">
        <ele>1082.253</ele>
        <time>2021-11-07T09:01:42Z</time>
      </trkpt>
      <trkpt lat="44.86239" lon="5.56">
        <ele>1082.722</ele>
        <time>2021-11-07T09:01:47Z</time>
      </trkpt>
      <trkpt lat="44.8623" lon="5.55993">
        <ele>1083.425</ele>
        <time>2021-11-07T09:01:52Z</time>
      </trkpt>
      <trkpt lat="44.86222" lon="5.55985">
        <ele>1083.605</ele>
        <time>2021-11-07T09:01:57Z</time>
      </trkpt>
      <trkpt lat="44.86214" lon="5.5598">
        <ele>1084.641</ele>
        <time>2021-11-07T09:02:02Z</time>
      </trkpt>
      <trkpt lat="44.86206" lon="5.55974">
        <ele>1085.165</ele>
        <time>2021-11-07T09:02:07Z</time>
      </trkpt>
      <trkpt lat="44.86198" lon="5.55967">
        <ele>1086.615</ele>
        <time>2021-11-07T09:02:12Z</time>
      </trkpt>
      <trkpt lat="44.86189" lon="5.55961">
        <ele>1086.942</ele>
        <time>2021-11-07T09:02:17Z</time>
      </trkpt>
      <trkpt lat="44.8618" lon="5.55954">
        <ele>1087.193</ele>
        <time>2021-11-07T09:02:22Z</time>
      </trkpt>
      <trkpt lat="44.86172" lon="5.55949">
        <ele>1087.778</ele>
        <time>2021-11-07T09:02:27Z</time>
      </trkpt>
      <trkpt lat="44.86163" lon="5.55944">
        <ele>1087.749</ele>
        <time>2021-11-07T09:02:32Z</time>
      </trkpt>
      <trkpt lat="44.86154" lon="5.55941">
        <ele>1088.995</ele>
        <time>2021-11-07T09:02:37Z</time>
      </trkpt>
      <trkpt lat="44.86146" lon="5.5594">
        <ele>1090.639</ele>
        <time>2021-11-07T09:02:42Z</time>
      </trkpt>
      <trkpt lat="44.86137" lon="5.55938">
        <ele>1091.907</ele>
        <time>2021-11-07T09:02:47Z</time>
      </trkpt>
      <trkpt lat="44.86128" lon="5.55937">
        <ele>1094.644</ele>
        <time>2021-11-07T09:02:52Z</time>
      </trkpt>
      <trkpt lat="44.86118" lon="5.55936">
        <ele>1096.378</ele>
        <time>2021-11-07T09:02:57Z</time>
      </trkpt>
      <trkpt lat="44.86108" lon="5.55935">
        <ele>1096.07</ele>
        <time>2021-11-07T09:03:02Z</time>
      </trkpt>
      <trkpt lat="44.86099" lon="5.55933">
        <ele>1096.431</ele>
        <time>2021-11-07T09:03:07Z</time>
      </trkpt>
      <trkpt lat="44.86088" lon="5.55931">
        <ele>1096.863</ele>
        <time>2021-11-07T09:03:12Z</time>
      </trkpt>
      <trkpt lat="44.86078" lon="5.55928">
        <ele>1095.786</ele>
        <time>2021-11-07T09:03:17Z</time>
      </trkpt>
      <trkpt lat="44.86069" lon="5.55927">
        <ele>1097.529</ele>
        <time>2021-11-07T09:03:22Z</time>
      </trkpt>
      <trkpt lat="44.86061" lon="5.55925">
        <ele>1097.902</ele>
        <time>2021-11-07T09:03:27Z</time>
      </trkpt>
      <trkpt lat="44.86052" lon="5.55923">
        <ele>1099.667</ele>
        <time>2021-11-07T09:03:32Z</time>
      </trkpt>
      <trkpt lat="44.86043" lon="5.55923">
        <ele>1101.029</ele>
        <time>2021-11-07T09:03:37Z</time>
      </trkpt>
      <trkpt lat="44.86033" lon="5.5592">
        <ele>1101.048</ele>
        <time>2021-11-07T09:03:42Z</time>
      </trkpt>
      <trkpt lat="44.86023" lon="5.55915">
        <ele>1100.415</ele>
        <time>2021-11-07T09:03:47Z</time>
      </trkpt>
      <trkpt lat="44.86014" lon="5.55909">
        <ele>1101.115</ele>
        <time>2021-11-07T09:03:52Z</time>
      </trkpt>
      <trkpt lat="44.86005" lon="5.55901">
        <ele>1101.864</ele>
        <time>2021-11-07T09:03:57Z</time>
      </trkpt>
      <trkpt lat="44.85997" lon="5.55893">
        <ele>1102.433</ele>
        <time>2021-11-07T09:04:02Z</time>
      </trkpt>
      <trkpt lat="44.8599" lon="5.55885">
        <ele>1103.16</ele>
        <time>2021-11-07T09:04:07Z</time>
      </trkpt>
      <trkpt lat="44.85982" lon="5.55877">
        <ele>1104.356</ele>
        <time>2021-11-07T09:04:12Z</time>
      </trkpt>
      <trkpt lat="44.85976" lon="5.55869">
        <ele>1106.581</ele>
        <time>2021-11-07T09:04:17Z</time>
      </trkpt>
      <trkpt lat="44.85969" lon="5.55863">
        <ele>1108.057</ele>
        <time>2021-11-07T09:04:22Z</time>
      </trkpt>
      <trkpt lat="44.85961" lon="5.55858">
        <ele>1110.113</ele>
        <time>2021-11-07T09:04:27Z</time>
      </trkpt>
      <trkpt lat="44.85953" lon="5.55855">
        <ele>1110.083</ele>
        <time>2021-11-07T09:04:32Z</time>
      </trkpt>
      <trkpt lat="44.85952" lon="5.55851">
        <ele>1107.859</ele>
        <time>2021-11-07T09:04:37Z</time>
      </trkpt>
      <trkpt lat="44.85952" lon="5.5585">
        <ele>1107.234</ele>
        <time>2021-11-07T09:04:42Z</time>
      </trkpt>
      <trkpt lat="44.8595" lon="5.55852">
        <ele>1106.095</ele>
        <time>2021-11-07T09:04:47Z</time>
      </trkpt>
      <trkpt lat="44.85944" lon="5.55851">
        <ele>1104.724</ele>
        <time>2021-11-07T09:04:52Z</time>
      </trkpt>
      <trkpt lat="44.85939" lon="5.55851">
        <ele>1103.11</ele>
        <time>2021-11-07T09:04:57Z</time>
      </trkpt>
      <trkpt lat="44.85935" lon="5.55853">
        <ele>1103.55</ele>
        <time>2021-11-07T09:05:02Z</time>
      </trkpt>
      <trkpt lat="44.85932" lon="5.55851">
        <ele>1103.299</ele>
        <time>2021-11-07T09:05:07Z</time>
      </trkpt>
      <trkpt lat="44.8593" lon="5.55849">
        <ele>1102.979</ele>
        <time>2021-11-07T09:05:12Z</time>
      </trkpt>
      <trkpt lat="44.85929" lon="5.55848">
        <ele>1102.984</ele>
        <time>2021-11-07T09:05:17Z</time>
      </trkpt>
      <trkpt lat="44.85929" lon="5.55848">
        <ele>1104.394</ele>
        <time>2021-11-07T09:05:22Z</time>
      </trkpt>
      <trkpt lat="44.85929" lon="5.55848">
        <ele>1104.489</ele>
        <time>2021-11-07T09:05:27Z</time>
      </trkpt>
      <trkpt lat="44.85929" lon="5.55848">
        <ele>1104.503</ele>
        <time>2021-11-07T09:05:32Z</time>
      </trkpt>
      <trkpt lat="44.85929" lon="5.55848">
        <ele>1104.504</ele>
        <time>2021-11-07T09:05:37Z</time>
      </trkpt>
      <trkpt lat="44.85929" lon="5.55848">
        <ele>1104.506</ele>
        <time>2021-11-07T09:05:42Z</time>
      </trkpt>
      <trkpt lat="44.85929" lon="5.55848">
        <ele>1104.507</ele>
        <time>2021-11-07T09:05:47Z</time>
      </trkpt>
      <trkpt lat="44.85929" lon="5.55848">
        <ele>1104.506</ele>
        <time>2021-11-07T09:05:52Z</time>
      </trkpt>
      <trkpt lat="44.85929" lon="5.55848">
        <ele>1104.496</ele>
        <time>2021-11-07T09:05:57Z</time>
      </trkpt>
      <trkpt lat="44.85929" lon="5.55848">
        <ele>1104.48</ele>
        <time>2021-11-07T09:06:02Z</time>
      </trkpt>
      <trkpt lat="44.85929" lon="5.55848">
        <ele>1104.474</ele>
        <time>2021-11-07T09:06:07Z</time>
      </trkpt>
      <trkpt lat="44.85931" lon="5.55848">
        <ele>1102.786</ele>
        <time>2021-11-07T09:06:12Z</time>
      </trkpt>
      <trkpt lat="44.85937" lon="5.5585">
        <ele>1105.988</ele>
        <time>2021-11-07T09:06:17Z</time>
      </trkpt>
      <trkpt lat="44.85941" lon="5.55848">
        <ele>1104.536</ele>
        <time>2021-11-07T09:06:22Z</time>
      </trkpt>
      <trkpt lat="44.85942" lon="5.55847">
        <ele>1106.028</ele>
        <time>2021-11-07T09:06:27Z</time>
      </trkpt>
      <trkpt lat="44.85941" lon="5.55847">
        <ele>1107.621</ele>
        <time>2021-11-07T09:06:32Z</time>
      </trkpt>
      <trkpt lat="44.85942" lon="5.55847">
        <ele>1108.183</ele>
        <time>2021-11-07T09:06:37Z</time>
      </trkpt>
      <trkpt lat="44.85946" lon="5.55848">
        <ele>1107.723</ele>
        <time>2021-11-07T09:06:42Z</time>
      </trkpt>
      <trkpt lat="44.8595" lon="5.55847">
        <ele>1111.817</ele>
        <time>2021-11-07T09:06:47Z</time>
      </trkpt>
      <trkpt lat="44.85953" lon="5.55849">
        <ele>1113.494</ele>
        <time>2021-11-07T09:06:52Z</time>
      </trkpt>
      <trkpt lat="44.85953" lon="5.55846">
        <ele>1113.36</ele>
        <time>2021-11-07T09:06:57Z</time>
      </trkpt>
      <trkpt lat="44.85953" lon="5.55845">
        <ele>1111.739</ele>
        <time>2021-11-07T09:07:02Z</time>
      </trkpt>
      <trkpt lat="44.85956" lon="5.55848">
        <ele>1112.223</ele>
        <time>2021-11-07T09:07:07Z</time>
      </trkpt>
      <trkpt lat="44.85956" lon="5.55848">
        <ele>1111.601</ele>
        <time>2021-11-07T09:07:12Z</time>
      </trkpt>
      <trkpt lat="44.85957" lon="5.55848">
        <ele>1111.411</ele>
        <time>2021-11-07T09:07:17Z</time>
      </trkpt>
      <trkpt lat="44.85958" lon="5.55848">
        <ele>1111.666</ele>
        <time>2021-11-07T09:07:22Z</time>
      </trkpt>
      <trkpt lat="44.85957" lon="5.55848">
        <ele>1110.491</ele>
        <time>2021-11-07T09:07:27Z</time>
      </trkpt>
      <trkpt lat="44.85957" lon="5.55848">
        <ele>1110.453</ele>
        <time>2021-11-07T09:07:32Z</time>
      </trkpt>
      <trkpt lat="44.85957" lon="5.55848">
        <ele>1109.954</ele>
        <time>2021-11-07T09:07:37Z</time>
      </trkpt>
      <trkpt lat="44.85955" lon="5.55847">
        <ele>1107.354</ele>
        <time>2021-11-07T09:07:42Z</time>
      </trkpt>
      <trkpt lat="44.85954" lon="5.55847">
        <ele>1106.642</ele>
        <time>2021-11-07T09:07:47Z</time>
      </trkpt>
      <trkpt lat="44.85954" lon="5.55846">
        <ele>1106.246</ele>
        <time>2021-11-07T09:07:52Z</time>
      </trkpt>
      <trkpt lat="44.85953" lon="5.55846">
        <ele>1106.088</ele>
        <time>2021-11-07T09:07:57Z</time>
      </trkpt>
      <trkpt lat="44.85954" lon="5.55846">
        <ele>1106.82</ele>
        <time>2021-11-07T09:08:02Z</time>
      </trkpt>
      <trkpt lat="44.85956" lon="5.55844">
        <ele>1107.668</ele>
        <time>2021-11-07T09:08:07Z</time>
      </trkpt>
      <trkpt lat="44.85956" lon="5.55845">
        <ele>1106.967</ele>
        <time>2021-11-07T09:08:12Z</time>
      </trkpt>
      <trkpt lat="44.85956" lon="5.55846">
        <ele>1106.769</ele>
        <time>2021-11-07T09:08:17Z</time>
      </trkpt>
      <trkpt lat="44.85956" lon="5.55849">
        <ele>1108.148</ele>
        <time>2021-11-07T09:08:22Z</time>
      </trkpt>
      <trkpt lat="44.85954" lon="5.5585">
        <ele>1108.397</ele>
        <time>2021-11-07T09:08:27Z</time>
      </trkpt>
      <trkpt lat="44.85954" lon="5.55849">
        <ele>1108.659</ele>
        <time>2021-11-07T09:08:32Z</time>
      </trkpt>
      <trkpt lat="44.85954" lon="5.55849">
        <ele>1107.683</ele>
        <time>2021-11-07T09:08:37Z</time>
      </trkpt>
      <trkpt lat="44.85954" lon="5.55849">
        <ele>1108.097</ele>
        <time>2021-11-07T09:08:42Z</time>
      </trkpt>
      <trkpt lat="44.85955" lon="5.55846">
        <ele>1108.043</ele>
        <time>2021-11-07T09:08:47Z</time>
      </trkpt>
      <trkpt lat="44.85963" lon="5.55843">
        <ele>1110.511</ele>
        <time>2021-11-07T09:08:52Z</time>
      </trkpt>
      <trkpt lat="44.85974" lon="5.55839">
        <ele>1111.544</ele>
        <time>2021-11-07T09:08:57Z</time>
      </trkpt>
      <trkpt lat="44.85982" lon="5.55831">
        <ele>1112.94</ele>
        <time>2021-11-07T09:09:02Z</time>
      </trkpt>
      <trkpt lat="44.85989" lon="5.55829">
        <ele>1114.082</ele>
        <time>2021-11-07T09:09:07Z</time>
      </trkpt>
      <trkpt lat="44.85993" lon="5.55826">
        <ele>1114.141</ele>
        <time>2021-11-07T09:09:12Z</time>
      </trkpt>
      <trkpt lat="44.85998" lon="5.55822">
        <ele>1114.291</ele>
        <time>2021-11-07T09:09:17Z</time>
      </trkpt>
      <trkpt lat="44.86004" lon="5.5582">
        <ele>1115.794</ele>
        <time>2021-11-07T09:09:22Z</time>
      </trkpt>
      <trkpt lat="44.86009" lon="5.55819">
        <ele>1116.376</ele>
        <time>2021-11-07T09:09:27Z</time>
      </trkpt>
      <trkpt lat="44.86005" lon="5.55816">
        <ele>1115.413</ele>
        <time>2021-11-07T09:09:32Z</time>
      </trkpt>
      <trkpt lat="44.86004" lon="5.55817">
        <ele>1115.799</ele>
        <time>2021-11-07T09:09:37Z</time>
      </trkpt>
      <trkpt lat="44.86003" lon="5.55818">
        <ele>1116.536</ele>
        <time>2021-11-07T09:09:42Z</time>
      </trkpt>
      <trkpt lat="44.86002" lon="5.55819">
        <ele>1116.442</ele>
        <time>2021-11-07T09:09:47Z</time>
      </trkpt>
      <trkpt lat="44.86002" lon="5.55819">
        <ele>1115.442</ele>
        <time>2021-11-07T09:09:52Z</time>
      </trkpt>
      <trkpt lat="44.86002" lon="5.55819">
        <ele>1115.798</ele>
        <time>2021-11-07T09:09:57Z</time>
      </trkpt>
      <trkpt lat="44.86002" lon="5.55819">
        <ele>1115.894</ele>
        <time>2021-11-07T09:10:02Z</time>
      </trkpt>
      <trkpt lat="44.86002" lon="5.55819">
        <ele>1115.893</ele>
        <time>2021-11-07T09:10:07Z</time>
      </trkpt>
      <trkpt lat="44.86002" lon="5.55819">
        <ele>1115.889</ele>
        <time>2021-11-07T09:10:12Z</time>
      </trkpt>
      <trkpt lat="44.86002" lon="5.55819">
        <ele>1115.884</ele>
        <time>2021-11-07T09:10:17Z</time>
      </trkpt>
      <trkpt lat="44.86002" lon="5.55819">
        <ele>1115.879</ele>
        <time>2021-11-07T09:10:22Z</time>
      </trkpt>
      <trkpt lat="44.86002" lon="5.55819">
        <ele>1115.873</ele>
        <time>2021-11-07T09:10:27Z</time>
      </trkpt>
      <trkpt lat="44.86002" lon="5.55819">
        <ele>1115.859</ele>
        <time>2021-11-07T09:10:32Z</time>
      </trkpt>
      <trkpt lat="44.86002" lon="5.55819">
        <ele>1115.845</ele>
        <time>2021-11-07T09:10:37Z</time>
      </trkpt>
      <trkpt lat="44.86001" lon="5.55819">
        <ele>1115.837</ele>
        <time>2021-11-07T09:10:42Z</time>
      </trkpt>
      <trkpt lat="44.86001" lon="5.55819">
        <ele>1115.836</ele>
        <time>2021-11-07T09:10:47Z</time>
      </trkpt>
      <trkpt lat="44.86001" lon="5.55819">
        <ele>1115.833</ele>
        <time>2021-11-07T09:10:52Z</time>
      </trkpt>
      <trkpt lat="44.86001" lon="5.55819">
        <ele>1115.86</ele>
        <time>2021-11-07T09:10:57Z</time>
      </trkpt>
      <trkpt lat="44.86001" lon="5.55819">
        <ele>1115.873</ele>
        <time>2021-11-07T09:11:02Z</time>
      </trkpt>
      <trkpt lat="44.86001" lon="5.55819">
        <ele>1115.867</ele>
        <time>2021-11-07T09:11:07Z</time>
      </trkpt>
      <trkpt lat="44.86001" lon="5.55819">
        <ele>1115.891</ele>
        <time>2021-11-07T09:11:12Z</time>
      </trkpt>
      <trkpt lat="44.86001" lon="5.55819">
        <ele>1115.923</ele>
        <time>2021-11-07T09:11:17Z</time>
      </trkpt>
      <trkpt lat="44.86001" lon="5.55819">
        <ele>1115.929</ele>
        <time>2021-11-07T09:11:22Z</time>
      </trkpt>
      <trkpt lat="44.86001" lon="5.55819">
        <ele>1115.933</ele>
        <time>2021-11-07T09:11:27Z</time>
      </trkpt>
      <trkpt lat="44.86001" lon="5.55819">
        <ele>1115.937</ele>
        <time>2021-11-07T09:11:32Z</time>
      </trkpt>
      <trkpt lat="44.86001" lon="5.55819">
        <ele>1115.946</ele>
        <time>2021-11-07T09:11:37Z</time>
      </trkpt>
      <trkpt lat="44.86001" lon="5.55819">
        <ele>1115.888</ele>
        <time>2021-11-07T09:11:42Z</time>
      </trkpt>
      <trkpt lat="44.86001" lon="5.55817">
        <ele>1115.935</ele>
        <time>2021-11-07T09:11:47Z</time>
      </trkpt>
      <trkpt lat="44.86008" lon="5.55819">
        <ele>1117.089</ele>
        <time>2021-11-07T09:11:52Z</time>
      </trkpt>
      <trkpt lat="44.86017" lon="5.55819">
        <ele>1118.721</ele>
        <time>2021-11-07T09:11:57Z</time>
      </trkpt>
      <trkpt lat="44.86027" lon="5.5582">
        <ele>1120.565</ele>
        <time>2021-11-07T09:12:02Z</time>
      </trkpt>
      <trkpt lat="44.86035" lon="5.55824">
        <ele>1121.593</ele>
        <time>2021-11-07T09:12:07Z</time>
      </trkpt>
      <trkpt lat="44.86045" lon="5.55826">
        <ele>1122.825</ele>
        <time>2021-11-07T09:12:12Z</time>
      </trkpt>
      <trkpt lat="44.86054" lon="5.55828">
        <ele>1123.416</ele>
        <time>2021-11-07T09:12:17Z</time>
      </trkpt>
      <trkpt lat="44.86063" lon="5.55829">
        <ele>1123.281</ele>
        <time>2021-11-07T09:12:22Z</time>
      </trkpt>
      <trkpt lat="44.86071" lon="5.55831">
        <ele>1124.224</ele>
        <time>2021-11-07T09:12:27Z</time>
      </trkpt>
      <trkpt lat="44.8608" lon="5.55832">
        <ele>1124.793</ele>
        <time>2021-11-07T09:12:32Z</time>
      </trkpt>
      <trkpt lat="44.86087" lon="5.55833">
        <ele>1126.379</ele>
        <time>2021-11-07T09:12:37Z</time>
      </trkpt>
      <trkpt lat="44.86093" lon="5.55832">
        <ele>1127.558</ele>
        <time>2021-11-07T09:12:42Z</time>
      </trkpt>
      <trkpt lat="44.861" lon="5.55828">
        <ele>1127.331</ele>
        <time>2021-11-07T09:12:47Z</time>
      </trkpt>
      <trkpt lat="44.86108" lon="5.55823">
        <ele>1128.677</ele>
        <time>2021-11-07T09:12:52Z</time>
      </trkpt>
      <trkpt lat="44.86117" lon="5.55819">
        <ele>1129.678</ele>
        <time>2021-11-07T09:12:57Z</time>
      </trkpt>
      <trkpt lat="44.86124" lon="5.55813">
        <ele>1130.213</ele>
        <time>2021-11-07T09:13:02Z</time>
      </trkpt>
      <trkpt lat="44.8613" lon="5.55806">
        <ele>1129.97</ele>
        <time>2021-11-07T09:13:07Z</time>
      </trkpt>
      <trkpt lat="44.86133" lon="5.55796">
        <ele>1129.702</ele>
        <time>2021-11-07T09:13:12Z</time>
      </trkpt>
      <trkpt lat="44.86137" lon="5.55786">
        <ele>1128.833</ele>
        <time>2021-11-07T09:13:17Z</time>
      </trkpt>
      <trkpt lat="44.8614" lon="5.55776">
        <ele>1128.695</ele>
        <time>2021-11-07T09:13:22Z</time>
      </trkpt>
      <trkpt lat="44.86142" lon="5.55765">
        <ele>1130.064</ele>
        <time>2021-11-07T09:13:27Z</time>
      </trkpt>
      <trkpt lat="44.86144" lon="5.55753">
        <ele>1129.688</ele>
        <time>2021-11-07T09:13:32Z</time>
      </trkpt>
      <trkpt lat="44.86146" lon="5.55743">
        <ele>1129.856</ele>
        <time>2021-11-07T09:13:37Z</time>
      </trkpt>
      <trkpt lat="44.86147" lon="5.55731">
        <ele>1131.943</ele>
        <time>2021-11-07T09:13:42Z</time>
      </trkpt>
      <trkpt lat="44.86147" lon="5.55719">
        <ele>1133.953</ele>
        <time>2021-11-07T09:13:47Z</time>
      </trkpt>
      <trkpt lat="44.86147" lon="5.55707">
        <ele>1135.428</ele>
        <time>2021-11-07T09:13:52Z</time>
      </trkpt>
      <trkpt lat="44.86149" lon="5.55696">
        <ele>1136.237</ele>
        <time>2021-11-07T09:13:57Z</time>
      </trkpt>
      <trkpt lat="44.86151" lon="5.55684">
        <ele>1135.864</ele>
        <time>2021-11-07T09:14:02Z</time>
      </trkpt>
      <trkpt lat="44.86156" lon="5.55673">
        <ele>1136.054</ele>
        <time>2021-11-07T09:14:07Z</time>
      </trkpt>
      <trkpt lat="44.86163" lon="5.55666">
        <ele>1138.916</ele>
        <time>2021-11-07T09:14:12Z</time>
      </trkpt>
      <trkpt lat="44.86171" lon="5.55663">
        <ele>1140.696</ele>
        <time>2021-11-07T09:14:17Z</time>
      </trkpt>
      <trkpt lat="44.86179" lon="5.55663">
        <ele>1142.002</ele>
        <time>2021-11-07T09:14:22Z</time>
      </trkpt>
      <trkpt lat="44.86187" lon="5.55665">
        <ele>1143.489</ele>
        <time>2021-11-07T09:14:27Z</time>
      </trkpt>
      <trkpt lat="44.86196" lon="5.55668">
        <ele>1144.966</ele>
        <time>2021-11-07T09:14:32Z</time>
      </trkpt>
      <trkpt lat="44.86204" lon="5.55671">
        <ele>1147.454</ele>
        <time>2021-11-07T09:14:37Z</time>
      </trkpt>
      <trkpt lat="44.86212" lon="5.55674">
        <ele>1149.215</ele>
        <time>2021-11-07T09:14:42Z</time>
      </trkpt>
      <trkpt lat="44.8622" lon="5.55678">
        <ele>1150.474</ele>
        <time>2021-11-07T09:14:47Z</time>
      </trkpt>
      <trkpt lat="44.86227" lon="5.55683">
        <ele>1151.668</ele>
        <time>2021-11-07T09:14:52Z</time>
      </trkpt>
      <trkpt lat="44.86234" lon="5.55688">
        <ele>1153.641</ele>
        <time>2021-11-07T09:14:57Z</time>
      </trkpt>
      <trkpt lat="44.86242" lon="5.55694">
        <ele>1154.155</ele>
        <time>2021-11-07T09:15:02Z</time>
      </trkpt>
      <trkpt lat="44.86248" lon="5.557">
        <ele>1155.628</ele>
        <time>2021-11-07T09:15:07Z</time>
      </trkpt>
      <trkpt lat="44.86255" lon="5.55706">
        <ele>1155.988</ele>
        <time>2021-11-07T09:15:12Z</time>
      </trkpt>
      <trkpt lat="44.86262" lon="5.55712">
        <ele>1156.622</ele>
        <time>2021-11-07T09:15:17Z</time>
      </trkpt>
      <trkpt lat="44.86269" lon="5.55719">
        <ele>1157.892</ele>
        <time>2021-11-07T09:15:22Z</time>
      </trkpt>
      <trkpt lat="44.86276" lon="5.55725">
        <ele>1159.202</ele>
        <time>2021-11-07T09:15:27Z</time>
      </trkpt>
      <trkpt lat="44.86283" lon="5.55733">
        <ele>1160.717</ele>
        <time>2021-11-07T09:15:32Z</time>
      </trkpt>
      <trkpt lat="44.8629" lon="5.55742">
        <ele>1162.796</ele>
        <time>2021-11-07T09:15:37Z</time>
      </trkpt>
      <trkpt lat="44.86298" lon="5.5575">
        <ele>1163.964</ele>
        <time>2021-11-07T09:15:42Z</time>
      </trkpt>
      <trkpt lat="44.86304" lon="5.55759">
        <ele>1165.255</ele>
        <time>2021-11-07T09:15:47Z</time>
      </trkpt>
      <trkpt lat="44.86312" lon="5.55766">
        <ele>1165.352</ele>
        <time>2021-11-07T09:15:52Z</time>
      </trkpt>
      <trkpt lat="44.86318" lon="5.55774">
        <ele>1166.287</ele>
        <time>2021-11-07T09:15:57Z</time>
      </trkpt>
      <trkpt lat="44.86323" lon="5.55781">
        <ele>1167.382</ele>
        <time>2021-11-07T09:16:02Z</time>
      </trkpt>
      <trkpt lat="44.86329" lon="5.55788">
        <ele>1168.266</ele>
        <time>2021-11-07T09:16:07Z</time>
      </trkpt>
      <trkpt lat="44.86334" lon="5.55797">
        <ele>1169.334</ele>
        <time>2021-11-07T09:16:12Z</time>
      </trkpt>
      <trkpt lat="44.86341" lon="5.55804">
        <ele>1169.832</ele>
        <time>2021-11-07T09:16:17Z</time>
      </trkpt>
      <trkpt lat="44.86346" lon="5.55812">
        <ele>1171.209</ele>
        <time>2021-11-07T09:16:22Z</time>
      </trkpt>
      <trkpt lat="44.86352" lon="5.55821">
        <ele>1172.248</ele>
        <time>2021-11-07T09:16:27Z</time>
      </trkpt>
      <trkpt lat="44.86358" lon="5.55829">
        <ele>1173.382</ele>
        <time>2021-11-07T09:16:32Z</time>
      </trkpt>
      <trkpt lat="44.86363" lon="5.55838">
        <ele>1174.447</ele>
        <time>2021-11-07T09:16:37Z</time>
      </trkpt>
      <trkpt lat="44.86369" lon="5.55846">
        <ele>1175.008</ele>
        <time>2021-11-07T09:16:42Z</time>
      </trkpt>
      <trkpt lat="44.86375" lon="5.55855">
        <ele>1176.08</ele>
        <time>2021-11-07T09:16:47Z</time>
      </trkpt>
      <trkpt lat="44.8638" lon="5.55863">
        <ele>1177.558</ele>
        <time>2021-11-07T09:16:52Z</time>
      </trkpt>
      <trkpt lat="44.86386" lon="5.55871">
        <ele>1177.93</ele>
        <time>2021-11-07T09:16:57Z</time>
      </trkpt>
      <trkpt lat="44.86394" lon="5.55875">
        <ele>1178.013</ele>
        <time>2021-11-07T09:17:02Z</time>
      </trkpt>
      <trkpt lat="44.86403" lon="5.55877">
        <ele>1178.091</ele>
        <time>2021-11-07T09:17:07Z</time>
      </trkpt>
      <trkpt lat="44.86413" lon="5.5588">
        <ele>1178.664</ele>
        <time>2021-11-07T09:17:12Z</time>
      </trkpt>
      <trkpt lat="44.86421" lon="5.55882">
        <ele>1178.195</ele>
        <time>2021-11-07T09:17:17Z</time>
      </trkpt>
      <trkpt lat="44.8643" lon="5.55882">
        <ele>1178.735</ele>
        <time>2021-11-07T09:17:22Z</time>
      </trkpt>
      <trkpt lat="44.86439" lon="5.55883">
        <ele>1178.1</ele>
        <time>2021-11-07T09:17:27Z</time>
      </trkpt>
      <trkpt lat="44.86452" lon="5.55884">
        <ele>1177.637</ele>
        <time>2021-11-07T09:17:32Z</time>
      </trkpt>
      <trkpt lat="44.86468" lon="5.55887">
        <ele>1176.76</ele>
        <time>2021-11-07T09:17:37Z</time>
      </trkpt>
      <trkpt lat="44.86486" lon="5.55887">
        <ele>1175.801</ele>
        <time>2021-11-07T09:17:42Z</time>
      </trkpt>
      <trkpt lat="44.86496" lon="5.5588">
        <ele>1172.636</ele>
        <time>2021-11-07T09:17:47Z</time>
      </trkpt>
      <trkpt lat="44.865" lon="5.55874">
        <ele>1171.753</ele>
        <time>2021-11-07T09:17:52Z</time>
      </trkpt>
      <trkpt lat="44.86508" lon="5.55868">
        <ele>1170.826</ele>
        <time>2021-11-07T09:17:57Z</time>
      </trkpt>
      <trkpt lat="44.8651" lon="5.5587">
        <ele>1171.012</ele>
        <time>2021-11-07T09:18:02Z</time>
      </trkpt>
      <trkpt lat="44.8651" lon="5.5587">
        <ele>1170.751</ele>
        <time>2021-11-07T09:18:07Z</time>
      </trkpt>
      <trkpt lat="44.8651" lon="5.5587">
        <ele>1170.786</ele>
        <time>2021-11-07T09:18:12Z</time>
      </trkpt>
      <trkpt lat="44.8651" lon="5.5587">
        <ele>1170.793</ele>
        <time>2021-11-07T09:18:17Z</time>
      </trkpt>
      <trkpt lat="44.8651" lon="5.5587">
        <ele>1170.805</ele>
        <time>2021-11-07T09:18:22Z</time>
      </trkpt>
      <trkpt lat="44.8651" lon="5.5587">
        <ele>1170.807</ele>
        <time>2021-11-07T09:18:27Z</time>
      </trkpt>
      <trkpt lat="44.8651" lon="5.5587">
        <ele>1170.815</ele>
        <time>2021-11-07T09:18:32Z</time>
      </trkpt>
      <trkpt lat="44.8651" lon="5.5587">
        <ele>1170.819</ele>
        <time>2021-11-07T09:18:37Z</time>
      </trkpt>
      <trkpt lat="44.8651" lon="5.5587">
        <ele>1170.823</ele>
        <time>2021-11-07T09:18:42Z</time>
      </trkpt>
      <trkpt lat="44.8651" lon="5.55868">
        <ele>1170.99</ele>
        <time>2021-11-07T09:18:47Z</time>
      </trkpt>
      <trkpt lat="44.86508" lon="5.55869">
        <ele>1168.18</ele>
        <time>2021-11-07T09:18:52Z</time>
      </trkpt>
      <trkpt lat="44.86509" lon="5.55869">
        <ele>1167.688</ele>
        <time>2021-11-07T09:18:57Z</time>
      </trkpt>
      <trkpt lat="44.86509" lon="5.55869">
        <ele>1167.291</ele>
        <time>2021-11-07T09:19:02Z</time>
      </trkpt>
      <trkpt lat="44.86509" lon="5.55869">
        <ele>1167.38</ele>
        <time>2021-11-07T09:19:07Z</time>
      </trkpt>
      <trkpt lat="44.86509" lon="5.55869">
        <ele>1167.377</ele>
        <time>2021-11-07T09:19:12Z</time>
      </trkpt>
      <trkpt lat="44.86509" lon="5.55869">
        <ele>1167.365</ele>
        <time>2021-11-07T09:19:17Z</time>
      </trkpt>
      <trkpt lat="44.86509" lon="5.55869">
        <ele>1167.345</ele>
        <time>2021-11-07T09:19:22Z</time>
      </trkpt>
      <trkpt lat="44.8651" lon="5.5587">
        <ele>1167.933</ele>
        <time>2021-11-07T09:19:27Z</time>
      </trkpt>
      <trkpt lat="44.86511" lon="5.55873">
        <ele>1169.541</ele>
        <time>2021-11-07T09:19:32Z</time>
      </trkpt>
      <trkpt lat="44.86514" lon="5.55877">
        <ele>1172.265</ele>
        <time>2021-11-07T09:19:37Z</time>
      </trkpt>
      <trkpt lat="44.86524" lon="5.55907">
        <ele>1169.174</ele>
        <time>2021-11-07T09:19:42Z</time>
      </trkpt>
      <trkpt lat="44.86537" lon="5.5593">
        <ele>1167.09</ele>
        <time>2021-11-07T09:19:47Z</time>
      </trkpt>
      <trkpt lat="44.86538" lon="5.55931">
        <ele>1164.21</ele>
        <time>2021-11-07T09:19:52Z</time>
      </trkpt>
      <trkpt lat="44.86539" lon="5.55932">
        <ele>1162.396</ele>
        <time>2021-11-07T09:19:57Z</time>
      </trkpt>
      <trkpt lat="44.86542" lon="5.55941">
        <ele>1157.927</ele>
        <time>2021-11-07T09:20:02Z</time>
      </trkpt>
      <trkpt lat="44.86555" lon="5.55957">
        <ele>1156.3</ele>
        <time>2021-11-07T09:20:07Z</time>
      </trkpt>
      <trkpt lat="44.86568" lon="5.55979">
        <ele>1155.479</ele>
        <time>2021-11-07T09:20:12Z</time>
      </trkpt>
      <trkpt lat="44.86583" lon="5.55997">
        <ele>1154.291</ele>
        <time>2021-11-07T09:20:17Z</time>
      </trkpt>
      <trkpt lat="44.86592" lon="5.55995">
        <ele>1153.908</ele>
        <time>2021-11-07T09:20:22Z</time>
      </trkpt>
      <trkpt lat="44.86595" lon="5.55995">
        <ele>1154.172</ele>
        <time>2021-11-07T09:20:27Z</time>
      </trkpt>
      <trkpt lat="44.86611" lon="5.55988">
        <ele>1152.614</ele>
        <time>2021-11-07T09:20:32Z</time>
      </trkpt>
      <trkpt lat="44.86632" lon="5.55969">
        <ele>1150.62</ele>
        <time>2021-11-07T09:20:37Z</time>
      </trkpt>
      <trkpt lat="44.86646" lon="5.55925">
        <ele>1147.448</ele>
        <time>2021-11-07T09:20:42Z</time>
      </trkpt>
      <trkpt lat="44.86658" lon="5.55882">
        <ele>1144.427</ele>
        <time>2021-11-07T09:20:47Z</time>
      </trkpt>
      <trkpt lat="44.86668" lon="5.55872">
        <ele>1143.242</ele>
        <time>2021-11-07T09:20:52Z</time>
      </trkpt>
      <trkpt lat="44.86668" lon="5.55872">
        <ele>1142.934</ele>
        <time>2021-11-07T09:20:57Z</time>
      </trkpt>
      <trkpt lat="44.86669" lon="5.55871">
        <ele>1142.919</ele>
        <time>2021-11-07T09:21:02Z</time>
      </trkpt>
      <trkpt lat="44.86682" lon="5.5588">
        <ele>1138.351</ele>
        <time>2021-11-07T09:21:07Z</time>
      </trkpt>
      <trkpt lat="44.86706" lon="5.55884">
        <ele>1135.809</ele>
        <time>2021-11-07T09:21:12Z</time>
      </trkpt>
      <trkpt lat="44.86728" lon="5.55886">
        <ele>1134.169</ele>
        <time>2021-11-07T09:21:17Z</time>
      </trkpt>
      <trkpt lat="44.86756" lon="5.55889">
        <ele>1129.937</ele>
        <time>2021-11-07T09:21:22Z</time>
      </trkpt>
      <trkpt lat="44.86783" lon="5.55889">
        <ele>1126.127</ele>
        <time>2021-11-07T09:21:27Z</time>
      </trkpt>
      <trkpt lat="44.86807" lon="5.55893">
        <ele>1123.487</ele>
        <time>2021-11-07T09:21:32Z</time>
      </trkpt>
      <trkpt lat="44.86822" lon="5.5588">
        <ele>1117.525</ele>
        <time>2021-11-07T09:21:37Z</time>
      </trkpt>
      <trkpt lat="44.86828" lon="5.55843">
        <ele>1115.56</ele>
        <time>2021-11-07T09:21:42Z</time>
      </trkpt>
      <trkpt lat="44.86833" lon="5.55809">
        <ele>1111.962</ele>
        <time>2021-11-07T09:21:47Z</time>
      </trkpt>
      <trkpt lat="44.86837" lon="5.55797">
        <ele>1105.801</ele>
        <time>2021-11-07T09:21:52Z</time>
      </trkpt>
      <trkpt lat="44.86843" lon="5.55786">
        <ele>1105.777</ele>
        <time>2021-11-07T09:21:57Z</time>
      </trkpt>
      <trkpt lat="44.86846" lon="5.55784">
        <ele>1106.049</ele>
        <time>2021-11-07T09:22:02Z</time>
      </trkpt>
      <trkpt lat="44.86847" lon="5.55783">
        <ele>1105.727</ele>
        <time>2021-11-07T09:22:07Z</time>
      </trkpt>
      <trkpt lat="44.86849" lon="5.55785">
        <ele>1107.089</ele>
        <time>2021-11-07T09:22:12Z</time>
      </trkpt>
      <trkpt lat="44.8685" lon="5.55791">
        <ele>1105.312</ele>
        <time>2021-11-07T09:22:17Z</time>
      </trkpt>
      <trkpt lat="44.86851" lon="5.55795">
        <ele>1105.751</ele>
        <time>2021-11-07T09:22:22Z</time>
      </trkpt>
      <trkpt lat="44.86855" lon="5.55797">
        <ele>1106.618</ele>
        <time>2021-11-07T09:22:27Z</time>
      </trkpt>
      <trkpt lat="44.86857" lon="5.55799">
        <ele>1106.211</ele>
        <time>2021-11-07T09:22:32Z</time>
      </trkpt>
      <trkpt lat="44.86857" lon="5.55805">
        <ele>1104.458</ele>
        <time>2021-11-07T09:22:37Z</time>
      </trkpt>
      <trkpt lat="44.86857" lon="5.55805">
        <ele>1105.114</ele>
        <time>2021-11-07T09:22:42Z</time>
      </trkpt>
      <trkpt lat="44.86857" lon="5.55805">
        <ele>1105.406</ele>
        <time>2021-11-07T09:22:47Z</time>
      </trkpt>
      <trkpt lat="44.86857" lon="5.55806">
        <ele>1105.552</ele>
        <time>2021-11-07T09:22:52Z</time>
      </trkpt>
      <trkpt lat="44.86857" lon="5.55806">
        <ele>1105.548</ele>
        <time>2021-11-07T09:22:57Z</time>
      </trkpt>
      <trkpt lat="44.86857" lon="5.55806">
        <ele>1105.552</ele>
        <time>2021-11-07T09:23:02Z</time>
      </trkpt>
      <trkpt lat="44.86857" lon="5.55806">
        <ele>1105.562</ele>
        <time>2021-11-07T09:23:07Z</time>
      </trkpt>
      <trkpt lat="44.86857" lon="5.55806">
        <ele>1105.57</ele>
        <time>2021-11-07T09:23:12Z</time>
      </trkpt>
      <trkpt lat="44.86857" lon="5.55806">
        <ele>1105.58</ele>
        <time>2021-11-07T09:23:17Z</time>
      </trkpt>
      <trkpt lat="44.86857" lon="5.55806">
        <ele>1105.587</ele>
        <time>2021-11-07T09:23:22Z</time>
      </trkpt>
      <trkpt lat="44.86857" lon="5.55806">
        <ele>1105.594</ele>
        <time>2021-11-07T09:23:27Z</time>
      </trkpt>
      <trkpt lat="44.86857" lon="5.55806">
        <ele>1105.596</ele>
        <time>2021-11-07T09:23:32Z</time>
      </trkpt>
      <trkpt lat="44.86857" lon="5.55806">
        <ele>1105.603</ele>
        <time>2021-11-07T09:23:37Z</time>
      </trkpt>
      <trkpt lat="44.86857" lon="5.55806">
        <ele>1105.617</ele>
        <time>2021-11-07T09:23:42Z</time>
      </trkpt>
      <trkpt lat="44.86857" lon="5.55806">
        <ele>1105.625</ele>
        <time>2021-11-07T09:23:47Z</time>
      </trkpt>
      <trkpt lat="44.86857" lon="5.55806">
        <ele>1105.65</ele>
        <time>2021-11-07T09:23:52Z</time>
      </trkpt>
      <trkpt lat="44.86857" lon="5.55806">
        <ele>1105.665</ele>
        <time>2021-11-07T09:23:57Z</time>
      </trkpt>
      <trkpt lat="44.86857" lon="5.55806">
        <ele>1105.676</ele>
        <time>2021-11-07T09:24:02Z</time>
      </trkpt>
      <trkpt lat="44.86857" lon="5.55806">
        <ele>1105.681</ele>
        <time>2021-11-07T09:24:07Z</time>
      </trkpt>
      <trkpt lat="44.86857" lon="5.55806">
        <ele>1105.673</ele>
        <time>2021-11-07T09:24:12Z</time>
      </trkpt>
      <trkpt lat="44.86857" lon="5.55806">
        <ele>1105.675</ele>
        <time>2021-11-07T09:24:17Z</time>
      </trkpt>
      <trkpt lat="44.86857" lon="5.55806">
        <ele>1105.685</ele>
        <time>2021-11-07T09:24:22Z</time>
      </trkpt>
      <trkpt lat="44.86857" lon="5.55806">
        <ele>1105.696</ele>
        <time>2021-11-07T09:24:27Z</time>
      </trkpt>
      <trkpt lat="44.86857" lon="5.55806">
        <ele>1105.709</ele>
        <time>2021-11-07T09:24:32Z</time>
      </trkpt>
      <trkpt lat="44.86857" lon="5.55806">
        <ele>1105.709</ele>
        <time>2021-11-07T09:24:37Z</time>
      </trkpt>
      <trkpt lat="44.86857" lon="5.55806">
        <ele>1105.719</ele>
        <time>2021-11-07T09:24:42Z</time>
      </trkpt>
      <trkpt lat="44.86857" lon="5.55806">
        <ele>1105.73</ele>
        <time>2021-11-07T09:24:47Z</time>
      </trkpt>
      <trkpt lat="44.86857" lon="5.55806">
        <ele>1105.736</ele>
        <time>2021-11-07T09:24:52Z</time>
      </trkpt>
      <trkpt lat="44.86857" lon="5.55806">
        <ele>1105.743</ele>
        <time>2021-11-07T09:24:57Z</time>
      </trkpt>
      <trkpt lat="44.86857" lon="5.55806">
        <ele>1105.747</ele>
        <time>2021-11-07T09:25:02Z</time>
      </trkpt>
      <trkpt lat="44.86857" lon="5.55806">
        <ele>1105.753</ele>
        <time>2021-11-07T09:25:07Z</time>
      </trkpt>
      <trkpt lat="44.86857" lon="5.55806">
        <ele>1105.758</ele>
        <time>2021-11-07T09:25:12Z</time>
      </trkpt>
      <trkpt lat="44.86857" lon="5.55806">
        <ele>1105.764</ele>
        <time>2021-11-07T09:25:17Z</time>
      </trkpt>
      <trkpt lat="44.86857" lon="5.55806">
        <ele>1105.761</ele>
        <time>2021-11-07T09:25:22Z</time>
      </trkpt>
      <trkpt lat="44.86857" lon="5.55806">
        <ele>1105.769</ele>
        <time>2021-11-07T09:25:27Z</time>
      </trkpt>
      <trkpt lat="44.86857" lon="5.55806">
        <ele>1105.768</ele>
        <time>2021-11-07T09:25:31Z</time>
      </trkpt>
      <trkpt lat="44.86857" lon="5.55806">
        <ele>1105.78</ele>
        <time>2021-11-07T09:25:37Z</time>
      </trkpt>
      <trkpt lat="44.86857" lon="5.55806">
        <ele>1105.787</ele>
        <time>2021-11-07T09:25:42Z</time>
      </trkpt>
      <trkpt lat="44.86857" lon="5.55806">
        <ele>1105.788</ele>
        <time>2021-11-07T09:25:47Z</time>
      </trkpt>
      <trkpt lat="44.86857" lon="5.55806">
        <ele>1105.792</ele>
        <time>2021-11-07T09:25:52Z</time>
      </trkpt>
      <trkpt lat="44.86857" lon="5.55806">
        <ele>1105.795</ele>
        <time>2021-11-07T09:25:57Z</time>
      </trkpt>
      <trkpt lat="44.86857" lon="5.55806">
        <ele>1105.798</ele>
        <time>2021-11-07T09:26:02Z</time>
      </trkpt>
      <trkpt lat="44.86857" lon="5.55806">
        <ele>1105.8</ele>
        <time>2021-11-07T09:26:07Z</time>
      </trkpt>
      <trkpt lat="44.86857" lon="5.55806">
        <ele>1105.801</ele>
        <time>2021-11-07T09:26:12Z</time>
      </trkpt>
      <trkpt lat="44.86857" lon="5.55806">
        <ele>1105.801</ele>
        <time>2021-11-07T09:26:17Z</time>
      </trkpt>
      <trkpt lat="44.86857" lon="5.55806">
        <ele>1105.796</ele>
        <time>2021-11-07T09:26:22Z</time>
      </trkpt>
      <trkpt lat="44.86857" lon="5.55806">
        <ele>1105.787</ele>
        <time>2021-11-07T09:26:27Z</time>
      </trkpt>
      <trkpt lat="44.86857" lon="5.55806">
        <ele>1105.786</ele>
        <time>2021-11-07T09:26:32Z</time>
      </trkpt>
      <trkpt lat="44.86857" lon="5.55806">
        <ele>1105.788</ele>
        <time>2021-11-07T09:26:37Z</time>
      </trkpt>
      <trkpt lat="44.86857" lon="5.55806">
        <ele>1105.799</ele>
        <time>2021-11-07T09:26:42Z</time>
      </trkpt>
      <trkpt lat="44.86857" lon="5.55806">
        <ele>1105.815</ele>
        <time>2021-11-07T09:26:47Z</time>
      </trkpt>
      <trkpt lat="44.86857" lon="5.55806">
        <ele>1105.823</ele>
        <time>2021-11-07T09:26:52Z</time>
      </trkpt>
      <trkpt lat="44.86857" lon="5.55806">
        <ele>1105.83</ele>
        <time>2021-11-07T09:26:57Z</time>
      </trkpt>
      <trkpt lat="44.86857" lon="5.55806">
        <ele>1105.841</ele>
        <time>2021-11-07T09:27:02Z</time>
      </trkpt>
      <trkpt lat="44.8686" lon="5.55814">
        <ele>1105.837</ele>
        <time>2021-11-07T09:27:07Z</time>
      </trkpt>
      <trkpt lat="44.86865" lon="5.5583">
        <ele>1105.371</ele>
        <time>2021-11-07T09:27:12Z</time>
      </trkpt>
      <trkpt lat="44.86868" lon="5.55845">
        <ele>1105.318</ele>
        <time>2021-11-07T09:27:17Z</time>
      </trkpt>
      <trkpt lat="44.86871" lon="5.55862">
        <ele>1106.09</ele>
        <time>2021-11-07T09:27:22Z</time>
      </trkpt>
      <trkpt lat="44.86878" lon="5.55874">
        <ele>1107.38</ele>
        <time>2021-11-07T09:27:27Z</time>
      </trkpt>
      <trkpt lat="44.86884" lon="5.55888">
        <ele>1107.983</ele>
        <time>2021-11-07T09:27:32Z</time>
      </trkpt>
      <trkpt lat="44.8689" lon="5.55903">
        <ele>1108.839</ele>
        <time>2021-11-07T09:27:37Z</time>
      </trkpt>
      <trkpt lat="44.869" lon="5.55917">
        <ele>1109.728</ele>
        <time>2021-11-07T09:27:42Z</time>
      </trkpt>
      <trkpt lat="44.86909" lon="5.55921">
        <ele>1110.904</ele>
        <time>2021-11-07T09:27:47Z</time>
      </trkpt>
      <trkpt lat="44.86913" lon="5.55919">
        <ele>1111.384</ele>
        <time>2021-11-07T09:27:52Z</time>
      </trkpt>
      <trkpt lat="44.86913" lon="5.55918">
        <ele>1112.63</ele>
        <time>2021-11-07T09:27:57Z</time>
      </trkpt>
      <trkpt lat="44.86913" lon="5.55918">
        <ele>1112.262</ele>
        <time>2021-11-07T09:28:02Z</time>
      </trkpt>
      <trkpt lat="44.86914" lon="5.55919">
        <ele>1110.434</ele>
        <time>2021-11-07T09:28:07Z</time>
      </trkpt>
      <trkpt lat="44.86915" lon="5.5592">
        <ele>1109.593</ele>
        <time>2021-11-07T09:28:12Z</time>
      </trkpt>
      <trkpt lat="44.86917" lon="5.5592">
        <ele>1107.134</ele>
        <time>2021-11-07T09:28:17Z</time>
      </trkpt>
      <trkpt lat="44.8692" lon="5.55918">
        <ele>1107.449</ele>
        <time>2021-11-07T09:28:22Z</time>
      </trkpt>
      <trkpt lat="44.86922" lon="5.55914">
        <ele>1107.892</ele>
        <time>2021-11-07T09:28:27Z</time>
      </trkpt>
      <trkpt lat="44.86927" lon="5.55912">
        <ele>1109.303</ele>
        <time>2021-11-07T09:28:32Z</time>
      </trkpt>
      <trkpt lat="44.86932" lon="5.55912">
        <ele>1109.323</ele>
        <time>2021-11-07T09:28:37Z</time>
      </trkpt>
      <trkpt lat="44.86937" lon="5.55914">
        <ele>1111.412</ele>
        <time>2021-11-07T09:28:42Z</time>
      </trkpt>
      <trkpt lat="44.86944" lon="5.55917">
        <ele>1113.333</ele>
        <time>2021-11-07T09:28:47Z</time>
      </trkpt>
      <trkpt lat="44.86955" lon="5.55922">
        <ele>1113.724</ele>
        <time>2021-11-07T09:28:52Z</time>
      </trkpt>
      <trkpt lat="44.86958" lon="5.55943">
        <ele>1115.66</ele>
        <time>2021-11-07T09:28:57Z</time>
      </trkpt>
      <trkpt lat="44.86971" lon="5.55953">
        <ele>1114.138</ele>
        <time>2021-11-07T09:29:02Z</time>
      </trkpt>
      <trkpt lat="44.8698" lon="5.55962">
        <ele>1115.794</ele>
        <time>2021-11-07T09:29:07Z</time>
      </trkpt>
      <trkpt lat="44.8698" lon="5.55969">
        <ele>1112.636</ele>
        <time>2021-11-07T09:29:12Z</time>
      </trkpt>
      <trkpt lat="44.86978" lon="5.55973">
        <ele>1114.009</ele>
        <time>2021-11-07T09:29:17Z</time>
      </trkpt>
      <trkpt lat="44.86979" lon="5.55974">
        <ele>1113.255</ele>
        <time>2021-11-07T09:29:22Z</time>
      </trkpt>
      <trkpt lat="44.86979" lon="5.55976">
        <ele>1112.641</ele>
        <time>2021-11-07T09:29:27Z</time>
      </trkpt>
      <trkpt lat="44.86978" lon="5.55978">
        <ele>1109.808</ele>
        <time>2021-11-07T09:29:32Z</time>
      </trkpt>
      <trkpt lat="44.86979" lon="5.55979">
        <ele>1108.003</ele>
        <time>2021-11-07T09:29:37Z</time>
      </trkpt>
      <trkpt lat="44.86976" lon="5.55979">
        <ele>1106.771</ele>
        <time>2021-11-07T09:29:42Z</time>
      </trkpt>
      <trkpt lat="44.86974" lon="5.55978">
        <ele>1108.275</ele>
        <time>2021-11-07T09:29:47Z</time>
      </trkpt>
      <trkpt lat="44.86973" lon="5.55982">
        <ele>1109.454</ele>
        <time>2021-11-07T09:29:52Z</time>
      </trkpt>
      <trkpt lat="44.86974" lon="5.55985">
        <ele>1109.771</ele>
        <time>2021-11-07T09:29:57Z</time>
      </trkpt>
      <trkpt lat="44.86976" lon="5.55987">
        <ele>1112.44</ele>
        <time>2021-11-07T09:30:02Z</time>
      </trkpt>
      <trkpt lat="44.86976" lon="5.55987">
        <ele>1113.825</ele>
        <time>2021-11-07T09:30:07Z</time>
      </trkpt>
      <trkpt lat="44.86975" lon="5.55989">
        <ele>1115.67</ele>
        <time>2021-11-07T09:30:12Z</time>
      </trkpt>
      <trkpt lat="44.86977" lon="5.55993">
        <ele>1117.278</ele>
        <time>2021-11-07T09:30:17Z</time>
      </trkpt>
      <trkpt lat="44.86978" lon="5.55993">
        <ele>1118.954</ele>
        <time>2021-11-07T09:30:22Z</time>
      </trkpt>
      <trkpt lat="44.8698" lon="5.55995">
        <ele>1120.278</ele>
        <time>2021-11-07T09:30:27Z</time>
      </trkpt>
      <trkpt lat="44.86982" lon="5.55997">
        <ele>1121.765</ele>
        <time>2021-11-07T09:30:32Z</time>
      </trkpt>
      <trkpt lat="44.86985" lon="5.55999">
        <ele>1122.869</ele>
        <time>2021-11-07T09:30:37Z</time>
      </trkpt>
      <trkpt lat="44.86987" lon="5.55999">
        <ele>1122.535</ele>
        <time>2021-11-07T09:30:42Z</time>
      </trkpt>
      <trkpt lat="44.8699" lon="5.56002">
        <ele>1122.247</ele>
        <time>2021-11-07T09:30:47Z</time>
      </trkpt>
      <trkpt lat="44.86993" lon="5.56006">
        <ele>1125.268</ele>
        <time>2021-11-07T09:30:52Z</time>
      </trkpt>
      <trkpt lat="44.86998" lon="5.5601">
        <ele>1125.727</ele>
        <time>2021-11-07T09:30:57Z</time>
      </trkpt>
      <trkpt lat="44.87" lon="5.56015">
        <ele>1128.294</ele>
        <time>2021-11-07T09:31:02Z</time>
      </trkpt>
      <trkpt lat="44.87004" lon="5.56018">
        <ele>1127.918</ele>
        <time>2021-11-07T09:31:07Z</time>
      </trkpt>
      <trkpt lat="44.87006" lon="5.56019">
        <ele>1129.265</ele>
        <time>2021-11-07T09:31:12Z</time>
      </trkpt>
      <trkpt lat="44.87011" lon="5.56019">
        <ele>1131.849</ele>
        <time>2021-11-07T09:31:17Z</time>
      </trkpt>
      <trkpt lat="44.87016" lon="5.56019">
        <ele>1133.557</ele>
        <time>2021-11-07T09:31:22Z</time>
      </trkpt>
      <trkpt lat="44.8702" lon="5.56018">
        <ele>1129.253</ele>
        <time>2021-11-07T09:31:27Z</time>
      </trkpt>
      <trkpt lat="44.87024" lon="5.56016">
        <ele>1126.934</ele>
        <time>2021-11-07T09:31:32Z</time>
      </trkpt>
      <trkpt lat="44.87026" lon="5.56014">
        <ele>1126.494</ele>
        <time>2021-11-07T09:31:37Z</time>
      </trkpt>
      <trkpt lat="44.87026" lon="5.56013">
        <ele>1130.377</ele>
        <time>2021-11-07T09:31:42Z</time>
      </trkpt>
      <trkpt lat="44.87027" lon="5.56013">
        <ele>1132.537</ele>
        <time>2021-11-07T09:31:47Z</time>
      </trkpt>
      <trkpt lat="44.87033" lon="5.56016">
        <ele>1132.459</ele>
        <time>2021-11-07T09:31:52Z</time>
      </trkpt>
      <trkpt lat="44.8704" lon="5.56018">
        <ele>1133.562</ele>
        <time>2021-11-07T09:31:57Z</time>
      </trkpt>
      <trkpt lat="44.87045" lon="5.56019">
        <ele>1133.463</ele>
        <time>2021-11-07T09:32:02Z</time>
      </trkpt>
      <trkpt lat="44.87049" lon="5.56022">
        <ele>1134.278</ele>
        <time>2021-11-07T09:32:07Z</time>
      </trkpt>
      <trkpt lat="44.87054" lon="5.56026">
        <ele>1136.262</ele>
        <time>2021-11-07T09:32:12Z</time>
      </trkpt>
      <trkpt lat="44.8706" lon="5.5603">
        <ele>1135.786</ele>
        <time>2021-11-07T09:32:17Z</time>
      </trkpt>
      <trkpt lat="44.87064" lon="5.56035">
        <ele>1135.51</ele>
        <time>2021-11-07T09:32:22Z</time>
      </trkpt>
      <trkpt lat="44.87068" lon="5.56041">
        <ele>1136.484</ele>
        <time>2021-11-07T09:32:27Z</time>
      </trkpt>
      <trkpt lat="44.8707" lon="5.56043">
        <ele>1137.875</ele>
        <time>2021-11-07T09:32:32Z</time>
      </trkpt>
      <trkpt lat="44.87074" lon="5.56046">
        <ele>1139.237</ele>
        <time>2021-11-07T09:32:37Z</time>
      </trkpt>
      <trkpt lat="44.87077" lon="5.56049">
        <ele>1139.444</ele>
        <time>2021-11-07T09:32:42Z</time>
      </trkpt>
      <trkpt lat="44.8708" lon="5.56053">
        <ele>1142.203</ele>
        <time>2021-11-07T09:32:47Z</time>
      </trkpt>
      <trkpt lat="44.87082" lon="5.56055">
        <ele>1142.565</ele>
        <time>2021-11-07T09:32:52Z</time>
      </trkpt>
      <trkpt lat="44.87084" lon="5.56059">
        <ele>1144.287</ele>
        <time>2021-11-07T09:32:57Z</time>
      </trkpt>
      <trkpt lat="44.87086" lon="5.56064">
        <ele>1145.771</ele>
        <time>2021-11-07T09:33:02Z</time>
      </trkpt>
      <trkpt lat="44.87088" lon="5.56067">
        <ele>1148.061</ele>
        <time>2021-11-07T09:33:07Z</time>
      </trkpt>
      <trkpt lat="44.87093" lon="5.56071">
        <ele>1147.471</ele>
        <time>2021-11-07T09:33:12Z</time>
      </trkpt>
      <trkpt lat="44.87098" lon="5.56073">
        <ele>1149.22</ele>
        <time>2021-11-07T09:33:17Z</time>
      </trkpt>
      <trkpt lat="44.87102" lon="5.56077">
        <ele>1148.721</ele>
        <time>2021-11-07T09:33:22Z</time>
      </trkpt>
      <trkpt lat="44.87108" lon="5.56078">
        <ele>1149.965</ele>
        <time>2021-11-07T09:33:27Z</time>
      </trkpt>
      <trkpt lat="44.87114" lon="5.5608">
        <ele>1150.66</ele>
        <time>2021-11-07T09:33:32Z</time>
      </trkpt>
      <trkpt lat="44.87118" lon="5.56084">
        <ele>1148.602</ele>
        <time>2021-11-07T09:33:37Z</time>
      </trkpt>
      <trkpt lat="44.87124" lon="5.56085">
        <ele>1148.4</ele>
        <time>2021-11-07T09:33:42Z</time>
      </trkpt>
      <trkpt lat="44.87132" lon="5.56086">
        <ele>1151.064</ele>
        <time>2021-11-07T09:33:47Z</time>
      </trkpt>
      <trkpt lat="44.87141" lon="5.56092">
        <ele>1150.647</ele>
        <time>2021-11-07T09:33:52Z</time>
      </trkpt>
      <trkpt lat="44.87149" lon="5.56095">
        <ele>1151.093</ele>
        <time>2021-11-07T09:33:57Z</time>
      </trkpt>
      <trkpt lat="44.87156" lon="5.56097">
        <ele>1151.285</ele>
        <time>2021-11-07T09:34:02Z</time>
      </trkpt>
      <trkpt lat="44.87163" lon="5.561">
        <ele>1154.574</ele>
        <time>2021-11-07T09:34:07Z</time>
      </trkpt>
      <trkpt lat="44.87169" lon="5.56103">
        <ele>1155.135</ele>
        <time>2021-11-07T09:34:12Z</time>
      </trkpt>
      <trkpt lat="44.87176" lon="5.56105">
        <ele>1156.24</ele>
        <time>2021-11-07T09:34:17Z</time>
      </trkpt>
      <trkpt lat="44.87184" lon="5.56105">
        <ele>1158.701</ele>
        <time>2021-11-07T09:34:22Z</time>
      </trkpt>
      <trkpt lat="44.8719" lon="5.56109">
        <ele>1159.853</ele>
        <time>2021-11-07T09:34:27Z</time>
      </trkpt>
      <trkpt lat="44.87192" lon="5.56116">
        <ele>1160.87</ele>
        <time>2021-11-07T09:34:32Z</time>
      </trkpt>
      <trkpt lat="44.87196" lon="5.56121">
        <ele>1162.928</ele>
        <time>2021-11-07T09:34:37Z</time>
      </trkpt>
      <trkpt lat="44.87197" lon="5.56128">
        <ele>1164.538</ele>
        <time>2021-11-07T09:34:42Z</time>
      </trkpt>
      <trkpt lat="44.87201" lon="5.56135">
        <ele>1166.483</ele>
        <time>2021-11-07T09:34:47Z</time>
      </trkpt>
      <trkpt lat="44.87203" lon="5.56142">
        <ele>1167.903</ele>
        <time>2021-11-07T09:34:52Z</time>
      </trkpt>
      <trkpt lat="44.87206" lon="5.5615">
        <ele>1167.587</ele>
        <time>2021-11-07T09:34:57Z</time>
      </trkpt>
      <trkpt lat="44.87208" lon="5.56158">
        <ele>1167.572</ele>
        <time>2021-11-07T09:35:02Z</time>
      </trkpt>
      <trkpt lat="44.87211" lon="5.56166">
        <ele>1167.673</ele>
        <time>2021-11-07T09:35:07Z</time>
      </trkpt>
      <trkpt lat="44.87215" lon="5.56171">
        <ele>1171.343</ele>
        <time>2021-11-07T09:35:12Z</time>
      </trkpt>
      <trkpt lat="44.87218" lon="5.56177">
        <ele>1171.605</ele>
        <time>2021-11-07T09:35:17Z</time>
      </trkpt>
      <trkpt lat="44.87219" lon="5.56178">
        <ele>1171.374</ele>
        <time>2021-11-07T09:35:22Z</time>
      </trkpt>
      <trkpt lat="44.87219" lon="5.56179">
        <ele>1171.98</ele>
        <time>2021-11-07T09:35:27Z</time>
      </trkpt>
      <trkpt lat="44.87221" lon="5.56181">
        <ele>1172.405</ele>
        <time>2021-11-07T09:35:32Z</time>
      </trkpt>
      <trkpt lat="44.87227" lon="5.56182">
        <ele>1174.045</ele>
        <time>2021-11-07T09:35:37Z</time>
      </trkpt>
      <trkpt lat="44.87232" lon="5.56186">
        <ele>1175.179</ele>
        <time>2021-11-07T09:35:42Z</time>
      </trkpt>
      <trkpt lat="44.87238" lon="5.56191">
        <ele>1176.15</ele>
        <time>2021-11-07T09:35:47Z</time>
      </trkpt>
      <trkpt lat="44.87243" lon="5.56194">
        <ele>1174.877</ele>
        <time>2021-11-07T09:35:51Z</time>
      </trkpt>
      <trkpt lat="44.87248" lon="5.56201">
        <ele>1179.392</ele>
        <time>2021-11-07T09:35:57Z</time>
      </trkpt>
      <trkpt lat="44.87252" lon="5.56206">
        <ele>1180.331</ele>
        <time>2021-11-07T09:36:02Z</time>
      </trkpt>
      <trkpt lat="44.87255" lon="5.56211">
        <ele>1179.654</ele>
        <time>2021-11-07T09:36:07Z</time>
      </trkpt>
      <trkpt lat="44.87258" lon="5.56215">
        <ele>1181.394</ele>
        <time>2021-11-07T09:36:12Z</time>
      </trkpt>
      <trkpt lat="44.87262" lon="5.56219">
        <ele>1181.954</ele>
        <time>2021-11-07T09:36:17Z</time>
      </trkpt>
      <trkpt lat="44.87266" lon="5.56227">
        <ele>1182.754</ele>
        <time>2021-11-07T09:36:22Z</time>
      </trkpt>
      <trkpt lat="44.87268" lon="5.56233">
        <ele>1185.744</ele>
        <time>2021-11-07T09:36:27Z</time>
      </trkpt>
      <trkpt lat="44.87273" lon="5.56235">
        <ele>1190.483</ele>
        <time>2021-11-07T09:36:32Z</time>
      </trkpt>
      <trkpt lat="44.87277" lon="5.56241">
        <ele>1193.131</ele>
        <time>2021-11-07T09:36:37Z</time>
      </trkpt>
      <trkpt lat="44.87279" lon="5.56243">
        <ele>1192.755</ele>
        <time>2021-11-07T09:36:42Z</time>
      </trkpt>
      <trkpt lat="44.8728" lon="5.56243">
        <ele>1192.699</ele>
        <time>2021-11-07T09:36:47Z</time>
      </trkpt>
      <trkpt lat="44.87282" lon="5.56246">
        <ele>1190.719</ele>
        <time>2021-11-07T09:36:52Z</time>
      </trkpt>
      <trkpt lat="44.87284" lon="5.5625">
        <ele>1191.185</ele>
        <time>2021-11-07T09:36:56Z</time>
      </trkpt>
      <trkpt lat="44.87284" lon="5.56252">
        <ele>1189.283</ele>
        <time>2021-11-07T09:37:02Z</time>
      </trkpt>
      <trkpt lat="44.87284" lon="5.56252">
        <ele>1188.944</ele>
        <time>2021-11-07T09:37:07Z</time>
      </trkpt>
      <trkpt lat="44.87284" lon="5.56252">
        <ele>1189.416</ele>
        <time>2021-11-07T09:37:12Z</time>
      </trkpt>
      <trkpt lat="44.87284" lon="5.56252">
        <ele>1189.609</ele>
        <time>2021-11-07T09:37:17Z</time>
      </trkpt>
      <trkpt lat="44.87284" lon="5.56252">
        <ele>1189.669</ele>
        <time>2021-11-07T09:37:22Z</time>
      </trkpt>
      <trkpt lat="44.87284" lon="5.56252">
        <ele>1189.684</ele>
        <time>2021-11-07T09:37:27Z</time>
      </trkpt>
      <trkpt lat="44.87284" lon="5.56252">
        <ele>1189.711</ele>
        <time>2021-11-07T09:37:32Z</time>
      </trkpt>
      <trkpt lat="44.87284" lon="5.56252">
        <ele>1189.711</ele>
        <time>2021-11-07T09:37:37Z</time>
      </trkpt>
      <trkpt lat="44.87284" lon="5.56252">
        <ele>1189.714</ele>
        <time>2021-11-07T09:37:42Z</time>
      </trkpt>
      <trkpt lat="44.87284" lon="5.56252">
        <ele>1189.713</ele>
        <time>2021-11-07T09:37:47Z</time>
      </trkpt>
      <trkpt lat="44.87284" lon="5.56252">
        <ele>1189.715</ele>
        <time>2021-11-07T09:37:52Z</time>
      </trkpt>
      <trkpt lat="44.87284" lon="5.56252">
        <ele>1189.718</ele>
        <time>2021-11-07T09:37:57Z</time>
      </trkpt>
      <trkpt lat="44.87284" lon="5.56252">
        <ele>1189.719</ele>
        <time>2021-11-07T09:38:02Z</time>
      </trkpt>
      <trkpt lat="44.87284" lon="5.56252">
        <ele>1189.718</ele>
        <time>2021-11-07T09:38:07Z</time>
      </trkpt>
      <trkpt lat="44.87284" lon="5.56252">
        <ele>1189.723</ele>
        <time>2021-11-07T09:38:12Z</time>
      </trkpt>
      <trkpt lat="44.87284" lon="5.56252">
        <ele>1189.729</ele>
        <time>2021-11-07T09:38:17Z</time>
      </trkpt>
      <trkpt lat="44.87284" lon="5.56252">
        <ele>1189.761</ele>
        <time>2021-11-07T09:38:22Z</time>
      </trkpt>
      <trkpt lat="44.87284" lon="5.56252">
        <ele>1189.774</ele>
        <time>2021-11-07T09:38:27Z</time>
      </trkpt>
      <trkpt lat="44.87284" lon="5.56252">
        <ele>1189.78</ele>
        <time>2021-11-07T09:38:32Z</time>
      </trkpt>
      <trkpt lat="44.87284" lon="5.56252">
        <ele>1189.789</ele>
        <time>2021-11-07T09:38:37Z</time>
      </trkpt>
      <trkpt lat="44.87284" lon="5.56252">
        <ele>1189.784</ele>
        <time>2021-11-07T09:38:42Z</time>
      </trkpt>
      <trkpt lat="44.87284" lon="5.56252">
        <ele>1189.8</ele>
        <time>2021-11-07T09:38:47Z</time>
      </trkpt>
      <trkpt lat="44.87284" lon="5.56252">
        <ele>1189.8</ele>
        <time>2021-11-07T09:38:52Z</time>
      </trkpt>
      <trkpt lat="44.87284" lon="5.56252">
        <ele>1189.803</ele>
        <time>2021-11-07T09:38:57Z</time>
      </trkpt>
      <trkpt lat="44.87284" lon="5.56252">
        <ele>1189.813</ele>
        <time>2021-11-07T09:39:02Z</time>
      </trkpt>
      <trkpt lat="44.87284" lon="5.56252">
        <ele>1189.82</ele>
        <time>2021-11-07T09:39:07Z</time>
      </trkpt>
      <trkpt lat="44.87284" lon="5.56252">
        <ele>1189.832</ele>
        <time>2021-11-07T09:39:12Z</time>
      </trkpt>
      <trkpt lat="44.87284" lon="5.56252">
        <ele>1189.849</ele>
        <time>2021-11-07T09:39:17Z</time>
      </trkpt>
      <trkpt lat="44.87284" lon="5.56252">
        <ele>1189.85</ele>
        <time>2021-11-07T09:39:22Z</time>
      </trkpt>
      <trkpt lat="44.87284" lon="5.56252">
        <ele>1189.865</ele>
        <time>2021-11-07T09:39:27Z</time>
      </trkpt>
      <trkpt lat="44.87284" lon="5.56252">
        <ele>1189.88</ele>
        <time>2021-11-07T09:39:32Z</time>
      </trkpt>
      <trkpt lat="44.87284" lon="5.56252">
        <ele>1189.901</ele>
        <time>2021-11-07T09:39:37Z</time>
      </trkpt>
      <trkpt lat="44.87284" lon="5.56252">
        <ele>1189.914</ele>
        <time>2021-11-07T09:39:42Z</time>
      </trkpt>
      <trkpt lat="44.87284" lon="5.56252">
        <ele>1189.91</ele>
        <time>2021-11-07T09:39:47Z</time>
      </trkpt>
      <trkpt lat="44.87284" lon="5.56252">
        <ele>1189.906</ele>
        <time>2021-11-07T09:39:52Z</time>
      </trkpt>
      <trkpt lat="44.87284" lon="5.56252">
        <ele>1189.915</ele>
        <time>2021-11-07T09:39:57Z</time>
      </trkpt>
      <trkpt lat="44.87284" lon="5.56252">
        <ele>1189.908</ele>
        <time>2021-11-07T09:40:02Z</time>
      </trkpt>
      <trkpt lat="44.87284" lon="5.56252">
        <ele>1189.923</ele>
        <time>2021-11-07T09:40:07Z</time>
      </trkpt>
      <trkpt lat="44.87284" lon="5.56252">
        <ele>1189.919</ele>
        <time>2021-11-07T09:40:12Z</time>
      </trkpt>
      <trkpt lat="44.87284" lon="5.56252">
        <ele>1189.912</ele>
        <time>2021-11-07T09:40:17Z</time>
      </trkpt>
      <trkpt lat="44.87284" lon="5.56252">
        <ele>1189.913</ele>
        <time>2021-11-07T09:40:22Z</time>
      </trkpt>
      <trkpt lat="44.87286" lon="5.56258">
        <ele>1190.425</ele>
        <time>2021-11-07T09:40:27Z</time>
      </trkpt>
      <trkpt lat="44.87291" lon="5.56267">
        <ele>1188.439</ele>
        <time>2021-11-07T09:40:32Z</time>
      </trkpt>
      <trkpt lat="44.87294" lon="5.56277">
        <ele>1188.11</ele>
        <time>2021-11-07T09:40:37Z</time>
      </trkpt>
      <trkpt lat="44.87299" lon="5.56287">
        <ele>1190.046</ele>
        <time>2021-11-07T09:40:42Z</time>
      </trkpt>
      <trkpt lat="44.87303" lon="5.56295">
        <ele>1189.484</ele>
        <time>2021-11-07T09:40:47Z</time>
      </trkpt>
      <trkpt lat="44.87306" lon="5.56301">
        <ele>1193.219</ele>
        <time>2021-11-07T09:40:52Z</time>
      </trkpt>
      <trkpt lat="44.87309" lon="5.56311">
        <ele>1197.35</ele>
        <time>2021-11-07T09:40:57Z</time>
      </trkpt>
      <trkpt lat="44.87311" lon="5.5632">
        <ele>1198.124</ele>
        <time>2021-11-07T09:41:02Z</time>
      </trkpt>
      <trkpt lat="44.87313" lon="5.56329">
        <ele>1199.571</ele>
        <time>2021-11-07T09:41:07Z</time>
      </trkpt>
      <trkpt lat="44.87315" lon="5.56337">
        <ele>1200.374</ele>
        <time>2021-11-07T09:41:12Z</time>
      </trkpt>
      <trkpt lat="44.87316" lon="5.56344">
        <ele>1202.481</ele>
        <time>2021-11-07T09:41:17Z</time>
      </trkpt>
      <trkpt lat="44.87318" lon="5.5635">
        <ele>1203.024</ele>
        <time>2021-11-07T09:41:22Z</time>
      </trkpt>
      <trkpt lat="44.87319" lon="5.56357">
        <ele>1203.737</ele>
        <time>2021-11-07T09:41:27Z</time>
      </trkpt>
      <trkpt lat="44.87321" lon="5.56362">
        <ele>1205.496</ele>
        <time>2021-11-07T09:41:32Z</time>
      </trkpt>
      <trkpt lat="44.87323" lon="5.56364">
        <ele>1205.859</ele>
        <time>2021-11-07T09:41:37Z</time>
      </trkpt>
      <trkpt lat="44.87323" lon="5.56366">
        <ele>1206.613</ele>
        <time>2021-11-07T09:41:42Z</time>
      </trkpt>
      <trkpt lat="44.87322" lon="5.56366">
        <ele>1207.064</ele>
        <time>2021-11-07T09:41:47Z</time>
      </trkpt>
      <trkpt lat="44.87322" lon="5.56366">
        <ele>1207.103</ele>
        <time>2021-11-07T09:41:52Z</time>
      </trkpt>
      <trkpt lat="44.87322" lon="5.56366">
        <ele>1207.106</ele>
        <time>2021-11-07T09:41:57Z</time>
      </trkpt>
      <trkpt lat="44.87322" lon="5.56366">
        <ele>1207.118</ele>
        <time>2021-11-07T09:42:02Z</time>
      </trkpt>
      <trkpt lat="44.87322" lon="5.56366">
        <ele>1207.128</ele>
        <time>2021-11-07T09:42:07Z</time>
      </trkpt>
      <trkpt lat="44.87322" lon="5.56366">
        <ele>1207.137</ele>
        <time>2021-11-07T09:42:12Z</time>
      </trkpt>
      <trkpt lat="44.87322" lon="5.56366">
        <ele>1207.153</ele>
        <time>2021-11-07T09:42:17Z</time>
      </trkpt>
      <trkpt lat="44.87323" lon="5.56369">
        <ele>1207.385</ele>
        <time>2021-11-07T09:42:22Z</time>
      </trkpt>
      <trkpt lat="44.87323" lon="5.56381">
        <ele>1206.22</ele>
        <time>2021-11-07T09:42:27Z</time>
      </trkpt>
      <trkpt lat="44.87322" lon="5.56396">
        <ele>1203.006</ele>
        <time>2021-11-07T09:42:32Z</time>
      </trkpt>
      <trkpt lat="44.8732" lon="5.56415">
        <ele>1202.999</ele>
        <time>2021-11-07T09:42:37Z</time>
      </trkpt>
      <trkpt lat="44.87315" lon="5.56443">
        <ele>1202.295</ele>
        <time>2021-11-07T09:42:42Z</time>
      </trkpt>
      <trkpt lat="44.87307" lon="5.5648">
        <ele>1199.083</ele>
        <time>2021-11-07T09:42:47Z</time>
      </trkpt>
      <trkpt lat="44.87293" lon="5.5652">
        <ele>1195.409</ele>
        <time>2021-11-07T09:42:52Z</time>
      </trkpt>
      <trkpt lat="44.87289" lon="5.56558">
        <ele>1195.076</ele>
        <time>2021-11-07T09:42:57Z</time>
      </trkpt>
      <trkpt lat="44.87278" lon="5.56594">
        <ele>1193.226</ele>
        <time>2021-11-07T09:43:02Z</time>
      </trkpt>
      <trkpt lat="44.87276" lon="5.56622">
        <ele>1191.975</ele>
        <time>2021-11-07T09:43:07Z</time>
      </trkpt>
      <trkpt lat="44.87283" lon="5.56636">
        <ele>1189.831</ele>
        <time>2021-11-07T09:43:12Z</time>
      </trkpt>
      <trkpt lat="44.87303" lon="5.56659">
        <ele>1186.626</ele>
        <time>2021-11-07T09:43:17Z</time>
      </trkpt>
      <trkpt lat="44.87325" lon="5.56688">
        <ele>1188.444</ele>
        <time>2021-11-07T09:43:22Z</time>
      </trkpt>
      <trkpt lat="44.87338" lon="5.56716">
        <ele>1188.794</ele>
        <time>2021-11-07T09:43:27Z</time>
      </trkpt>
      <trkpt lat="44.87347" lon="5.56725">
        <ele>1189.632</ele>
        <time>2021-11-07T09:43:32Z</time>
      </trkpt>
      <trkpt lat="44.87358" lon="5.56723">
        <ele>1187.693</ele>
        <time>2021-11-07T09:43:37Z</time>
      </trkpt>
      <trkpt lat="44.87368" lon="5.56722">
        <ele>1190.109</ele>
        <time>2021-11-07T09:43:42Z</time>
      </trkpt>
      <trkpt lat="44.87376" lon="5.56723">
        <ele>1191.588</ele>
        <time>2021-11-07T09:43:47Z</time>
      </trkpt>
      <trkpt lat="44.87384" lon="5.56721">
        <ele>1191.433</ele>
        <time>2021-11-07T09:43:52Z</time>
      </trkpt>
      <trkpt lat="44.8739" lon="5.56724">
        <ele>1193.987</ele>
        <time>2021-11-07T09:43:57Z</time>
      </trkpt>
      <trkpt lat="44.87396" lon="5.56726">
        <ele>1196.51</ele>
        <time>2021-11-07T09:44:02Z</time>
      </trkpt>
      <trkpt lat="44.87402" lon="5.56729">
        <ele>1197.916</ele>
        <time>2021-11-07T09:44:07Z</time>
      </trkpt>
      <trkpt lat="44.87406" lon="5.56735">
        <ele>1199.54</ele>
        <time>2021-11-07T09:44:12Z</time>
      </trkpt>
      <trkpt lat="44.8741" lon="5.56743">
        <ele>1199.564</ele>
        <time>2021-11-07T09:44:17Z</time>
      </trkpt>
      <trkpt lat="44.87415" lon="5.56749">
        <ele>1200.05</ele>
        <time>2021-11-07T09:44:22Z</time>
      </trkpt>
      <trkpt lat="44.87421" lon="5.56754">
        <ele>1200.443</ele>
        <time>2021-11-07T09:44:27Z</time>
      </trkpt>
      <trkpt lat="44.87428" lon="5.56758">
        <ele>1200.515</ele>
        <time>2021-11-07T09:44:32Z</time>
      </trkpt>
      <trkpt lat="44.87433" lon="5.5676">
        <ele>1200.633</ele>
        <time>2021-11-07T09:44:37Z</time>
      </trkpt>
      <trkpt lat="44.87439" lon="5.56763">
        <ele>1201.074</ele>
        <time>2021-11-07T09:44:42Z</time>
      </trkpt>
      <trkpt lat="44.87446" lon="5.56768">
        <ele>1201.69</ele>
        <time>2021-11-07T09:44:47Z</time>
      </trkpt>
      <trkpt lat="44.87452" lon="5.56772">
        <ele>1202.628</ele>
        <time>2021-11-07T09:44:52Z</time>
      </trkpt>
      <trkpt lat="44.87458" lon="5.56777">
        <ele>1203.433</ele>
        <time>2021-11-07T09:44:57Z</time>
      </trkpt>
      <trkpt lat="44.87463" lon="5.56784">
        <ele>1205.459</ele>
        <time>2021-11-07T09:45:02Z</time>
      </trkpt>
      <trkpt lat="44.8747" lon="5.56787">
        <ele>1208.292</ele>
        <time>2021-11-07T09:45:07Z</time>
      </trkpt>
      <trkpt lat="44.87476" lon="5.56791">
        <ele>1210.167</ele>
        <time>2021-11-07T09:45:12Z</time>
      </trkpt>
      <trkpt lat="44.87482" lon="5.56797">
        <ele>1208.956</ele>
        <time>2021-11-07T09:45:17Z</time>
      </trkpt>
      <trkpt lat="44.87486" lon="5.568">
        <ele>1209.643</ele>
        <time>2021-11-07T09:45:22Z</time>
      </trkpt>
      <trkpt lat="44.87488" lon="5.56802">
        <ele>1211.967</ele>
        <time>2021-11-07T09:45:27Z</time>
      </trkpt>
      <trkpt lat="44.87489" lon="5.56803">
        <ele>1212.984</ele>
        <time>2021-11-07T09:45:32Z</time>
      </trkpt>
      <trkpt lat="44.87492" lon="5.56803">
        <ele>1214.231</ele>
        <time>2021-11-07T09:45:37Z</time>
      </trkpt>
      <trkpt lat="44.87493" lon="5.56808">
        <ele>1214.585</ele>
        <time>2021-11-07T09:45:42Z</time>
      </trkpt>
      <trkpt lat="44.87493" lon="5.56811">
        <ele>1213.761</ele>
        <time>2021-11-07T09:45:47Z</time>
      </trkpt>
      <trkpt lat="44.87494" lon="5.56818">
        <ele>1214.578</ele>
        <time>2021-11-07T09:45:52Z</time>
      </trkpt>
      <trkpt lat="44.87493" lon="5.56822">
        <ele>1212.608</ele>
        <time>2021-11-07T09:45:57Z</time>
      </trkpt>
      <trkpt lat="44.87491" lon="5.56827">
        <ele>1211.217</ele>
        <time>2021-11-07T09:46:02Z</time>
      </trkpt>
      <trkpt lat="44.87488" lon="5.56833">
        <ele>1207.125</ele>
        <time>2021-11-07T09:46:07Z</time>
      </trkpt>
      <trkpt lat="44.87488" lon="5.56833">
        <ele>1205.888</ele>
        <time>2021-11-07T09:46:12Z</time>
      </trkpt>
      <trkpt lat="44.87488" lon="5.56833">
        <ele>1206.82</ele>
        <time>2021-11-07T09:46:17Z</time>
      </trkpt>
      <trkpt lat="44.87486" lon="5.56839">
        <ele>1209.204</ele>
        <time>2021-11-07T09:46:22Z</time>
      </trkpt>
      <trkpt lat="44.87483" lon="5.5685">
        <ele>1208.896</ele>
        <time>2021-11-07T09:46:27Z</time>
      </trkpt>
      <trkpt lat="44.87481" lon="5.56859">
        <ele>1207.38</ele>
        <time>2021-11-07T09:46:32Z</time>
      </trkpt>
      <trkpt lat="44.87483" lon="5.56868">
        <ele>1210.206</ele>
        <time>2021-11-07T09:46:37Z</time>
      </trkpt>
      <trkpt lat="44.87486" lon="5.56875">
        <ele>1212.269</ele>
        <time>2021-11-07T09:46:42Z</time>
      </trkpt>
      <trkpt lat="44.87489" lon="5.56884">
        <ele>1214.925</ele>
        <time>2021-11-07T09:46:47Z</time>
      </trkpt>
      <trkpt lat="44.87491" lon="5.56892">
        <ele>1215.373</ele>
        <time>2021-11-07T09:46:52Z</time>
      </trkpt>
      <trkpt lat="44.87492" lon="5.56899">
        <ele>1215.282</ele>
        <time>2021-11-07T09:46:57Z</time>
      </trkpt>
      <trkpt lat="44.87491" lon="5.5691">
        <ele>1216.437</ele>
        <time>2021-11-07T09:47:02Z</time>
      </trkpt>
      <trkpt lat="44.87488" lon="5.56917">
        <ele>1218.357</ele>
        <time>2021-11-07T09:47:07Z</time>
      </trkpt>
      <trkpt lat="44.87484" lon="5.56923">
        <ele>1219.778</ele>
        <time>2021-11-07T09:47:12Z</time>
      </trkpt>
      <trkpt lat="44.87481" lon="5.56928">
        <ele>1220.534</ele>
        <time>2021-11-07T09:47:17Z</time>
      </trkpt>
      <trkpt lat="44.87474" lon="5.56939">
        <ele>1222.326</ele>
        <time>2021-11-07T09:47:22Z</time>
      </trkpt>
      <trkpt lat="44.8747" lon="5.56945">
        <ele>1222.793</ele>
        <time>2021-11-07T09:47:27Z</time>
      </trkpt>
      <trkpt lat="44.87469" lon="5.56947">
        <ele>1223.557</ele>
        <time>2021-11-07T09:47:32Z</time>
      </trkpt>
      <trkpt lat="44.87469" lon="5.56947">
        <ele>1223.659</ele>
        <time>2021-11-07T09:47:37Z</time>
      </trkpt>
      <trkpt lat="44.87468" lon="5.56948">
        <ele>1223.448</ele>
        <time>2021-11-07T09:47:42Z</time>
      </trkpt>
      <trkpt lat="44.87468" lon="5.56954">
        <ele>1225.597</ele>
        <time>2021-11-07T09:47:47Z</time>
      </trkpt>
      <trkpt lat="44.87465" lon="5.56965">
        <ele>1227.25</ele>
        <time>2021-11-07T09:47:52Z</time>
      </trkpt>
      <trkpt lat="44.87459" lon="5.56973">
        <ele>1227.65</ele>
        <time>2021-11-07T09:47:57Z</time>
      </trkpt>
      <trkpt lat="44.87458" lon="5.56985">
        <ele>1228.321</ele>
        <time>2021-11-07T09:48:03Z</time>
      </trkpt>
      <trkpt lat="44.87457" lon="5.56994">
        <ele>1229.409</ele>
        <time>2021-11-07T09:48:08Z</time>
      </trkpt>
      <trkpt lat="44.87458" lon="5.57001">
        <ele>1229.807</ele>
        <time>2021-11-07T09:48:13Z</time>
      </trkpt>
      <trkpt lat="44.8746" lon="5.57008">
        <ele>1231.78</ele>
        <time>2021-11-07T09:48:18Z</time>
      </trkpt>
      <trkpt lat="44.87461" lon="5.57014">
        <ele>1231.901</ele>
        <time>2021-11-07T09:48:23Z</time>
      </trkpt>
      <trkpt lat="44.87462" lon="5.57017">
        <ele>1234.816</ele>
        <time>2021-11-07T09:48:28Z</time>
      </trkpt>
      <trkpt lat="44.87463" lon="5.57018">
        <ele>1234.631</ele>
        <time>2021-11-07T09:48:33Z</time>
      </trkpt>
      <trkpt lat="44.87463" lon="5.57018">
        <ele>1234.56</ele>
        <time>2021-11-07T09:48:38Z</time>
      </trkpt>
      <trkpt lat="44.87463" lon="5.57018">
        <ele>1234.982</ele>
        <time>2021-11-07T09:48:43Z</time>
      </trkpt>
      <trkpt lat="44.87464" lon="5.5702">
        <ele>1234.662</ele>
        <time>2021-11-07T09:48:48Z</time>
      </trkpt>
      <trkpt lat="44.87464" lon="5.5702">
        <ele>1235.123</ele>
        <time>2021-11-07T09:48:53Z</time>
      </trkpt>
      <trkpt lat="44.87468" lon="5.57026">
        <ele>1233.341</ele>
        <time>2021-11-07T09:48:58Z</time>
      </trkpt>
      <trkpt lat="44.87472" lon="5.57033">
        <ele>1234.066</ele>
        <time>2021-11-07T09:49:03Z</time>
      </trkpt>
      <trkpt lat="44.87475" lon="5.5704">
        <ele>1237.463</ele>
        <time>2021-11-07T09:49:08Z</time>
      </trkpt>
      <trkpt lat="44.87473" lon="5.57049">
        <ele>1240.053</ele>
        <time>2021-11-07T09:49:13Z</time>
      </trkpt>
      <trkpt lat="44.87473" lon="5.57056">
        <ele>1240.357</ele>
        <time>2021-11-07T09:49:18Z</time>
      </trkpt>
      <trkpt lat="44.87475" lon="5.57056">
        <ele>1240.473</ele>
        <time>2021-11-07T09:49:23Z</time>
      </trkpt>
      <trkpt lat="44.87475" lon="5.57056">
        <ele>1241.104</ele>
        <time>2021-11-07T09:49:28Z</time>
      </trkpt>
      <trkpt lat="44.87475" lon="5.57056">
        <ele>1241.335</ele>
        <time>2021-11-07T09:49:33Z</time>
      </trkpt>
      <trkpt lat="44.87475" lon="5.57056">
        <ele>1241.417</ele>
        <time>2021-11-07T09:49:38Z</time>
      </trkpt>
      <trkpt lat="44.87475" lon="5.57056">
        <ele>1241.488</ele>
        <time>2021-11-07T09:49:43Z</time>
      </trkpt>
      <trkpt lat="44.87475" lon="5.57056">
        <ele>1241.549</ele>
        <time>2021-11-07T09:49:48Z</time>
      </trkpt>
      <trkpt lat="44.87475" lon="5.57056">
        <ele>1241.548</ele>
        <time>2021-11-07T09:49:53Z</time>
      </trkpt>
      <trkpt lat="44.87475" lon="5.57056">
        <ele>1241.577</ele>
        <time>2021-11-07T09:49:58Z</time>
      </trkpt>
      <trkpt lat="44.87475" lon="5.57056">
        <ele>1241.57</ele>
        <time>2021-11-07T09:50:03Z</time>
      </trkpt>
      <trkpt lat="44.87475" lon="5.57056">
        <ele>1241.579</ele>
        <time>2021-11-07T09:50:08Z</time>
      </trkpt>
      <trkpt lat="44.87475" lon="5.57056">
        <ele>1241.57</ele>
        <time>2021-11-07T09:50:13Z</time>
      </trkpt>
      <trkpt lat="44.87475" lon="5.57056">
        <ele>1241.602</ele>
        <time>2021-11-07T09:50:18Z</time>
      </trkpt>
      <trkpt lat="44.87475" lon="5.57056">
        <ele>1241.611</ele>
        <time>2021-11-07T09:50:23Z</time>
      </trkpt>
      <trkpt lat="44.87475" lon="5.57056">
        <ele>1241.618</ele>
        <time>2021-11-07T09:50:28Z</time>
      </trkpt>
      <trkpt lat="44.87475" lon="5.57056">
        <ele>1241.617</ele>
        <time>2021-11-07T09:50:33Z</time>
      </trkpt>
      <trkpt lat="44.87475" lon="5.57056">
        <ele>1241.628</ele>
        <time>2021-11-07T09:50:38Z</time>
      </trkpt>
      <trkpt lat="44.87475" lon="5.57056">
        <ele>1241.634</ele>
        <time>2021-11-07T09:50:43Z</time>
      </trkpt>
      <trkpt lat="44.87475" lon="5.57056">
        <ele>1241.649</ele>
        <time>2021-11-07T09:50:48Z</time>
      </trkpt>
      <trkpt lat="44.87475" lon="5.57056">
        <ele>1241.661</ele>
        <time>2021-11-07T09:50:53Z</time>
      </trkpt>
      <trkpt lat="44.87475" lon="5.57056">
        <ele>1241.66</ele>
        <time>2021-11-07T09:50:58Z</time>
      </trkpt>
      <trkpt lat="44.87475" lon="5.57056">
        <ele>1241.671</ele>
        <time>2021-11-07T09:51:03Z</time>
      </trkpt>
      <trkpt lat="44.87475" lon="5.57056">
        <ele>1241.673</ele>
        <time>2021-11-07T09:51:08Z</time>
      </trkpt>
      <trkpt lat="44.87478" lon="5.57055">
        <ele>1242.396</ele>
        <time>2021-11-07T09:51:13Z</time>
      </trkpt>
      <trkpt lat="44.87482" lon="5.57051">
        <ele>1242.295</ele>
        <time>2021-11-07T09:51:18Z</time>
      </trkpt>
      <trkpt lat="44.87485" lon="5.57044">
        <ele>1242.981</ele>
        <time>2021-11-07T09:51:23Z</time>
      </trkpt>
      <trkpt lat="44.87489" lon="5.57037">
        <ele>1245.035</ele>
        <time>2021-11-07T09:51:28Z</time>
      </trkpt>
      <trkpt lat="44.87494" lon="5.5703">
        <ele>1245.612</ele>
        <time>2021-11-07T09:51:33Z</time>
      </trkpt>
      <trkpt lat="44.87499" lon="5.57022">
        <ele>1246.623</ele>
        <time>2021-11-07T09:51:38Z</time>
      </trkpt>
      <trkpt lat="44.87504" lon="5.57014">
        <ele>1247.413</ele>
        <time>2021-11-07T09:51:43Z</time>
      </trkpt>
      <trkpt lat="44.87508" lon="5.57007">
        <ele>1248.096</ele>
        <time>2021-11-07T09:51:48Z</time>
      </trkpt>
      <trkpt lat="44.87513" lon="5.57">
        <ele>1247.182</ele>
        <time>2021-11-07T09:51:53Z</time>
      </trkpt>
      <trkpt lat="44.87517" lon="5.56992">
        <ele>1248.028</ele>
        <time>2021-11-07T09:51:58Z</time>
      </trkpt>
      <trkpt lat="44.87522" lon="5.56984">
        <ele>1249.375</ele>
        <time>2021-11-07T09:52:03Z</time>
      </trkpt>
      <trkpt lat="44.87527" lon="5.56977">
        <ele>1249.481</ele>
        <time>2021-11-07T09:52:08Z</time>
      </trkpt>
      <trkpt lat="44.87534" lon="5.56973">
        <ele>1250.139</ele>
        <time>2021-11-07T09:52:13Z</time>
      </trkpt>
      <trkpt lat="44.87541" lon="5.56968">
        <ele>1250.382</ele>
        <time>2021-11-07T09:52:18Z</time>
      </trkpt>
      <trkpt lat="44.87548" lon="5.56963">
        <ele>1249.559</ele>
        <time>2021-11-07T09:52:23Z</time>
      </trkpt>
      <trkpt lat="44.87555" lon="5.56958">
        <ele>1249.39</ele>
        <time>2021-11-07T09:52:28Z</time>
      </trkpt>
      <trkpt lat="44.87562" lon="5.56954">
        <ele>1250.54</ele>
        <time>2021-11-07T09:52:33Z</time>
      </trkpt>
      <trkpt lat="44.87568" lon="5.56951">
        <ele>1251.338</ele>
        <time>2021-11-07T09:52:38Z</time>
      </trkpt>
      <trkpt lat="44.87573" lon="5.5695">
        <ele>1253.24</ele>
        <time>2021-11-07T09:52:43Z</time>
      </trkpt>
      <trkpt lat="44.87577" lon="5.56952">
        <ele>1253.463</ele>
        <time>2021-11-07T09:52:48Z</time>
      </trkpt>
      <trkpt lat="44.87577" lon="5.56953">
        <ele>1254.082</ele>
        <time>2021-11-07T09:52:53Z</time>
      </trkpt>
      <trkpt lat="44.87577" lon="5.56954">
        <ele>1254.308</ele>
        <time>2021-11-07T09:52:58Z</time>
      </trkpt>
      <trkpt lat="44.87577" lon="5.56954">
        <ele>1254.333</ele>
        <time>2021-11-07T09:53:03Z</time>
      </trkpt>
      <trkpt lat="44.87577" lon="5.56954">
        <ele>1254.336</ele>
        <time>2021-11-07T09:53:08Z</time>
      </trkpt>
      <trkpt lat="44.87577" lon="5.56954">
        <ele>1254.333</ele>
        <time>2021-11-07T09:53:13Z</time>
      </trkpt>
      <trkpt lat="44.87577" lon="5.56954">
        <ele>1254.336</ele>
        <time>2021-11-07T09:53:18Z</time>
      </trkpt>
      <trkpt lat="44.87577" lon="5.56956">
        <ele>1254.552</ele>
        <time>2021-11-07T09:53:23Z</time>
      </trkpt>
      <trkpt lat="44.87571" lon="5.5696">
        <ele>1254.46</ele>
        <time>2021-11-07T09:53:28Z</time>
      </trkpt>
      <trkpt lat="44.87566" lon="5.56963">
        <ele>1255.155</ele>
        <time>2021-11-07T09:53:33Z</time>
      </trkpt>
      <trkpt lat="44.87561" lon="5.56967">
        <ele>1256.313</ele>
        <time>2021-11-07T09:53:38Z</time>
      </trkpt>
      <trkpt lat="44.87555" lon="5.56973">
        <ele>1256.31</ele>
        <time>2021-11-07T09:53:43Z</time>
      </trkpt>
      <trkpt lat="44.87549" lon="5.56978">
        <ele>1256.919</ele>
        <time>2021-11-07T09:53:48Z</time>
      </trkpt>
      <trkpt lat="44.87544" lon="5.56983">
        <ele>1256.953</ele>
        <time>2021-11-07T09:53:53Z</time>
      </trkpt>
      <trkpt lat="44.8754" lon="5.56986">
        <ele>1257.325</ele>
        <time>2021-11-07T09:53:58Z</time>
      </trkpt>
      <trkpt lat="44.87538" lon="5.56989">
        <ele>1257.41</ele>
        <time>2021-11-07T09:54:03Z</time>
      </trkpt>
      <trkpt lat="44.87538" lon="5.57">
        <ele>1260.09</ele>
        <time>2021-11-07T09:54:08Z</time>
      </trkpt>
      <trkpt lat="44.8754" lon="5.57005">
        <ele>1261.495</ele>
        <time>2021-11-07T09:54:13Z</time>
      </trkpt>
      <trkpt lat="44.8754" lon="5.57008">
        <ele>1262.336</ele>
        <time>2021-11-07T09:54:18Z</time>
      </trkpt>
      <trkpt lat="44.87543" lon="5.57015">
        <ele>1263.656</ele>
        <time>2021-11-07T09:54:23Z</time>
      </trkpt>
      <trkpt lat="44.87543" lon="5.57017">
        <ele>1264.138</ele>
        <time>2021-11-07T09:54:28Z</time>
      </trkpt>
      <trkpt lat="44.87543" lon="5.57017">
        <ele>1264.499</ele>
        <time>2021-11-07T09:54:33Z</time>
      </trkpt>
      <trkpt lat="44.87544" lon="5.57018">
        <ele>1264.283</ele>
        <time>2021-11-07T09:54:38Z</time>
      </trkpt>
      <trkpt lat="44.87544" lon="5.57017">
        <ele>1263.903</ele>
        <time>2021-11-07T09:54:43Z</time>
      </trkpt>
      <trkpt lat="44.87544" lon="5.57016">
        <ele>1263.419</ele>
        <time>2021-11-07T09:54:48Z</time>
      </trkpt>
      <trkpt lat="44.87544" lon="5.57015">
        <ele>1263.161</ele>
        <time>2021-11-07T09:54:53Z</time>
      </trkpt>
      <trkpt lat="44.87544" lon="5.57015">
        <ele>1263.16</ele>
        <time>2021-11-07T09:54:58Z</time>
      </trkpt>
      <trkpt lat="44.87542" lon="5.57006">
        <ele>1260.521</ele>
        <time>2021-11-07T09:55:03Z</time>
      </trkpt>
      <trkpt lat="44.87538" lon="5.56996">
        <ele>1257.794</ele>
        <time>2021-11-07T09:55:08Z</time>
      </trkpt>
      <trkpt lat="44.8754" lon="5.56984">
        <ele>1256.026</ele>
        <time>2021-11-07T09:55:13Z</time>
      </trkpt>
      <trkpt lat="44.87542" lon="5.56984">
        <ele>1256.614</ele>
        <time>2021-11-07T09:55:18Z</time>
      </trkpt>
      <trkpt lat="44.87542" lon="5.56984">
        <ele>1256.262</ele>
        <time>2021-11-07T09:55:23Z</time>
      </trkpt>
      <trkpt lat="44.87542" lon="5.56983">
        <ele>1256.369</ele>
        <time>2021-11-07T09:55:28Z</time>
      </trkpt>
      <trkpt lat="44.87542" lon="5.56983">
        <ele>1256.368</ele>
        <time>2021-11-07T09:55:33Z</time>
      </trkpt>
      <trkpt lat="44.87542" lon="5.56983">
        <ele>1256.372</ele>
        <time>2021-11-07T09:55:38Z</time>
      </trkpt>
      <trkpt lat="44.87542" lon="5.56983">
        <ele>1256.376</ele>
        <time>2021-11-07T09:55:43Z</time>
      </trkpt>
      <trkpt lat="44.87542" lon="5.56983">
        <ele>1256.376</ele>
        <time>2021-11-07T09:55:48Z</time>
      </trkpt>
      <trkpt lat="44.87542" lon="5.56983">
        <ele>1256.377</ele>
        <time>2021-11-07T09:55:53Z</time>
      </trkpt>
      <trkpt lat="44.87542" lon="5.56983">
        <ele>1256.364</ele>
        <time>2021-11-07T09:55:58Z</time>
      </trkpt>
      <trkpt lat="44.87542" lon="5.56983">
        <ele>1256.361</ele>
        <time>2021-11-07T09:56:03Z</time>
      </trkpt>
      <trkpt lat="44.87542" lon="5.56983">
        <ele>1256.367</ele>
        <time>2021-11-07T09:56:08Z</time>
      </trkpt>
      <trkpt lat="44.87542" lon="5.56983">
        <ele>1256.376</ele>
        <time>2021-11-07T09:56:13Z</time>
      </trkpt>
      <trkpt lat="44.87542" lon="5.56983">
        <ele>1256.374</ele>
        <time>2021-11-07T09:56:18Z</time>
      </trkpt>
      <trkpt lat="44.87542" lon="5.56983">
        <ele>1256.374</ele>
        <time>2021-11-07T09:56:23Z</time>
      </trkpt>
      <trkpt lat="44.87543" lon="5.56983">
        <ele>1256.223</ele>
        <time>2021-11-07T09:56:28Z</time>
      </trkpt>
      <trkpt lat="44.87543" lon="5.56985">
        <ele>1256.046</ele>
        <time>2021-11-07T09:56:33Z</time>
      </trkpt>
      <trkpt lat="44.87544" lon="5.56986">
        <ele>1256.25</ele>
        <time>2021-11-07T09:56:38Z</time>
      </trkpt>
      <trkpt lat="44.87544" lon="5.56985">
        <ele>1256.423</ele>
        <time>2021-11-07T09:56:43Z</time>
      </trkpt>
      <trkpt lat="44.87544" lon="5.56985">
        <ele>1256.438</ele>
        <time>2021-11-07T09:56:48Z</time>
      </trkpt>
      <trkpt lat="44.87544" lon="5.56985">
        <ele>1256.447</ele>
        <time>2021-11-07T09:56:53Z</time>
      </trkpt>
      <trkpt lat="44.87544" lon="5.56985">
        <ele>1256.457</ele>
        <time>2021-11-07T09:56:58Z</time>
      </trkpt>
      <trkpt lat="44.87544" lon="5.56985">
        <ele>1256.472</ele>
        <time>2021-11-07T09:57:03Z</time>
      </trkpt>
      <trkpt lat="44.87544" lon="5.56985">
        <ele>1256.466</ele>
        <time>2021-11-07T09:57:08Z</time>
      </trkpt>
      <trkpt lat="44.87545" lon="5.56983">
        <ele>1256.999</ele>
        <time>2021-11-07T09:57:13Z</time>
      </trkpt>
      <trkpt lat="44.87551" lon="5.56978">
        <ele>1257.326</ele>
        <time>2021-11-07T09:57:18Z</time>
      </trkpt>
      <trkpt lat="44.8756" lon="5.56969">
        <ele>1256.953</ele>
        <time>2021-11-07T09:57:23Z</time>
      </trkpt>
      <trkpt lat="44.87578" lon="5.56956">
        <ele>1254.847</ele>
        <time>2021-11-07T09:57:28Z</time>
      </trkpt>
      <trkpt lat="44.87603" lon="5.56952">
        <ele>1254.365</ele>
        <time>2021-11-07T09:57:33Z</time>
      </trkpt>
      <trkpt lat="44.87625" lon="5.56946">
        <ele>1253.16</ele>
        <time>2021-11-07T09:57:38Z</time>
      </trkpt>
      <trkpt lat="44.87645" lon="5.56939">
        <ele>1253.129</ele>
        <time>2021-11-07T09:57:43Z</time>
      </trkpt>
      <trkpt lat="44.87665" lon="5.56937">
        <ele>1252.538</ele>
        <time>2021-11-07T09:57:48Z</time>
      </trkpt>
      <trkpt lat="44.87684" lon="5.56939">
        <ele>1250.795</ele>
        <time>2021-11-07T09:57:53Z</time>
      </trkpt>
      <trkpt lat="44.877" lon="5.56929">
        <ele>1249.784</ele>
        <time>2021-11-07T09:57:58Z</time>
      </trkpt>
      <trkpt lat="44.87703" lon="5.56902">
        <ele>1250.517</ele>
        <time>2021-11-07T09:58:03Z</time>
      </trkpt>
      <trkpt lat="44.87709" lon="5.56892">
        <ele>1250.467</ele>
        <time>2021-11-07T09:58:08Z</time>
      </trkpt>
      <trkpt lat="44.87715" lon="5.56896">
        <ele>1251.3</ele>
        <time>2021-11-07T09:58:13Z</time>
      </trkpt>
      <trkpt lat="44.87722" lon="5.56899">
        <ele>1252.764</ele>
        <time>2021-11-07T09:58:18Z</time>
      </trkpt>
      <trkpt lat="44.87729" lon="5.56901">
        <ele>1253.061</ele>
        <time>2021-11-07T09:58:23Z</time>
      </trkpt>
      <trkpt lat="44.87735" lon="5.56902">
        <ele>1257.085</ele>
        <time>2021-11-07T09:58:28Z</time>
      </trkpt>
      <trkpt lat="44.87742" lon="5.56904">
        <ele>1257.805</ele>
        <time>2021-11-07T09:58:33Z</time>
      </trkpt>
      <trkpt lat="44.87748" lon="5.56906">
        <ele>1257.501</ele>
        <time>2021-11-07T09:58:38Z</time>
      </trkpt>
      <trkpt lat="44.8775" lon="5.56907">
        <ele>1257.638</ele>
        <time>2021-11-07T09:58:43Z</time>
      </trkpt>
      <trkpt lat="44.87752" lon="5.56911">
        <ele>1258.756</ele>
        <time>2021-11-07T09:58:48Z</time>
      </trkpt>
      <trkpt lat="44.87752" lon="5.56912">
        <ele>1258.442</ele>
        <time>2021-11-07T09:58:53Z</time>
      </trkpt>
      <trkpt lat="44.87752" lon="5.56912">
        <ele>1258.983</ele>
        <time>2021-11-07T09:58:58Z</time>
      </trkpt>
      <trkpt lat="44.87752" lon="5.56911">
        <ele>1259.338</ele>
        <time>2021-11-07T09:59:03Z</time>
      </trkpt>
      <trkpt lat="44.87752" lon="5.56911">
        <ele>1259.336</ele>
        <time>2021-11-07T09:59:08Z</time>
      </trkpt>
      <trkpt lat="44.87752" lon="5.56911">
        <ele>1259.332</ele>
        <time>2021-11-07T09:59:13Z</time>
      </trkpt>
      <trkpt lat="44.87752" lon="5.56911">
        <ele>1259.341</ele>
        <time>2021-11-07T09:59:18Z</time>
      </trkpt>
      <trkpt lat="44.87752" lon="5.56911">
        <ele>1259.344</ele>
        <time>2021-11-07T09:59:23Z</time>
      </trkpt>
      <trkpt lat="44.87752" lon="5.56911">
        <ele>1259.337</ele>
        <time>2021-11-07T09:59:28Z</time>
      </trkpt>
      <trkpt lat="44.87751" lon="5.56913">
        <ele>1258.267</ele>
        <time>2021-11-07T09:59:33Z</time>
      </trkpt>
      <trkpt lat="44.87752" lon="5.56916">
        <ele>1261.024</ele>
        <time>2021-11-07T09:59:38Z</time>
      </trkpt>
      <trkpt lat="44.87757" lon="5.56918">
        <ele>1263.477</ele>
        <time>2021-11-07T09:59:43Z</time>
      </trkpt>
      <trkpt lat="44.87763" lon="5.56922">
        <ele>1265.795</ele>
        <time>2021-11-07T09:59:48Z</time>
      </trkpt>
      <trkpt lat="44.87769" lon="5.56925">
        <ele>1267.737</ele>
        <time>2021-11-07T09:59:53Z</time>
      </trkpt>
      <trkpt lat="44.87778" lon="5.56928">
        <ele>1268.154</ele>
        <time>2021-11-07T09:59:58Z</time>
      </trkpt>
      <trkpt lat="44.87788" lon="5.56932">
        <ele>1268.113</ele>
        <time>2021-11-07T10:00:03Z</time>
      </trkpt>
      <trkpt lat="44.87798" lon="5.56935">
        <ele>1267.999</ele>
        <time>2021-11-07T10:00:08Z</time>
      </trkpt>
      <trkpt lat="44.87804" lon="5.56937">
        <ele>1269.895</ele>
        <time>2021-11-07T10:00:13Z</time>
      </trkpt>
      <trkpt lat="44.8781" lon="5.56939">
        <ele>1271.514</ele>
        <time>2021-11-07T10:00:18Z</time>
      </trkpt>
      <trkpt lat="44.87815" lon="5.56943">
        <ele>1272.488</ele>
        <time>2021-11-07T10:00:23Z</time>
      </trkpt>
      <trkpt lat="44.87821" lon="5.56946">
        <ele>1273.264</ele>
        <time>2021-11-07T10:00:28Z</time>
      </trkpt>
      <trkpt lat="44.87827" lon="5.56949">
        <ele>1276.497</ele>
        <time>2021-11-07T10:00:33Z</time>
      </trkpt>
      <trkpt lat="44.87833" lon="5.56951">
        <ele>1277.305</ele>
        <time>2021-11-07T10:00:38Z</time>
      </trkpt>
      <trkpt lat="44.87839" lon="5.56954">
        <ele>1278.375</ele>
        <time>2021-11-07T10:00:43Z</time>
      </trkpt>
      <trkpt lat="44.87845" lon="5.56959">
        <ele>1280.149</ele>
        <time>2021-11-07T10:00:48Z</time>
      </trkpt>
      <trkpt lat="44.8785" lon="5.56962">
        <ele>1280.583</ele>
        <time>2021-11-07T10:00:53Z</time>
      </trkpt>
      <trkpt lat="44.87856" lon="5.56965">
        <ele>1282.03</ele>
        <time>2021-11-07T10:00:58Z</time>
      </trkpt>
      <trkpt lat="44.87862" lon="5.56969">
        <ele>1283.27</ele>
        <time>2021-11-07T10:01:03Z</time>
      </trkpt>
      <trkpt lat="44.87867" lon="5.56973">
        <ele>1283.952</ele>
        <time>2021-11-07T10:01:08Z</time>
      </trkpt>
      <trkpt lat="44.87872" lon="5.56978">
        <ele>1284.425</ele>
        <time>2021-11-07T10:01:13Z</time>
      </trkpt>
      <trkpt lat="44.87878" lon="5.56982">
        <ele>1286.222</ele>
        <time>2021-11-07T10:01:18Z</time>
      </trkpt>
      <trkpt lat="44.87884" lon="5.56986">
        <ele>1287.242</ele>
        <time>2021-11-07T10:01:23Z</time>
      </trkpt>
      <trkpt lat="44.8789" lon="5.56991">
        <ele>1287.437</ele>
        <time>2021-11-07T10:01:28Z</time>
      </trkpt>
      <trkpt lat="44.87896" lon="5.56995">
        <ele>1288.351</ele>
        <time>2021-11-07T10:01:33Z</time>
      </trkpt>
      <trkpt lat="44.87903" lon="5.56999">
        <ele>1288.822</ele>
        <time>2021-11-07T10:01:38Z</time>
      </trkpt>
      <trkpt lat="44.87909" lon="5.57002">
        <ele>1289.774</ele>
        <time>2021-11-07T10:01:43Z</time>
      </trkpt>
      <trkpt lat="44.87917" lon="5.57008">
        <ele>1287.388</ele>
        <time>2021-11-07T10:01:48Z</time>
      </trkpt>
      <trkpt lat="44.87924" lon="5.57016">
        <ele>1286.511</ele>
        <time>2021-11-07T10:01:53Z</time>
      </trkpt>
      <trkpt lat="44.87931" lon="5.57026">
        <ele>1285.355</ele>
        <time>2021-11-07T10:01:58Z</time>
      </trkpt>
      <trkpt lat="44.87938" lon="5.57037">
        <ele>1285.833</ele>
        <time>2021-11-07T10:02:03Z</time>
      </trkpt>
      <trkpt lat="44.87945" lon="5.57049">
        <ele>1287.246</ele>
        <time>2021-11-07T10:02:08Z</time>
      </trkpt>
      <trkpt lat="44.87951" lon="5.5706">
        <ele>1288.332</ele>
        <time>2021-11-07T10:02:13Z</time>
      </trkpt>
      <trkpt lat="44.87958" lon="5.57068">
        <ele>1289.239</ele>
        <time>2021-11-07T10:02:18Z</time>
      </trkpt>
      <trkpt lat="44.87966" lon="5.57073">
        <ele>1290.417</ele>
        <time>2021-11-07T10:02:23Z</time>
      </trkpt>
      <trkpt lat="44.87974" lon="5.57078">
        <ele>1291.4</ele>
        <time>2021-11-07T10:02:28Z</time>
      </trkpt>
      <trkpt lat="44.87982" lon="5.57082">
        <ele>1292.295</ele>
        <time>2021-11-07T10:02:33Z</time>
      </trkpt>
      <trkpt lat="44.87989" lon="5.57087">
        <ele>1292.907</ele>
        <time>2021-11-07T10:02:38Z</time>
      </trkpt>
      <trkpt lat="44.87997" lon="5.57092">
        <ele>1293.805</ele>
        <time>2021-11-07T10:02:43Z</time>
      </trkpt>
      <trkpt lat="44.88005" lon="5.57096">
        <ele>1294.285</ele>
        <time>2021-11-07T10:02:48Z</time>
      </trkpt>
      <trkpt lat="44.88013" lon="5.57099">
        <ele>1294.838</ele>
        <time>2021-11-07T10:02:53Z</time>
      </trkpt>
      <trkpt lat="44.8802" lon="5.571">
        <ele>1295.864</ele>
        <time>2021-11-07T10:02:58Z</time>
      </trkpt>
      <trkpt lat="44.88027" lon="5.571">
        <ele>1297.479</ele>
        <time>2021-11-07T10:03:03Z</time>
      </trkpt>
      <trkpt lat="44.88036" lon="5.57103">
        <ele>1297.247</ele>
        <time>2021-11-07T10:03:08Z</time>
      </trkpt>
      <trkpt lat="44.88043" lon="5.57109">
        <ele>1298.557</ele>
        <time>2021-11-07T10:03:13Z</time>
      </trkpt>
      <trkpt lat="44.8805" lon="5.57114">
        <ele>1299.449</ele>
        <time>2021-11-07T10:03:18Z</time>
      </trkpt>
      <trkpt lat="44.88057" lon="5.57116">
        <ele>1299.723</ele>
        <time>2021-11-07T10:03:23Z</time>
      </trkpt>
      <trkpt lat="44.88065" lon="5.57119">
        <ele>1299.911</ele>
        <time>2021-11-07T10:03:28Z</time>
      </trkpt>
      <trkpt lat="44.88072" lon="5.57121">
        <ele>1299.581</ele>
        <time>2021-11-07T10:03:33Z</time>
      </trkpt>
      <trkpt lat="44.88081" lon="5.57122">
        <ele>1299.776</ele>
        <time>2021-11-07T10:03:38Z</time>
      </trkpt>
      <trkpt lat="44.8809" lon="5.57122">
        <ele>1299.826</ele>
        <time>2021-11-07T10:03:43Z</time>
      </trkpt>
      <trkpt lat="44.88098" lon="5.57124">
        <ele>1300.172</ele>
        <time>2021-11-07T10:03:48Z</time>
      </trkpt>
      <trkpt lat="44.88106" lon="5.57126">
        <ele>1300.018</ele>
        <time>2021-11-07T10:03:53Z</time>
      </trkpt>
      <trkpt lat="44.88114" lon="5.57128">
        <ele>1300.626</ele>
        <time>2021-11-07T10:03:58Z</time>
      </trkpt>
      <trkpt lat="44.88122" lon="5.57129">
        <ele>1300.342</ele>
        <time>2021-11-07T10:04:03Z</time>
      </trkpt>
      <trkpt lat="44.88129" lon="5.57131">
        <ele>1301.437</ele>
        <time>2021-11-07T10:04:08Z</time>
      </trkpt>
      <trkpt lat="44.88136" lon="5.57133">
        <ele>1301.631</ele>
        <time>2021-11-07T10:04:13Z</time>
      </trkpt>
      <trkpt lat="44.88143" lon="5.57134">
        <ele>1304.228</ele>
        <time>2021-11-07T10:04:18Z</time>
      </trkpt>
      <trkpt lat="44.88151" lon="5.57137">
        <ele>1305.583</ele>
        <time>2021-11-07T10:04:23Z</time>
      </trkpt>
      <trkpt lat="44.88159" lon="5.5714">
        <ele>1304.944</ele>
        <time>2021-11-07T10:04:28Z</time>
      </trkpt>
      <trkpt lat="44.88166" lon="5.57141">
        <ele>1304.984</ele>
        <time>2021-11-07T10:04:33Z</time>
      </trkpt>
      <trkpt lat="44.88173" lon="5.57145">
        <ele>1305.042</ele>
        <time>2021-11-07T10:04:38Z</time>
      </trkpt>
      <trkpt lat="44.8818" lon="5.57148">
        <ele>1306.766</ele>
        <time>2021-11-07T10:04:43Z</time>
      </trkpt>
      <trkpt lat="44.88187" lon="5.57151">
        <ele>1307.554</ele>
        <time>2021-11-07T10:04:48Z</time>
      </trkpt>
      <trkpt lat="44.88194" lon="5.57154">
        <ele>1308.277</ele>
        <time>2021-11-07T10:04:53Z</time>
      </trkpt>
      <trkpt lat="44.88201" lon="5.57155">
        <ele>1309.112</ele>
        <time>2021-11-07T10:04:58Z</time>
      </trkpt>
      <trkpt lat="44.88208" lon="5.57156">
        <ele>1309.221</ele>
        <time>2021-11-07T10:05:03Z</time>
      </trkpt>
      <trkpt lat="44.88214" lon="5.57156">
        <ele>1309.982</ele>
        <time>2021-11-07T10:05:08Z</time>
      </trkpt>
      <trkpt lat="44.8822" lon="5.57157">
        <ele>1311.924</ele>
        <time>2021-11-07T10:05:13Z</time>
      </trkpt>
      <trkpt lat="44.88227" lon="5.5716">
        <ele>1313.239</ele>
        <time>2021-11-07T10:05:18Z</time>
      </trkpt>
      <trkpt lat="44.88233" lon="5.57163">
        <ele>1314.08</ele>
        <time>2021-11-07T10:05:23Z</time>
      </trkpt>
      <trkpt lat="44.88241" lon="5.57165">
        <ele>1314.804</ele>
        <time>2021-11-07T10:05:28Z</time>
      </trkpt>
      <trkpt lat="44.88247" lon="5.57167">
        <ele>1315.065</ele>
        <time>2021-11-07T10:05:33Z</time>
      </trkpt>
      <trkpt lat="44.88254" lon="5.57169">
        <ele>1315.828</ele>
        <time>2021-11-07T10:05:38Z</time>
      </trkpt>
      <trkpt lat="44.8826" lon="5.57171">
        <ele>1316.188</ele>
        <time>2021-11-07T10:05:43Z</time>
      </trkpt>
      <trkpt lat="44.88267" lon="5.57175">
        <ele>1318.085</ele>
        <time>2021-11-07T10:05:48Z</time>
      </trkpt>
      <trkpt lat="44.88274" lon="5.57177">
        <ele>1318.5</ele>
        <time>2021-11-07T10:05:53Z</time>
      </trkpt>
      <trkpt lat="44.88281" lon="5.57178">
        <ele>1318.669</ele>
        <time>2021-11-07T10:05:58Z</time>
      </trkpt>
      <trkpt lat="44.88289" lon="5.57179">
        <ele>1318.897</ele>
        <time>2021-11-07T10:06:03Z</time>
      </trkpt>
      <trkpt lat="44.88296" lon="5.5718">
        <ele>1319.377</ele>
        <time>2021-11-07T10:06:08Z</time>
      </trkpt>
      <trkpt lat="44.88303" lon="5.5718">
        <ele>1319.71</ele>
        <time>2021-11-07T10:06:13Z</time>
      </trkpt>
      <trkpt lat="44.8831" lon="5.57181">
        <ele>1320.456</ele>
        <time>2021-11-07T10:06:18Z</time>
      </trkpt>
      <trkpt lat="44.88316" lon="5.57182">
        <ele>1322.073</ele>
        <time>2021-11-07T10:06:23Z</time>
      </trkpt>
      <trkpt lat="44.88322" lon="5.57182">
        <ele>1323.087</ele>
        <time>2021-11-07T10:06:28Z</time>
      </trkpt>
      <trkpt lat="44.88328" lon="5.57183">
        <ele>1323.7</ele>
        <time>2021-11-07T10:06:33Z</time>
      </trkpt>
      <trkpt lat="44.88333" lon="5.57184">
        <ele>1324.468</ele>
        <time>2021-11-07T10:06:38Z</time>
      </trkpt>
      <trkpt lat="44.88339" lon="5.57184">
        <ele>1326.633</ele>
        <time>2021-11-07T10:06:43Z</time>
      </trkpt>
      <trkpt lat="44.88345" lon="5.57184">
        <ele>1328.019</ele>
        <time>2021-11-07T10:06:48Z</time>
      </trkpt>
      <trkpt lat="44.88351" lon="5.57185">
        <ele>1328.422</ele>
        <time>2021-11-07T10:06:53Z</time>
      </trkpt>
      <trkpt lat="44.88356" lon="5.57186">
        <ele>1332.523</ele>
        <time>2021-11-07T10:06:58Z</time>
      </trkpt>
      <trkpt lat="44.88362" lon="5.57188">
        <ele>1332.969</ele>
        <time>2021-11-07T10:07:03Z</time>
      </trkpt>
      <trkpt lat="44.88368" lon="5.57189">
        <ele>1335.362</ele>
        <time>2021-11-07T10:07:08Z</time>
      </trkpt>
      <trkpt lat="44.88374" lon="5.5719">
        <ele>1336.805</ele>
        <time>2021-11-07T10:07:13Z</time>
      </trkpt>
      <trkpt lat="44.8838" lon="5.57192">
        <ele>1338.439</ele>
        <time>2021-11-07T10:07:18Z</time>
      </trkpt>
      <trkpt lat="44.88386" lon="5.57194">
        <ele>1338.241</ele>
        <time>2021-11-07T10:07:23Z</time>
      </trkpt>
      <trkpt lat="44.88391" lon="5.57196">
        <ele>1339.541</ele>
        <time>2021-11-07T10:07:28Z</time>
      </trkpt>
      <trkpt lat="44.88397" lon="5.57199">
        <ele>1340.338</ele>
        <time>2021-11-07T10:07:33Z</time>
      </trkpt>
      <trkpt lat="44.88403" lon="5.57203">
        <ele>1340.776</ele>
        <time>2021-11-07T10:07:38Z</time>
      </trkpt>
      <trkpt lat="44.8841" lon="5.57207">
        <ele>1340.49</ele>
        <time>2021-11-07T10:07:43Z</time>
      </trkpt>
      <trkpt lat="44.88415" lon="5.5721">
        <ele>1341.709</ele>
        <time>2021-11-07T10:07:48Z</time>
      </trkpt>
      <trkpt lat="44.88421" lon="5.57211">
        <ele>1342.962</ele>
        <time>2021-11-07T10:07:53Z</time>
      </trkpt>
      <trkpt lat="44.88427" lon="5.57212">
        <ele>1345.63</ele>
        <time>2021-11-07T10:07:58Z</time>
      </trkpt>
      <trkpt lat="44.88434" lon="5.57213">
        <ele>1346.103</ele>
        <time>2021-11-07T10:08:03Z</time>
      </trkpt>
      <trkpt lat="44.88441" lon="5.57218">
        <ele>1345.771</ele>
        <time>2021-11-07T10:08:08Z</time>
      </trkpt>
      <trkpt lat="44.88447" lon="5.57221">
        <ele>1346.281</ele>
        <time>2021-11-07T10:08:13Z</time>
      </trkpt>
      <trkpt lat="44.88453" lon="5.57225">
        <ele>1347.596</ele>
        <time>2021-11-07T10:08:18Z</time>
      </trkpt>
      <trkpt lat="44.88459" lon="5.57228">
        <ele>1346.896</ele>
        <time>2021-11-07T10:08:23Z</time>
      </trkpt>
      <trkpt lat="44.88466" lon="5.57229">
        <ele>1348.212</ele>
        <time>2021-11-07T10:08:28Z</time>
      </trkpt>
      <trkpt lat="44.88473" lon="5.57232">
        <ele>1348.498</ele>
        <time>2021-11-07T10:08:33Z</time>
      </trkpt>
      <trkpt lat="44.8848" lon="5.57234">
        <ele>1348.853</ele>
        <time>2021-11-07T10:08:38Z</time>
      </trkpt>
      <trkpt lat="44.88487" lon="5.57236">
        <ele>1349.404</ele>
        <time>2021-11-07T10:08:43Z</time>
      </trkpt>
      <trkpt lat="44.88493" lon="5.57239">
        <ele>1350.075</ele>
        <time>2021-11-07T10:08:48Z</time>
      </trkpt>
      <trkpt lat="44.88498" lon="5.57241">
        <ele>1350.9</ele>
        <time>2021-11-07T10:08:53Z</time>
      </trkpt>
      <trkpt lat="44.88503" lon="5.57246">
        <ele>1351.576</ele>
        <time>2021-11-07T10:08:58Z</time>
      </trkpt>
      <trkpt lat="44.88509" lon="5.57249">
        <ele>1352.822</ele>
        <time>2021-11-07T10:09:03Z</time>
      </trkpt>
      <trkpt lat="44.88515" lon="5.57252">
        <ele>1354.228</ele>
        <time>2021-11-07T10:09:08Z</time>
      </trkpt>
      <trkpt lat="44.8852" lon="5.57254">
        <ele>1355.188</ele>
        <time>2021-11-07T10:09:13Z</time>
      </trkpt>
      <trkpt lat="44.88525" lon="5.57256">
        <ele>1355.412</ele>
        <time>2021-11-07T10:09:18Z</time>
      </trkpt>
      <trkpt lat="44.88529" lon="5.57259">
        <ele>1355.136</ele>
        <time>2021-11-07T10:09:22Z</time>
      </trkpt>
      <trkpt lat="44.88542" lon="5.57262">
        <ele>1359.655</ele>
        <time>2021-11-07T10:09:31Z</time>
      </trkpt>
      <trkpt lat="44.88549" lon="5.57264">
        <ele>1360.476</ele>
        <time>2021-11-07T10:09:36Z</time>
      </trkpt>
      <trkpt lat="44.88555" lon="5.57265">
        <ele>1359.439</ele>
        <time>2021-11-07T10:09:41Z</time>
      </trkpt>
      <trkpt lat="44.88562" lon="5.57267">
        <ele>1359.298</ele>
        <time>2021-11-07T10:09:46Z</time>
      </trkpt>
      <trkpt lat="44.88567" lon="5.57271">
        <ele>1360.448</ele>
        <time>2021-11-07T10:09:51Z</time>
      </trkpt>
      <trkpt lat="44.88574" lon="5.57276">
        <ele>1360.959</ele>
        <time>2021-11-07T10:09:56Z</time>
      </trkpt>
      <trkpt lat="44.8858" lon="5.57279">
        <ele>1361.052</ele>
        <time>2021-11-07T10:10:01Z</time>
      </trkpt>
      <trkpt lat="44.88586" lon="5.57282">
        <ele>1361.768</ele>
        <time>2021-11-07T10:10:06Z</time>
      </trkpt>
      <trkpt lat="44.88593" lon="5.57285">
        <ele>1362.541</ele>
        <time>2021-11-07T10:10:11Z</time>
      </trkpt>
      <trkpt lat="44.88599" lon="5.57288">
        <ele>1364.413</ele>
        <time>2021-11-07T10:10:16Z</time>
      </trkpt>
      <trkpt lat="44.88605" lon="5.5729">
        <ele>1365.698</ele>
        <time>2021-11-07T10:10:21Z</time>
      </trkpt>
      <trkpt lat="44.88611" lon="5.57294">
        <ele>1366.818</ele>
        <time>2021-11-07T10:10:26Z</time>
      </trkpt>
      <trkpt lat="44.88617" lon="5.57298">
        <ele>1367.7</ele>
        <time>2021-11-07T10:10:31Z</time>
      </trkpt>
      <trkpt lat="44.88624" lon="5.57302">
        <ele>1368.368</ele>
        <time>2021-11-07T10:10:36Z</time>
      </trkpt>
      <trkpt lat="44.88631" lon="5.57306">
        <ele>1368.583</ele>
        <time>2021-11-07T10:10:41Z</time>
      </trkpt>
      <trkpt lat="44.88637" lon="5.57309">
        <ele>1369.949</ele>
        <time>2021-11-07T10:10:46Z</time>
      </trkpt>
      <trkpt lat="44.88643" lon="5.57311">
        <ele>1371.07</ele>
        <time>2021-11-07T10:10:51Z</time>
      </trkpt>
      <trkpt lat="44.8865" lon="5.57315">
        <ele>1371.933</ele>
        <time>2021-11-07T10:10:56Z</time>
      </trkpt>
      <trkpt lat="44.88656" lon="5.57319">
        <ele>1373.523</ele>
        <time>2021-11-07T10:11:01Z</time>
      </trkpt>
      <trkpt lat="44.88662" lon="5.57322">
        <ele>1373.817</ele>
        <time>2021-11-07T10:11:06Z</time>
      </trkpt>
      <trkpt lat="44.88668" lon="5.57325">
        <ele>1374.734</ele>
        <time>2021-11-07T10:11:11Z</time>
      </trkpt>
      <trkpt lat="44.88673" lon="5.57329">
        <ele>1375.674</ele>
        <time>2021-11-07T10:11:16Z</time>
      </trkpt>
      <trkpt lat="44.88679" lon="5.57335">
        <ele>1377.697</ele>
        <time>2021-11-07T10:11:21Z</time>
      </trkpt>
      <trkpt lat="44.88684" lon="5.57342">
        <ele>1378.261</ele>
        <time>2021-11-07T10:11:26Z</time>
      </trkpt>
      <trkpt lat="44.88689" lon="5.57349">
        <ele>1379.115</ele>
        <time>2021-11-07T10:11:31Z</time>
      </trkpt>
      <trkpt lat="44.88694" lon="5.57355">
        <ele>1380.435</ele>
        <time>2021-11-07T10:11:36Z</time>
      </trkpt>
      <trkpt lat="44.88699" lon="5.57359">
        <ele>1382.196</ele>
        <time>2021-11-07T10:11:41Z</time>
      </trkpt>
      <trkpt lat="44.88704" lon="5.57362">
        <ele>1383.085</ele>
        <time>2021-11-07T10:11:46Z</time>
      </trkpt>
      <trkpt lat="44.88709" lon="5.57367">
        <ele>1384.766</ele>
        <time>2021-11-07T10:11:51Z</time>
      </trkpt>
      <trkpt lat="44.88712" lon="5.57372">
        <ele>1385.095</ele>
        <time>2021-11-07T10:11:56Z</time>
      </trkpt>
      <trkpt lat="44.88711" lon="5.57377">
        <ele>1384.795</ele>
        <time>2021-11-07T10:12:01Z</time>
      </trkpt>
      <trkpt lat="44.8871" lon="5.57377">
        <ele>1384.236</ele>
        <time>2021-11-07T10:12:06Z</time>
      </trkpt>
      <trkpt lat="44.8871" lon="5.57375">
        <ele>1383.535</ele>
        <time>2021-11-07T10:12:11Z</time>
      </trkpt>
      <trkpt lat="44.8871" lon="5.57374">
        <ele>1383.027</ele>
        <time>2021-11-07T10:12:16Z</time>
      </trkpt>
      <trkpt lat="44.8871" lon="5.57374">
        <ele>1382.978</ele>
        <time>2021-11-07T10:12:21Z</time>
      </trkpt>
      <trkpt lat="44.8871" lon="5.57374">
        <ele>1382.986</ele>
        <time>2021-11-07T10:12:26Z</time>
      </trkpt>
      <trkpt lat="44.8871" lon="5.57374">
        <ele>1383.136</ele>
        <time>2021-11-07T10:12:31Z</time>
      </trkpt>
      <trkpt lat="44.8871" lon="5.57375">
        <ele>1383.707</ele>
        <time>2021-11-07T10:12:36Z</time>
      </trkpt>
      <trkpt lat="44.88709" lon="5.57377">
        <ele>1382.604</ele>
        <time>2021-11-07T10:12:41Z</time>
      </trkpt>
      <trkpt lat="44.8871" lon="5.57378">
        <ele>1381.674</ele>
        <time>2021-11-07T10:12:46Z</time>
      </trkpt>
      <trkpt lat="44.8871" lon="5.57377">
        <ele>1381.581</ele>
        <time>2021-11-07T10:12:51Z</time>
      </trkpt>
      <trkpt lat="44.8871" lon="5.57377">
        <ele>1381.584</ele>
        <time>2021-11-07T10:12:56Z</time>
      </trkpt>
      <trkpt lat="44.8871" lon="5.57377">
        <ele>1381.592</ele>
        <time>2021-11-07T10:13:01Z</time>
      </trkpt>
      <trkpt lat="44.8871" lon="5.57377">
        <ele>1381.601</ele>
        <time>2021-11-07T10:13:06Z</time>
      </trkpt>
      <trkpt lat="44.8871" lon="5.57377">
        <ele>1381.609</ele>
        <time>2021-11-07T10:13:11Z</time>
      </trkpt>
      <trkpt lat="44.8871" lon="5.57377">
        <ele>1381.616</ele>
        <time>2021-11-07T10:13:16Z</time>
      </trkpt>
      <trkpt lat="44.8871" lon="5.57377">
        <ele>1381.626</ele>
        <time>2021-11-07T10:13:21Z</time>
      </trkpt>
      <trkpt lat="44.8871" lon="5.57377">
        <ele>1381.636</ele>
        <time>2021-11-07T10:13:26Z</time>
      </trkpt>
      <trkpt lat="44.88709" lon="5.57377">
        <ele>1381.507</ele>
        <time>2021-11-07T10:13:31Z</time>
      </trkpt>
      <trkpt lat="44.8871" lon="5.57376">
        <ele>1381.189</ele>
        <time>2021-11-07T10:13:36Z</time>
      </trkpt>
      <trkpt lat="44.8871" lon="5.57376">
        <ele>1381.381</ele>
        <time>2021-11-07T10:13:41Z</time>
      </trkpt>
      <trkpt lat="44.8871" lon="5.57375">
        <ele>1381.895</ele>
        <time>2021-11-07T10:13:46Z</time>
      </trkpt>
      <trkpt lat="44.8871" lon="5.57375">
        <ele>1382.568</ele>
        <time>2021-11-07T10:13:51Z</time>
      </trkpt>
      <trkpt lat="44.8871" lon="5.57375">
        <ele>1382.621</ele>
        <time>2021-11-07T10:13:56Z</time>
      </trkpt>
      <trkpt lat="44.8871" lon="5.57375">
        <ele>1382.625</ele>
        <time>2021-11-07T10:14:01Z</time>
      </trkpt>
      <trkpt lat="44.8871" lon="5.57375">
        <ele>1382.623</ele>
        <time>2021-11-07T10:14:06Z</time>
      </trkpt>
      <trkpt lat="44.8871" lon="5.57375">
        <ele>1382.621</ele>
        <time>2021-11-07T10:14:11Z</time>
      </trkpt>
      <trkpt lat="44.8871" lon="5.57375">
        <ele>1382.621</ele>
        <time>2021-11-07T10:14:16Z</time>
      </trkpt>
      <trkpt lat="44.8871" lon="5.57375">
        <ele>1382.631</ele>
        <time>2021-11-07T10:14:21Z</time>
      </trkpt>
      <trkpt lat="44.8871" lon="5.57375">
        <ele>1382.635</ele>
        <time>2021-11-07T10:14:26Z</time>
      </trkpt>
      <trkpt lat="44.8871" lon="5.57375">
        <ele>1382.635</ele>
        <time>2021-11-07T10:14:31Z</time>
      </trkpt>
      <trkpt lat="44.8871" lon="5.57375">
        <ele>1382.64</ele>
        <time>2021-11-07T10:14:36Z</time>
      </trkpt>
      <trkpt lat="44.8871" lon="5.57375">
        <ele>1382.636</ele>
        <time>2021-11-07T10:14:41Z</time>
      </trkpt>
      <trkpt lat="44.8871" lon="5.57375">
        <ele>1382.63</ele>
        <time>2021-11-07T10:14:46Z</time>
      </trkpt>
      <trkpt lat="44.8871" lon="5.57375">
        <ele>1382.628</ele>
        <time>2021-11-07T10:14:51Z</time>
      </trkpt>
      <trkpt lat="44.8871" lon="5.57375">
        <ele>1382.623</ele>
        <time>2021-11-07T10:14:56Z</time>
      </trkpt>
      <trkpt lat="44.8871" lon="5.57375">
        <ele>1382.642</ele>
        <time>2021-11-07T10:15:01Z</time>
      </trkpt>
      <trkpt lat="44.8871" lon="5.57375">
        <ele>1382.659</ele>
        <time>2021-11-07T10:15:06Z</time>
      </trkpt>
      <trkpt lat="44.8871" lon="5.57375">
        <ele>1382.688</ele>
        <time>2021-11-07T10:15:11Z</time>
      </trkpt>
      <trkpt lat="44.88711" lon="5.57376">
        <ele>1382.966</ele>
        <time>2021-11-07T10:15:16Z</time>
      </trkpt>
      <trkpt lat="44.88711" lon="5.57376">
        <ele>1382.646</ele>
        <time>2021-11-07T10:15:21Z</time>
      </trkpt>
      <trkpt lat="44.8871" lon="5.57376">
        <ele>1382.397</ele>
        <time>2021-11-07T10:15:26Z</time>
      </trkpt>
      <trkpt lat="44.8871" lon="5.57376">
        <ele>1382.383</ele>
        <time>2021-11-07T10:15:31Z</time>
      </trkpt>
      <trkpt lat="44.8871" lon="5.57376">
        <ele>1382.394</ele>
        <time>2021-11-07T10:15:36Z</time>
      </trkpt>
      <trkpt lat="44.8871" lon="5.57376">
        <ele>1382.404</ele>
        <time>2021-11-07T10:15:41Z</time>
      </trkpt>
      <trkpt lat="44.8871" lon="5.57376">
        <ele>1382.417</ele>
        <time>2021-11-07T10:15:46Z</time>
      </trkpt>
      <trkpt lat="44.8871" lon="5.57376">
        <ele>1382.423</ele>
        <time>2021-11-07T10:15:51Z</time>
      </trkpt>
      <trkpt lat="44.8871" lon="5.57376">
        <ele>1382.432</ele>
        <time>2021-11-07T10:15:56Z</time>
      </trkpt>
      <trkpt lat="44.8871" lon="5.57376">
        <ele>1382.437</ele>
        <time>2021-11-07T10:16:01Z</time>
      </trkpt>
      <trkpt lat="44.8871" lon="5.57376">
        <ele>1382.449</ele>
        <time>2021-11-07T10:16:06Z</time>
      </trkpt>
      <trkpt lat="44.8871" lon="5.57376">
        <ele>1382.454</ele>
        <time>2021-11-07T10:16:11Z</time>
      </trkpt>
      <trkpt lat="44.8871" lon="5.57376">
        <ele>1382.467</ele>
        <time>2021-11-07T10:16:16Z</time>
      </trkpt>
      <trkpt lat="44.8871" lon="5.57376">
        <ele>1382.489</ele>
        <time>2021-11-07T10:16:21Z</time>
      </trkpt>
      <trkpt lat="44.8871" lon="5.57376">
        <ele>1382.335</ele>
        <time>2021-11-07T10:16:26Z</time>
      </trkpt>
      <trkpt lat="44.8871" lon="5.57376">
        <ele>1382.859</ele>
        <time>2021-11-07T10:16:31Z</time>
      </trkpt>
      <trkpt lat="44.8871" lon="5.57375">
        <ele>1382.671</ele>
        <time>2021-11-07T10:16:36Z</time>
      </trkpt>
      <trkpt lat="44.8871" lon="5.57376">
        <ele>1382.613</ele>
        <time>2021-11-07T10:16:41Z</time>
      </trkpt>
      <trkpt lat="44.8871" lon="5.57376">
        <ele>1382.616</ele>
        <time>2021-11-07T10:16:46Z</time>
      </trkpt>
      <trkpt lat="44.8871" lon="5.57376">
        <ele>1382.605</ele>
        <time>2021-11-07T10:16:51Z</time>
      </trkpt>
      <trkpt lat="44.8871" lon="5.57376">
        <ele>1382.597</ele>
        <time>2021-11-07T10:16:56Z</time>
      </trkpt>
      <trkpt lat="44.8871" lon="5.57376">
        <ele>1382.596</ele>
        <time>2021-11-07T10:17:01Z</time>
      </trkpt>
      <trkpt lat="44.8871" lon="5.57376">
        <ele>1382.603</ele>
        <time>2021-11-07T10:17:06Z</time>
      </trkpt>
      <trkpt lat="44.8871" lon="5.57375">
        <ele>1382.628</ele>
        <time>2021-11-07T10:17:11Z</time>
      </trkpt>
      <trkpt lat="44.8871" lon="5.57375">
        <ele>1382.634</ele>
        <time>2021-11-07T10:17:16Z</time>
      </trkpt>
      <trkpt lat="44.8871" lon="5.57375">
        <ele>1382.64</ele>
        <time>2021-11-07T10:17:21Z</time>
      </trkpt>
      <trkpt lat="44.8871" lon="5.57375">
        <ele>1382.644</ele>
        <time>2021-11-07T10:17:26Z</time>
      </trkpt>
      <trkpt lat="44.8871" lon="5.57375">
        <ele>1382.654</ele>
        <time>2021-11-07T10:17:31Z</time>
      </trkpt>
      <trkpt lat="44.8871" lon="5.57375">
        <ele>1382.666</ele>
        <time>2021-11-07T10:17:36Z</time>
      </trkpt>
      <trkpt lat="44.8871" lon="5.57376">
        <ele>1382.614</ele>
        <time>2021-11-07T10:17:41Z</time>
      </trkpt>
      <trkpt lat="44.8871" lon="5.57376">
        <ele>1382.617</ele>
        <time>2021-11-07T10:17:46Z</time>
      </trkpt>
      <trkpt lat="44.8871" lon="5.57376">
        <ele>1382.623</ele>
        <time>2021-11-07T10:17:51Z</time>
      </trkpt>
      <trkpt lat="44.8871" lon="5.57376">
        <ele>1382.631</ele>
        <time>2021-11-07T10:17:56Z</time>
      </trkpt>
      <trkpt lat="44.8871" lon="5.57376">
        <ele>1382.641</ele>
        <time>2021-11-07T10:18:01Z</time>
      </trkpt>
      <trkpt lat="44.8871" lon="5.57375">
        <ele>1382.651</ele>
        <time>2021-11-07T10:18:06Z</time>
      </trkpt>
      <trkpt lat="44.8871" lon="5.57375">
        <ele>1382.68</ele>
        <time>2021-11-07T10:18:11Z</time>
      </trkpt>
      <trkpt lat="44.8871" lon="5.57375">
        <ele>1382.685</ele>
        <time>2021-11-07T10:18:16Z</time>
      </trkpt>
      <trkpt lat="44.8871" lon="5.57375">
        <ele>1382.681</ele>
        <time>2021-11-07T10:18:21Z</time>
      </trkpt>
      <trkpt lat="44.8871" lon="5.57375">
        <ele>1382.673</ele>
        <time>2021-11-07T10:18:26Z</time>
      </trkpt>
      <trkpt lat="44.8871" lon="5.57375">
        <ele>1382.668</ele>
        <time>2021-11-07T10:18:31Z</time>
      </trkpt>
      <trkpt lat="44.8871" lon="5.57375">
        <ele>1382.662</ele>
        <time>2021-11-07T10:18:36Z</time>
      </trkpt>
      <trkpt lat="44.8871" lon="5.57375">
        <ele>1382.655</ele>
        <time>2021-11-07T10:18:41Z</time>
      </trkpt>
      <trkpt lat="44.8871" lon="5.57375">
        <ele>1382.651</ele>
        <time>2021-11-07T10:18:46Z</time>
      </trkpt>
      <trkpt lat="44.8871" lon="5.57375">
        <ele>1382.652</ele>
        <time>2021-11-07T10:18:51Z</time>
      </trkpt>
      <trkpt lat="44.8871" lon="5.57375">
        <ele>1382.653</ele>
        <time>2021-11-07T10:18:56Z</time>
      </trkpt>
      <trkpt lat="44.8871" lon="5.57375">
        <ele>1382.657</ele>
        <time>2021-11-07T10:19:01Z</time>
      </trkpt>
      <trkpt lat="44.8871" lon="5.57375">
        <ele>1382.662</ele>
        <time>2021-11-07T10:19:06Z</time>
      </trkpt>
      <trkpt lat="44.8871" lon="5.57375">
        <ele>1382.667</ele>
        <time>2021-11-07T10:19:11Z</time>
      </trkpt>
      <trkpt lat="44.8871" lon="5.57375">
        <ele>1382.666</ele>
        <time>2021-11-07T10:19:16Z</time>
      </trkpt>
      <trkpt lat="44.8871" lon="5.57375">
        <ele>1382.662</ele>
        <time>2021-11-07T10:19:21Z</time>
      </trkpt>
      <trkpt lat="44.8871" lon="5.57375">
        <ele>1382.66</ele>
        <time>2021-11-07T10:19:26Z</time>
      </trkpt>
      <trkpt lat="44.8871" lon="5.57375">
        <ele>1382.665</ele>
        <time>2021-11-07T10:19:31Z</time>
      </trkpt>
      <trkpt lat="44.8871" lon="5.57375">
        <ele>1382.687</ele>
        <time>2021-11-07T10:19:36Z</time>
      </trkpt>
      <trkpt lat="44.8871" lon="5.57375">
        <ele>1382.701</ele>
        <time>2021-11-07T10:19:41Z</time>
      </trkpt>
      <trkpt lat="44.8871" lon="5.57375">
        <ele>1382.712</ele>
        <time>2021-11-07T10:19:46Z</time>
      </trkpt>
      <trkpt lat="44.8871" lon="5.57375">
        <ele>1382.718</ele>
        <time>2021-11-07T10:19:51Z</time>
      </trkpt>
      <trkpt lat="44.8871" lon="5.57375">
        <ele>1382.727</ele>
        <time>2021-11-07T10:19:56Z</time>
      </trkpt>
      <trkpt lat="44.8871" lon="5.57375">
        <ele>1382.737</ele>
        <time>2021-11-07T10:20:01Z</time>
      </trkpt>
      <trkpt lat="44.8871" lon="5.57375">
        <ele>1382.742</ele>
        <time>2021-11-07T10:20:06Z</time>
      </trkpt>
      <trkpt lat="44.8871" lon="5.57375">
        <ele>1382.753</ele>
        <time>2021-11-07T10:20:11Z</time>
      </trkpt>
      <trkpt lat="44.8871" lon="5.57375">
        <ele>1382.767</ele>
        <time>2021-11-07T10:20:16Z</time>
      </trkpt>
      <trkpt lat="44.8871" lon="5.57375">
        <ele>1382.777</ele>
        <time>2021-11-07T10:20:21Z</time>
      </trkpt>
      <trkpt lat="44.8871" lon="5.57375">
        <ele>1382.786</ele>
        <time>2021-11-07T10:20:26Z</time>
      </trkpt>
      <trkpt lat="44.8871" lon="5.57375">
        <ele>1382.922</ele>
        <time>2021-11-07T10:20:31Z</time>
      </trkpt>
      <trkpt lat="44.88711" lon="5.57375">
        <ele>1382.685</ele>
        <time>2021-11-07T10:20:36Z</time>
      </trkpt>
      <trkpt lat="44.8871" lon="5.57375">
        <ele>1383.27</ele>
        <time>2021-11-07T10:20:41Z</time>
      </trkpt>
      <trkpt lat="44.8871" lon="5.57374">
        <ele>1383.358</ele>
        <time>2021-11-07T10:20:46Z</time>
      </trkpt>
      <trkpt lat="44.8871" lon="5.57374">
        <ele>1382.919</ele>
        <time>2021-11-07T10:20:51Z</time>
      </trkpt>
      <trkpt lat="44.8871" lon="5.57374">
        <ele>1382.917</ele>
        <time>2021-11-07T10:20:56Z</time>
      </trkpt>
      <trkpt lat="44.8871" lon="5.57374">
        <ele>1382.919</ele>
        <time>2021-11-07T10:21:01Z</time>
      </trkpt>
      <trkpt lat="44.8871" lon="5.57374">
        <ele>1382.925</ele>
        <time>2021-11-07T10:21:06Z</time>
      </trkpt>
      <trkpt lat="44.8871" lon="5.57374">
        <ele>1382.937</ele>
        <time>2021-11-07T10:21:11Z</time>
      </trkpt>
      <trkpt lat="44.8871" lon="5.57374">
        <ele>1382.936</ele>
        <time>2021-11-07T10:21:16Z</time>
      </trkpt>
      <trkpt lat="44.8871" lon="5.57374">
        <ele>1382.928</ele>
        <time>2021-11-07T10:21:21Z</time>
      </trkpt>
      <trkpt lat="44.88711" lon="5.57375">
        <ele>1382.82</ele>
        <time>2021-11-07T10:21:26Z</time>
      </trkpt>
      <trkpt lat="44.88712" lon="5.57376">
        <ele>1383.491</ele>
        <time>2021-11-07T10:21:31Z</time>
      </trkpt>
      <trkpt lat="44.88711" lon="5.57376">
        <ele>1383.662</ele>
        <time>2021-11-07T10:21:36Z</time>
      </trkpt>
      <trkpt lat="44.88711" lon="5.57375">
        <ele>1384.125</ele>
        <time>2021-11-07T10:21:41Z</time>
      </trkpt>
      <trkpt lat="44.8871" lon="5.57376">
        <ele>1384.084</ele>
        <time>2021-11-07T10:21:46Z</time>
      </trkpt>
      <trkpt lat="44.8871" lon="5.57376">
        <ele>1384.107</ele>
        <time>2021-11-07T10:21:51Z</time>
      </trkpt>
      <trkpt lat="44.8871" lon="5.57376">
        <ele>1384.087</ele>
        <time>2021-11-07T10:21:56Z</time>
      </trkpt>
      <trkpt lat="44.88711" lon="5.57376">
        <ele>1383.965</ele>
        <time>2021-11-07T10:22:01Z</time>
      </trkpt>
      <trkpt lat="44.88711" lon="5.57375">
        <ele>1382.269</ele>
        <time>2021-11-07T10:22:06Z</time>
      </trkpt>
      <trkpt lat="44.88711" lon="5.57375">
        <ele>1381.396</ele>
        <time>2021-11-07T10:22:11Z</time>
      </trkpt>
      <trkpt lat="44.88711" lon="5.57375">
        <ele>1381.384</ele>
        <time>2021-11-07T10:22:16Z</time>
      </trkpt>
      <trkpt lat="44.88711" lon="5.57375">
        <ele>1381.028</ele>
        <time>2021-11-07T10:22:21Z</time>
      </trkpt>
      <trkpt lat="44.88712" lon="5.57374">
        <ele>1380.634</ele>
        <time>2021-11-07T10:22:26Z</time>
      </trkpt>
      <trkpt lat="44.88713" lon="5.57374">
        <ele>1380.74</ele>
        <time>2021-11-07T10:22:31Z</time>
      </trkpt>
      <trkpt lat="44.88713" lon="5.57374">
        <ele>1380.738</ele>
        <time>2021-11-07T10:22:36Z</time>
      </trkpt>
      <trkpt lat="44.88713" lon="5.57374">
        <ele>1380.73</ele>
        <time>2021-11-07T10:22:41Z</time>
      </trkpt>
      <trkpt lat="44.88714" lon="5.57374">
        <ele>1380.94</ele>
        <time>2021-11-07T10:22:46Z</time>
      </trkpt>
      <trkpt lat="44.88717" lon="5.57375">
        <ele>1382.06</ele>
        <time>2021-11-07T10:22:51Z</time>
      </trkpt>
      <trkpt lat="44.88721" lon="5.5738">
        <ele>1383.213</ele>
        <time>2021-11-07T10:22:56Z</time>
      </trkpt>
      <trkpt lat="44.88725" lon="5.57387">
        <ele>1384.841</ele>
        <time>2021-11-07T10:23:01Z</time>
      </trkpt>
      <trkpt lat="44.88729" lon="5.57393">
        <ele>1385.971</ele>
        <time>2021-11-07T10:23:06Z</time>
      </trkpt>
      <trkpt lat="44.88732" lon="5.57398">
        <ele>1386.414</ele>
        <time>2021-11-07T10:23:11Z</time>
      </trkpt>
      <trkpt lat="44.88737" lon="5.57406">
        <ele>1385.185</ele>
        <time>2021-11-07T10:23:16Z</time>
      </trkpt>
      <trkpt lat="44.88742" lon="5.57412">
        <ele>1385.835</ele>
        <time>2021-11-07T10:23:21Z</time>
      </trkpt>
      <trkpt lat="44.88746" lon="5.57418">
        <ele>1387.902</ele>
        <time>2021-11-07T10:23:26Z</time>
      </trkpt>
      <trkpt lat="44.8875" lon="5.57424">
        <ele>1388.923</ele>
        <time>2021-11-07T10:23:31Z</time>
      </trkpt>
      <trkpt lat="44.88755" lon="5.5743">
        <ele>1390.037</ele>
        <time>2021-11-07T10:23:36Z</time>
      </trkpt>
      <trkpt lat="44.88759" lon="5.57435">
        <ele>1391.31</ele>
        <time>2021-11-07T10:23:41Z</time>
      </trkpt>
      <trkpt lat="44.88764" lon="5.57441">
        <ele>1392.849</ele>
        <time>2021-11-07T10:23:46Z</time>
      </trkpt>
      <trkpt lat="44.88769" lon="5.57447">
        <ele>1394.394</ele>
        <time>2021-11-07T10:23:51Z</time>
      </trkpt>
      <trkpt lat="44.88774" lon="5.57453">
        <ele>1395.785</ele>
        <time>2021-11-07T10:23:56Z</time>
      </trkpt>
      <trkpt lat="44.88778" lon="5.5746">
        <ele>1397.263</ele>
        <time>2021-11-07T10:24:01Z</time>
      </trkpt>
      <trkpt lat="44.88782" lon="5.57467">
        <ele>1399.137</ele>
        <time>2021-11-07T10:24:06Z</time>
      </trkpt>
      <trkpt lat="44.88785" lon="5.57475">
        <ele>1400.284</ele>
        <time>2021-11-07T10:24:11Z</time>
      </trkpt>
      <trkpt lat="44.88789" lon="5.57483">
        <ele>1401.514</ele>
        <time>2021-11-07T10:24:16Z</time>
      </trkpt>
      <trkpt lat="44.88793" lon="5.57491">
        <ele>1402.653</ele>
        <time>2021-11-07T10:24:21Z</time>
      </trkpt>
      <trkpt lat="44.88796" lon="5.575">
        <ele>1402.537</ele>
        <time>2021-11-07T10:24:26Z</time>
      </trkpt>
      <trkpt lat="44.88801" lon="5.57507">
        <ele>1403.492</ele>
        <time>2021-11-07T10:24:31Z</time>
      </trkpt>
      <trkpt lat="44.88805" lon="5.57513">
        <ele>1403.971</ele>
        <time>2021-11-07T10:24:36Z</time>
      </trkpt>
      <trkpt lat="44.8881" lon="5.5752">
        <ele>1404.969</ele>
        <time>2021-11-07T10:24:41Z</time>
      </trkpt>
      <trkpt lat="44.88813" lon="5.57527">
        <ele>1406.169</ele>
        <time>2021-11-07T10:24:46Z</time>
      </trkpt>
      <trkpt lat="44.88816" lon="5.57536">
        <ele>1406.949</ele>
        <time>2021-11-07T10:24:51Z</time>
      </trkpt>
      <trkpt lat="44.88819" lon="5.57544">
        <ele>1407.621</ele>
        <time>2021-11-07T10:24:56Z</time>
      </trkpt>
      <trkpt lat="44.88822" lon="5.57552">
        <ele>1408.096</ele>
        <time>2021-11-07T10:25:01Z</time>
      </trkpt>
      <trkpt lat="44.88825" lon="5.5756">
        <ele>1409.285</ele>
        <time>2021-11-07T10:25:06Z</time>
      </trkpt>
      <trkpt lat="44.88829" lon="5.57569">
        <ele>1410.099</ele>
        <time>2021-11-07T10:25:11Z</time>
      </trkpt>
      <trkpt lat="44.88833" lon="5.57577">
        <ele>1411.488</ele>
        <time>2021-11-07T10:25:16Z</time>
      </trkpt>
      <trkpt lat="44.88836" lon="5.57583">
        <ele>1412.671</ele>
        <time>2021-11-07T10:25:21Z</time>
      </trkpt>
      <trkpt lat="44.88837" lon="5.5759">
        <ele>1413.823</ele>
        <time>2021-11-07T10:25:26Z</time>
      </trkpt>
      <trkpt lat="44.88838" lon="5.57597">
        <ele>1413.737</ele>
        <time>2021-11-07T10:25:31Z</time>
      </trkpt>
      <trkpt lat="44.8884" lon="5.57603">
        <ele>1414.351</ele>
        <time>2021-11-07T10:25:36Z</time>
      </trkpt>
      <trkpt lat="44.88841" lon="5.57607">
        <ele>1414.672</ele>
        <time>2021-11-07T10:25:41Z</time>
      </trkpt>
      <trkpt lat="44.88846" lon="5.57612">
        <ele>1416.603</ele>
        <time>2021-11-07T10:25:46Z</time>
      </trkpt>
      <trkpt lat="44.88851" lon="5.57617">
        <ele>1417.571</ele>
        <time>2021-11-07T10:25:51Z</time>
      </trkpt>
      <trkpt lat="44.88855" lon="5.57622">
        <ele>1418.275</ele>
        <time>2021-11-07T10:25:56Z</time>
      </trkpt>
      <trkpt lat="44.8886" lon="5.57628">
        <ele>1419.261</ele>
        <time>2021-11-07T10:26:01Z</time>
      </trkpt>
      <trkpt lat="44.88863" lon="5.57635">
        <ele>1420.26</ele>
        <time>2021-11-07T10:26:06Z</time>
      </trkpt>
      <trkpt lat="44.88866" lon="5.5764">
        <ele>1421.807</ele>
        <time>2021-11-07T10:26:11Z</time>
      </trkpt>
      <trkpt lat="44.88869" lon="5.57646">
        <ele>1423.091</ele>
        <time>2021-11-07T10:26:16Z</time>
      </trkpt>
      <trkpt lat="44.88873" lon="5.57652">
        <ele>1424.175</ele>
        <time>2021-11-07T10:26:21Z</time>
      </trkpt>
      <trkpt lat="44.88877" lon="5.57657">
        <ele>1425.88</ele>
        <time>2021-11-07T10:26:26Z</time>
      </trkpt>
      <trkpt lat="44.8888" lon="5.57663">
        <ele>1426.517</ele>
        <time>2021-11-07T10:26:31Z</time>
      </trkpt>
      <trkpt lat="44.88882" lon="5.57669">
        <ele>1427.636</ele>
        <time>2021-11-07T10:26:36Z</time>
      </trkpt>
      <trkpt lat="44.88884" lon="5.57676">
        <ele>1428.076</ele>
        <time>2021-11-07T10:26:41Z</time>
      </trkpt>
      <trkpt lat="44.88887" lon="5.57683">
        <ele>1430.266</ele>
        <time>2021-11-07T10:26:46Z</time>
      </trkpt>
      <trkpt lat="44.88889" lon="5.57689">
        <ele>1431.461</ele>
        <time>2021-11-07T10:26:51Z</time>
      </trkpt>
      <trkpt lat="44.8889" lon="5.57697">
        <ele>1432.356</ele>
        <time>2021-11-07T10:26:56Z</time>
      </trkpt>
      <trkpt lat="44.88892" lon="5.57703">
        <ele>1432.806</ele>
        <time>2021-11-07T10:27:01Z</time>
      </trkpt>
      <trkpt lat="44.88894" lon="5.5771">
        <ele>1434.371</ele>
        <time>2021-11-07T10:27:06Z</time>
      </trkpt>
      <trkpt lat="44.88897" lon="5.57718">
        <ele>1434.885</ele>
        <time>2021-11-07T10:27:11Z</time>
      </trkpt>
      <trkpt lat="44.88898" lon="5.57727">
        <ele>1436.114</ele>
        <time>2021-11-07T10:27:16Z</time>
      </trkpt>
      <trkpt lat="44.889" lon="5.57734">
        <ele>1436.455</ele>
        <time>2021-11-07T10:27:21Z</time>
      </trkpt>
      <trkpt lat="44.88901" lon="5.57741">
        <ele>1436.812</ele>
        <time>2021-11-07T10:27:26Z</time>
      </trkpt>
      <trkpt lat="44.88905" lon="5.57749">
        <ele>1437.562</ele>
        <time>2021-11-07T10:27:31Z</time>
      </trkpt>
      <trkpt lat="44.88908" lon="5.57756">
        <ele>1438.246</ele>
        <time>2021-11-07T10:27:36Z</time>
      </trkpt>
      <trkpt lat="44.88909" lon="5.57766">
        <ele>1438.659</ele>
        <time>2021-11-07T10:27:41Z</time>
      </trkpt>
      <trkpt lat="44.8891" lon="5.57776">
        <ele>1439.388</ele>
        <time>2021-11-07T10:27:46Z</time>
      </trkpt>
      <trkpt lat="44.8891" lon="5.57784">
        <ele>1440.502</ele>
        <time>2021-11-07T10:27:51Z</time>
      </trkpt>
      <trkpt lat="44.8891" lon="5.57793">
        <ele>1441.94</ele>
        <time>2021-11-07T10:27:56Z</time>
      </trkpt>
      <trkpt lat="44.88911" lon="5.57801">
        <ele>1443.272</ele>
        <time>2021-11-07T10:28:01Z</time>
      </trkpt>
      <trkpt lat="44.88915" lon="5.57806">
        <ele>1444.294</ele>
        <time>2021-11-07T10:28:06Z</time>
      </trkpt>
      <trkpt lat="44.88918" lon="5.57812">
        <ele>1444.799</ele>
        <time>2021-11-07T10:28:11Z</time>
      </trkpt>
      <trkpt lat="44.88922" lon="5.57816">
        <ele>1445.626</ele>
        <time>2021-11-07T10:28:16Z</time>
      </trkpt>
      <trkpt lat="44.88928" lon="5.5782">
        <ele>1446.865</ele>
        <time>2021-11-07T10:28:21Z</time>
      </trkpt>
      <trkpt lat="44.88934" lon="5.57821">
        <ele>1446.735</ele>
        <time>2021-11-07T10:28:26Z</time>
      </trkpt>
      <trkpt lat="44.88938" lon="5.57822">
        <ele>1447.6</ele>
        <time>2021-11-07T10:28:31Z</time>
      </trkpt>
      <trkpt lat="44.88943" lon="5.57822">
        <ele>1447.811</ele>
        <time>2021-11-07T10:28:36Z</time>
      </trkpt>
      <trkpt lat="44.88948" lon="5.57825">
        <ele>1449.414</ele>
        <time>2021-11-07T10:28:41Z</time>
      </trkpt>
      <trkpt lat="44.88949" lon="5.57828">
        <ele>1450.203</ele>
        <time>2021-11-07T10:28:46Z</time>
      </trkpt>
      <trkpt lat="44.88952" lon="5.57831">
        <ele>1450.5</ele>
        <time>2021-11-07T10:28:51Z</time>
      </trkpt>
      <trkpt lat="44.88956" lon="5.57837">
        <ele>1451.806</ele>
        <time>2021-11-07T10:28:56Z</time>
      </trkpt>
      <trkpt lat="44.88961" lon="5.57841">
        <ele>1451.296</ele>
        <time>2021-11-07T10:29:01Z</time>
      </trkpt>
      <trkpt lat="44.88966" lon="5.57845">
        <ele>1452.507</ele>
        <time>2021-11-07T10:29:06Z</time>
      </trkpt>
      <trkpt lat="44.88971" lon="5.5785">
        <ele>1454.467</ele>
        <time>2021-11-07T10:29:11Z</time>
      </trkpt>
      <trkpt lat="44.88975" lon="5.57856">
        <ele>1455.318</ele>
        <time>2021-11-07T10:29:16Z</time>
      </trkpt>
      <trkpt lat="44.88979" lon="5.57861">
        <ele>1456.944</ele>
        <time>2021-11-07T10:29:21Z</time>
      </trkpt>
      <trkpt lat="44.88982" lon="5.57865">
        <ele>1457.834</ele>
        <time>2021-11-07T10:29:26Z</time>
      </trkpt>
      <trkpt lat="44.88985" lon="5.57869">
        <ele>1458.275</ele>
        <time>2021-11-07T10:29:31Z</time>
      </trkpt>
      <trkpt lat="44.88988" lon="5.57873">
        <ele>1459.212</ele>
        <time>2021-11-07T10:29:36Z</time>
      </trkpt>
      <trkpt lat="44.88991" lon="5.57876">
        <ele>1460.02</ele>
        <time>2021-11-07T10:29:41Z</time>
      </trkpt>
      <trkpt lat="44.88992" lon="5.57877">
        <ele>1460.07</ele>
        <time>2021-11-07T10:29:46Z</time>
      </trkpt>
      <trkpt lat="44.88992" lon="5.57877">
        <ele>1459.854</ele>
        <time>2021-11-07T10:29:51Z</time>
      </trkpt>
      <trkpt lat="44.88991" lon="5.57877">
        <ele>1458</ele>
        <time>2021-11-07T10:29:56Z</time>
      </trkpt>
      <trkpt lat="44.88991" lon="5.57877">
        <ele>1458.566</ele>
        <time>2021-11-07T10:30:01Z</time>
      </trkpt>
      <trkpt lat="44.88993" lon="5.57879">
        <ele>1459.256</ele>
        <time>2021-11-07T10:30:06Z</time>
      </trkpt>
      <trkpt lat="44.88997" lon="5.57886">
        <ele>1460.556</ele>
        <time>2021-11-07T10:30:11Z</time>
      </trkpt>
      <trkpt lat="44.89001" lon="5.57891">
        <ele>1461.56</ele>
        <time>2021-11-07T10:30:16Z</time>
      </trkpt>
      <trkpt lat="44.89005" lon="5.57896">
        <ele>1462.334</ele>
        <time>2021-11-07T10:30:21Z</time>
      </trkpt>
      <trkpt lat="44.89008" lon="5.57902">
        <ele>1462.866</ele>
        <time>2021-11-07T10:30:26Z</time>
      </trkpt>
      <trkpt lat="44.89011" lon="5.57908">
        <ele>1463.955</ele>
        <time>2021-11-07T10:30:31Z</time>
      </trkpt>
      <trkpt lat="44.89015" lon="5.57913">
        <ele>1465.101</ele>
        <time>2021-11-07T10:30:36Z</time>
      </trkpt>
      <trkpt lat="44.89018" lon="5.57917">
        <ele>1466.389</ele>
        <time>2021-11-07T10:30:41Z</time>
      </trkpt>
      <trkpt lat="44.89022" lon="5.57921">
        <ele>1467.18</ele>
        <time>2021-11-07T10:30:46Z</time>
      </trkpt>
      <trkpt lat="44.89026" lon="5.57925">
        <ele>1467.711</ele>
        <time>2021-11-07T10:30:51Z</time>
      </trkpt>
      <trkpt lat="44.8903" lon="5.57929">
        <ele>1468.056</ele>
        <time>2021-11-07T10:30:56Z</time>
      </trkpt>
      <trkpt lat="44.89034" lon="5.57933">
        <ele>1469.959</ele>
        <time>2021-11-07T10:31:01Z</time>
      </trkpt>
      <trkpt lat="44.89038" lon="5.57937">
        <ele>1470.675</ele>
        <time>2021-11-07T10:31:06Z</time>
      </trkpt>
      <trkpt lat="44.89042" lon="5.57941">
        <ele>1471.318</ele>
        <time>2021-11-07T10:31:11Z</time>
      </trkpt>
      <trkpt lat="44.89046" lon="5.57946">
        <ele>1472.671</ele>
        <time>2021-11-07T10:31:16Z</time>
      </trkpt>
      <trkpt lat="44.89051" lon="5.57949">
        <ele>1473.581</ele>
        <time>2021-11-07T10:31:21Z</time>
      </trkpt>
      <trkpt lat="44.89056" lon="5.57952">
        <ele>1474.351</ele>
        <time>2021-11-07T10:31:26Z</time>
      </trkpt>
      <trkpt lat="44.8906" lon="5.57956">
        <ele>1474.378</ele>
        <time>2021-11-07T10:31:31Z</time>
      </trkpt>
      <trkpt lat="44.89065" lon="5.5796">
        <ele>1475.281</ele>
        <time>2021-11-07T10:31:36Z</time>
      </trkpt>
      <trkpt lat="44.89069" lon="5.57964">
        <ele>1476.17</ele>
        <time>2021-11-07T10:31:41Z</time>
      </trkpt>
      <trkpt lat="44.89072" lon="5.57967">
        <ele>1477.261</ele>
        <time>2021-11-07T10:31:46Z</time>
      </trkpt>
      <trkpt lat="44.89076" lon="5.57972">
        <ele>1476.977</ele>
        <time>2021-11-07T10:31:51Z</time>
      </trkpt>
      <trkpt lat="44.8908" lon="5.57975">
        <ele>1477.93</ele>
        <time>2021-11-07T10:31:56Z</time>
      </trkpt>
      <trkpt lat="44.89084" lon="5.5798">
        <ele>1479.705</ele>
        <time>2021-11-07T10:32:01Z</time>
      </trkpt>
      <trkpt lat="44.89088" lon="5.57985">
        <ele>1481.279</ele>
        <time>2021-11-07T10:32:06Z</time>
      </trkpt>
      <trkpt lat="44.89092" lon="5.5799">
        <ele>1481.834</ele>
        <time>2021-11-07T10:32:11Z</time>
      </trkpt>
      <trkpt lat="44.89095" lon="5.57995">
        <ele>1484.103</ele>
        <time>2021-11-07T10:32:16Z</time>
      </trkpt>
      <trkpt lat="44.89098" lon="5.57999">
        <ele>1485.905</ele>
        <time>2021-11-07T10:32:21Z</time>
      </trkpt>
      <trkpt lat="44.89104" lon="5.58005">
        <ele>1487.12</ele>
        <time>2021-11-07T10:32:26Z</time>
      </trkpt>
      <trkpt lat="44.89108" lon="5.58011">
        <ele>1488.477</ele>
        <time>2021-11-07T10:32:31Z</time>
      </trkpt>
      <trkpt lat="44.89112" lon="5.58016">
        <ele>1488.523</ele>
        <time>2021-11-07T10:32:36Z</time>
      </trkpt>
      <trkpt lat="44.89114" lon="5.58018">
        <ele>1489.025</ele>
        <time>2021-11-07T10:32:41Z</time>
      </trkpt>
      <trkpt lat="44.89114" lon="5.58018">
        <ele>1488.888</ele>
        <time>2021-11-07T10:32:46Z</time>
      </trkpt>
      <trkpt lat="44.89114" lon="5.58018">
        <ele>1488.508</ele>
        <time>2021-11-07T10:32:51Z</time>
      </trkpt>
      <trkpt lat="44.89115" lon="5.58019">
        <ele>1487.857</ele>
        <time>2021-11-07T10:32:56Z</time>
      </trkpt>
      <trkpt lat="44.89115" lon="5.5802">
        <ele>1487.077</ele>
        <time>2021-11-07T10:33:01Z</time>
      </trkpt>
      <trkpt lat="44.89114" lon="5.58021">
        <ele>1485.237</ele>
        <time>2021-11-07T10:33:06Z</time>
      </trkpt>
      <trkpt lat="44.8911" lon="5.5802">
        <ele>1485.847</ele>
        <time>2021-11-07T10:33:11Z</time>
      </trkpt>
      <trkpt lat="44.89106" lon="5.58022">
        <ele>1486.704</ele>
        <time>2021-11-07T10:33:16Z</time>
      </trkpt>
      <trkpt lat="44.89106" lon="5.58022">
        <ele>1486.447</ele>
        <time>2021-11-07T10:33:21Z</time>
      </trkpt>
      <trkpt lat="44.89106" lon="5.58023">
        <ele>1485.568</ele>
        <time>2021-11-07T10:33:26Z</time>
      </trkpt>
      <trkpt lat="44.89105" lon="5.58023">
        <ele>1486.363</ele>
        <time>2021-11-07T10:33:31Z</time>
      </trkpt>
      <trkpt lat="44.89105" lon="5.58022">
        <ele>1486.59</ele>
        <time>2021-11-07T10:33:36Z</time>
      </trkpt>
      <trkpt lat="44.89107" lon="5.58023">
        <ele>1486.914</ele>
        <time>2021-11-07T10:33:41Z</time>
      </trkpt>
      <trkpt lat="44.89107" lon="5.58023">
        <ele>1486.846</ele>
        <time>2021-11-07T10:33:46Z</time>
      </trkpt>
      <trkpt lat="44.89107" lon="5.58023">
        <ele>1486.747</ele>
        <time>2021-11-07T10:33:51Z</time>
      </trkpt>
      <trkpt lat="44.89106" lon="5.58024">
        <ele>1486.727</ele>
        <time>2021-11-07T10:33:56Z</time>
      </trkpt>
      <trkpt lat="44.89106" lon="5.58023">
        <ele>1486.255</ele>
        <time>2021-11-07T10:34:01Z</time>
      </trkpt>
      <trkpt lat="44.89106" lon="5.58023">
        <ele>1486.235</ele>
        <time>2021-11-07T10:34:06Z</time>
      </trkpt>
      <trkpt lat="44.89106" lon="5.58022">
        <ele>1486.332</ele>
        <time>2021-11-07T10:34:11Z</time>
      </trkpt>
      <trkpt lat="44.89105" lon="5.58021">
        <ele>1486.245</ele>
        <time>2021-11-07T10:34:16Z</time>
      </trkpt>
      <trkpt lat="44.89106" lon="5.58022">
        <ele>1486.121</ele>
        <time>2021-11-07T10:34:21Z</time>
      </trkpt>
      <trkpt lat="44.89106" lon="5.58022">
        <ele>1486.151</ele>
        <time>2021-11-07T10:34:26Z</time>
      </trkpt>
      <trkpt lat="44.89106" lon="5.58022">
        <ele>1486.168</ele>
        <time>2021-11-07T10:34:31Z</time>
      </trkpt>
      <trkpt lat="44.89106" lon="5.58022">
        <ele>1486.185</ele>
        <time>2021-11-07T10:34:36Z</time>
      </trkpt>
      <trkpt lat="44.89106" lon="5.58022">
        <ele>1486.209</ele>
        <time>2021-11-07T10:34:41Z</time>
      </trkpt>
      <trkpt lat="44.89106" lon="5.58022">
        <ele>1486.224</ele>
        <time>2021-11-07T10:34:46Z</time>
      </trkpt>
      <trkpt lat="44.89106" lon="5.58022">
        <ele>1486.229</ele>
        <time>2021-11-07T10:34:51Z</time>
      </trkpt>
      <trkpt lat="44.89106" lon="5.58022">
        <ele>1486.196</ele>
        <time>2021-11-07T10:34:56Z</time>
      </trkpt>
      <trkpt lat="44.89107" lon="5.58022">
        <ele>1486.736</ele>
        <time>2021-11-07T10:35:01Z</time>
      </trkpt>
      <trkpt lat="44.89108" lon="5.58022">
        <ele>1488.436</ele>
        <time>2021-11-07T10:35:06Z</time>
      </trkpt>
      <trkpt lat="44.89109" lon="5.58022">
        <ele>1488.511</ele>
        <time>2021-11-07T10:35:11Z</time>
      </trkpt>
      <trkpt lat="44.8911" lon="5.58021">
        <ele>1488.822</ele>
        <time>2021-11-07T10:35:16Z</time>
      </trkpt>
      <trkpt lat="44.8911" lon="5.58021">
        <ele>1488.832</ele>
        <time>2021-11-07T10:35:21Z</time>
      </trkpt>
      <trkpt lat="44.8911" lon="5.58021">
        <ele>1488.826</ele>
        <time>2021-11-07T10:35:26Z</time>
      </trkpt>
      <trkpt lat="44.8911" lon="5.58021">
        <ele>1488.817</ele>
        <time>2021-11-07T10:35:31Z</time>
      </trkpt>
      <trkpt lat="44.8911" lon="5.58021">
        <ele>1488.814</ele>
        <time>2021-11-07T10:35:36Z</time>
      </trkpt>
      <trkpt lat="44.8911" lon="5.58021">
        <ele>1488.793</ele>
        <time>2021-11-07T10:35:41Z</time>
      </trkpt>
      <trkpt lat="44.89111" lon="5.58021">
        <ele>1489.345</ele>
        <time>2021-11-07T10:35:46Z</time>
      </trkpt>
      <trkpt lat="44.89111" lon="5.58022">
        <ele>1490.075</ele>
        <time>2021-11-07T10:35:51Z</time>
      </trkpt>
      <trkpt lat="44.89111" lon="5.58021">
        <ele>1490.697</ele>
        <time>2021-11-07T10:35:56Z</time>
      </trkpt>
      <trkpt lat="44.89111" lon="5.58021">
        <ele>1490.756</ele>
        <time>2021-11-07T10:36:01Z</time>
      </trkpt>
      <trkpt lat="44.89111" lon="5.58021">
        <ele>1490.749</ele>
        <time>2021-11-07T10:36:06Z</time>
      </trkpt>
      <trkpt lat="44.89111" lon="5.58021">
        <ele>1490.75</ele>
        <time>2021-11-07T10:36:11Z</time>
      </trkpt>
      <trkpt lat="44.89112" lon="5.58022">
        <ele>1491.189</ele>
        <time>2021-11-07T10:36:16Z</time>
      </trkpt>
      <trkpt lat="44.89114" lon="5.58021">
        <ele>1490.52</ele>
        <time>2021-11-07T10:36:21Z</time>
      </trkpt>
      <trkpt lat="44.89115" lon="5.5802">
        <ele>1491.069</ele>
        <time>2021-11-07T10:36:26Z</time>
      </trkpt>
      <trkpt lat="44.89115" lon="5.5802">
        <ele>1491.353</ele>
        <time>2021-11-07T10:36:31Z</time>
      </trkpt>
      <trkpt lat="44.89116" lon="5.58019">
        <ele>1491.757</ele>
        <time>2021-11-07T10:36:36Z</time>
      </trkpt>
      <trkpt lat="44.89115" lon="5.58017">
        <ele>1490.545</ele>
        <time>2021-11-07T10:36:41Z</time>
      </trkpt>
      <trkpt lat="44.89116" lon="5.58018">
        <ele>1492.017</ele>
        <time>2021-11-07T10:36:46Z</time>
      </trkpt>
      <trkpt lat="44.89116" lon="5.58019">
        <ele>1492.434</ele>
        <time>2021-11-07T10:36:51Z</time>
      </trkpt>
      <trkpt lat="44.89116" lon="5.58018">
        <ele>1492.475</ele>
        <time>2021-11-07T10:36:56Z</time>
      </trkpt>
      <trkpt lat="44.89116" lon="5.58018">
        <ele>1492.368</ele>
        <time>2021-11-07T10:37:01Z</time>
      </trkpt>
      <trkpt lat="44.89116" lon="5.58019">
        <ele>1492.605</ele>
        <time>2021-11-07T10:37:06Z</time>
      </trkpt>
      <trkpt lat="44.89116" lon="5.58019">
        <ele>1492.694</ele>
        <time>2021-11-07T10:37:11Z</time>
      </trkpt>
      <trkpt lat="44.89116" lon="5.58019">
        <ele>1492.837</ele>
        <time>2021-11-07T10:37:16Z</time>
      </trkpt>
      <trkpt lat="44.89116" lon="5.58019">
        <ele>1492.833</ele>
        <time>2021-11-07T10:37:21Z</time>
      </trkpt>
      <trkpt lat="44.89116" lon="5.58019">
        <ele>1492.829</ele>
        <time>2021-11-07T10:37:26Z</time>
      </trkpt>
      <trkpt lat="44.89116" lon="5.58019">
        <ele>1492.828</ele>
        <time>2021-11-07T10:37:31Z</time>
      </trkpt>
      <trkpt lat="44.89116" lon="5.58019">
        <ele>1492.83</ele>
        <time>2021-11-07T10:37:36Z</time>
      </trkpt>
      <trkpt lat="44.89116" lon="5.58019">
        <ele>1492.826</ele>
        <time>2021-11-07T10:37:41Z</time>
      </trkpt>
      <trkpt lat="44.89116" lon="5.58019">
        <ele>1492.826</ele>
        <time>2021-11-07T10:37:46Z</time>
      </trkpt>
      <trkpt lat="44.89116" lon="5.58019">
        <ele>1492.612</ele>
        <time>2021-11-07T10:37:51Z</time>
      </trkpt>
      <trkpt lat="44.89116" lon="5.58018">
        <ele>1492.659</ele>
        <time>2021-11-07T10:37:56Z</time>
      </trkpt>
      <trkpt lat="44.89116" lon="5.58018">
        <ele>1492.711</ele>
        <time>2021-11-07T10:38:01Z</time>
      </trkpt>
      <trkpt lat="44.89116" lon="5.58018">
        <ele>1492.473</ele>
        <time>2021-11-07T10:38:06Z</time>
      </trkpt>
      <trkpt lat="44.89116" lon="5.58018">
        <ele>1492.819</ele>
        <time>2021-11-07T10:38:11Z</time>
      </trkpt>
      <trkpt lat="44.89116" lon="5.58019">
        <ele>1492.626</ele>
        <time>2021-11-07T10:38:16Z</time>
      </trkpt>
      <trkpt lat="44.89116" lon="5.58019">
        <ele>1492.619</ele>
        <time>2021-11-07T10:38:21Z</time>
      </trkpt>
      <trkpt lat="44.89116" lon="5.58019">
        <ele>1492.615</ele>
        <time>2021-11-07T10:38:26Z</time>
      </trkpt>
      <trkpt lat="44.89116" lon="5.58019">
        <ele>1492.616</ele>
        <time>2021-11-07T10:38:31Z</time>
      </trkpt>
      <trkpt lat="44.89116" lon="5.58019">
        <ele>1492.612</ele>
        <time>2021-11-07T10:38:36Z</time>
      </trkpt>
      <trkpt lat="44.89116" lon="5.5802">
        <ele>1492.659</ele>
        <time>2021-11-07T10:38:41Z</time>
      </trkpt>
      <trkpt lat="44.89117" lon="5.5802">
        <ele>1492.715</ele>
        <time>2021-11-07T10:38:46Z</time>
      </trkpt>
      <trkpt lat="44.89116" lon="5.5802">
        <ele>1491.712</ele>
        <time>2021-11-07T10:38:51Z</time>
      </trkpt>
      <trkpt lat="44.89116" lon="5.5802">
        <ele>1492.194</ele>
        <time>2021-11-07T10:38:56Z</time>
      </trkpt>
      <trkpt lat="44.89115" lon="5.58019">
        <ele>1491.427</ele>
        <time>2021-11-07T10:39:01Z</time>
      </trkpt>
      <trkpt lat="44.89111" lon="5.58018">
        <ele>1489.908</ele>
        <time>2021-11-07T10:39:06Z</time>
      </trkpt>
      <trkpt lat="44.89109" lon="5.58018">
        <ele>1489.714</ele>
        <time>2021-11-07T10:39:11Z</time>
      </trkpt>
      <trkpt lat="44.8911" lon="5.58018">
        <ele>1490.438</ele>
        <time>2021-11-07T10:39:16Z</time>
      </trkpt>
      <trkpt lat="44.8911" lon="5.58019">
        <ele>1491.061</ele>
        <time>2021-11-07T10:39:21Z</time>
      </trkpt>
      <trkpt lat="44.8911" lon="5.58019">
        <ele>1491.076</ele>
        <time>2021-11-07T10:39:26Z</time>
      </trkpt>
      <trkpt lat="44.8911" lon="5.58019">
        <ele>1491.08</ele>
        <time>2021-11-07T10:39:31Z</time>
      </trkpt>
      <trkpt lat="44.8911" lon="5.58019">
        <ele>1491.059</ele>
        <time>2021-11-07T10:39:36Z</time>
      </trkpt>
      <trkpt lat="44.8911" lon="5.58019">
        <ele>1491.118</ele>
        <time>2021-11-07T10:39:41Z</time>
      </trkpt>
      <trkpt lat="44.8911" lon="5.58019">
        <ele>1490.655</ele>
        <time>2021-11-07T10:39:46Z</time>
      </trkpt>
      <trkpt lat="44.8911" lon="5.58019">
        <ele>1489.69</ele>
        <time>2021-11-07T10:39:51Z</time>
      </trkpt>
      <trkpt lat="44.89107" lon="5.58018">
        <ele>1488.635</ele>
        <time>2021-11-07T10:39:56Z</time>
      </trkpt>
      <trkpt lat="44.89093" lon="5.58015">
        <ele>1485.896</ele>
        <time>2021-11-07T10:40:01Z</time>
      </trkpt>
      <trkpt lat="44.89067" lon="5.58001">
        <ele>1480.84</ele>
        <time>2021-11-07T10:40:06Z</time>
      </trkpt>
      <trkpt lat="44.89035" lon="5.57986">
        <ele>1476.998</ele>
        <time>2021-11-07T10:40:11Z</time>
      </trkpt>
      <trkpt lat="44.89007" lon="5.57977">
        <ele>1474.823</ele>
        <time>2021-11-07T10:40:16Z</time>
      </trkpt>
      <trkpt lat="44.8898" lon="5.57967">
        <ele>1473.558</ele>
        <time>2021-11-07T10:40:21Z</time>
      </trkpt>
      <trkpt lat="44.88956" lon="5.57959">
        <ele>1472.535</ele>
        <time>2021-11-07T10:40:26Z</time>
      </trkpt>
      <trkpt lat="44.88935" lon="5.57951">
        <ele>1471.461</ele>
        <time>2021-11-07T10:40:31Z</time>
      </trkpt>
      <trkpt lat="44.88918" lon="5.57945">
        <ele>1470.845</ele>
        <time>2021-11-07T10:40:36Z</time>
      </trkpt>
      <trkpt lat="44.88908" lon="5.57943">
        <ele>1470.63</ele>
        <time>2021-11-07T10:40:41Z</time>
      </trkpt>
      <trkpt lat="44.88894" lon="5.57941">
        <ele>1469.206</ele>
        <time>2021-11-07T10:40:46Z</time>
      </trkpt>
      <trkpt lat="44.88875" lon="5.57942">
        <ele>1468.195</ele>
        <time>2021-11-07T10:40:51Z</time>
      </trkpt>
      <trkpt lat="44.88851" lon="5.57933">
        <ele>1466.814</ele>
        <time>2021-11-07T10:40:56Z</time>
      </trkpt>
      <trkpt lat="44.88835" lon="5.57923">
        <ele>1466.312</ele>
        <time>2021-11-07T10:41:01Z</time>
      </trkpt>
      <trkpt lat="44.8882" lon="5.57914">
        <ele>1466.678</ele>
        <time>2021-11-07T10:41:06Z</time>
      </trkpt>
      <trkpt lat="44.8881" lon="5.57917">
        <ele>1467.905</ele>
        <time>2021-11-07T10:41:11Z</time>
      </trkpt>
      <trkpt lat="44.888" lon="5.57916">
        <ele>1468.095</ele>
        <time>2021-11-07T10:41:16Z</time>
      </trkpt>
      <trkpt lat="44.8879" lon="5.57909">
        <ele>1468.61</ele>
        <time>2021-11-07T10:41:21Z</time>
      </trkpt>
      <trkpt lat="44.88779" lon="5.57899">
        <ele>1468.291</ele>
        <time>2021-11-07T10:41:26Z</time>
      </trkpt>
      <trkpt lat="44.88768" lon="5.57889">
        <ele>1467.868</ele>
        <time>2021-11-07T10:41:31Z</time>
      </trkpt>
      <trkpt lat="44.88754" lon="5.57883">
        <ele>1466.424</ele>
        <time>2021-11-07T10:41:36Z</time>
      </trkpt>
      <trkpt lat="44.88738" lon="5.57876">
        <ele>1466.208</ele>
        <time>2021-11-07T10:41:41Z</time>
      </trkpt>
      <trkpt lat="44.88719" lon="5.57875">
        <ele>1464.347</ele>
        <time>2021-11-07T10:41:46Z</time>
      </trkpt>
      <trkpt lat="44.88692" lon="5.57873">
        <ele>1462.391</ele>
        <time>2021-11-07T10:41:51Z</time>
      </trkpt>
      <trkpt lat="44.88672" lon="5.57867">
        <ele>1464.035</ele>
        <time>2021-11-07T10:41:56Z</time>
      </trkpt>
      <trkpt lat="44.88653" lon="5.57863">
        <ele>1462.509</ele>
        <time>2021-11-07T10:42:01Z</time>
      </trkpt>
      <trkpt lat="44.88634" lon="5.57858">
        <ele>1463.157</ele>
        <time>2021-11-07T10:42:06Z</time>
      </trkpt>
      <trkpt lat="44.88613" lon="5.57852">
        <ele>1462.632</ele>
        <time>2021-11-07T10:42:11Z</time>
      </trkpt>
      <trkpt lat="44.88591" lon="5.5785">
        <ele>1463.317</ele>
        <time>2021-11-07T10:42:16Z</time>
      </trkpt>
      <trkpt lat="44.88576" lon="5.57847">
        <ele>1463.313</ele>
        <time>2021-11-07T10:42:21Z</time>
      </trkpt>
      <trkpt lat="44.88562" lon="5.57846">
        <ele>1464.246</ele>
        <time>2021-11-07T10:42:26Z</time>
      </trkpt>
      <trkpt lat="44.88548" lon="5.57845">
        <ele>1465.452</ele>
        <time>2021-11-07T10:42:31Z</time>
      </trkpt>
      <trkpt lat="44.88534" lon="5.57845">
        <ele>1464.845</ele>
        <time>2021-11-07T10:42:36Z</time>
      </trkpt>
      <trkpt lat="44.88518" lon="5.57843">
        <ele>1466.372</ele>
        <time>2021-11-07T10:42:41Z</time>
      </trkpt>
      <trkpt lat="44.88508" lon="5.57843">
        <ele>1467.452</ele>
        <time>2021-11-07T10:42:46Z</time>
      </trkpt>
      <trkpt lat="44.88496" lon="5.57836">
        <ele>1466.201</ele>
        <time>2021-11-07T10:42:51Z</time>
      </trkpt>
      <trkpt lat="44.88476" lon="5.5782">
        <ele>1462.788</ele>
        <time>2021-11-07T10:42:56Z</time>
      </trkpt>
      <trkpt lat="44.88453" lon="5.57811">
        <ele>1461.918</ele>
        <time>2021-11-07T10:43:01Z</time>
      </trkpt>
      <trkpt lat="44.88443" lon="5.57808">
        <ele>1461.648</ele>
        <time>2021-11-07T10:43:06Z</time>
      </trkpt>
      <trkpt lat="44.88431" lon="5.578">
        <ele>1458.406</ele>
        <time>2021-11-07T10:43:11Z</time>
      </trkpt>
      <trkpt lat="44.88413" lon="5.57798">
        <ele>1457.056</ele>
        <time>2021-11-07T10:43:16Z</time>
      </trkpt>
      <trkpt lat="44.8839" lon="5.57811">
        <ele>1455.289</ele>
        <time>2021-11-07T10:43:21Z</time>
      </trkpt>
      <trkpt lat="44.88387" lon="5.57813">
        <ele>1456.43</ele>
        <time>2021-11-07T10:43:22Z</time>
      </trkpt>
      <trkpt lat="44.88365" lon="5.57824">
        <ele>1458.095</ele>
        <time>2021-11-07T10:43:32Z</time>
      </trkpt>
      <trkpt lat="44.88355" lon="5.57825">
        <ele>1457.927</ele>
        <time>2021-11-07T10:43:37Z</time>
      </trkpt>
      <trkpt lat="44.88346" lon="5.57828">
        <ele>1458.905</ele>
        <time>2021-11-07T10:43:42Z</time>
      </trkpt>
      <trkpt lat="44.88338" lon="5.5783">
        <ele>1459.367</ele>
        <time>2021-11-07T10:43:47Z</time>
      </trkpt>
      <trkpt lat="44.88324" lon="5.57825">
        <ele>1457.778</ele>
        <time>2021-11-07T10:43:52Z</time>
      </trkpt>
      <trkpt lat="44.88308" lon="5.57828">
        <ele>1456.232</ele>
        <time>2021-11-07T10:43:57Z</time>
      </trkpt>
      <trkpt lat="44.88297" lon="5.57822">
        <ele>1453.23</ele>
        <time>2021-11-07T10:44:02Z</time>
      </trkpt>
      <trkpt lat="44.88282" lon="5.57824">
        <ele>1451.102</ele>
        <time>2021-11-07T10:44:07Z</time>
      </trkpt>
      <trkpt lat="44.88268" lon="5.57819">
        <ele>1450.994</ele>
        <time>2021-11-07T10:44:12Z</time>
      </trkpt>
      <trkpt lat="44.88256" lon="5.57822">
        <ele>1450.296</ele>
        <time>2021-11-07T10:44:17Z</time>
      </trkpt>
      <trkpt lat="44.88244" lon="5.57822">
        <ele>1450.695</ele>
        <time>2021-11-07T10:44:22Z</time>
      </trkpt>
      <trkpt lat="44.88233" lon="5.57823">
        <ele>1452.093</ele>
        <time>2021-11-07T10:44:27Z</time>
      </trkpt>
      <trkpt lat="44.88222" lon="5.57823">
        <ele>1450.575</ele>
        <time>2021-11-07T10:44:32Z</time>
      </trkpt>
      <trkpt lat="44.88208" lon="5.57822">
        <ele>1450.507</ele>
        <time>2021-11-07T10:44:37Z</time>
      </trkpt>
      <trkpt lat="44.88193" lon="5.57805">
        <ele>1448.697</ele>
        <time>2021-11-07T10:44:42Z</time>
      </trkpt>
      <trkpt lat="44.88184" lon="5.57814">
        <ele>1448.519</ele>
        <time>2021-11-07T10:44:47Z</time>
      </trkpt>
      <trkpt lat="44.88176" lon="5.57817">
        <ele>1446.425</ele>
        <time>2021-11-07T10:44:52Z</time>
      </trkpt>
      <trkpt lat="44.88151" lon="5.57814">
        <ele>1440.602</ele>
        <time>2021-11-07T10:44:57Z</time>
      </trkpt>
      <trkpt lat="44.88132" lon="5.57803">
        <ele>1439.861</ele>
        <time>2021-11-07T10:45:02Z</time>
      </trkpt>
      <trkpt lat="44.88114" lon="5.57795">
        <ele>1436.886</ele>
        <time>2021-11-07T10:45:07Z</time>
      </trkpt>
      <trkpt lat="44.88084" lon="5.57782">
        <ele>1433.24</ele>
        <time>2021-11-07T10:45:12Z</time>
      </trkpt>
      <trkpt lat="44.88053" lon="5.57769">
        <ele>1431.386</ele>
        <time>2021-11-07T10:45:17Z</time>
      </trkpt>
      <trkpt lat="44.88027" lon="5.57764">
        <ele>1431.205</ele>
        <time>2021-11-07T10:45:22Z</time>
      </trkpt>
      <trkpt lat="44.88" lon="5.57765">
        <ele>1430.909</ele>
        <time>2021-11-07T10:45:27Z</time>
      </trkpt>
      <trkpt lat="44.87965" lon="5.57757">
        <ele>1427.924</ele>
        <time>2021-11-07T10:45:32Z</time>
      </trkpt>
      <trkpt lat="44.87934" lon="5.57751">
        <ele>1427.117</ele>
        <time>2021-11-07T10:45:37Z</time>
      </trkpt>
      <trkpt lat="44.87916" lon="5.57751">
        <ele>1428.776</ele>
        <time>2021-11-07T10:45:42Z</time>
      </trkpt>
      <trkpt lat="44.87904" lon="5.57752">
        <ele>1429.273</ele>
        <time>2021-11-07T10:45:47Z</time>
      </trkpt>
      <trkpt lat="44.87895" lon="5.57751">
        <ele>1428.879</ele>
        <time>2021-11-07T10:45:52Z</time>
      </trkpt>
      <trkpt lat="44.87887" lon="5.57749">
        <ele>1426.049</ele>
        <time>2021-11-07T10:45:57Z</time>
      </trkpt>
      <trkpt lat="44.87872" lon="5.57744">
        <ele>1420.541</ele>
        <time>2021-11-07T10:46:02Z</time>
      </trkpt>
      <trkpt lat="44.87859" lon="5.5774">
        <ele>1419.834</ele>
        <time>2021-11-07T10:46:07Z</time>
      </trkpt>
      <trkpt lat="44.87833" lon="5.57736">
        <ele>1416.47</ele>
        <time>2021-11-07T10:46:12Z</time>
      </trkpt>
      <trkpt lat="44.87812" lon="5.5774">
        <ele>1416.457</ele>
        <time>2021-11-07T10:46:17Z</time>
      </trkpt>
      <trkpt lat="44.87802" lon="5.57743">
        <ele>1416.727</ele>
        <time>2021-11-07T10:46:22Z</time>
      </trkpt>
      <trkpt lat="44.87787" lon="5.57731">
        <ele>1414.87</ele>
        <time>2021-11-07T10:46:27Z</time>
      </trkpt>
      <trkpt lat="44.87777" lon="5.57723">
        <ele>1413.765</ele>
        <time>2021-11-07T10:46:32Z</time>
      </trkpt>
      <trkpt lat="44.87765" lon="5.57723">
        <ele>1414.124</ele>
        <time>2021-11-07T10:46:37Z</time>
      </trkpt>
      <trkpt lat="44.87754" lon="5.57726">
        <ele>1415.805</ele>
        <time>2021-11-07T10:46:42Z</time>
      </trkpt>
      <trkpt lat="44.87747" lon="5.5773">
        <ele>1418.441</ele>
        <time>2021-11-07T10:46:47Z</time>
      </trkpt>
      <trkpt lat="44.87735" lon="5.57732">
        <ele>1416.519</ele>
        <time>2021-11-07T10:46:52Z</time>
      </trkpt>
      <trkpt lat="44.87725" lon="5.57734">
        <ele>1417.828</ele>
        <time>2021-11-07T10:46:57Z</time>
      </trkpt>
      <trkpt lat="44.87716" lon="5.57734">
        <ele>1418.186</ele>
        <time>2021-11-07T10:47:02Z</time>
      </trkpt>
      <trkpt lat="44.87707" lon="5.57733">
        <ele>1419.772</ele>
        <time>2021-11-07T10:47:07Z</time>
      </trkpt>
      <trkpt lat="44.877" lon="5.57732">
        <ele>1420.405</ele>
        <time>2021-11-07T10:47:12Z</time>
      </trkpt>
      <trkpt lat="44.87694" lon="5.57733">
        <ele>1421.558</ele>
        <time>2021-11-07T10:47:17Z</time>
      </trkpt>
      <trkpt lat="44.87687" lon="5.57734">
        <ele>1421.897</ele>
        <time>2021-11-07T10:47:22Z</time>
      </trkpt>
      <trkpt lat="44.87679" lon="5.57736">
        <ele>1422.34</ele>
        <time>2021-11-07T10:47:27Z</time>
      </trkpt>
      <trkpt lat="44.87671" lon="5.57738">
        <ele>1423.48</ele>
        <time>2021-11-07T10:47:32Z</time>
      </trkpt>
      <trkpt lat="44.87662" lon="5.5774">
        <ele>1424.384</ele>
        <time>2021-11-07T10:47:37Z</time>
      </trkpt>
      <trkpt lat="44.87654" lon="5.57742">
        <ele>1425.986</ele>
        <time>2021-11-07T10:47:42Z</time>
      </trkpt>
      <trkpt lat="44.87649" lon="5.57744">
        <ele>1426.997</ele>
        <time>2021-11-07T10:47:47Z</time>
      </trkpt>
      <trkpt lat="44.87644" lon="5.57743">
        <ele>1426.329</ele>
        <time>2021-11-07T10:47:52Z</time>
      </trkpt>
      <trkpt lat="44.87643" lon="5.57742">
        <ele>1425.303</ele>
        <time>2021-11-07T10:47:57Z</time>
      </trkpt>
      <trkpt lat="44.87632" lon="5.57739">
        <ele>1424.165</ele>
        <time>2021-11-07T10:48:02Z</time>
      </trkpt>
      <trkpt lat="44.87609" lon="5.57719">
        <ele>1420.046</ele>
        <time>2021-11-07T10:48:07Z</time>
      </trkpt>
      <trkpt lat="44.87597" lon="5.57712">
        <ele>1419.983</ele>
        <time>2021-11-07T10:48:12Z</time>
      </trkpt>
      <trkpt lat="44.87593" lon="5.57701">
        <ele>1417.492</ele>
        <time>2021-11-07T10:48:17Z</time>
      </trkpt>
      <trkpt lat="44.87585" lon="5.57693">
        <ele>1417.012</ele>
        <time>2021-11-07T10:48:22Z</time>
      </trkpt>
      <trkpt lat="44.87575" lon="5.57691">
        <ele>1417.637</ele>
        <time>2021-11-07T10:48:27Z</time>
      </trkpt>
      <trkpt lat="44.87567" lon="5.57691">
        <ele>1418.907</ele>
        <time>2021-11-07T10:48:32Z</time>
      </trkpt>
      <trkpt lat="44.87562" lon="5.57689">
        <ele>1418.979</ele>
        <time>2021-11-07T10:48:37Z</time>
      </trkpt>
      <trkpt lat="44.87556" lon="5.57692">
        <ele>1419.296</ele>
        <time>2021-11-07T10:48:42Z</time>
      </trkpt>
      <trkpt lat="44.87555" lon="5.577">
        <ele>1419.825</ele>
        <time>2021-11-07T10:48:47Z</time>
      </trkpt>
      <trkpt lat="44.87552" lon="5.57705">
        <ele>1420.714</ele>
        <time>2021-11-07T10:48:52Z</time>
      </trkpt>
      <trkpt lat="44.8755" lon="5.57713">
        <ele>1419.874</ele>
        <time>2021-11-07T10:48:57Z</time>
      </trkpt>
      <trkpt lat="44.8755" lon="5.57721">
        <ele>1421.046</ele>
        <time>2021-11-07T10:49:02Z</time>
      </trkpt>
      <trkpt lat="44.87553" lon="5.57729">
        <ele>1422.425</ele>
        <time>2021-11-07T10:49:07Z</time>
      </trkpt>
      <trkpt lat="44.87555" lon="5.57733">
        <ele>1423.508</ele>
        <time>2021-11-07T10:49:12Z</time>
      </trkpt>
      <trkpt lat="44.87556" lon="5.57732">
        <ele>1423.669</ele>
        <time>2021-11-07T10:49:17Z</time>
      </trkpt>
      <trkpt lat="44.87558" lon="5.57729">
        <ele>1423.375</ele>
        <time>2021-11-07T10:49:22Z</time>
      </trkpt>
      <trkpt lat="44.87559" lon="5.5773">
        <ele>1423.142</ele>
        <time>2021-11-07T10:49:27Z</time>
      </trkpt>
      <trkpt lat="44.87559" lon="5.57731">
        <ele>1423.04</ele>
        <time>2021-11-07T10:49:32Z</time>
      </trkpt>
      <trkpt lat="44.87559" lon="5.57732">
        <ele>1423.407</ele>
        <time>2021-11-07T10:49:37Z</time>
      </trkpt>
      <trkpt lat="44.87559" lon="5.57732">
        <ele>1423.689</ele>
        <time>2021-11-07T10:49:42Z</time>
      </trkpt>
      <trkpt lat="44.87559" lon="5.57732">
        <ele>1423.657</ele>
        <time>2021-11-07T10:49:47Z</time>
      </trkpt>
      <trkpt lat="44.87559" lon="5.57732">
        <ele>1423.656</ele>
        <time>2021-11-07T10:49:52Z</time>
      </trkpt>
      <trkpt lat="44.87559" lon="5.57732">
        <ele>1423.655</ele>
        <time>2021-11-07T10:49:57Z</time>
      </trkpt>
      <trkpt lat="44.87559" lon="5.57732">
        <ele>1423.653</ele>
        <time>2021-11-07T10:50:02Z</time>
      </trkpt>
      <trkpt lat="44.87559" lon="5.57732">
        <ele>1423.649</ele>
        <time>2021-11-07T10:50:07Z</time>
      </trkpt>
      <trkpt lat="44.87559" lon="5.57732">
        <ele>1423.664</ele>
        <time>2021-11-07T10:50:12Z</time>
      </trkpt>
      <trkpt lat="44.87559" lon="5.57732">
        <ele>1423.666</ele>
        <time>2021-11-07T10:50:17Z</time>
      </trkpt>
      <trkpt lat="44.87559" lon="5.57732">
        <ele>1423.665</ele>
        <time>2021-11-07T10:50:22Z</time>
      </trkpt>
      <trkpt lat="44.87559" lon="5.57732">
        <ele>1423.67</ele>
        <time>2021-11-07T10:50:27Z</time>
      </trkpt>
      <trkpt lat="44.87559" lon="5.57732">
        <ele>1423.669</ele>
        <time>2021-11-07T10:50:32Z</time>
      </trkpt>
      <trkpt lat="44.87559" lon="5.57732">
        <ele>1423.669</ele>
        <time>2021-11-07T10:50:37Z</time>
      </trkpt>
      <trkpt lat="44.87559" lon="5.57732">
        <ele>1423.671</ele>
        <time>2021-11-07T10:50:42Z</time>
      </trkpt>
      <trkpt lat="44.87559" lon="5.57732">
        <ele>1423.678</ele>
        <time>2021-11-07T10:50:47Z</time>
      </trkpt>
      <trkpt lat="44.87559" lon="5.57732">
        <ele>1423.665</ele>
        <time>2021-11-07T10:50:52Z</time>
      </trkpt>
      <trkpt lat="44.87559" lon="5.57732">
        <ele>1423.671</ele>
        <time>2021-11-07T10:50:57Z</time>
      </trkpt>
      <trkpt lat="44.87559" lon="5.57732">
        <ele>1423.677</ele>
        <time>2021-11-07T10:51:02Z</time>
      </trkpt>
      <trkpt lat="44.87559" lon="5.57732">
        <ele>1423.678</ele>
        <time>2021-11-07T10:51:07Z</time>
      </trkpt>
      <trkpt lat="44.87559" lon="5.57732">
        <ele>1423.681</ele>
        <time>2021-11-07T10:51:12Z</time>
      </trkpt>
      <trkpt lat="44.87559" lon="5.57732">
        <ele>1423.682</ele>
        <time>2021-11-07T10:51:17Z</time>
      </trkpt>
      <trkpt lat="44.87559" lon="5.57732">
        <ele>1423.681</ele>
        <time>2021-11-07T10:51:22Z</time>
      </trkpt>
      <trkpt lat="44.87559" lon="5.57732">
        <ele>1423.679</ele>
        <time>2021-11-07T10:51:27Z</time>
      </trkpt>
      <trkpt lat="44.87559" lon="5.57732">
        <ele>1423.675</ele>
        <time>2021-11-07T10:51:32Z</time>
      </trkpt>
      <trkpt lat="44.87559" lon="5.57732">
        <ele>1423.68</ele>
        <time>2021-11-07T10:51:37Z</time>
      </trkpt>
      <trkpt lat="44.87559" lon="5.57732">
        <ele>1423.672</ele>
        <time>2021-11-07T10:51:42Z</time>
      </trkpt>
      <trkpt lat="44.87559" lon="5.57732">
        <ele>1422.814</ele>
        <time>2021-11-07T10:51:47Z</time>
      </trkpt>
      <trkpt lat="44.87559" lon="5.57732">
        <ele>1423.067</ele>
        <time>2021-11-07T10:51:52Z</time>
      </trkpt>
      <trkpt lat="44.87558" lon="5.57734">
        <ele>1423.043</ele>
        <time>2021-11-07T10:51:57Z</time>
      </trkpt>
      <trkpt lat="44.87558" lon="5.57735">
        <ele>1423.782</ele>
        <time>2021-11-07T10:52:02Z</time>
      </trkpt>
      <trkpt lat="44.87556" lon="5.57736">
        <ele>1426.993</ele>
        <time>2021-11-07T10:52:07Z</time>
      </trkpt>
      <trkpt lat="44.87555" lon="5.57736">
        <ele>1428.839</ele>
        <time>2021-11-07T10:52:12Z</time>
      </trkpt>
      <trkpt lat="44.87556" lon="5.57735">
        <ele>1427.558</ele>
        <time>2021-11-07T10:52:17Z</time>
      </trkpt>
      <trkpt lat="44.87556" lon="5.57737">
        <ele>1426.895</ele>
        <time>2021-11-07T10:52:22Z</time>
      </trkpt>
      <trkpt lat="44.87556" lon="5.57738">
        <ele>1426.873</ele>
        <time>2021-11-07T10:52:27Z</time>
      </trkpt>
      <trkpt lat="44.87556" lon="5.57738">
        <ele>1426.847</ele>
        <time>2021-11-07T10:52:32Z</time>
      </trkpt>
      <trkpt lat="44.87556" lon="5.57738">
        <ele>1425.387</ele>
        <time>2021-11-07T10:52:37Z</time>
      </trkpt>
      <trkpt lat="44.87557" lon="5.57735">
        <ele>1425.297</ele>
        <time>2021-11-07T10:52:42Z</time>
      </trkpt>
      <trkpt lat="44.87557" lon="5.57735">
        <ele>1424.529</ele>
        <time>2021-11-07T10:52:47Z</time>
      </trkpt>
      <trkpt lat="44.87557" lon="5.57735">
        <ele>1424.43</ele>
        <time>2021-11-07T10:52:52Z</time>
      </trkpt>
      <trkpt lat="44.87557" lon="5.57735">
        <ele>1424.423</ele>
        <time>2021-11-07T10:52:57Z</time>
      </trkpt>
      <trkpt lat="44.87557" lon="5.57735">
        <ele>1424.417</ele>
        <time>2021-11-07T10:53:02Z</time>
      </trkpt>
      <trkpt lat="44.87557" lon="5.57735">
        <ele>1424.424</ele>
        <time>2021-11-07T10:53:07Z</time>
      </trkpt>
      <trkpt lat="44.87557" lon="5.57735">
        <ele>1424.433</ele>
        <time>2021-11-07T10:53:12Z</time>
      </trkpt>
      <trkpt lat="44.87557" lon="5.57735">
        <ele>1424.439</ele>
        <time>2021-11-07T10:53:17Z</time>
      </trkpt>
      <trkpt lat="44.87557" lon="5.57735">
        <ele>1424.405</ele>
        <time>2021-11-07T10:53:22Z</time>
      </trkpt>
      <trkpt lat="44.87557" lon="5.57734">
        <ele>1426.309</ele>
        <time>2021-11-07T10:53:27Z</time>
      </trkpt>
      <trkpt lat="44.87558" lon="5.57733">
        <ele>1427.911</ele>
        <time>2021-11-07T10:53:32Z</time>
      </trkpt>
      <trkpt lat="44.87559" lon="5.57732">
        <ele>1428.386</ele>
        <time>2021-11-07T10:53:37Z</time>
      </trkpt>
      <trkpt lat="44.87559" lon="5.57733">
        <ele>1429.25</ele>
        <time>2021-11-07T10:53:42Z</time>
      </trkpt>
      <trkpt lat="44.87558" lon="5.57732">
        <ele>1428.194</ele>
        <time>2021-11-07T10:53:47Z</time>
      </trkpt>
      <trkpt lat="44.87557" lon="5.57732">
        <ele>1426.54</ele>
        <time>2021-11-07T10:53:52Z</time>
      </trkpt>
      <trkpt lat="44.87557" lon="5.57732">
        <ele>1425.951</ele>
        <time>2021-11-07T10:53:57Z</time>
      </trkpt>
      <trkpt lat="44.87557" lon="5.57732">
        <ele>1425.943</ele>
        <time>2021-11-07T10:54:02Z</time>
      </trkpt>
      <trkpt lat="44.87556" lon="5.57733">
        <ele>1425.479</ele>
        <time>2021-11-07T10:54:07Z</time>
      </trkpt>
      <trkpt lat="44.87556" lon="5.57735">
        <ele>1425.625</ele>
        <time>2021-11-07T10:54:12Z</time>
      </trkpt>
      <trkpt lat="44.87556" lon="5.57735">
        <ele>1425.665</ele>
        <time>2021-11-07T10:54:17Z</time>
      </trkpt>
      <trkpt lat="44.87556" lon="5.57735">
        <ele>1425.707</ele>
        <time>2021-11-07T10:54:22Z</time>
      </trkpt>
      <trkpt lat="44.87556" lon="5.57735">
        <ele>1425.692</ele>
        <time>2021-11-07T10:54:27Z</time>
      </trkpt>
      <trkpt lat="44.87556" lon="5.57735">
        <ele>1425.693</ele>
        <time>2021-11-07T10:54:32Z</time>
      </trkpt>
      <trkpt lat="44.87556" lon="5.57738">
        <ele>1426.621</ele>
        <time>2021-11-07T10:54:37Z</time>
      </trkpt>
      <trkpt lat="44.87555" lon="5.5774">
        <ele>1426.989</ele>
        <time>2021-11-07T10:54:42Z</time>
      </trkpt>
      <trkpt lat="44.87553" lon="5.57742">
        <ele>1424.749</ele>
        <time>2021-11-07T10:54:47Z</time>
      </trkpt>
      <trkpt lat="44.87553" lon="5.57743">
        <ele>1424.842</ele>
        <time>2021-11-07T10:54:52Z</time>
      </trkpt>
      <trkpt lat="44.87554" lon="5.57743">
        <ele>1425.865</ele>
        <time>2021-11-07T10:54:57Z</time>
      </trkpt>
      <trkpt lat="44.87554" lon="5.57743">
        <ele>1425.762</ele>
        <time>2021-11-07T10:55:02Z</time>
      </trkpt>
      <trkpt lat="44.87554" lon="5.57743">
        <ele>1426.277</ele>
        <time>2021-11-07T10:55:07Z</time>
      </trkpt>
      <trkpt lat="44.87554" lon="5.57743">
        <ele>1426.293</ele>
        <time>2021-11-07T10:55:12Z</time>
      </trkpt>
      <trkpt lat="44.87554" lon="5.57743">
        <ele>1426.293</ele>
        <time>2021-11-07T10:55:17Z</time>
      </trkpt>
      <trkpt lat="44.87554" lon="5.57744">
        <ele>1426.464</ele>
        <time>2021-11-07T10:55:22Z</time>
      </trkpt>
      <trkpt lat="44.87555" lon="5.57752">
        <ele>1425.689</ele>
        <time>2021-11-07T10:55:27Z</time>
      </trkpt>
      <trkpt lat="44.87557" lon="5.57764">
        <ele>1425.362</ele>
        <time>2021-11-07T10:55:32Z</time>
      </trkpt>
      <trkpt lat="44.87559" lon="5.57766">
        <ele>1425.814</ele>
        <time>2021-11-07T10:55:37Z</time>
      </trkpt>
      <trkpt lat="44.87559" lon="5.57766">
        <ele>1425.928</ele>
        <time>2021-11-07T10:55:42Z</time>
      </trkpt>
      <trkpt lat="44.87559" lon="5.57766">
        <ele>1426.507</ele>
        <time>2021-11-07T10:55:47Z</time>
      </trkpt>
      <trkpt lat="44.8756" lon="5.57766">
        <ele>1426.507</ele>
        <time>2021-11-07T10:55:52Z</time>
      </trkpt>
      <trkpt lat="44.8756" lon="5.57766">
        <ele>1426.493</ele>
        <time>2021-11-07T10:55:57Z</time>
      </trkpt>
      <trkpt lat="44.8756" lon="5.57766">
        <ele>1426.471</ele>
        <time>2021-11-07T10:56:02Z</time>
      </trkpt>
      <trkpt lat="44.8756" lon="5.57766">
        <ele>1426.464</ele>
        <time>2021-11-07T10:56:07Z</time>
      </trkpt>
      <trkpt lat="44.8756" lon="5.57767">
        <ele>1425.36</ele>
        <time>2021-11-07T10:56:12Z</time>
      </trkpt>
      <trkpt lat="44.87559" lon="5.57768">
        <ele>1424.907</ele>
        <time>2021-11-07T10:56:17Z</time>
      </trkpt>
      <trkpt lat="44.87559" lon="5.57768">
        <ele>1424.715</ele>
        <time>2021-11-07T10:56:22Z</time>
      </trkpt>
      <trkpt lat="44.87559" lon="5.57768">
        <ele>1424.77</ele>
        <time>2021-11-07T10:56:27Z</time>
      </trkpt>
      <trkpt lat="44.87559" lon="5.57768">
        <ele>1424.772</ele>
        <time>2021-11-07T10:56:32Z</time>
      </trkpt>
      <trkpt lat="44.87559" lon="5.57768">
        <ele>1424.771</ele>
        <time>2021-11-07T10:56:37Z</time>
      </trkpt>
      <trkpt lat="44.87559" lon="5.57768">
        <ele>1424.781</ele>
        <time>2021-11-07T10:56:42Z</time>
      </trkpt>
      <trkpt lat="44.87559" lon="5.57768">
        <ele>1424.785</ele>
        <time>2021-11-07T10:56:47Z</time>
      </trkpt>
      <trkpt lat="44.87559" lon="5.57768">
        <ele>1424.789</ele>
        <time>2021-11-07T10:56:52Z</time>
      </trkpt>
      <trkpt lat="44.87559" lon="5.57768">
        <ele>1424.81</ele>
        <time>2021-11-07T10:56:57Z</time>
      </trkpt>
      <trkpt lat="44.87559" lon="5.57768">
        <ele>1424.804</ele>
        <time>2021-11-07T10:57:02Z</time>
      </trkpt>
      <trkpt lat="44.87559" lon="5.57768">
        <ele>1424.8</ele>
        <time>2021-11-07T10:57:07Z</time>
      </trkpt>
      <trkpt lat="44.87559" lon="5.57768">
        <ele>1424.794</ele>
        <time>2021-11-07T10:57:12Z</time>
      </trkpt>
      <trkpt lat="44.87559" lon="5.57768">
        <ele>1424.791</ele>
        <time>2021-11-07T10:57:17Z</time>
      </trkpt>
      <trkpt lat="44.87559" lon="5.57768">
        <ele>1424.78</ele>
        <time>2021-11-07T10:57:22Z</time>
      </trkpt>
      <trkpt lat="44.87559" lon="5.57768">
        <ele>1424.778</ele>
        <time>2021-11-07T10:57:27Z</time>
      </trkpt>
      <trkpt lat="44.87559" lon="5.57768">
        <ele>1424.781</ele>
        <time>2021-11-07T10:57:32Z</time>
      </trkpt>
      <trkpt lat="44.8756" lon="5.57769">
        <ele>1424.036</ele>
        <time>2021-11-07T10:57:37Z</time>
      </trkpt>
      <trkpt lat="44.87561" lon="5.5778">
        <ele>1424.721</ele>
        <time>2021-11-07T10:57:42Z</time>
      </trkpt>
      <trkpt lat="44.87563" lon="5.57799">
        <ele>1425.656</ele>
        <time>2021-11-07T10:57:47Z</time>
      </trkpt>
      <trkpt lat="44.8756" lon="5.57825">
        <ele>1426.443</ele>
        <time>2021-11-07T10:57:52Z</time>
      </trkpt>
      <trkpt lat="44.87557" lon="5.57861">
        <ele>1430.726</ele>
        <time>2021-11-07T10:57:57Z</time>
      </trkpt>
      <trkpt lat="44.87558" lon="5.57891">
        <ele>1428.542</ele>
        <time>2021-11-07T10:58:02Z</time>
      </trkpt>
      <trkpt lat="44.87565" lon="5.57927">
        <ele>1426.887</ele>
        <time>2021-11-07T10:58:07Z</time>
      </trkpt>
      <trkpt lat="44.87567" lon="5.57943">
        <ele>1427.65</ele>
        <time>2021-11-07T10:58:12Z</time>
      </trkpt>
      <trkpt lat="44.87567" lon="5.57968">
        <ele>1428.012</ele>
        <time>2021-11-07T10:58:17Z</time>
      </trkpt>
      <trkpt lat="44.87568" lon="5.58011">
        <ele>1424.758</ele>
        <time>2021-11-07T10:58:22Z</time>
      </trkpt>
      <trkpt lat="44.87563" lon="5.5805">
        <ele>1421.097</ele>
        <time>2021-11-07T10:58:27Z</time>
      </trkpt>
      <trkpt lat="44.87555" lon="5.5808">
        <ele>1411.975</ele>
        <time>2021-11-07T10:58:32Z</time>
      </trkpt>
      <trkpt lat="44.87552" lon="5.58124">
        <ele>1408.089</ele>
        <time>2021-11-07T10:58:37Z</time>
      </trkpt>
      <trkpt lat="44.87549" lon="5.58127">
        <ele>1405.195</ele>
        <time>2021-11-07T10:58:42Z</time>
      </trkpt>
      <trkpt lat="44.8755" lon="5.58128">
        <ele>1403.866</ele>
        <time>2021-11-07T10:58:47Z</time>
      </trkpt>
      <trkpt lat="44.8755" lon="5.58129">
        <ele>1403.376</ele>
        <time>2021-11-07T10:58:52Z</time>
      </trkpt>
      <trkpt lat="44.8755" lon="5.58129">
        <ele>1403.694</ele>
        <time>2021-11-07T10:58:57Z</time>
      </trkpt>
      <trkpt lat="44.8755" lon="5.58129">
        <ele>1403.85</ele>
        <time>2021-11-07T10:59:02Z</time>
      </trkpt>
      <trkpt lat="44.8755" lon="5.58129">
        <ele>1403.871</ele>
        <time>2021-11-07T10:59:07Z</time>
      </trkpt>
      <trkpt lat="44.87548" lon="5.58129">
        <ele>1401.519</ele>
        <time>2021-11-07T10:59:12Z</time>
      </trkpt>
      <trkpt lat="44.87552" lon="5.58111">
        <ele>1394.699</ele>
        <time>2021-11-07T10:59:17Z</time>
      </trkpt>
      <trkpt lat="44.87536" lon="5.58079">
        <ele>1391.171</ele>
        <time>2021-11-07T10:59:22Z</time>
      </trkpt>
      <trkpt lat="44.87522" lon="5.58057">
        <ele>1384.74</ele>
        <time>2021-11-07T10:59:27Z</time>
      </trkpt>
      <trkpt lat="44.87517" lon="5.58043">
        <ele>1383.947</ele>
        <time>2021-11-07T10:59:32Z</time>
      </trkpt>
      <trkpt lat="44.87502" lon="5.58068">
        <ele>1384.603</ele>
        <time>2021-11-07T10:59:37Z</time>
      </trkpt>
      <trkpt lat="44.87496" lon="5.58108">
        <ele>1385.624</ele>
        <time>2021-11-07T10:59:42Z</time>
      </trkpt>
      <trkpt lat="44.87492" lon="5.58118">
        <ele>1384.081</ele>
        <time>2021-11-07T10:59:47Z</time>
      </trkpt>
      <trkpt lat="44.87493" lon="5.58126">
        <ele>1380.626</ele>
        <time>2021-11-07T10:59:52Z</time>
      </trkpt>
      <trkpt lat="44.87501" lon="5.58147">
        <ele>1377.977</ele>
        <time>2021-11-07T10:59:57Z</time>
      </trkpt>
      <trkpt lat="44.87503" lon="5.58155">
        <ele>1376.635</ele>
        <time>2021-11-07T11:00:02Z</time>
      </trkpt>
      <trkpt lat="44.87502" lon="5.58158">
        <ele>1373.172</ele>
        <time>2021-11-07T11:00:07Z</time>
      </trkpt>
      <trkpt lat="44.8748" lon="5.58132">
        <ele>1363.691</ele>
        <time>2021-11-07T11:00:12Z</time>
      </trkpt>
      <trkpt lat="44.87468" lon="5.58116">
        <ele>1357.998</ele>
        <time>2021-11-07T11:00:17Z</time>
      </trkpt>
      <trkpt lat="44.87464" lon="5.5811">
        <ele>1355.287</ele>
        <time>2021-11-07T11:00:22Z</time>
      </trkpt>
      <trkpt lat="44.87463" lon="5.58108">
        <ele>1355.9</ele>
        <time>2021-11-07T11:00:27Z</time>
      </trkpt>
      <trkpt lat="44.87465" lon="5.58136">
        <ele>1354.866</ele>
        <time>2021-11-07T11:00:32Z</time>
      </trkpt>
      <trkpt lat="44.87471" lon="5.58169">
        <ele>1355.513</ele>
        <time>2021-11-07T11:00:37Z</time>
      </trkpt>
      <trkpt lat="44.8747" lon="5.58176">
        <ele>1356.516</ele>
        <time>2021-11-07T11:00:42Z</time>
      </trkpt>
      <trkpt lat="44.87459" lon="5.58162">
        <ele>1350.335</ele>
        <time>2021-11-07T11:00:47Z</time>
      </trkpt>
      <trkpt lat="44.87434" lon="5.58134">
        <ele>1342.804</ele>
        <time>2021-11-07T11:00:52Z</time>
      </trkpt>
      <trkpt lat="44.87419" lon="5.58103">
        <ele>1333.033</ele>
        <time>2021-11-07T11:00:57Z</time>
      </trkpt>
      <trkpt lat="44.87415" lon="5.58084">
        <ele>1324.871</ele>
        <time>2021-11-07T11:01:02Z</time>
      </trkpt>
      <trkpt lat="44.8741" lon="5.5808">
        <ele>1322.469</ele>
        <time>2021-11-07T11:01:07Z</time>
      </trkpt>
      <trkpt lat="44.87411" lon="5.5808">
        <ele>1321.634</ele>
        <time>2021-11-07T11:01:12Z</time>
      </trkpt>
      <trkpt lat="44.87412" lon="5.5808">
        <ele>1321.115</ele>
        <time>2021-11-07T11:01:17Z</time>
      </trkpt>
      <trkpt lat="44.87412" lon="5.5808">
        <ele>1321.057</ele>
        <time>2021-11-07T11:01:22Z</time>
      </trkpt>
      <trkpt lat="44.8741" lon="5.58097">
        <ele>1317.468</ele>
        <time>2021-11-07T11:01:27Z</time>
      </trkpt>
      <trkpt lat="44.87413" lon="5.58144">
        <ele>1319.143</ele>
        <time>2021-11-07T11:01:32Z</time>
      </trkpt>
      <trkpt lat="44.87418" lon="5.58191">
        <ele>1318.974</ele>
        <time>2021-11-07T11:01:37Z</time>
      </trkpt>
      <trkpt lat="44.87425" lon="5.58234">
        <ele>1315.23</ele>
        <time>2021-11-07T11:01:42Z</time>
      </trkpt>
      <trkpt lat="44.87434" lon="5.58259">
        <ele>1312.111</ele>
        <time>2021-11-07T11:01:47Z</time>
      </trkpt>
      <trkpt lat="44.8744" lon="5.58267">
        <ele>1305.819</ele>
        <time>2021-11-07T11:01:52Z</time>
      </trkpt>
      <trkpt lat="44.87436" lon="5.58268">
        <ele>1302.807</ele>
        <time>2021-11-07T11:01:57Z</time>
      </trkpt>
      <trkpt lat="44.8742" lon="5.58246">
        <ele>1294.52</ele>
        <time>2021-11-07T11:02:02Z</time>
      </trkpt>
      <trkpt lat="44.87407" lon="5.58227">
        <ele>1287.857</ele>
        <time>2021-11-07T11:02:07Z</time>
      </trkpt>
      <trkpt lat="44.87393" lon="5.58206">
        <ele>1281.967</ele>
        <time>2021-11-07T11:02:12Z</time>
      </trkpt>
      <trkpt lat="44.8738" lon="5.58186">
        <ele>1276.513</ele>
        <time>2021-11-07T11:02:17Z</time>
      </trkpt>
      <trkpt lat="44.87365" lon="5.58165">
        <ele>1274.441</ele>
        <time>2021-11-07T11:02:22Z</time>
      </trkpt>
      <trkpt lat="44.87348" lon="5.58137">
        <ele>1270.157</ele>
        <time>2021-11-07T11:02:27Z</time>
      </trkpt>
      <trkpt lat="44.87338" lon="5.58109">
        <ele>1262.252</ele>
        <time>2021-11-07T11:02:32Z</time>
      </trkpt>
      <trkpt lat="44.87328" lon="5.58083">
        <ele>1257.952</ele>
        <time>2021-11-07T11:02:37Z</time>
      </trkpt>
      <trkpt lat="44.87321" lon="5.58056">
        <ele>1252.343</ele>
        <time>2021-11-07T11:02:42Z</time>
      </trkpt>
      <trkpt lat="44.87321" lon="5.58051">
        <ele>1252.173</ele>
        <time>2021-11-07T11:02:47Z</time>
      </trkpt>
      <trkpt lat="44.87322" lon="5.5805">
        <ele>1251.526</ele>
        <time>2021-11-07T11:02:52Z</time>
      </trkpt>
      <trkpt lat="44.87322" lon="5.5805">
        <ele>1251.477</ele>
        <time>2021-11-07T11:02:57Z</time>
      </trkpt>
      <trkpt lat="44.87322" lon="5.5805">
        <ele>1251.526</ele>
        <time>2021-11-07T11:03:02Z</time>
      </trkpt>
      <trkpt lat="44.87322" lon="5.5805">
        <ele>1251.72</ele>
        <time>2021-11-07T11:03:07Z</time>
      </trkpt>
      <trkpt lat="44.87322" lon="5.5805">
        <ele>1251.758</ele>
        <time>2021-11-07T11:03:12Z</time>
      </trkpt>
      <trkpt lat="44.87322" lon="5.5805">
        <ele>1251.79</ele>
        <time>2021-11-07T11:03:17Z</time>
      </trkpt>
      <trkpt lat="44.87322" lon="5.5805">
        <ele>1251.791</ele>
        <time>2021-11-07T11:03:22Z</time>
      </trkpt>
      <trkpt lat="44.87322" lon="5.5805">
        <ele>1251.791</ele>
        <time>2021-11-07T11:03:27Z</time>
      </trkpt>
      <trkpt lat="44.87322" lon="5.5805">
        <ele>1251.791</ele>
        <time>2021-11-07T11:03:32Z</time>
      </trkpt>
      <trkpt lat="44.87322" lon="5.5805">
        <ele>1251.841</ele>
        <time>2021-11-07T11:03:37Z</time>
      </trkpt>
      <trkpt lat="44.87322" lon="5.5805">
        <ele>1251.878</ele>
        <time>2021-11-07T11:03:42Z</time>
      </trkpt>
      <trkpt lat="44.87322" lon="5.5805">
        <ele>1251.882</ele>
        <time>2021-11-07T11:03:47Z</time>
      </trkpt>
      <trkpt lat="44.87322" lon="5.5805">
        <ele>1251.892</ele>
        <time>2021-11-07T11:03:52Z</time>
      </trkpt>
      <trkpt lat="44.87322" lon="5.5805">
        <ele>1251.9</ele>
        <time>2021-11-07T11:03:57Z</time>
      </trkpt>
      <trkpt lat="44.87322" lon="5.5805">
        <ele>1251.901</ele>
        <time>2021-11-07T11:04:02Z</time>
      </trkpt>
      <trkpt lat="44.87322" lon="5.58048">
        <ele>1251.509</ele>
        <time>2021-11-07T11:04:07Z</time>
      </trkpt>
      <trkpt lat="44.87322" lon="5.58045">
        <ele>1252.26</ele>
        <time>2021-11-07T11:04:12Z</time>
      </trkpt>
      <trkpt lat="44.87322" lon="5.58045">
        <ele>1251.549</ele>
        <time>2021-11-07T11:04:17Z</time>
      </trkpt>
      <trkpt lat="44.87322" lon="5.58045">
        <ele>1251.514</ele>
        <time>2021-11-07T11:04:22Z</time>
      </trkpt>
      <trkpt lat="44.87322" lon="5.58045">
        <ele>1251.532</ele>
        <time>2021-11-07T11:04:27Z</time>
      </trkpt>
      <trkpt lat="44.87322" lon="5.58045">
        <ele>1251.443</ele>
        <time>2021-11-07T11:04:32Z</time>
      </trkpt>
      <trkpt lat="44.87322" lon="5.58045">
        <ele>1251.43</ele>
        <time>2021-11-07T11:04:37Z</time>
      </trkpt>
      <trkpt lat="44.87322" lon="5.58045">
        <ele>1251.499</ele>
        <time>2021-11-07T11:04:42Z</time>
      </trkpt>
      <trkpt lat="44.87322" lon="5.58045">
        <ele>1251.482</ele>
        <time>2021-11-07T11:04:47Z</time>
      </trkpt>
      <trkpt lat="44.87322" lon="5.58044">
        <ele>1251.582</ele>
        <time>2021-11-07T11:04:52Z</time>
      </trkpt>
      <trkpt lat="44.87322" lon="5.58044">
        <ele>1251.614</ele>
        <time>2021-11-07T11:04:57Z</time>
      </trkpt>
      <trkpt lat="44.87322" lon="5.58044">
        <ele>1251.719</ele>
        <time>2021-11-07T11:05:02Z</time>
      </trkpt>
      <trkpt lat="44.87322" lon="5.58044">
        <ele>1251.821</ele>
        <time>2021-11-07T11:05:07Z</time>
      </trkpt>
      <trkpt lat="44.87322" lon="5.58044">
        <ele>1251.864</ele>
        <time>2021-11-07T11:05:12Z</time>
      </trkpt>
      <trkpt lat="44.87322" lon="5.58044">
        <ele>1251.91</ele>
        <time>2021-11-07T11:05:17Z</time>
      </trkpt>
      <trkpt lat="44.87322" lon="5.58044">
        <ele>1251.973</ele>
        <time>2021-11-07T11:05:22Z</time>
      </trkpt>
      <trkpt lat="44.87322" lon="5.58044">
        <ele>1251.992</ele>
        <time>2021-11-07T11:05:27Z</time>
      </trkpt>
      <trkpt lat="44.87322" lon="5.58044">
        <ele>1252.003</ele>
        <time>2021-11-07T11:05:32Z</time>
      </trkpt>
      <trkpt lat="44.87322" lon="5.58044">
        <ele>1252.018</ele>
        <time>2021-11-07T11:05:37Z</time>
      </trkpt>
      <trkpt lat="44.87322" lon="5.58044">
        <ele>1252.039</ele>
        <time>2021-11-07T11:05:42Z</time>
      </trkpt>
      <trkpt lat="44.87322" lon="5.58044">
        <ele>1252.051</ele>
        <time>2021-11-07T11:05:47Z</time>
      </trkpt>
      <trkpt lat="44.87322" lon="5.58044">
        <ele>1252.082</ele>
        <time>2021-11-07T11:05:52Z</time>
      </trkpt>
      <trkpt lat="44.87322" lon="5.58044">
        <ele>1252.068</ele>
        <time>2021-11-07T11:05:57Z</time>
      </trkpt>
      <trkpt lat="44.87322" lon="5.58044">
        <ele>1252.07</ele>
        <time>2021-11-07T11:06:01Z</time>
      </trkpt>
      <trkpt lat="44.87322" lon="5.58044">
        <ele>1252.002</ele>
        <time>2021-11-07T11:06:07Z</time>
      </trkpt>
      <trkpt lat="44.87322" lon="5.58044">
        <ele>1251.927</ele>
        <time>2021-11-07T11:06:12Z</time>
      </trkpt>
      <trkpt lat="44.87322" lon="5.58044">
        <ele>1251.981</ele>
        <time>2021-11-07T11:06:17Z</time>
      </trkpt>
      <trkpt lat="44.87322" lon="5.58044">
        <ele>1251.903</ele>
        <time>2021-11-07T11:06:22Z</time>
      </trkpt>
      <trkpt lat="44.87322" lon="5.58044">
        <ele>1251.896</ele>
        <time>2021-11-07T11:06:27Z</time>
      </trkpt>
      <trkpt lat="44.87322" lon="5.58044">
        <ele>1251.897</ele>
        <time>2021-11-07T11:06:32Z</time>
      </trkpt>
      <trkpt lat="44.87322" lon="5.58044">
        <ele>1251.909</ele>
        <time>2021-11-07T11:06:37Z</time>
      </trkpt>
      <trkpt lat="44.87322" lon="5.58044">
        <ele>1251.935</ele>
        <time>2021-11-07T11:06:42Z</time>
      </trkpt>
      <trkpt lat="44.87322" lon="5.58044">
        <ele>1251.966</ele>
        <time>2021-11-07T11:06:47Z</time>
      </trkpt>
      <trkpt lat="44.87322" lon="5.58044">
        <ele>1251.982</ele>
        <time>2021-11-07T11:06:52Z</time>
      </trkpt>
      <trkpt lat="44.87322" lon="5.58044">
        <ele>1251.993</ele>
        <time>2021-11-07T11:06:57Z</time>
      </trkpt>
      <trkpt lat="44.87322" lon="5.58044">
        <ele>1252.02</ele>
        <time>2021-11-07T11:07:02Z</time>
      </trkpt>
      <trkpt lat="44.87324" lon="5.58046">
        <ele>1253.33</ele>
        <time>2021-11-07T11:07:07Z</time>
      </trkpt>
      <trkpt lat="44.87324" lon="5.58045">
        <ele>1254.475</ele>
        <time>2021-11-07T11:07:12Z</time>
      </trkpt>
      <trkpt lat="44.87324" lon="5.58045">
        <ele>1254.969</ele>
        <time>2021-11-07T11:07:17Z</time>
      </trkpt>
      <trkpt lat="44.87324" lon="5.58045">
        <ele>1254.954</ele>
        <time>2021-11-07T11:07:22Z</time>
      </trkpt>
      <trkpt lat="44.87324" lon="5.58045">
        <ele>1255.039</ele>
        <time>2021-11-07T11:07:27Z</time>
      </trkpt>
      <trkpt lat="44.87324" lon="5.58045">
        <ele>1255.073</ele>
        <time>2021-11-07T11:07:32Z</time>
      </trkpt>
      <trkpt lat="44.87324" lon="5.58045">
        <ele>1255.092</ele>
        <time>2021-11-07T11:07:37Z</time>
      </trkpt>
      <trkpt lat="44.87324" lon="5.58045">
        <ele>1255.112</ele>
        <time>2021-11-07T11:07:42Z</time>
      </trkpt>
      <trkpt lat="44.87324" lon="5.58045">
        <ele>1255.129</ele>
        <time>2021-11-07T11:07:47Z</time>
      </trkpt>
      <trkpt lat="44.87324" lon="5.58042">
        <ele>1254.11</ele>
        <time>2021-11-07T11:07:52Z</time>
      </trkpt>
      <trkpt lat="44.87329" lon="5.5802">
        <ele>1248.92</ele>
        <time>2021-11-07T11:07:57Z</time>
      </trkpt>
      <trkpt lat="44.87335" lon="5.57996">
        <ele>1243.67</ele>
        <time>2021-11-07T11:08:02Z</time>
      </trkpt>
      <trkpt lat="44.87334" lon="5.57972">
        <ele>1239.107</ele>
        <time>2021-11-07T11:08:07Z</time>
      </trkpt>
      <trkpt lat="44.87338" lon="5.57952">
        <ele>1235.619</ele>
        <time>2021-11-07T11:08:12Z</time>
      </trkpt>
      <trkpt lat="44.87342" lon="5.57934">
        <ele>1234.99</ele>
        <time>2021-11-07T11:08:17Z</time>
      </trkpt>
      <trkpt lat="44.87332" lon="5.57917">
        <ele>1230.73</ele>
        <time>2021-11-07T11:08:22Z</time>
      </trkpt>
      <trkpt lat="44.87321" lon="5.57889">
        <ele>1225.646</ele>
        <time>2021-11-07T11:08:27Z</time>
      </trkpt>
      <trkpt lat="44.87316" lon="5.57865">
        <ele>1220.523</ele>
        <time>2021-11-07T11:08:32Z</time>
      </trkpt>
      <trkpt lat="44.87313" lon="5.57856">
        <ele>1219.237</ele>
        <time>2021-11-07T11:08:37Z</time>
      </trkpt>
      <trkpt lat="44.87309" lon="5.57883">
        <ele>1216.234</ele>
        <time>2021-11-07T11:08:42Z</time>
      </trkpt>
      <trkpt lat="44.87307" lon="5.57904">
        <ele>1212.702</ele>
        <time>2021-11-07T11:08:47Z</time>
      </trkpt>
      <trkpt lat="44.87308" lon="5.57906">
        <ele>1212.335</ele>
        <time>2021-11-07T11:08:52Z</time>
      </trkpt>
      <trkpt lat="44.87309" lon="5.57908">
        <ele>1212.025</ele>
        <time>2021-11-07T11:08:57Z</time>
      </trkpt>
      <trkpt lat="44.8731" lon="5.57913">
        <ele>1211.533</ele>
        <time>2021-11-07T11:09:02Z</time>
      </trkpt>
      <trkpt lat="44.87308" lon="5.57914">
        <ele>1210.81</ele>
        <time>2021-11-07T11:09:07Z</time>
      </trkpt>
      <trkpt lat="44.87306" lon="5.5791">
        <ele>1211.763</ele>
        <time>2021-11-07T11:09:12Z</time>
      </trkpt>
      <trkpt lat="44.87307" lon="5.57906">
        <ele>1211.227</ele>
        <time>2021-11-07T11:09:17Z</time>
      </trkpt>
      <trkpt lat="44.87307" lon="5.57908">
        <ele>1210.658</ele>
        <time>2021-11-07T11:09:22Z</time>
      </trkpt>
      <trkpt lat="44.87307" lon="5.57912">
        <ele>1213.116</ele>
        <time>2021-11-07T11:09:27Z</time>
      </trkpt>
      <trkpt lat="44.87304" lon="5.5791">
        <ele>1209.651</ele>
        <time>2021-11-07T11:09:32Z</time>
      </trkpt>
      <trkpt lat="44.87303" lon="5.57904">
        <ele>1210.997</ele>
        <time>2021-11-07T11:09:37Z</time>
      </trkpt>
      <trkpt lat="44.87301" lon="5.579">
        <ele>1211.683</ele>
        <time>2021-11-07T11:09:42Z</time>
      </trkpt>
      <trkpt lat="44.87295" lon="5.57883">
        <ele>1206.378</ele>
        <time>2021-11-07T11:09:47Z</time>
      </trkpt>
      <trkpt lat="44.87292" lon="5.57857">
        <ele>1193.613</ele>
        <time>2021-11-07T11:09:52Z</time>
      </trkpt>
      <trkpt lat="44.87284" lon="5.57868">
        <ele>1193.693</ele>
        <time>2021-11-07T11:09:57Z</time>
      </trkpt>
      <trkpt lat="44.87279" lon="5.57887">
        <ele>1195.575</ele>
        <time>2021-11-07T11:10:02Z</time>
      </trkpt>
      <trkpt lat="44.87279" lon="5.5789">
        <ele>1196.355</ele>
        <time>2021-11-07T11:10:07Z</time>
      </trkpt>
      <trkpt lat="44.87279" lon="5.57889">
        <ele>1195.54</ele>
        <time>2021-11-07T11:10:12Z</time>
      </trkpt>
      <trkpt lat="44.87282" lon="5.57899">
        <ele>1194.262</ele>
        <time>2021-11-07T11:10:17Z</time>
      </trkpt>
      <trkpt lat="44.87281" lon="5.57901">
        <ele>1191.754</ele>
        <time>2021-11-07T11:10:22Z</time>
      </trkpt>
      <trkpt lat="44.87274" lon="5.57886">
        <ele>1186.981</ele>
        <time>2021-11-07T11:10:27Z</time>
      </trkpt>
      <trkpt lat="44.87271" lon="5.57884">
        <ele>1187.738</ele>
        <time>2021-11-07T11:10:32Z</time>
      </trkpt>
      <trkpt lat="44.87267" lon="5.57872">
        <ele>1183.008</ele>
        <time>2021-11-07T11:10:37Z</time>
      </trkpt>
      <trkpt lat="44.87267" lon="5.57871">
        <ele>1182.381</ele>
        <time>2021-11-07T11:10:42Z</time>
      </trkpt>
      <trkpt lat="44.87267" lon="5.57867">
        <ele>1182.041</ele>
        <time>2021-11-07T11:10:48Z</time>
      </trkpt>
      <trkpt lat="44.87267" lon="5.57861">
        <ele>1180.382</ele>
        <time>2021-11-07T11:10:53Z</time>
      </trkpt>
      <trkpt lat="44.87265" lon="5.57844">
        <ele>1178.376</ele>
        <time>2021-11-07T11:10:58Z</time>
      </trkpt>
      <trkpt lat="44.87266" lon="5.57835">
        <ele>1174.934</ele>
        <time>2021-11-07T11:11:03Z</time>
      </trkpt>
      <trkpt lat="44.87266" lon="5.57832">
        <ele>1175.051</ele>
        <time>2021-11-07T11:11:08Z</time>
      </trkpt>
      <trkpt lat="44.87266" lon="5.57832">
        <ele>1175.169</ele>
        <time>2021-11-07T11:11:13Z</time>
      </trkpt>
      <trkpt lat="44.87265" lon="5.57832">
        <ele>1175.089</ele>
        <time>2021-11-07T11:11:18Z</time>
      </trkpt>
      <trkpt lat="44.87265" lon="5.57831">
        <ele>1175.205</ele>
        <time>2021-11-07T11:11:23Z</time>
      </trkpt>
      <trkpt lat="44.87265" lon="5.57831">
        <ele>1175.206</ele>
        <time>2021-11-07T11:11:28Z</time>
      </trkpt>
      <trkpt lat="44.87263" lon="5.57836">
        <ele>1175.82</ele>
        <time>2021-11-07T11:11:33Z</time>
      </trkpt>
      <trkpt lat="44.87262" lon="5.57836">
        <ele>1177.223</ele>
        <time>2021-11-07T11:11:38Z</time>
      </trkpt>
      <trkpt lat="44.8726" lon="5.57829">
        <ele>1174.842</ele>
        <time>2021-11-07T11:11:43Z</time>
      </trkpt>
      <trkpt lat="44.8726" lon="5.57824">
        <ele>1173.03</ele>
        <time>2021-11-07T11:11:48Z</time>
      </trkpt>
      <trkpt lat="44.87259" lon="5.57827">
        <ele>1172.676</ele>
        <time>2021-11-07T11:11:53Z</time>
      </trkpt>
      <trkpt lat="44.87258" lon="5.57829">
        <ele>1173.68</ele>
        <time>2021-11-07T11:11:58Z</time>
      </trkpt>
      <trkpt lat="44.87257" lon="5.5783">
        <ele>1174.988</ele>
        <time>2021-11-07T11:12:04Z</time>
      </trkpt>
      <trkpt lat="44.87256" lon="5.57833">
        <ele>1175.155</ele>
        <time>2021-11-07T11:12:09Z</time>
      </trkpt>
      <trkpt lat="44.87256" lon="5.57835">
        <ele>1173.588</ele>
        <time>2021-11-07T11:12:14Z</time>
      </trkpt>
      <trkpt lat="44.87256" lon="5.57834">
        <ele>1171.02</ele>
        <time>2021-11-07T11:12:19Z</time>
      </trkpt>
      <trkpt lat="44.87255" lon="5.57825">
        <ele>1164.65</ele>
        <time>2021-11-07T11:12:24Z</time>
      </trkpt>
      <trkpt lat="44.87251" lon="5.57827">
        <ele>1162.88</ele>
        <time>2021-11-07T11:12:29Z</time>
      </trkpt>
      <trkpt lat="44.87249" lon="5.57839">
        <ele>1158.202</ele>
        <time>2021-11-07T11:12:34Z</time>
      </trkpt>
      <trkpt lat="44.87247" lon="5.57857">
        <ele>1156.428</ele>
        <time>2021-11-07T11:12:39Z</time>
      </trkpt>
      <trkpt lat="44.8724" lon="5.57874">
        <ele>1158.241</ele>
        <time>2021-11-07T11:12:44Z</time>
      </trkpt>
      <trkpt lat="44.87236" lon="5.57882">
        <ele>1155.283</ele>
        <time>2021-11-07T11:12:49Z</time>
      </trkpt>
      <trkpt lat="44.87229" lon="5.57852">
        <ele>1144.549</ele>
        <time>2021-11-07T11:12:54Z</time>
      </trkpt>
      <trkpt lat="44.87225" lon="5.57833">
        <ele>1137.502</ele>
        <time>2021-11-07T11:12:59Z</time>
      </trkpt>
      <trkpt lat="44.87221" lon="5.57845">
        <ele>1132.713</ele>
        <time>2021-11-07T11:13:04Z</time>
      </trkpt>
      <trkpt lat="44.87212" lon="5.57869">
        <ele>1131.746</ele>
        <time>2021-11-07T11:13:09Z</time>
      </trkpt>
      <trkpt lat="44.87212" lon="5.5788">
        <ele>1131.119</ele>
        <time>2021-11-07T11:13:14Z</time>
      </trkpt>
      <trkpt lat="44.8721" lon="5.57872">
        <ele>1128.293</ele>
        <time>2021-11-07T11:13:19Z</time>
      </trkpt>
      <trkpt lat="44.8721" lon="5.57871">
        <ele>1128.808</ele>
        <time>2021-11-07T11:13:24Z</time>
      </trkpt>
      <trkpt lat="44.87209" lon="5.57871">
        <ele>1128.302</ele>
        <time>2021-11-07T11:13:29Z</time>
      </trkpt>
      <trkpt lat="44.87209" lon="5.57871">
        <ele>1128.312</ele>
        <time>2021-11-07T11:13:34Z</time>
      </trkpt>
      <trkpt lat="44.87209" lon="5.57871">
        <ele>1128.333</ele>
        <time>2021-11-07T11:13:39Z</time>
      </trkpt>
      <trkpt lat="44.87209" lon="5.57871">
        <ele>1128.326</ele>
        <time>2021-11-07T11:13:44Z</time>
      </trkpt>
      <trkpt lat="44.87209" lon="5.57871">
        <ele>1128.32</ele>
        <time>2021-11-07T11:13:49Z</time>
      </trkpt>
      <trkpt lat="44.87209" lon="5.57871">
        <ele>1128.344</ele>
        <time>2021-11-07T11:13:54Z</time>
      </trkpt>
      <trkpt lat="44.87209" lon="5.57871">
        <ele>1128.35</ele>
        <time>2021-11-07T11:13:59Z</time>
      </trkpt>
      <trkpt lat="44.87209" lon="5.57871">
        <ele>1128.353</ele>
        <time>2021-11-07T11:14:04Z</time>
      </trkpt>
      <trkpt lat="44.87209" lon="5.57871">
        <ele>1128.332</ele>
        <time>2021-11-07T11:14:09Z</time>
      </trkpt>
      <trkpt lat="44.87209" lon="5.57871">
        <ele>1128.318</ele>
        <time>2021-11-07T11:14:14Z</time>
      </trkpt>
      <trkpt lat="44.87209" lon="5.57871">
        <ele>1128.315</ele>
        <time>2021-11-07T11:14:19Z</time>
      </trkpt>
      <trkpt lat="44.87209" lon="5.57871">
        <ele>1128.317</ele>
        <time>2021-11-07T11:14:24Z</time>
      </trkpt>
      <trkpt lat="44.87209" lon="5.57871">
        <ele>1128.313</ele>
        <time>2021-11-07T11:14:29Z</time>
      </trkpt>
      <trkpt lat="44.87209" lon="5.57871">
        <ele>1128.311</ele>
        <time>2021-11-07T11:14:34Z</time>
      </trkpt>
      <trkpt lat="44.87209" lon="5.57871">
        <ele>1128.303</ele>
        <time>2021-11-07T11:14:39Z</time>
      </trkpt>
      <trkpt lat="44.87209" lon="5.57871">
        <ele>1128.287</ele>
        <time>2021-11-07T11:14:44Z</time>
      </trkpt>
      <trkpt lat="44.87209" lon="5.57871">
        <ele>1128.269</ele>
        <time>2021-11-07T11:14:49Z</time>
      </trkpt>
      <trkpt lat="44.87209" lon="5.57871">
        <ele>1128.253</ele>
        <time>2021-11-07T11:14:54Z</time>
      </trkpt>
      <trkpt lat="44.87209" lon="5.57871">
        <ele>1128.237</ele>
        <time>2021-11-07T11:14:59Z</time>
      </trkpt>
      <trkpt lat="44.87209" lon="5.57871">
        <ele>1128.298</ele>
        <time>2021-11-07T11:15:04Z</time>
      </trkpt>
      <trkpt lat="44.87209" lon="5.57871">
        <ele>1128.286</ele>
        <time>2021-11-07T11:15:09Z</time>
      </trkpt>
      <trkpt lat="44.87209" lon="5.57871">
        <ele>1128.001</ele>
        <time>2021-11-07T11:15:14Z</time>
      </trkpt>
      <trkpt lat="44.87208" lon="5.57871">
        <ele>1127.176</ele>
        <time>2021-11-07T11:15:19Z</time>
      </trkpt>
      <trkpt lat="44.87209" lon="5.57871">
        <ele>1126.399</ele>
        <time>2021-11-07T11:15:24Z</time>
      </trkpt>
      <trkpt lat="44.87209" lon="5.57871">
        <ele>1126.738</ele>
        <time>2021-11-07T11:15:29Z</time>
      </trkpt>
      <trkpt lat="44.87209" lon="5.57871">
        <ele>1126.6</ele>
        <time>2021-11-07T11:15:34Z</time>
      </trkpt>
      <trkpt lat="44.87209" lon="5.57871">
        <ele>1126.574</ele>
        <time>2021-11-07T11:15:39Z</time>
      </trkpt>
      <trkpt lat="44.87209" lon="5.57871">
        <ele>1126.569</ele>
        <time>2021-11-07T11:15:44Z</time>
      </trkpt>
      <trkpt lat="44.87209" lon="5.57871">
        <ele>1126.615</ele>
        <time>2021-11-07T11:15:49Z</time>
      </trkpt>
      <trkpt lat="44.87209" lon="5.57871">
        <ele>1126.618</ele>
        <time>2021-11-07T11:15:54Z</time>
      </trkpt>
      <trkpt lat="44.87209" lon="5.57871">
        <ele>1126.653</ele>
        <time>2021-11-07T11:15:59Z</time>
      </trkpt>
      <trkpt lat="44.87209" lon="5.57871">
        <ele>1126.652</ele>
        <time>2021-11-07T11:16:04Z</time>
      </trkpt>
      <trkpt lat="44.87209" lon="5.57871">
        <ele>1126.648</ele>
        <time>2021-11-07T11:16:09Z</time>
      </trkpt>
      <trkpt lat="44.87209" lon="5.57871">
        <ele>1126.645</ele>
        <time>2021-11-07T11:16:14Z</time>
      </trkpt>
      <trkpt lat="44.87209" lon="5.57871">
        <ele>1126.642</ele>
        <time>2021-11-07T11:16:19Z</time>
      </trkpt>
      <trkpt lat="44.87209" lon="5.57871">
        <ele>1126.61</ele>
        <time>2021-11-07T11:16:24Z</time>
      </trkpt>
      <trkpt lat="44.87209" lon="5.57871">
        <ele>1126.573</ele>
        <time>2021-11-07T11:16:29Z</time>
      </trkpt>
      <trkpt lat="44.87209" lon="5.57871">
        <ele>1126.601</ele>
        <time>2021-11-07T11:16:34Z</time>
      </trkpt>
      <trkpt lat="44.87209" lon="5.57871">
        <ele>1126.565</ele>
        <time>2021-11-07T11:16:39Z</time>
      </trkpt>
      <trkpt lat="44.87209" lon="5.57871">
        <ele>1126.54</ele>
        <time>2021-11-07T11:16:44Z</time>
      </trkpt>
      <trkpt lat="44.87208" lon="5.5787">
        <ele>1125.31</ele>
        <time>2021-11-07T11:16:49Z</time>
      </trkpt>
      <trkpt lat="44.87201" lon="5.57845">
        <ele>1118.456</ele>
        <time>2021-11-07T11:16:54Z</time>
      </trkpt>
      <trkpt lat="44.87203" lon="5.57829">
        <ele>1113.914</ele>
        <time>2021-11-07T11:16:59Z</time>
      </trkpt>
      <trkpt lat="44.87198" lon="5.57834">
        <ele>1112.444</ele>
        <time>2021-11-07T11:17:04Z</time>
      </trkpt>
      <trkpt lat="44.87184" lon="5.57845">
        <ele>1113.761</ele>
        <time>2021-11-07T11:17:09Z</time>
      </trkpt>
      <trkpt lat="44.8718" lon="5.57852">
        <ele>1113.747</ele>
        <time>2021-11-07T11:17:14Z</time>
      </trkpt>
      <trkpt lat="44.87178" lon="5.57845">
        <ele>1112.415</ele>
        <time>2021-11-07T11:17:19Z</time>
      </trkpt>
      <trkpt lat="44.87182" lon="5.57827">
        <ele>1109.063</ele>
        <time>2021-11-07T11:17:24Z</time>
      </trkpt>
      <trkpt lat="44.87185" lon="5.57818">
        <ele>1107.441</ele>
        <time>2021-11-07T11:17:29Z</time>
      </trkpt>
      <trkpt lat="44.87184" lon="5.57805">
        <ele>1103.095</ele>
        <time>2021-11-07T11:17:34Z</time>
      </trkpt>
      <trkpt lat="44.87169" lon="5.57782">
        <ele>1097.142</ele>
        <time>2021-11-07T11:17:39Z</time>
      </trkpt>
      <trkpt lat="44.8716" lon="5.57765">
        <ele>1093.748</ele>
        <time>2021-11-07T11:17:44Z</time>
      </trkpt>
      <trkpt lat="44.87159" lon="5.57765">
        <ele>1092.846</ele>
        <time>2021-11-07T11:17:49Z</time>
      </trkpt>
      <trkpt lat="44.87159" lon="5.57764">
        <ele>1092.854</ele>
        <time>2021-11-07T11:17:54Z</time>
      </trkpt>
      <trkpt lat="44.87156" lon="5.57762">
        <ele>1092.869</ele>
        <time>2021-11-07T11:17:59Z</time>
      </trkpt>
      <trkpt lat="44.87152" lon="5.57774">
        <ele>1087.385</ele>
        <time>2021-11-07T11:18:04Z</time>
      </trkpt>
      <trkpt lat="44.87151" lon="5.57763">
        <ele>1082.66</ele>
        <time>2021-11-07T11:18:09Z</time>
      </trkpt>
      <trkpt lat="44.87152" lon="5.57755">
        <ele>1083.278</ele>
        <time>2021-11-07T11:18:14Z</time>
      </trkpt>
      <trkpt lat="44.87153" lon="5.57754">
        <ele>1081.957</ele>
        <time>2021-11-07T11:18:19Z</time>
      </trkpt>
      <trkpt lat="44.87153" lon="5.57755">
        <ele>1082.994</ele>
        <time>2021-11-07T11:18:24Z</time>
      </trkpt>
      <trkpt lat="44.87154" lon="5.5776">
        <ele>1084.174</ele>
        <time>2021-11-07T11:18:29Z</time>
      </trkpt>
      <trkpt lat="44.87154" lon="5.5776">
        <ele>1084.342</ele>
        <time>2021-11-07T11:18:34Z</time>
      </trkpt>
      <trkpt lat="44.87153" lon="5.57752">
        <ele>1083.472</ele>
        <time>2021-11-07T11:18:39Z</time>
      </trkpt>
      <trkpt lat="44.87153" lon="5.57751">
        <ele>1081.851</ele>
        <time>2021-11-07T11:18:44Z</time>
      </trkpt>
      <trkpt lat="44.87153" lon="5.57754">
        <ele>1080.515</ele>
        <time>2021-11-07T11:18:49Z</time>
      </trkpt>
      <trkpt lat="44.87147" lon="5.5776">
        <ele>1079.521</ele>
        <time>2021-11-07T11:18:54Z</time>
      </trkpt>
      <trkpt lat="44.87145" lon="5.57757">
        <ele>1078.769</ele>
        <time>2021-11-07T11:18:59Z</time>
      </trkpt>
      <trkpt lat="44.87145" lon="5.57756">
        <ele>1078.283</ele>
        <time>2021-11-07T11:19:04Z</time>
      </trkpt>
      <trkpt lat="44.87145" lon="5.57753">
        <ele>1079.323</ele>
        <time>2021-11-07T11:19:09Z</time>
      </trkpt>
      <trkpt lat="44.87145" lon="5.57753">
        <ele>1079.616</ele>
        <time>2021-11-07T11:19:14Z</time>
      </trkpt>
      <trkpt lat="44.87145" lon="5.57747">
        <ele>1076.482</ele>
        <time>2021-11-07T11:19:19Z</time>
      </trkpt>
      <trkpt lat="44.87138" lon="5.57761">
        <ele>1074.632</ele>
        <time>2021-11-07T11:19:24Z</time>
      </trkpt>
      <trkpt lat="44.8713" lon="5.57783">
        <ele>1074.23</ele>
        <time>2021-11-07T11:19:29Z</time>
      </trkpt>
      <trkpt lat="44.87122" lon="5.57772">
        <ele>1068.487</ele>
        <time>2021-11-07T11:19:34Z</time>
      </trkpt>
      <trkpt lat="44.87116" lon="5.5775">
        <ele>1067.504</ele>
        <time>2021-11-07T11:19:39Z</time>
      </trkpt>
      <trkpt lat="44.87107" lon="5.57725">
        <ele>1063.611</ele>
        <time>2021-11-07T11:19:44Z</time>
      </trkpt>
      <trkpt lat="44.87115" lon="5.57696">
        <ele>1059.432</ele>
        <time>2021-11-07T11:19:49Z</time>
      </trkpt>
      <trkpt lat="44.87115" lon="5.5767">
        <ele>1053.128</ele>
        <time>2021-11-07T11:19:54Z</time>
      </trkpt>
      <trkpt lat="44.87105" lon="5.57677">
        <ele>1053.168</ele>
        <time>2021-11-07T11:19:59Z</time>
      </trkpt>
      <trkpt lat="44.87083" lon="5.57701">
        <ele>1053.473</ele>
        <time>2021-11-07T11:20:04Z</time>
      </trkpt>
      <trkpt lat="44.8708" lon="5.57724">
        <ele>1045.336</ele>
        <time>2021-11-07T11:20:09Z</time>
      </trkpt>
      <trkpt lat="44.87076" lon="5.57741">
        <ele>1041.708</ele>
        <time>2021-11-07T11:20:14Z</time>
      </trkpt>
      <trkpt lat="44.87075" lon="5.57742">
        <ele>1041.411</ele>
        <time>2021-11-07T11:20:19Z</time>
      </trkpt>
      <trkpt lat="44.87076" lon="5.57731">
        <ele>1038.011</ele>
        <time>2021-11-07T11:20:24Z</time>
      </trkpt>
      <trkpt lat="44.87079" lon="5.5773">
        <ele>1037.405</ele>
        <time>2021-11-07T11:20:29Z</time>
      </trkpt>
      <trkpt lat="44.87077" lon="5.57737">
        <ele>1037.387</ele>
        <time>2021-11-07T11:20:34Z</time>
      </trkpt>
      <trkpt lat="44.87075" lon="5.57743">
        <ele>1036.303</ele>
        <time>2021-11-07T11:20:39Z</time>
      </trkpt>
      <trkpt lat="44.87073" lon="5.57733">
        <ele>1033.209</ele>
        <time>2021-11-07T11:20:44Z</time>
      </trkpt>
      <trkpt lat="44.87075" lon="5.57733">
        <ele>1033.753</ele>
        <time>2021-11-07T11:20:49Z</time>
      </trkpt>
      <trkpt lat="44.87075" lon="5.57733">
        <ele>1034.069</ele>
        <time>2021-11-07T11:20:54Z</time>
      </trkpt>
      <trkpt lat="44.87075" lon="5.57722">
        <ele>1030.986</ele>
        <time>2021-11-07T11:20:59Z</time>
      </trkpt>
      <trkpt lat="44.87073" lon="5.57699">
        <ele>1027.544</ele>
        <time>2021-11-07T11:21:04Z</time>
      </trkpt>
      <trkpt lat="44.87072" lon="5.57677">
        <ele>1025.612</ele>
        <time>2021-11-07T11:21:09Z</time>
      </trkpt>
      <trkpt lat="44.87072" lon="5.57665">
        <ele>1021.895</ele>
        <time>2021-11-07T11:21:14Z</time>
      </trkpt>
      <trkpt lat="44.87068" lon="5.57673">
        <ele>1021.944</ele>
        <time>2021-11-07T11:21:19Z</time>
      </trkpt>
      <trkpt lat="44.87055" lon="5.57709">
        <ele>1020.948</ele>
        <time>2021-11-07T11:21:24Z</time>
      </trkpt>
      <trkpt lat="44.87051" lon="5.57728">
        <ele>1017.216</ele>
        <time>2021-11-07T11:21:29Z</time>
      </trkpt>
      <trkpt lat="44.87051" lon="5.5773">
        <ele>1016.854</ele>
        <time>2021-11-07T11:21:34Z</time>
      </trkpt>
      <trkpt lat="44.87049" lon="5.57741">
        <ele>1016.025</ele>
        <time>2021-11-07T11:21:39Z</time>
      </trkpt>
      <trkpt lat="44.87049" lon="5.57741">
        <ele>1013.075</ele>
        <time>2021-11-07T11:21:44Z</time>
      </trkpt>
      <trkpt lat="44.87044" lon="5.57727">
        <ele>1008.144</ele>
        <time>2021-11-07T11:21:49Z</time>
      </trkpt>
      <trkpt lat="44.87043" lon="5.57699">
        <ele>1002.239</ele>
        <time>2021-11-07T11:21:54Z</time>
      </trkpt>
      <trkpt lat="44.8704" lon="5.57675">
        <ele>997.526</ele>
        <time>2021-11-07T11:21:59Z</time>
      </trkpt>
      <trkpt lat="44.87039" lon="5.57654">
        <ele>994.507</ele>
        <time>2021-11-07T11:22:04Z</time>
      </trkpt>
      <trkpt lat="44.87038" lon="5.57652">
        <ele>994.187</ele>
        <time>2021-11-07T11:22:09Z</time>
      </trkpt>
      <trkpt lat="44.87039" lon="5.57652">
        <ele>993.57</ele>
        <time>2021-11-07T11:22:14Z</time>
      </trkpt>
      <trkpt lat="44.87038" lon="5.57651">
        <ele>992.625</ele>
        <time>2021-11-07T11:22:19Z</time>
      </trkpt>
      <trkpt lat="44.87038" lon="5.57651">
        <ele>992.61</ele>
        <time>2021-11-07T11:22:24Z</time>
      </trkpt>
      <trkpt lat="44.87039" lon="5.57647">
        <ele>990.539</ele>
        <time>2021-11-07T11:22:29Z</time>
      </trkpt>
      <trkpt lat="44.87039" lon="5.57644">
        <ele>987.47</ele>
        <time>2021-11-07T11:22:34Z</time>
      </trkpt>
      <trkpt lat="44.87029" lon="5.57667">
        <ele>983.609</ele>
        <time>2021-11-07T11:22:39Z</time>
      </trkpt>
      <trkpt lat="44.87018" lon="5.57703">
        <ele>982.001</ele>
        <time>2021-11-07T11:22:44Z</time>
      </trkpt>
      <trkpt lat="44.87013" lon="5.57713">
        <ele>986.134</ele>
        <time>2021-11-07T11:22:49Z</time>
      </trkpt>
      <trkpt lat="44.87007" lon="5.57715">
        <ele>986.172</ele>
        <time>2021-11-07T11:22:54Z</time>
      </trkpt>
      <trkpt lat="44.86997" lon="5.5768">
        <ele>978.489</ele>
        <time>2021-11-07T11:22:59Z</time>
      </trkpt>
      <trkpt lat="44.86987" lon="5.57645">
        <ele>974.229</ele>
        <time>2021-11-07T11:23:04Z</time>
      </trkpt>
      <trkpt lat="44.86993" lon="5.57626">
        <ele>972.163</ele>
        <time>2021-11-07T11:23:09Z</time>
      </trkpt>
      <trkpt lat="44.87002" lon="5.57623">
        <ele>971.874</ele>
        <time>2021-11-07T11:23:14Z</time>
      </trkpt>
      <trkpt lat="44.87002" lon="5.57617">
        <ele>968.101</ele>
        <time>2021-11-07T11:23:19Z</time>
      </trkpt>
      <trkpt lat="44.86992" lon="5.57605">
        <ele>964.548</ele>
        <time>2021-11-07T11:23:24Z</time>
      </trkpt>
      <trkpt lat="44.86981" lon="5.57597">
        <ele>961.578</ele>
        <time>2021-11-07T11:23:29Z</time>
      </trkpt>
      <trkpt lat="44.86985" lon="5.5757">
        <ele>958.5</ele>
        <time>2021-11-07T11:23:34Z</time>
      </trkpt>
      <trkpt lat="44.86991" lon="5.57541">
        <ele>955.876</ele>
        <time>2021-11-07T11:23:39Z</time>
      </trkpt>
      <trkpt lat="44.8698" lon="5.57511">
        <ele>951.341</ele>
        <time>2021-11-07T11:23:44Z</time>
      </trkpt>
      <trkpt lat="44.86979" lon="5.57474">
        <ele>949.703</ele>
        <time>2021-11-07T11:23:49Z</time>
      </trkpt>
      <trkpt lat="44.86979" lon="5.57444">
        <ele>942.868</ele>
        <time>2021-11-07T11:23:54Z</time>
      </trkpt>
      <trkpt lat="44.86986" lon="5.57433">
        <ele>942.947</ele>
        <time>2021-11-07T11:23:59Z</time>
      </trkpt>
      <trkpt lat="44.86989" lon="5.57429">
        <ele>940.045</ele>
        <time>2021-11-07T11:24:04Z</time>
      </trkpt>
      <trkpt lat="44.86993" lon="5.57428">
        <ele>939.393</ele>
        <time>2021-11-07T11:24:09Z</time>
      </trkpt>
      <trkpt lat="44.86996" lon="5.57426">
        <ele>938.96</ele>
        <time>2021-11-07T11:24:14Z</time>
      </trkpt>
      <trkpt lat="44.86996" lon="5.57425">
        <ele>938.9</ele>
        <time>2021-11-07T11:24:19Z</time>
      </trkpt>
      <trkpt lat="44.86997" lon="5.57424">
        <ele>939.865</ele>
        <time>2021-11-07T11:24:24Z</time>
      </trkpt>
      <trkpt lat="44.86996" lon="5.57425">
        <ele>938.692</ele>
        <time>2021-11-07T11:24:29Z</time>
      </trkpt>
      <trkpt lat="44.86997" lon="5.57426">
        <ele>940.82</ele>
        <time>2021-11-07T11:24:34Z</time>
      </trkpt>
      <trkpt lat="44.87" lon="5.57426">
        <ele>940.769</ele>
        <time>2021-11-07T11:24:39Z</time>
      </trkpt>
      <trkpt lat="44.87002" lon="5.57415">
        <ele>940.411</ele>
        <time>2021-11-07T11:24:44Z</time>
      </trkpt>
      <trkpt lat="44.86993" lon="5.57406">
        <ele>939.754</ele>
        <time>2021-11-07T11:24:49Z</time>
      </trkpt>
      <trkpt lat="44.86991" lon="5.57405">
        <ele>940.985</ele>
        <time>2021-11-07T11:24:54Z</time>
      </trkpt>
      <trkpt lat="44.86991" lon="5.57405">
        <ele>942.276</ele>
        <time>2021-11-07T11:24:59Z</time>
      </trkpt>
      <trkpt lat="44.86991" lon="5.57405">
        <ele>942.695</ele>
        <time>2021-11-07T11:25:04Z</time>
      </trkpt>
      <trkpt lat="44.86986" lon="5.57399">
        <ele>941.036</ele>
        <time>2021-11-07T11:25:09Z</time>
      </trkpt>
      <trkpt lat="44.86988" lon="5.5739">
        <ele>939.076</ele>
        <time>2021-11-07T11:25:14Z</time>
      </trkpt>
      <trkpt lat="44.86985" lon="5.57387">
        <ele>935.879</ele>
        <time>2021-11-07T11:25:19Z</time>
      </trkpt>
      <trkpt lat="44.86985" lon="5.57388">
        <ele>935.51</ele>
        <time>2021-11-07T11:25:24Z</time>
      </trkpt>
      <trkpt lat="44.86985" lon="5.57389">
        <ele>936.245</ele>
        <time>2021-11-07T11:25:29Z</time>
      </trkpt>
      <trkpt lat="44.86985" lon="5.57389">
        <ele>936.278</ele>
        <time>2021-11-07T11:25:34Z</time>
      </trkpt>
      <trkpt lat="44.86985" lon="5.57389">
        <ele>936.277</ele>
        <time>2021-11-07T11:25:39Z</time>
      </trkpt>
      <trkpt lat="44.86985" lon="5.57389">
        <ele>936.282</ele>
        <time>2021-11-07T11:25:44Z</time>
      </trkpt>
      <trkpt lat="44.86985" lon="5.57389">
        <ele>936.317</ele>
        <time>2021-11-07T11:25:49Z</time>
      </trkpt>
      <trkpt lat="44.86985" lon="5.57389">
        <ele>936.329</ele>
        <time>2021-11-07T11:25:54Z</time>
      </trkpt>
      <trkpt lat="44.86985" lon="5.57389">
        <ele>936.337</ele>
        <time>2021-11-07T11:25:59Z</time>
      </trkpt>
      <trkpt lat="44.86985" lon="5.57389">
        <ele>936.383</ele>
        <time>2021-11-07T11:26:04Z</time>
      </trkpt>
      <trkpt lat="44.86985" lon="5.57389">
        <ele>936.393</ele>
        <time>2021-11-07T11:26:09Z</time>
      </trkpt>
      <trkpt lat="44.86985" lon="5.57389">
        <ele>936.392</ele>
        <time>2021-11-07T11:26:14Z</time>
      </trkpt>
      <trkpt lat="44.86985" lon="5.57389">
        <ele>936.398</ele>
        <time>2021-11-07T11:26:19Z</time>
      </trkpt>
      <trkpt lat="44.86985" lon="5.57389">
        <ele>936.378</ele>
        <time>2021-11-07T11:26:24Z</time>
      </trkpt>
      <trkpt lat="44.86985" lon="5.57389">
        <ele>936.392</ele>
        <time>2021-11-07T11:26:29Z</time>
      </trkpt>
      <trkpt lat="44.86985" lon="5.57389">
        <ele>936.402</ele>
        <time>2021-11-07T11:26:34Z</time>
      </trkpt>
      <trkpt lat="44.86985" lon="5.57389">
        <ele>936.413</ele>
        <time>2021-11-07T11:26:39Z</time>
      </trkpt>
      <trkpt lat="44.86985" lon="5.57389">
        <ele>936.443</ele>
        <time>2021-11-07T11:26:44Z</time>
      </trkpt>
      <trkpt lat="44.86985" lon="5.57389">
        <ele>936.462</ele>
        <time>2021-11-07T11:26:49Z</time>
      </trkpt>
      <trkpt lat="44.86985" lon="5.57389">
        <ele>936.472</ele>
        <time>2021-11-07T11:26:54Z</time>
      </trkpt>
      <trkpt lat="44.86985" lon="5.57389">
        <ele>936.496</ele>
        <time>2021-11-07T11:26:59Z</time>
      </trkpt>
      <trkpt lat="44.86985" lon="5.57389">
        <ele>936.499</ele>
        <time>2021-11-07T11:27:04Z</time>
      </trkpt>
      <trkpt lat="44.86985" lon="5.57389">
        <ele>936.494</ele>
        <time>2021-11-07T11:27:09Z</time>
      </trkpt>
      <trkpt lat="44.86985" lon="5.57389">
        <ele>936.492</ele>
        <time>2021-11-07T11:27:14Z</time>
      </trkpt>
      <trkpt lat="44.86985" lon="5.57389">
        <ele>936.472</ele>
        <time>2021-11-07T11:27:19Z</time>
      </trkpt>
      <trkpt lat="44.86985" lon="5.57389">
        <ele>936.436</ele>
        <time>2021-11-07T11:27:24Z</time>
      </trkpt>
      <trkpt lat="44.86985" lon="5.57389">
        <ele>936.392</ele>
        <time>2021-11-07T11:27:29Z</time>
      </trkpt>
      <trkpt lat="44.86985" lon="5.57389">
        <ele>936.348</ele>
        <time>2021-11-07T11:27:34Z</time>
      </trkpt>
      <trkpt lat="44.86985" lon="5.57388">
        <ele>936.312</ele>
        <time>2021-11-07T11:27:39Z</time>
      </trkpt>
      <trkpt lat="44.86985" lon="5.57388">
        <ele>936.297</ele>
        <time>2021-11-07T11:27:44Z</time>
      </trkpt>
      <trkpt lat="44.86986" lon="5.57388">
        <ele>936.282</ele>
        <time>2021-11-07T11:27:49Z</time>
      </trkpt>
      <trkpt lat="44.86986" lon="5.57388">
        <ele>936.249</ele>
        <time>2021-11-07T11:27:54Z</time>
      </trkpt>
      <trkpt lat="44.86986" lon="5.57388">
        <ele>936.243</ele>
        <time>2021-11-07T11:27:59Z</time>
      </trkpt>
      <trkpt lat="44.86986" lon="5.57388">
        <ele>936.237</ele>
        <time>2021-11-07T11:28:04Z</time>
      </trkpt>
      <trkpt lat="44.86986" lon="5.57388">
        <ele>936.23</ele>
        <time>2021-11-07T11:28:09Z</time>
      </trkpt>
      <trkpt lat="44.86986" lon="5.57388">
        <ele>936.225</ele>
        <time>2021-11-07T11:28:14Z</time>
      </trkpt>
      <trkpt lat="44.86986" lon="5.57388">
        <ele>936.227</ele>
        <time>2021-11-07T11:28:19Z</time>
      </trkpt>
      <trkpt lat="44.86986" lon="5.57388">
        <ele>936.212</ele>
        <time>2021-11-07T11:28:24Z</time>
      </trkpt>
      <trkpt lat="44.86986" lon="5.57388">
        <ele>936.213</ele>
        <time>2021-11-07T11:28:29Z</time>
      </trkpt>
      <trkpt lat="44.86986" lon="5.57388">
        <ele>936.204</ele>
        <time>2021-11-07T11:28:34Z</time>
      </trkpt>
      <trkpt lat="44.86986" lon="5.57388">
        <ele>936.21</ele>
        <time>2021-11-07T11:28:39Z</time>
      </trkpt>
      <trkpt lat="44.86986" lon="5.57388">
        <ele>936.212</ele>
        <time>2021-11-07T11:28:44Z</time>
      </trkpt>
      <trkpt lat="44.86986" lon="5.57388">
        <ele>936.205</ele>
        <time>2021-11-07T11:28:49Z</time>
      </trkpt>
      <trkpt lat="44.86986" lon="5.57388">
        <ele>936.201</ele>
        <time>2021-11-07T11:28:54Z</time>
      </trkpt>
      <trkpt lat="44.86986" lon="5.57387">
        <ele>936.467</ele>
        <time>2021-11-07T11:28:59Z</time>
      </trkpt>
      <trkpt lat="44.86988" lon="5.57385">
        <ele>936.907</ele>
        <time>2021-11-07T11:29:04Z</time>
      </trkpt>
      <trkpt lat="44.86988" lon="5.57384">
        <ele>937.687</ele>
        <time>2021-11-07T11:29:09Z</time>
      </trkpt>
      <trkpt lat="44.86988" lon="5.57383">
        <ele>939.796</ele>
        <time>2021-11-07T11:29:14Z</time>
      </trkpt>
      <trkpt lat="44.86988" lon="5.57383">
        <ele>940.643</ele>
        <time>2021-11-07T11:29:19Z</time>
      </trkpt>
      <trkpt lat="44.86988" lon="5.57383">
        <ele>940.641</ele>
        <time>2021-11-07T11:29:24Z</time>
      </trkpt>
      <trkpt lat="44.86989" lon="5.57384">
        <ele>938.009</ele>
        <time>2021-11-07T11:29:29Z</time>
      </trkpt>
      <trkpt lat="44.86989" lon="5.57386">
        <ele>936.315</ele>
        <time>2021-11-07T11:29:34Z</time>
      </trkpt>
      <trkpt lat="44.86989" lon="5.57386">
        <ele>936.267</ele>
        <time>2021-11-07T11:29:39Z</time>
      </trkpt>
      <trkpt lat="44.86989" lon="5.57386">
        <ele>936.339</ele>
        <time>2021-11-07T11:29:44Z</time>
      </trkpt>
      <trkpt lat="44.86989" lon="5.57386">
        <ele>936.355</ele>
        <time>2021-11-07T11:29:49Z</time>
      </trkpt>
      <trkpt lat="44.86989" lon="5.57386">
        <ele>936.376</ele>
        <time>2021-11-07T11:29:54Z</time>
      </trkpt>
      <trkpt lat="44.86989" lon="5.57386">
        <ele>936.433</ele>
        <time>2021-11-07T11:29:59Z</time>
      </trkpt>
      <trkpt lat="44.86989" lon="5.57386">
        <ele>936.551</ele>
        <time>2021-11-07T11:30:04Z</time>
      </trkpt>
      <trkpt lat="44.86989" lon="5.57386">
        <ele>936.613</ele>
        <time>2021-11-07T11:30:09Z</time>
      </trkpt>
      <trkpt lat="44.86989" lon="5.57386">
        <ele>936.607</ele>
        <time>2021-11-07T11:30:14Z</time>
      </trkpt>
      <trkpt lat="44.86989" lon="5.57386">
        <ele>936.593</ele>
        <time>2021-11-07T11:30:19Z</time>
      </trkpt>
      <trkpt lat="44.86989" lon="5.57386">
        <ele>936.601</ele>
        <time>2021-11-07T11:30:24Z</time>
      </trkpt>
      <trkpt lat="44.86989" lon="5.57386">
        <ele>936.607</ele>
        <time>2021-11-07T11:30:29Z</time>
      </trkpt>
      <trkpt lat="44.86989" lon="5.57386">
        <ele>936.603</ele>
        <time>2021-11-07T11:30:34Z</time>
      </trkpt>
      <trkpt lat="44.86989" lon="5.57386">
        <ele>936.612</ele>
        <time>2021-11-07T11:30:39Z</time>
      </trkpt>
      <trkpt lat="44.86989" lon="5.57386">
        <ele>936.621</ele>
        <time>2021-11-07T11:30:44Z</time>
      </trkpt>
      <trkpt lat="44.86989" lon="5.57386">
        <ele>936.651</ele>
        <time>2021-11-07T11:30:49Z</time>
      </trkpt>
      <trkpt lat="44.86989" lon="5.57386">
        <ele>936.656</ele>
        <time>2021-11-07T11:30:54Z</time>
      </trkpt>
      <trkpt lat="44.86992" lon="5.57382">
        <ele>934.893</ele>
        <time>2021-11-07T11:30:59Z</time>
      </trkpt>
      <trkpt lat="44.86996" lon="5.57377">
        <ele>935.93</ele>
        <time>2021-11-07T11:31:04Z</time>
      </trkpt>
      <trkpt lat="44.87" lon="5.57369">
        <ele>935.422</ele>
        <time>2021-11-07T11:31:09Z</time>
      </trkpt>
      <trkpt lat="44.87005" lon="5.57361">
        <ele>935.375</ele>
        <time>2021-11-07T11:31:14Z</time>
      </trkpt>
      <trkpt lat="44.87009" lon="5.57351">
        <ele>938.413</ele>
        <time>2021-11-07T11:31:19Z</time>
      </trkpt>
      <trkpt lat="44.87014" lon="5.57342">
        <ele>937.108</ele>
        <time>2021-11-07T11:31:24Z</time>
      </trkpt>
      <trkpt lat="44.87015" lon="5.5733">
        <ele>938.919</ele>
        <time>2021-11-07T11:31:29Z</time>
      </trkpt>
      <trkpt lat="44.87016" lon="5.57318">
        <ele>938.623</ele>
        <time>2021-11-07T11:31:34Z</time>
      </trkpt>
      <trkpt lat="44.87016" lon="5.57306">
        <ele>938.405</ele>
        <time>2021-11-07T11:31:39Z</time>
      </trkpt>
      <trkpt lat="44.87015" lon="5.57295">
        <ele>936.997</ele>
        <time>2021-11-07T11:31:44Z</time>
      </trkpt>
      <trkpt lat="44.87016" lon="5.57285">
        <ele>935.841</ele>
        <time>2021-11-07T11:31:49Z</time>
      </trkpt>
      <trkpt lat="44.87016" lon="5.57274">
        <ele>935.526</ele>
        <time>2021-11-07T11:31:54Z</time>
      </trkpt>
      <trkpt lat="44.87018" lon="5.57262">
        <ele>935.057</ele>
        <time>2021-11-07T11:31:59Z</time>
      </trkpt>
      <trkpt lat="44.87019" lon="5.57248">
        <ele>934.853</ele>
        <time>2021-11-07T11:32:04Z</time>
      </trkpt>
      <trkpt lat="44.8702" lon="5.57235">
        <ele>935.096</ele>
        <time>2021-11-07T11:32:09Z</time>
      </trkpt>
      <trkpt lat="44.8702" lon="5.57223">
        <ele>935.218</ele>
        <time>2021-11-07T11:32:14Z</time>
      </trkpt>
      <trkpt lat="44.87019" lon="5.57211">
        <ele>937.5</ele>
        <time>2021-11-07T11:32:19Z</time>
      </trkpt>
      <trkpt lat="44.87017" lon="5.57199">
        <ele>941.779</ele>
        <time>2021-11-07T11:32:24Z</time>
      </trkpt>
      <trkpt lat="44.87014" lon="5.57185">
        <ele>943.229</ele>
        <time>2021-11-07T11:32:29Z</time>
      </trkpt>
      <trkpt lat="44.87011" lon="5.57172">
        <ele>946.645</ele>
        <time>2021-11-07T11:32:34Z</time>
      </trkpt>
      <trkpt lat="44.87007" lon="5.57159">
        <ele>949.575</ele>
        <time>2021-11-07T11:32:39Z</time>
      </trkpt>
      <trkpt lat="44.87002" lon="5.57143">
        <ele>951.427</ele>
        <time>2021-11-07T11:32:44Z</time>
      </trkpt>
      <trkpt lat="44.86999" lon="5.57129">
        <ele>951.594</ele>
        <time>2021-11-07T11:32:49Z</time>
      </trkpt>
      <trkpt lat="44.86997" lon="5.57118">
        <ele>950.814</ele>
        <time>2021-11-07T11:32:54Z</time>
      </trkpt>
      <trkpt lat="44.86997" lon="5.57105">
        <ele>947.969</ele>
        <time>2021-11-07T11:32:59Z</time>
      </trkpt>
      <trkpt lat="44.87" lon="5.57092">
        <ele>946.512</ele>
        <time>2021-11-07T11:33:04Z</time>
      </trkpt>
      <trkpt lat="44.87004" lon="5.57078">
        <ele>947.966</ele>
        <time>2021-11-07T11:33:09Z</time>
      </trkpt>
      <trkpt lat="44.8701" lon="5.57066">
        <ele>947.498</ele>
        <time>2021-11-07T11:33:14Z</time>
      </trkpt>
      <trkpt lat="44.87014" lon="5.57053">
        <ele>949.315</ele>
        <time>2021-11-07T11:33:19Z</time>
      </trkpt>
      <trkpt lat="44.87016" lon="5.57039">
        <ele>949.218</ele>
        <time>2021-11-07T11:33:24Z</time>
      </trkpt>
      <trkpt lat="44.87014" lon="5.57024">
        <ele>950.334</ele>
        <time>2021-11-07T11:33:29Z</time>
      </trkpt>
      <trkpt lat="44.87014" lon="5.57009">
        <ele>950.5</ele>
        <time>2021-11-07T11:33:34Z</time>
      </trkpt>
      <trkpt lat="44.87014" lon="5.56994">
        <ele>951.552</ele>
        <time>2021-11-07T11:33:39Z</time>
      </trkpt>
      <trkpt lat="44.87017" lon="5.56979">
        <ele>951.214</ele>
        <time>2021-11-07T11:33:44Z</time>
      </trkpt>
      <trkpt lat="44.87023" lon="5.56966">
        <ele>951.421</ele>
        <time>2021-11-07T11:33:49Z</time>
      </trkpt>
      <trkpt lat="44.87029" lon="5.56953">
        <ele>952.197</ele>
        <time>2021-11-07T11:33:54Z</time>
      </trkpt>
      <trkpt lat="44.87032" lon="5.5694">
        <ele>954.689</ele>
        <time>2021-11-07T11:33:59Z</time>
      </trkpt>
      <trkpt lat="44.87033" lon="5.56927">
        <ele>956.688</ele>
        <time>2021-11-07T11:34:04Z</time>
      </trkpt>
      <trkpt lat="44.87032" lon="5.56912">
        <ele>955.41</ele>
        <time>2021-11-07T11:34:09Z</time>
      </trkpt>
      <trkpt lat="44.87029" lon="5.56897">
        <ele>955.447</ele>
        <time>2021-11-07T11:34:14Z</time>
      </trkpt>
      <trkpt lat="44.87028" lon="5.56882">
        <ele>958.202</ele>
        <time>2021-11-07T11:34:19Z</time>
      </trkpt>
      <trkpt lat="44.87031" lon="5.56866">
        <ele>959.465</ele>
        <time>2021-11-07T11:34:24Z</time>
      </trkpt>
      <trkpt lat="44.87035" lon="5.56852">
        <ele>958.376</ele>
        <time>2021-11-07T11:34:29Z</time>
      </trkpt>
      <trkpt lat="44.87041" lon="5.5684">
        <ele>958.649</ele>
        <time>2021-11-07T11:34:34Z</time>
      </trkpt>
      <trkpt lat="44.87043" lon="5.56822">
        <ele>958.516</ele>
        <time>2021-11-07T11:34:39Z</time>
      </trkpt>
      <trkpt lat="44.87044" lon="5.56803">
        <ele>960.111</ele>
        <time>2021-11-07T11:34:44Z</time>
      </trkpt>
      <trkpt lat="44.87052" lon="5.5679">
        <ele>960.947</ele>
        <time>2021-11-07T11:34:49Z</time>
      </trkpt>
      <trkpt lat="44.87057" lon="5.56773">
        <ele>962.212</ele>
        <time>2021-11-07T11:34:54Z</time>
      </trkpt>
      <trkpt lat="44.87051" lon="5.56754">
        <ele>963.538</ele>
        <time>2021-11-07T11:34:59Z</time>
      </trkpt>
      <trkpt lat="44.87042" lon="5.56737">
        <ele>966.089</ele>
        <time>2021-11-07T11:35:04Z</time>
      </trkpt>
      <trkpt lat="44.87032" lon="5.56721">
        <ele>967.887</ele>
        <time>2021-11-07T11:35:09Z</time>
      </trkpt>
      <trkpt lat="44.87021" lon="5.56705">
        <ele>971.91</ele>
        <time>2021-11-07T11:35:14Z</time>
      </trkpt>
      <trkpt lat="44.87009" lon="5.56691">
        <ele>974.481</ele>
        <time>2021-11-07T11:35:19Z</time>
      </trkpt>
      <trkpt lat="44.86994" lon="5.5669">
        <ele>975.472</ele>
        <time>2021-11-07T11:35:24Z</time>
      </trkpt>
      <trkpt lat="44.86981" lon="5.56708">
        <ele>975.902</ele>
        <time>2021-11-07T11:35:29Z</time>
      </trkpt>
      <trkpt lat="44.86972" lon="5.5673">
        <ele>976.559</ele>
        <time>2021-11-07T11:35:34Z</time>
      </trkpt>
      <trkpt lat="44.86967" lon="5.56756">
        <ele>977.568</ele>
        <time>2021-11-07T11:35:39Z</time>
      </trkpt>
      <trkpt lat="44.86963" lon="5.56778">
        <ele>975.998</ele>
        <time>2021-11-07T11:35:44Z</time>
      </trkpt>
      <trkpt lat="44.86962" lon="5.56793">
        <ele>974.594</ele>
        <time>2021-11-07T11:35:49Z</time>
      </trkpt>
      <trkpt lat="44.8696" lon="5.56807">
        <ele>974.255</ele>
        <time>2021-11-07T11:35:54Z</time>
      </trkpt>
      <trkpt lat="44.86956" lon="5.56821">
        <ele>974.112</ele>
        <time>2021-11-07T11:35:59Z</time>
      </trkpt>
      <trkpt lat="44.86953" lon="5.56837">
        <ele>974.195</ele>
        <time>2021-11-07T11:36:04Z</time>
      </trkpt>
      <trkpt lat="44.8695" lon="5.56852">
        <ele>975.273</ele>
        <time>2021-11-07T11:36:09Z</time>
      </trkpt>
      <trkpt lat="44.86949" lon="5.56868">
        <ele>975.944</ele>
        <time>2021-11-07T11:36:14Z</time>
      </trkpt>
      <trkpt lat="44.86947" lon="5.56882">
        <ele>976.712</ele>
        <time>2021-11-07T11:36:19Z</time>
      </trkpt>
      <trkpt lat="44.86945" lon="5.56896">
        <ele>978.154</ele>
        <time>2021-11-07T11:36:24Z</time>
      </trkpt>
      <trkpt lat="44.86942" lon="5.56909">
        <ele>978.635</ele>
        <time>2021-11-07T11:36:29Z</time>
      </trkpt>
      <trkpt lat="44.86937" lon="5.56922">
        <ele>979.448</ele>
        <time>2021-11-07T11:36:34Z</time>
      </trkpt>
      <trkpt lat="44.86933" lon="5.56934">
        <ele>980.834</ele>
        <time>2021-11-07T11:36:39Z</time>
      </trkpt>
      <trkpt lat="44.86927" lon="5.56946">
        <ele>982.477</ele>
        <time>2021-11-07T11:36:44Z</time>
      </trkpt>
      <trkpt lat="44.86922" lon="5.56956">
        <ele>983.67</ele>
        <time>2021-11-07T11:36:49Z</time>
      </trkpt>
      <trkpt lat="44.86917" lon="5.56968">
        <ele>984.703</ele>
        <time>2021-11-07T11:36:54Z</time>
      </trkpt>
      <trkpt lat="44.86911" lon="5.56979">
        <ele>985.338</ele>
        <time>2021-11-07T11:36:59Z</time>
      </trkpt>
      <trkpt lat="44.86905" lon="5.5699">
        <ele>986.191</ele>
        <time>2021-11-07T11:37:04Z</time>
      </trkpt>
      <trkpt lat="44.86898" lon="5.57">
        <ele>987.596</ele>
        <time>2021-11-07T11:37:09Z</time>
      </trkpt>
      <trkpt lat="44.86893" lon="5.57009">
        <ele>989.531</ele>
        <time>2021-11-07T11:37:14Z</time>
      </trkpt>
      <trkpt lat="44.86887" lon="5.5702">
        <ele>990.351</ele>
        <time>2021-11-07T11:37:19Z</time>
      </trkpt>
      <trkpt lat="44.86882" lon="5.57031">
        <ele>990.235</ele>
        <time>2021-11-07T11:37:24Z</time>
      </trkpt>
      <trkpt lat="44.86877" lon="5.57041">
        <ele>990.759</ele>
        <time>2021-11-07T11:37:29Z</time>
      </trkpt>
      <trkpt lat="44.86874" lon="5.57051">
        <ele>991.12</ele>
        <time>2021-11-07T11:37:34Z</time>
      </trkpt>
      <trkpt lat="44.8687" lon="5.57063">
        <ele>991.632</ele>
        <time>2021-11-07T11:37:39Z</time>
      </trkpt>
      <trkpt lat="44.86867" lon="5.57075">
        <ele>991.779</ele>
        <time>2021-11-07T11:37:44Z</time>
      </trkpt>
      <trkpt lat="44.86862" lon="5.57087">
        <ele>992.264</ele>
        <time>2021-11-07T11:37:49Z</time>
      </trkpt>
      <trkpt lat="44.86854" lon="5.57092">
        <ele>992.781</ele>
        <time>2021-11-07T11:37:54Z</time>
      </trkpt>
      <trkpt lat="44.8685" lon="5.57082">
        <ele>994.415</ele>
        <time>2021-11-07T11:37:59Z</time>
      </trkpt>
      <trkpt lat="44.86857" lon="5.57071">
        <ele>993.316</ele>
        <time>2021-11-07T11:38:04Z</time>
      </trkpt>
      <trkpt lat="44.86863" lon="5.57061">
        <ele>994.143</ele>
        <time>2021-11-07T11:38:08Z</time>
      </trkpt>
      <trkpt lat="44.86868" lon="5.57045">
        <ele>995.345</ele>
        <time>2021-11-07T11:38:14Z</time>
      </trkpt>
      <trkpt lat="44.86873" lon="5.57033">
        <ele>997.758</ele>
        <time>2021-11-07T11:38:19Z</time>
      </trkpt>
      <trkpt lat="44.86878" lon="5.57021">
        <ele>1000.685</ele>
        <time>2021-11-07T11:38:24Z</time>
      </trkpt>
      <trkpt lat="44.86883" lon="5.57008">
        <ele>1001.628</ele>
        <time>2021-11-07T11:38:29Z</time>
      </trkpt>
      <trkpt lat="44.86888" lon="5.56995">
        <ele>1001.26</ele>
        <time>2021-11-07T11:38:34Z</time>
      </trkpt>
      <trkpt lat="44.86893" lon="5.56982">
        <ele>1001.624</ele>
        <time>2021-11-07T11:38:39Z</time>
      </trkpt>
      <trkpt lat="44.86899" lon="5.56969">
        <ele>1003.163</ele>
        <time>2021-11-07T11:38:44Z</time>
      </trkpt>
      <trkpt lat="44.86904" lon="5.56954">
        <ele>1004.661</ele>
        <time>2021-11-07T11:38:49Z</time>
      </trkpt>
      <trkpt lat="44.86908" lon="5.56941">
        <ele>1005.69</ele>
        <time>2021-11-07T11:38:54Z</time>
      </trkpt>
      <trkpt lat="44.8691" lon="5.56929">
        <ele>1007.008</ele>
        <time>2021-11-07T11:38:59Z</time>
      </trkpt>
      <trkpt lat="44.86914" lon="5.56916">
        <ele>1007.102</ele>
        <time>2021-11-07T11:39:04Z</time>
      </trkpt>
      <trkpt lat="44.86916" lon="5.56903">
        <ele>1007.666</ele>
        <time>2021-11-07T11:39:09Z</time>
      </trkpt>
      <trkpt lat="44.86917" lon="5.5689">
        <ele>1006.881</ele>
        <time>2021-11-07T11:39:14Z</time>
      </trkpt>
      <trkpt lat="44.86914" lon="5.56879">
        <ele>1007.442</ele>
        <time>2021-11-07T11:39:19Z</time>
      </trkpt>
      <trkpt lat="44.86912" lon="5.56865">
        <ele>1010.23</ele>
        <time>2021-11-07T11:39:24Z</time>
      </trkpt>
      <trkpt lat="44.86911" lon="5.56853">
        <ele>1012.079</ele>
        <time>2021-11-07T11:39:29Z</time>
      </trkpt>
      <trkpt lat="44.86911" lon="5.56838">
        <ele>1012.793</ele>
        <time>2021-11-07T11:39:34Z</time>
      </trkpt>
      <trkpt lat="44.86913" lon="5.56823">
        <ele>1012.674</ele>
        <time>2021-11-07T11:39:39Z</time>
      </trkpt>
      <trkpt lat="44.86916" lon="5.56808">
        <ele>1012.502</ele>
        <time>2021-11-07T11:39:44Z</time>
      </trkpt>
      <trkpt lat="44.86917" lon="5.56793">
        <ele>1013.122</ele>
        <time>2021-11-07T11:39:49Z</time>
      </trkpt>
      <trkpt lat="44.86916" lon="5.56778">
        <ele>1012.914</ele>
        <time>2021-11-07T11:39:54Z</time>
      </trkpt>
      <trkpt lat="44.86916" lon="5.56764">
        <ele>1011.425</ele>
        <time>2021-11-07T11:39:59Z</time>
      </trkpt>
      <trkpt lat="44.86915" lon="5.5675">
        <ele>1012.465</ele>
        <time>2021-11-07T11:40:04Z</time>
      </trkpt>
      <trkpt lat="44.86914" lon="5.56736">
        <ele>1014.238</ele>
        <time>2021-11-07T11:40:09Z</time>
      </trkpt>
      <trkpt lat="44.86913" lon="5.56722">
        <ele>1014.111</ele>
        <time>2021-11-07T11:40:14Z</time>
      </trkpt>
      <trkpt lat="44.86913" lon="5.56708">
        <ele>1016.71</ele>
        <time>2021-11-07T11:40:19Z</time>
      </trkpt>
      <trkpt lat="44.86911" lon="5.56697">
        <ele>1018.528</ele>
        <time>2021-11-07T11:40:24Z</time>
      </trkpt>
      <trkpt lat="44.86906" lon="5.56686">
        <ele>1022.552</ele>
        <time>2021-11-07T11:40:29Z</time>
      </trkpt>
      <trkpt lat="44.86901" lon="5.56676">
        <ele>1023.695</ele>
        <time>2021-11-07T11:40:34Z</time>
      </trkpt>
      <trkpt lat="44.86896" lon="5.56666">
        <ele>1024.694</ele>
        <time>2021-11-07T11:40:39Z</time>
      </trkpt>
      <trkpt lat="44.86888" lon="5.56659">
        <ele>1026.191</ele>
        <time>2021-11-07T11:40:44Z</time>
      </trkpt>
      <trkpt lat="44.86879" lon="5.56654">
        <ele>1028.646</ele>
        <time>2021-11-07T11:40:49Z</time>
      </trkpt>
      <trkpt lat="44.86871" lon="5.5665">
        <ele>1029.842</ele>
        <time>2021-11-07T11:40:54Z</time>
      </trkpt>
      <trkpt lat="44.86865" lon="5.56641">
        <ele>1031.18</ele>
        <time>2021-11-07T11:40:59Z</time>
      </trkpt>
      <trkpt lat="44.8686" lon="5.5663">
        <ele>1031.386</ele>
        <time>2021-11-07T11:41:04Z</time>
      </trkpt>
      <trkpt lat="44.86856" lon="5.56618">
        <ele>1032.531</ele>
        <time>2021-11-07T11:41:09Z</time>
      </trkpt>
      <trkpt lat="44.8685" lon="5.56608">
        <ele>1033.202</ele>
        <time>2021-11-07T11:41:14Z</time>
      </trkpt>
      <trkpt lat="44.86841" lon="5.56601">
        <ele>1034.165</ele>
        <time>2021-11-07T11:41:19Z</time>
      </trkpt>
      <trkpt lat="44.86832" lon="5.56599">
        <ele>1034.987</ele>
        <time>2021-11-07T11:41:24Z</time>
      </trkpt>
      <trkpt lat="44.86823" lon="5.566">
        <ele>1035.165</ele>
        <time>2021-11-07T11:41:29Z</time>
      </trkpt>
      <trkpt lat="44.86814" lon="5.566">
        <ele>1036.714</ele>
        <time>2021-11-07T11:41:34Z</time>
      </trkpt>
      <trkpt lat="44.86803" lon="5.56598">
        <ele>1037.361</ele>
        <time>2021-11-07T11:41:39Z</time>
      </trkpt>
      <trkpt lat="44.86794" lon="5.56593">
        <ele>1035.726</ele>
        <time>2021-11-07T11:41:44Z</time>
      </trkpt>
      <trkpt lat="44.86786" lon="5.56589">
        <ele>1034.795</ele>
        <time>2021-11-07T11:41:49Z</time>
      </trkpt>
      <trkpt lat="44.86776" lon="5.56583">
        <ele>1036.82</ele>
        <time>2021-11-07T11:41:54Z</time>
      </trkpt>
      <trkpt lat="44.86767" lon="5.56577">
        <ele>1038.572</ele>
        <time>2021-11-07T11:41:59Z</time>
      </trkpt>
      <trkpt lat="44.86759" lon="5.56571">
        <ele>1041.723</ele>
        <time>2021-11-07T11:42:04Z</time>
      </trkpt>
      <trkpt lat="44.86751" lon="5.56565">
        <ele>1045.031</ele>
        <time>2021-11-07T11:42:09Z</time>
      </trkpt>
      <trkpt lat="44.86742" lon="5.5656">
        <ele>1045.783</ele>
        <time>2021-11-07T11:42:14Z</time>
      </trkpt>
      <trkpt lat="44.86733" lon="5.56554">
        <ele>1045.122</ele>
        <time>2021-11-07T11:42:19Z</time>
      </trkpt>
      <trkpt lat="44.86725" lon="5.56546">
        <ele>1048.548</ele>
        <time>2021-11-07T11:42:24Z</time>
      </trkpt>
      <trkpt lat="44.86717" lon="5.56538">
        <ele>1048.899</ele>
        <time>2021-11-07T11:42:29Z</time>
      </trkpt>
      <trkpt lat="44.86709" lon="5.56528">
        <ele>1049.521</ele>
        <time>2021-11-07T11:42:34Z</time>
      </trkpt>
      <trkpt lat="44.86704" lon="5.56517">
        <ele>1050.293</ele>
        <time>2021-11-07T11:42:39Z</time>
      </trkpt>
      <trkpt lat="44.867" lon="5.56503">
        <ele>1051.044</ele>
        <time>2021-11-07T11:42:44Z</time>
      </trkpt>
      <trkpt lat="44.86695" lon="5.56489">
        <ele>1053.353</ele>
        <time>2021-11-07T11:42:49Z</time>
      </trkpt>
      <trkpt lat="44.86691" lon="5.56476">
        <ele>1052.611</ele>
        <time>2021-11-07T11:42:54Z</time>
      </trkpt>
      <trkpt lat="44.86686" lon="5.56464">
        <ele>1054.452</ele>
        <time>2021-11-07T11:42:59Z</time>
      </trkpt>
      <trkpt lat="44.86682" lon="5.56453">
        <ele>1056.854</ele>
        <time>2021-11-07T11:43:04Z</time>
      </trkpt>
      <trkpt lat="44.86677" lon="5.56443">
        <ele>1057.411</ele>
        <time>2021-11-07T11:43:09Z</time>
      </trkpt>
      <trkpt lat="44.86669" lon="5.56434">
        <ele>1057.415</ele>
        <time>2021-11-07T11:43:14Z</time>
      </trkpt>
      <trkpt lat="44.86661" lon="5.56427">
        <ele>1057.808</ele>
        <time>2021-11-07T11:43:19Z</time>
      </trkpt>
      <trkpt lat="44.86652" lon="5.5642">
        <ele>1058.719</ele>
        <time>2021-11-07T11:43:24Z</time>
      </trkpt>
      <trkpt lat="44.86643" lon="5.56412">
        <ele>1059.738</ele>
        <time>2021-11-07T11:43:29Z</time>
      </trkpt>
      <trkpt lat="44.86632" lon="5.56407">
        <ele>1059.189</ele>
        <time>2021-11-07T11:43:34Z</time>
      </trkpt>
      <trkpt lat="44.86621" lon="5.56403">
        <ele>1059.8</ele>
        <time>2021-11-07T11:43:39Z</time>
      </trkpt>
      <trkpt lat="44.86609" lon="5.56404">
        <ele>1060.137</ele>
        <time>2021-11-07T11:43:44Z</time>
      </trkpt>
      <trkpt lat="44.86599" lon="5.56409">
        <ele>1060.217</ele>
        <time>2021-11-07T11:43:49Z</time>
      </trkpt>
      <trkpt lat="44.86588" lon="5.56413">
        <ele>1058.986</ele>
        <time>2021-11-07T11:43:54Z</time>
      </trkpt>
      <trkpt lat="44.86577" lon="5.56413">
        <ele>1058.077</ele>
        <time>2021-11-07T11:43:59Z</time>
      </trkpt>
      <trkpt lat="44.86567" lon="5.56404">
        <ele>1059.823</ele>
        <time>2021-11-07T11:44:04Z</time>
      </trkpt>
      <trkpt lat="44.86558" lon="5.56393">
        <ele>1060.935</ele>
        <time>2021-11-07T11:44:09Z</time>
      </trkpt>
      <trkpt lat="44.86546" lon="5.56385">
        <ele>1061.887</ele>
        <time>2021-11-07T11:44:14Z</time>
      </trkpt>
      <trkpt lat="44.86536" lon="5.56381">
        <ele>1061.63</ele>
        <time>2021-11-07T11:44:19Z</time>
      </trkpt>
      <trkpt lat="44.86526" lon="5.56371">
        <ele>1063.697</ele>
        <time>2021-11-07T11:44:24Z</time>
      </trkpt>
      <trkpt lat="44.86519" lon="5.56357">
        <ele>1063.422</ele>
        <time>2021-11-07T11:44:29Z</time>
      </trkpt>
      <trkpt lat="44.86513" lon="5.56339">
        <ele>1065.904</ele>
        <time>2021-11-07T11:44:34Z</time>
      </trkpt>
      <trkpt lat="44.86507" lon="5.56322">
        <ele>1067.568</ele>
        <time>2021-11-07T11:44:39Z</time>
      </trkpt>
      <trkpt lat="44.86499" lon="5.56304">
        <ele>1070.216</ele>
        <time>2021-11-07T11:44:44Z</time>
      </trkpt>
      <trkpt lat="44.86492" lon="5.56285">
        <ele>1071.265</ele>
        <time>2021-11-07T11:44:49Z</time>
      </trkpt>
      <trkpt lat="44.86485" lon="5.56266">
        <ele>1072.196</ele>
        <time>2021-11-07T11:44:54Z</time>
      </trkpt>
      <trkpt lat="44.86475" lon="5.56252">
        <ele>1072.33</ele>
        <time>2021-11-07T11:44:59Z</time>
      </trkpt>
      <trkpt lat="44.86462" lon="5.56242">
        <ele>1072.202</ele>
        <time>2021-11-07T11:45:04Z</time>
      </trkpt>
      <trkpt lat="44.86448" lon="5.56234">
        <ele>1071.971</ele>
        <time>2021-11-07T11:45:09Z</time>
      </trkpt>
      <trkpt lat="44.86434" lon="5.56227">
        <ele>1071.773</ele>
        <time>2021-11-07T11:45:14Z</time>
      </trkpt>
      <trkpt lat="44.86422" lon="5.5622">
        <ele>1072.719</ele>
        <time>2021-11-07T11:45:19Z</time>
      </trkpt>
      <trkpt lat="44.8641" lon="5.56208">
        <ele>1073.388</ele>
        <time>2021-11-07T11:45:24Z</time>
      </trkpt>
      <trkpt lat="44.86403" lon="5.56191">
        <ele>1074.156</ele>
        <time>2021-11-07T11:45:29Z</time>
      </trkpt>
      <trkpt lat="44.86397" lon="5.56173">
        <ele>1074.948</ele>
        <time>2021-11-07T11:45:34Z</time>
      </trkpt>
      <trkpt lat="44.8639" lon="5.56157">
        <ele>1075.708</ele>
        <time>2021-11-07T11:45:39Z</time>
      </trkpt>
      <trkpt lat="44.86381" lon="5.56148">
        <ele>1076.346</ele>
        <time>2021-11-07T11:45:44Z</time>
      </trkpt>
      <trkpt lat="44.86369" lon="5.56143">
        <ele>1076.976</ele>
        <time>2021-11-07T11:45:49Z</time>
      </trkpt>
      <trkpt lat="44.86359" lon="5.56138">
        <ele>1077.58</ele>
        <time>2021-11-07T11:45:54Z</time>
      </trkpt>
      <trkpt lat="44.8635" lon="5.5613">
        <ele>1079.094</ele>
        <time>2021-11-07T11:45:59Z</time>
      </trkpt>
      <trkpt lat="44.86341" lon="5.5612">
        <ele>1080.372</ele>
        <time>2021-11-07T11:46:04Z</time>
      </trkpt>
      <trkpt lat="44.86332" lon="5.56111">
        <ele>1081.85</ele>
        <time>2021-11-07T11:46:09Z</time>
      </trkpt>
      <trkpt lat="44.86323" lon="5.56101">
        <ele>1082.335</ele>
        <time>2021-11-07T11:46:14Z</time>
      </trkpt>
      <trkpt lat="44.86314" lon="5.56091">
        <ele>1083.52</ele>
        <time>2021-11-07T11:46:19Z</time>
      </trkpt>
      <trkpt lat="44.86304" lon="5.56081">
        <ele>1084.108</ele>
        <time>2021-11-07T11:46:24Z</time>
      </trkpt>
      <trkpt lat="44.86295" lon="5.5607">
        <ele>1085.176</ele>
        <time>2021-11-07T11:46:29Z</time>
      </trkpt>
      <trkpt lat="44.86287" lon="5.5606">
        <ele>1085.738</ele>
        <time>2021-11-07T11:46:34Z</time>
      </trkpt>
      <trkpt lat="44.86278" lon="5.56049">
        <ele>1086.723</ele>
        <time>2021-11-07T11:46:39Z</time>
      </trkpt>
      <trkpt lat="44.86269" lon="5.56039">
        <ele>1087.223</ele>
        <time>2021-11-07T11:46:44Z</time>
      </trkpt>
      <trkpt lat="44.8626" lon="5.56029">
        <ele>1088.036</ele>
        <time>2021-11-07T11:46:49Z</time>
      </trkpt>
      <trkpt lat="44.8625" lon="5.5602">
        <ele>1089.653</ele>
        <time>2021-11-07T11:46:54Z</time>
      </trkpt>
      <trkpt lat="44.8624" lon="5.56011">
        <ele>1089.308</ele>
        <time>2021-11-07T11:46:59Z</time>
      </trkpt>
      <trkpt lat="44.86231" lon="5.56004">
        <ele>1090.92</ele>
        <time>2021-11-07T11:47:04Z</time>
      </trkpt>
      <trkpt lat="44.8622" lon="5.55996">
        <ele>1092.109</ele>
        <time>2021-11-07T11:47:09Z</time>
      </trkpt>
      <trkpt lat="44.86212" lon="5.55988">
        <ele>1092.401</ele>
        <time>2021-11-07T11:47:14Z</time>
      </trkpt>
      <trkpt lat="44.86203" lon="5.55981">
        <ele>1093.493</ele>
        <time>2021-11-07T11:47:19Z</time>
      </trkpt>
      <trkpt lat="44.86193" lon="5.55973">
        <ele>1094.601</ele>
        <time>2021-11-07T11:47:24Z</time>
      </trkpt>
      <trkpt lat="44.86183" lon="5.55965">
        <ele>1095.183</ele>
        <time>2021-11-07T11:47:29Z</time>
      </trkpt>
      <trkpt lat="44.86172" lon="5.55957">
        <ele>1096.09</ele>
        <time>2021-11-07T11:47:34Z</time>
      </trkpt>
      <trkpt lat="44.86162" lon="5.55951">
        <ele>1096.757</ele>
        <time>2021-11-07T11:47:39Z</time>
      </trkpt>
      <trkpt lat="44.86151" lon="5.55947">
        <ele>1097.642</ele>
        <time>2021-11-07T11:47:44Z</time>
      </trkpt>
      <trkpt lat="44.86142" lon="5.55947">
        <ele>1098.794</ele>
        <time>2021-11-07T11:47:49Z</time>
      </trkpt>
      <trkpt lat="44.86134" lon="5.55946">
        <ele>1099.352</ele>
        <time>2021-11-07T11:47:54Z</time>
      </trkpt>
      <trkpt lat="44.8613" lon="5.55946">
        <ele>1099.664</ele>
        <time>2021-11-07T11:47:59Z</time>
      </trkpt>
      <trkpt lat="44.86129" lon="5.55945">
        <ele>1099.543</ele>
        <time>2021-11-07T11:48:04Z</time>
      </trkpt>
      <trkpt lat="44.8613" lon="5.55944">
        <ele>1098.944</ele>
        <time>2021-11-07T11:48:09Z</time>
      </trkpt>
      <trkpt lat="44.8613" lon="5.55943">
        <ele>1098.972</ele>
        <time>2021-11-07T11:48:14Z</time>
      </trkpt>
      <trkpt lat="44.8613" lon="5.55942">
        <ele>1098.643</ele>
        <time>2021-11-07T11:48:19Z</time>
      </trkpt>
      <trkpt lat="44.8613" lon="5.55941">
        <ele>1097.359</ele>
        <time>2021-11-07T11:48:24Z</time>
      </trkpt>
      <trkpt lat="44.8613" lon="5.5594">
        <ele>1098.437</ele>
        <time>2021-11-07T11:48:29Z</time>
      </trkpt>
      <trkpt lat="44.8613" lon="5.55939">
        <ele>1099.473</ele>
        <time>2021-11-07T11:48:34Z</time>
      </trkpt>
      <trkpt lat="44.86131" lon="5.55939">
        <ele>1099.29</ele>
        <time>2021-11-07T11:48:39Z</time>
      </trkpt>
      <trkpt lat="44.86131" lon="5.55939">
        <ele>1099.274</ele>
        <time>2021-11-07T11:48:44Z</time>
      </trkpt>
      <trkpt lat="44.86131" lon="5.55939">
        <ele>1099.276</ele>
        <time>2021-11-07T11:48:49Z</time>
      </trkpt>
      <trkpt lat="44.86131" lon="5.5594">
        <ele>1099.284</ele>
        <time>2021-11-07T11:48:54Z</time>
      </trkpt>
      <trkpt lat="44.86131" lon="5.5594">
        <ele>1099.303</ele>
        <time>2021-11-07T11:48:59Z</time>
      </trkpt>
      <trkpt lat="44.86131" lon="5.5594">
        <ele>1099.287</ele>
        <time>2021-11-07T11:49:04Z</time>
      </trkpt>
      <trkpt lat="44.86131" lon="5.5594">
        <ele>1099.293</ele>
        <time>2021-11-07T11:49:09Z</time>
      </trkpt>
      <trkpt lat="44.86131" lon="5.5594">
        <ele>1099.038</ele>
        <time>2021-11-07T11:49:14Z</time>
      </trkpt>
      <trkpt lat="44.86131" lon="5.55942">
        <ele>1097.955</ele>
        <time>2021-11-07T11:49:19Z</time>
      </trkpt>
      <trkpt lat="44.86131" lon="5.55943">
        <ele>1098.17</ele>
        <time>2021-11-07T11:49:24Z</time>
      </trkpt>
      <trkpt lat="44.86131" lon="5.55943">
        <ele>1098.156</ele>
        <time>2021-11-07T11:49:29Z</time>
      </trkpt>
      <trkpt lat="44.8613" lon="5.55943">
        <ele>1097.963</ele>
        <time>2021-11-07T11:49:34Z</time>
      </trkpt>
      <trkpt lat="44.8613" lon="5.55942">
        <ele>1097.562</ele>
        <time>2021-11-07T11:49:39Z</time>
      </trkpt>
      <trkpt lat="44.8613" lon="5.55942">
        <ele>1096.766</ele>
        <time>2021-11-07T11:49:44Z</time>
      </trkpt>
      <trkpt lat="44.8613" lon="5.55942">
        <ele>1096.676</ele>
        <time>2021-11-07T11:49:49Z</time>
      </trkpt>
      <trkpt lat="44.8613" lon="5.55942">
        <ele>1096.684</ele>
        <time>2021-11-07T11:49:54Z</time>
      </trkpt>
      <trkpt lat="44.8613" lon="5.55942">
        <ele>1096.691</ele>
        <time>2021-11-07T11:49:59Z</time>
      </trkpt>
      <trkpt lat="44.8613" lon="5.55942">
        <ele>1096.69</ele>
        <time>2021-11-07T11:50:04Z</time>
      </trkpt>
      <trkpt lat="44.8613" lon="5.55942">
        <ele>1096.697</ele>
        <time>2021-11-07T11:50:09Z</time>
      </trkpt>
      <trkpt lat="44.8613" lon="5.55942">
        <ele>1096.696</ele>
        <time>2021-11-07T11:50:14Z</time>
      </trkpt>
      <trkpt lat="44.8613" lon="5.55942">
        <ele>1096.682</ele>
        <time>2021-11-07T11:50:19Z</time>
      </trkpt>
      <trkpt lat="44.8613" lon="5.55942">
        <ele>1096.668</ele>
        <time>2021-11-07T11:50:24Z</time>
      </trkpt>
      <trkpt lat="44.8613" lon="5.55942">
        <ele>1096.651</ele>
        <time>2021-11-07T11:50:29Z</time>
      </trkpt>
      <trkpt lat="44.8613" lon="5.55942">
        <ele>1096.633</ele>
        <time>2021-11-07T11:50:34Z</time>
      </trkpt>
      <trkpt lat="44.8613" lon="5.55942">
        <ele>1096.626</ele>
        <time>2021-11-07T11:50:39Z</time>
      </trkpt>
      <trkpt lat="44.8613" lon="5.55942">
        <ele>1096.627</ele>
        <time>2021-11-07T11:50:44Z</time>
      </trkpt>
      <trkpt lat="44.8613" lon="5.55942">
        <ele>1096.483</ele>
        <time>2021-11-07T11:50:49Z</time>
      </trkpt>
      <trkpt lat="44.86131" lon="5.55941">
        <ele>1096.55</ele>
        <time>2021-11-07T11:50:54Z</time>
      </trkpt>
      <trkpt lat="44.86131" lon="5.55941">
        <ele>1097.008</ele>
        <time>2021-11-07T11:50:59Z</time>
      </trkpt>
      <trkpt lat="44.86131" lon="5.5594">
        <ele>1096.969</ele>
        <time>2021-11-07T11:51:04Z</time>
      </trkpt>
      <trkpt lat="44.8613" lon="5.5594">
        <ele>1096.963</ele>
        <time>2021-11-07T11:51:09Z</time>
      </trkpt>
      <trkpt lat="44.8613" lon="5.5594">
        <ele>1096.95</ele>
        <time>2021-11-07T11:51:14Z</time>
      </trkpt>
      <trkpt lat="44.8613" lon="5.5594">
        <ele>1096.947</ele>
        <time>2021-11-07T11:51:19Z</time>
      </trkpt>
      <trkpt lat="44.8613" lon="5.5594">
        <ele>1096.967</ele>
        <time>2021-11-07T11:51:24Z</time>
      </trkpt>
      <trkpt lat="44.8613" lon="5.5594">
        <ele>1096.938</ele>
        <time>2021-11-07T11:51:29Z</time>
      </trkpt>
      <trkpt lat="44.86129" lon="5.55939">
        <ele>1097.458</ele>
        <time>2021-11-07T11:51:34Z</time>
      </trkpt>
      <trkpt lat="44.86124" lon="5.55939">
        <ele>1095.835</ele>
        <time>2021-11-07T11:51:39Z</time>
      </trkpt>
      <trkpt lat="44.86117" lon="5.55937">
        <ele>1096.1</ele>
        <time>2021-11-07T11:51:44Z</time>
      </trkpt>
      <trkpt lat="44.8611" lon="5.55934">
        <ele>1095.903</ele>
        <time>2021-11-07T11:51:49Z</time>
      </trkpt>
      <trkpt lat="44.86102" lon="5.55934">
        <ele>1095.744</ele>
        <time>2021-11-07T11:51:54Z</time>
      </trkpt>
      <trkpt lat="44.86094" lon="5.55933">
        <ele>1096.145</ele>
        <time>2021-11-07T11:51:59Z</time>
      </trkpt>
      <trkpt lat="44.86084" lon="5.55932">
        <ele>1097.72</ele>
        <time>2021-11-07T11:52:04Z</time>
      </trkpt>
      <trkpt lat="44.86074" lon="5.55931">
        <ele>1098.421</ele>
        <time>2021-11-07T11:52:09Z</time>
      </trkpt>
      <trkpt lat="44.86064" lon="5.5593">
        <ele>1099.453</ele>
        <time>2021-11-07T11:52:14Z</time>
      </trkpt>
      <trkpt lat="44.86054" lon="5.55929">
        <ele>1100.664</ele>
        <time>2021-11-07T11:52:19Z</time>
      </trkpt>
      <trkpt lat="44.86045" lon="5.55927">
        <ele>1100.808</ele>
        <time>2021-11-07T11:52:24Z</time>
      </trkpt>
      <trkpt lat="44.86036" lon="5.55924">
        <ele>1100.528</ele>
        <time>2021-11-07T11:52:29Z</time>
      </trkpt>
      <trkpt lat="44.86025" lon="5.55919">
        <ele>1101.584</ele>
        <time>2021-11-07T11:52:34Z</time>
      </trkpt>
      <trkpt lat="44.86017" lon="5.55914">
        <ele>1102.781</ele>
        <time>2021-11-07T11:52:39Z</time>
      </trkpt>
      <trkpt lat="44.86008" lon="5.55907">
        <ele>1103.106</ele>
        <time>2021-11-07T11:52:44Z</time>
      </trkpt>
      <trkpt lat="44.86" lon="5.559">
        <ele>1103.86</ele>
        <time>2021-11-07T11:52:49Z</time>
      </trkpt>
      <trkpt lat="44.85993" lon="5.55891">
        <ele>1105.44</ele>
        <time>2021-11-07T11:52:54Z</time>
      </trkpt>
      <trkpt lat="44.85985" lon="5.55883">
        <ele>1106.922</ele>
        <time>2021-11-07T11:52:59Z</time>
      </trkpt>
      <trkpt lat="44.85977" lon="5.55876">
        <ele>1107.149</ele>
        <time>2021-11-07T11:53:04Z</time>
      </trkpt>
      <trkpt lat="44.85969" lon="5.55867">
        <ele>1107.907</ele>
        <time>2021-11-07T11:53:09Z</time>
      </trkpt>
      <trkpt lat="44.85961" lon="5.5586">
        <ele>1108.752</ele>
        <time>2021-11-07T11:53:14Z</time>
      </trkpt>
      <trkpt lat="44.85952" lon="5.55863">
        <ele>1107.77</ele>
        <time>2021-11-07T11:53:19Z</time>
      </trkpt>
      <trkpt lat="44.8594" lon="5.55874">
        <ele>1107.119</ele>
        <time>2021-11-07T11:53:24Z</time>
      </trkpt>
      <trkpt lat="44.85931" lon="5.55888">
        <ele>1108.266</ele>
        <time>2021-11-07T11:53:29Z</time>
      </trkpt>
      <trkpt lat="44.85925" lon="5.55901">
        <ele>1109.284</ele>
        <time>2021-11-07T11:53:34Z</time>
      </trkpt>
      <trkpt lat="44.85927" lon="5.55916">
        <ele>1110.106</ele>
        <time>2021-11-07T11:53:39Z</time>
      </trkpt>
      <trkpt lat="44.8593" lon="5.55928">
        <ele>1111.753</ele>
        <time>2021-11-07T11:53:44Z</time>
      </trkpt>
      <trkpt lat="44.85935" lon="5.55938">
        <ele>1110.713</ele>
        <time>2021-11-07T11:53:49Z</time>
      </trkpt>
      <trkpt lat="44.85938" lon="5.55949">
        <ele>1111.474</ele>
        <time>2021-11-07T11:53:54Z</time>
      </trkpt>
      <trkpt lat="44.85945" lon="5.55959">
        <ele>1114.214</ele>
        <time>2021-11-07T11:53:59Z</time>
      </trkpt>
      <trkpt lat="44.85949" lon="5.55972">
        <ele>1115.819</ele>
        <time>2021-11-07T11:54:04Z</time>
      </trkpt>
      <trkpt lat="44.85956" lon="5.55984">
        <ele>1116.372</ele>
        <time>2021-11-07T11:54:09Z</time>
      </trkpt>
      <trkpt lat="44.85964" lon="5.55995">
        <ele>1113.436</ele>
        <time>2021-11-07T11:54:14Z</time>
      </trkpt>
      <trkpt lat="44.85972" lon="5.56008">
        <ele>1113.903</ele>
        <time>2021-11-07T11:54:19Z</time>
      </trkpt>
      <trkpt lat="44.85982" lon="5.5602">
        <ele>1114.728</ele>
        <time>2021-11-07T11:54:24Z</time>
      </trkpt>
      <trkpt lat="44.85993" lon="5.56029">
        <ele>1115.658</ele>
        <time>2021-11-07T11:54:29Z</time>
      </trkpt>
      <trkpt lat="44.86002" lon="5.56041">
        <ele>1117.089</ele>
        <time>2021-11-07T11:54:34Z</time>
      </trkpt>
      <trkpt lat="44.86015" lon="5.5605">
        <ele>1117.247</ele>
        <time>2021-11-07T11:54:39Z</time>
      </trkpt>
      <trkpt lat="44.86027" lon="5.56055">
        <ele>1117.919</ele>
        <time>2021-11-07T11:54:44Z</time>
      </trkpt>
      <trkpt lat="44.86038" lon="5.56059">
        <ele>1118.036</ele>
        <time>2021-11-07T11:54:49Z</time>
      </trkpt>
      <trkpt lat="44.86049" lon="5.56065">
        <ele>1118.06</ele>
        <time>2021-11-07T11:54:54Z</time>
      </trkpt>
      <trkpt lat="44.8606" lon="5.56074">
        <ele>1118.191</ele>
        <time>2021-11-07T11:54:59Z</time>
      </trkpt>
      <trkpt lat="44.86069" lon="5.56085">
        <ele>1119.283</ele>
        <time>2021-11-07T11:55:04Z</time>
      </trkpt>
      <trkpt lat="44.86077" lon="5.56096">
        <ele>1120.706</ele>
        <time>2021-11-07T11:55:09Z</time>
      </trkpt>
      <trkpt lat="44.86085" lon="5.56108">
        <ele>1119.78</ele>
        <time>2021-11-07T11:55:14Z</time>
      </trkpt>
      <trkpt lat="44.86093" lon="5.5612">
        <ele>1122.024</ele>
        <time>2021-11-07T11:55:19Z</time>
      </trkpt>
      <trkpt lat="44.86101" lon="5.56134">
        <ele>1121.932</ele>
        <time>2021-11-07T11:55:24Z</time>
      </trkpt>
      <trkpt lat="44.86108" lon="5.56148">
        <ele>1121.983</ele>
        <time>2021-11-07T11:55:29Z</time>
      </trkpt>
      <trkpt lat="44.86115" lon="5.56162">
        <ele>1121.732</ele>
        <time>2021-11-07T11:55:34Z</time>
      </trkpt>
      <trkpt lat="44.86121" lon="5.56176">
        <ele>1122.216</ele>
        <time>2021-11-07T11:55:39Z</time>
      </trkpt>
      <trkpt lat="44.86128" lon="5.56187">
        <ele>1124.181</ele>
        <time>2021-11-07T11:55:44Z</time>
      </trkpt>
      <trkpt lat="44.86134" lon="5.56199">
        <ele>1125.703</ele>
        <time>2021-11-07T11:55:49Z</time>
      </trkpt>
      <trkpt lat="44.86137" lon="5.56212">
        <ele>1126.079</ele>
        <time>2021-11-07T11:55:54Z</time>
      </trkpt>
      <trkpt lat="44.86136" lon="5.56224">
        <ele>1127.338</ele>
        <time>2021-11-07T11:55:59Z</time>
      </trkpt>
      <trkpt lat="44.86131" lon="5.56237">
        <ele>1127.269</ele>
        <time>2021-11-07T11:56:04Z</time>
      </trkpt>
      <trkpt lat="44.86127" lon="5.5625">
        <ele>1127.225</ele>
        <time>2021-11-07T11:56:09Z</time>
      </trkpt>
      <trkpt lat="44.86124" lon="5.56265">
        <ele>1127.409</ele>
        <time>2021-11-07T11:56:14Z</time>
      </trkpt>
      <trkpt lat="44.8613" lon="5.56279">
        <ele>1128.784</ele>
        <time>2021-11-07T11:56:19Z</time>
      </trkpt>
      <trkpt lat="44.86141" lon="5.56284">
        <ele>1129.301</ele>
        <time>2021-11-07T11:56:24Z</time>
      </trkpt>
      <trkpt lat="44.86151" lon="5.56286">
        <ele>1130.247</ele>
        <time>2021-11-07T11:56:29Z</time>
      </trkpt>
      <trkpt lat="44.8616" lon="5.56286">
        <ele>1131.55</ele>
        <time>2021-11-07T11:56:34Z</time>
      </trkpt>
      <trkpt lat="44.86168" lon="5.56285">
        <ele>1132.832</ele>
        <time>2021-11-07T11:56:39Z</time>
      </trkpt>
      <trkpt lat="44.86176" lon="5.56285">
        <ele>1134.591</ele>
        <time>2021-11-07T11:56:44Z</time>
      </trkpt>
      <trkpt lat="44.86185" lon="5.56286">
        <ele>1135.3</ele>
        <time>2021-11-07T11:56:49Z</time>
      </trkpt>
      <trkpt lat="44.86193" lon="5.56289">
        <ele>1135.234</ele>
        <time>2021-11-07T11:56:54Z</time>
      </trkpt>
      <trkpt lat="44.86201" lon="5.56296">
        <ele>1134.449</ele>
        <time>2021-11-07T11:56:59Z</time>
      </trkpt>
      <trkpt lat="44.86209" lon="5.56304">
        <ele>1134.276</ele>
        <time>2021-11-07T11:57:04Z</time>
      </trkpt>
      <trkpt lat="44.86221" lon="5.56313">
        <ele>1135.615</ele>
        <time>2021-11-07T11:57:09Z</time>
      </trkpt>
      <trkpt lat="44.8623" lon="5.56319">
        <ele>1135.58</ele>
        <time>2021-11-07T11:57:14Z</time>
      </trkpt>
      <trkpt lat="44.86241" lon="5.56326">
        <ele>1136.831</ele>
        <time>2021-11-07T11:57:19Z</time>
      </trkpt>
      <trkpt lat="44.86252" lon="5.56334">
        <ele>1138.397</ele>
        <time>2021-11-07T11:57:24Z</time>
      </trkpt>
      <trkpt lat="44.86262" lon="5.56343">
        <ele>1138.647</ele>
        <time>2021-11-07T11:57:29Z</time>
      </trkpt>
      <trkpt lat="44.86271" lon="5.56349">
        <ele>1140.176</ele>
        <time>2021-11-07T11:57:34Z</time>
      </trkpt>
      <trkpt lat="44.86279" lon="5.56355">
        <ele>1143.032</ele>
        <time>2021-11-07T11:57:39Z</time>
      </trkpt>
      <trkpt lat="44.86286" lon="5.56362">
        <ele>1143.583</ele>
        <time>2021-11-07T11:57:44Z</time>
      </trkpt>
      <trkpt lat="44.86293" lon="5.56369">
        <ele>1144.844</ele>
        <time>2021-11-07T11:57:49Z</time>
      </trkpt>
      <trkpt lat="44.863" lon="5.56377">
        <ele>1145.271</ele>
        <time>2021-11-07T11:57:54Z</time>
      </trkpt>
      <trkpt lat="44.86307" lon="5.56387">
        <ele>1145.188</ele>
        <time>2021-11-07T11:57:59Z</time>
      </trkpt>
      <trkpt lat="44.86312" lon="5.56399">
        <ele>1146.384</ele>
        <time>2021-11-07T11:58:04Z</time>
      </trkpt>
      <trkpt lat="44.86319" lon="5.56409">
        <ele>1147.056</ele>
        <time>2021-11-07T11:58:09Z</time>
      </trkpt>
      <trkpt lat="44.86326" lon="5.56421">
        <ele>1147.497</ele>
        <time>2021-11-07T11:58:14Z</time>
      </trkpt>
      <trkpt lat="44.86332" lon="5.56432">
        <ele>1148.3</ele>
        <time>2021-11-07T11:58:19Z</time>
      </trkpt>
      <trkpt lat="44.86338" lon="5.56441">
        <ele>1149.457</ele>
        <time>2021-11-07T11:58:24Z</time>
      </trkpt>
      <trkpt lat="44.86344" lon="5.56452">
        <ele>1149.672</ele>
        <time>2021-11-07T11:58:29Z</time>
      </trkpt>
      <trkpt lat="44.8635" lon="5.5646">
        <ele>1151.509</ele>
        <time>2021-11-07T11:58:34Z</time>
      </trkpt>
      <trkpt lat="44.86358" lon="5.56468">
        <ele>1153.613</ele>
        <time>2021-11-07T11:58:39Z</time>
      </trkpt>
      <trkpt lat="44.86367" lon="5.56476">
        <ele>1154.93</ele>
        <time>2021-11-07T11:58:44Z</time>
      </trkpt>
      <trkpt lat="44.86374" lon="5.56485">
        <ele>1154.89</ele>
        <time>2021-11-07T11:58:49Z</time>
      </trkpt>
      <trkpt lat="44.86381" lon="5.56494">
        <ele>1155.294</ele>
        <time>2021-11-07T11:58:54Z</time>
      </trkpt>
      <trkpt lat="44.86388" lon="5.56503">
        <ele>1155.643</ele>
        <time>2021-11-07T11:58:59Z</time>
      </trkpt>
      <trkpt lat="44.86397" lon="5.56513">
        <ele>1156.776</ele>
        <time>2021-11-07T11:59:04Z</time>
      </trkpt>
      <trkpt lat="44.86405" lon="5.56523">
        <ele>1156.7</ele>
        <time>2021-11-07T11:59:09Z</time>
      </trkpt>
      <trkpt lat="44.86411" lon="5.56532">
        <ele>1156.716</ele>
        <time>2021-11-07T11:59:14Z</time>
      </trkpt>
      <trkpt lat="44.86409" lon="5.56541">
        <ele>1158.262</ele>
        <time>2021-11-07T11:59:19Z</time>
      </trkpt>
      <trkpt lat="44.86399" lon="5.56537">
        <ele>1158.575</ele>
        <time>2021-11-07T11:59:24Z</time>
      </trkpt>
      <trkpt lat="44.86391" lon="5.56531">
        <ele>1160.281</ele>
        <time>2021-11-07T11:59:29Z</time>
      </trkpt>
      <trkpt lat="44.86384" lon="5.56525">
        <ele>1161.372</ele>
        <time>2021-11-07T11:59:34Z</time>
      </trkpt>
      <trkpt lat="44.86377" lon="5.5652">
        <ele>1161.993</ele>
        <time>2021-11-07T11:59:39Z</time>
      </trkpt>
      <trkpt lat="44.86369" lon="5.56515">
        <ele>1162.773</ele>
        <time>2021-11-07T11:59:44Z</time>
      </trkpt>
      <trkpt lat="44.86362" lon="5.56513">
        <ele>1163.967</ele>
        <time>2021-11-07T11:59:49Z</time>
      </trkpt>
      <trkpt lat="44.86354" lon="5.56509">
        <ele>1164.259</ele>
        <time>2021-11-07T11:59:54Z</time>
      </trkpt>
      <trkpt lat="44.86347" lon="5.56506">
        <ele>1164.219</ele>
        <time>2021-11-07T11:59:59Z</time>
      </trkpt>
      <trkpt lat="44.8634" lon="5.56504">
        <ele>1165.467</ele>
        <time>2021-11-07T12:00:04Z</time>
      </trkpt>
      <trkpt lat="44.8633" lon="5.56505">
        <ele>1166.561</ele>
        <time>2021-11-07T12:00:09Z</time>
      </trkpt>
      <trkpt lat="44.86323" lon="5.56505">
        <ele>1165.458</ele>
        <time>2021-11-07T12:00:14Z</time>
      </trkpt>
      <trkpt lat="44.86315" lon="5.56505">
        <ele>1165.41</ele>
        <time>2021-11-07T12:00:19Z</time>
      </trkpt>
      <trkpt lat="44.86308" lon="5.56502">
        <ele>1166.539</ele>
        <time>2021-11-07T12:00:24Z</time>
      </trkpt>
      <trkpt lat="44.86299" lon="5.56501">
        <ele>1166.855</ele>
        <time>2021-11-07T12:00:29Z</time>
      </trkpt>
      <trkpt lat="44.86291" lon="5.56499">
        <ele>1166.181</ele>
        <time>2021-11-07T12:00:34Z</time>
      </trkpt>
      <trkpt lat="44.86284" lon="5.56494">
        <ele>1167.172</ele>
        <time>2021-11-07T12:00:39Z</time>
      </trkpt>
      <trkpt lat="44.86278" lon="5.56489">
        <ele>1167.428</ele>
        <time>2021-11-07T12:00:44Z</time>
      </trkpt>
      <trkpt lat="44.8627" lon="5.56485">
        <ele>1171.06</ele>
        <time>2021-11-07T12:00:49Z</time>
      </trkpt>
      <trkpt lat="44.86261" lon="5.56481">
        <ele>1172.634</ele>
        <time>2021-11-07T12:00:54Z</time>
      </trkpt>
      <trkpt lat="44.86253" lon="5.56479">
        <ele>1172.176</ele>
        <time>2021-11-07T12:00:59Z</time>
      </trkpt>
      <trkpt lat="44.86245" lon="5.56473">
        <ele>1172.028</ele>
        <time>2021-11-07T12:01:04Z</time>
      </trkpt>
      <trkpt lat="44.86239" lon="5.56468">
        <ele>1171.347</ele>
        <time>2021-11-07T12:01:09Z</time>
      </trkpt>
      <trkpt lat="44.86232" lon="5.56462">
        <ele>1171.605</ele>
        <time>2021-11-07T12:01:14Z</time>
      </trkpt>
      <trkpt lat="44.86227" lon="5.56455">
        <ele>1172.297</ele>
        <time>2021-11-07T12:01:19Z</time>
      </trkpt>
      <trkpt lat="44.86219" lon="5.56451">
        <ele>1171.384</ele>
        <time>2021-11-07T12:01:24Z</time>
      </trkpt>
      <trkpt lat="44.86212" lon="5.56445">
        <ele>1173.607</ele>
        <time>2021-11-07T12:01:29Z</time>
      </trkpt>
      <trkpt lat="44.86204" lon="5.56441">
        <ele>1175.023</ele>
        <time>2021-11-07T12:01:34Z</time>
      </trkpt>
      <trkpt lat="44.86196" lon="5.56437">
        <ele>1177.627</ele>
        <time>2021-11-07T12:01:39Z</time>
      </trkpt>
      <trkpt lat="44.86189" lon="5.56434">
        <ele>1178.355</ele>
        <time>2021-11-07T12:01:44Z</time>
      </trkpt>
      <trkpt lat="44.86181" lon="5.5643">
        <ele>1180.061</ele>
        <time>2021-11-07T12:01:49Z</time>
      </trkpt>
      <trkpt lat="44.86173" lon="5.56428">
        <ele>1182.22</ele>
        <time>2021-11-07T12:01:54Z</time>
      </trkpt>
      <trkpt lat="44.86164" lon="5.56428">
        <ele>1183.24</ele>
        <time>2021-11-07T12:01:59Z</time>
      </trkpt>
      <trkpt lat="44.86156" lon="5.5643">
        <ele>1183.602</ele>
        <time>2021-11-07T12:02:04Z</time>
      </trkpt>
      <trkpt lat="44.86148" lon="5.56433">
        <ele>1185.707</ele>
        <time>2021-11-07T12:02:09Z</time>
      </trkpt>
      <trkpt lat="44.86139" lon="5.56436">
        <ele>1187.044</ele>
        <time>2021-11-07T12:02:14Z</time>
      </trkpt>
      <trkpt lat="44.86129" lon="5.56438">
        <ele>1188.589</ele>
        <time>2021-11-07T12:02:19Z</time>
      </trkpt>
      <trkpt lat="44.86117" lon="5.56438">
        <ele>1191.439</ele>
        <time>2021-11-07T12:02:24Z</time>
      </trkpt>
      <trkpt lat="44.86109" lon="5.56435">
        <ele>1192.525</ele>
        <time>2021-11-07T12:02:29Z</time>
      </trkpt>
      <trkpt lat="44.86101" lon="5.56432">
        <ele>1192.075</ele>
        <time>2021-11-07T12:02:34Z</time>
      </trkpt>
      <trkpt lat="44.86093" lon="5.56427">
        <ele>1195.408</ele>
        <time>2021-11-07T12:02:39Z</time>
      </trkpt>
      <trkpt lat="44.86082" lon="5.56422">
        <ele>1197.469</ele>
        <time>2021-11-07T12:02:44Z</time>
      </trkpt>
      <trkpt lat="44.86073" lon="5.56419">
        <ele>1199.455</ele>
        <time>2021-11-07T12:02:49Z</time>
      </trkpt>
      <trkpt lat="44.86065" lon="5.56418">
        <ele>1198.901</ele>
        <time>2021-11-07T12:02:54Z</time>
      </trkpt>
      <trkpt lat="44.86056" lon="5.56418">
        <ele>1199.209</ele>
        <time>2021-11-07T12:02:59Z</time>
      </trkpt>
      <trkpt lat="44.86047" lon="5.56419">
        <ele>1198.904</ele>
        <time>2021-11-07T12:03:04Z</time>
      </trkpt>
      <trkpt lat="44.86038" lon="5.5642">
        <ele>1198.998</ele>
        <time>2021-11-07T12:03:09Z</time>
      </trkpt>
      <trkpt lat="44.86029" lon="5.56421">
        <ele>1197.207</ele>
        <time>2021-11-07T12:03:14Z</time>
      </trkpt>
      <trkpt lat="44.8602" lon="5.56422">
        <ele>1199.244</ele>
        <time>2021-11-07T12:03:19Z</time>
      </trkpt>
      <trkpt lat="44.86011" lon="5.56423">
        <ele>1199.354</ele>
        <time>2021-11-07T12:03:24Z</time>
      </trkpt>
      <trkpt lat="44.86002" lon="5.56424">
        <ele>1199.822</ele>
        <time>2021-11-07T12:03:29Z</time>
      </trkpt>
      <trkpt lat="44.85993" lon="5.56427">
        <ele>1200.466</ele>
        <time>2021-11-07T12:03:34Z</time>
      </trkpt>
      <trkpt lat="44.85985" lon="5.56429">
        <ele>1201.289</ele>
        <time>2021-11-07T12:03:39Z</time>
      </trkpt>
      <trkpt lat="44.85977" lon="5.56432">
        <ele>1202.848</ele>
        <time>2021-11-07T12:03:44Z</time>
      </trkpt>
      <trkpt lat="44.8597" lon="5.56436">
        <ele>1202.828</ele>
        <time>2021-11-07T12:03:49Z</time>
      </trkpt>
      <trkpt lat="44.85962" lon="5.56442">
        <ele>1204.192</ele>
        <time>2021-11-07T12:03:54Z</time>
      </trkpt>
      <trkpt lat="44.85955" lon="5.56448">
        <ele>1203.965</ele>
        <time>2021-11-07T12:03:59Z</time>
      </trkpt>
      <trkpt lat="44.85947" lon="5.56454">
        <ele>1204.326</ele>
        <time>2021-11-07T12:04:04Z</time>
      </trkpt>
      <trkpt lat="44.8594" lon="5.56458">
        <ele>1205.367</ele>
        <time>2021-11-07T12:04:09Z</time>
      </trkpt>
      <trkpt lat="44.85933" lon="5.56463">
        <ele>1205.602</ele>
        <time>2021-11-07T12:04:14Z</time>
      </trkpt>
      <trkpt lat="44.85925" lon="5.56467">
        <ele>1206.094</ele>
        <time>2021-11-07T12:04:19Z</time>
      </trkpt>
      <trkpt lat="44.85918" lon="5.56471">
        <ele>1206.607</ele>
        <time>2021-11-07T12:04:24Z</time>
      </trkpt>
      <trkpt lat="44.8591" lon="5.56474">
        <ele>1209.564</ele>
        <time>2021-11-07T12:04:29Z</time>
      </trkpt>
      <trkpt lat="44.85903" lon="5.56474">
        <ele>1210.302</ele>
        <time>2021-11-07T12:04:34Z</time>
      </trkpt>
      <trkpt lat="44.85896" lon="5.56476">
        <ele>1209.312</ele>
        <time>2021-11-07T12:04:39Z</time>
      </trkpt>
      <trkpt lat="44.85888" lon="5.56476">
        <ele>1209.782</ele>
        <time>2021-11-07T12:04:44Z</time>
      </trkpt>
      <trkpt lat="44.85879" lon="5.56475">
        <ele>1210.728</ele>
        <time>2021-11-07T12:04:49Z</time>
      </trkpt>
      <trkpt lat="44.85871" lon="5.56473">
        <ele>1213.206</ele>
        <time>2021-11-07T12:04:54Z</time>
      </trkpt>
      <trkpt lat="44.85864" lon="5.56469">
        <ele>1215.033</ele>
        <time>2021-11-07T12:04:59Z</time>
      </trkpt>
      <trkpt lat="44.85857" lon="5.56464">
        <ele>1215.327</ele>
        <time>2021-11-07T12:05:04Z</time>
      </trkpt>
      <trkpt lat="44.85849" lon="5.5646">
        <ele>1216.224</ele>
        <time>2021-11-07T12:05:09Z</time>
      </trkpt>
      <trkpt lat="44.85842" lon="5.56456">
        <ele>1216.779</ele>
        <time>2021-11-07T12:05:14Z</time>
      </trkpt>
      <trkpt lat="44.85833" lon="5.56451">
        <ele>1217.059</ele>
        <time>2021-11-07T12:05:19Z</time>
      </trkpt>
      <trkpt lat="44.85824" lon="5.56447">
        <ele>1217.092</ele>
        <time>2021-11-07T12:05:24Z</time>
      </trkpt>
      <trkpt lat="44.85815" lon="5.56442">
        <ele>1218.243</ele>
        <time>2021-11-07T12:05:29Z</time>
      </trkpt>
      <trkpt lat="44.85804" lon="5.56437">
        <ele>1219.298</ele>
        <time>2021-11-07T12:05:34Z</time>
      </trkpt>
      <trkpt lat="44.85794" lon="5.56433">
        <ele>1218.442</ele>
        <time>2021-11-07T12:05:39Z</time>
      </trkpt>
      <trkpt lat="44.85784" lon="5.56429">
        <ele>1217.819</ele>
        <time>2021-11-07T12:05:44Z</time>
      </trkpt>
      <trkpt lat="44.85773" lon="5.56426">
        <ele>1219.076</ele>
        <time>2021-11-07T12:05:49Z</time>
      </trkpt>
      <trkpt lat="44.85763" lon="5.5643">
        <ele>1220.382</ele>
        <time>2021-11-07T12:05:54Z</time>
      </trkpt>
      <trkpt lat="44.85755" lon="5.5644">
        <ele>1220.066</ele>
        <time>2021-11-07T12:05:59Z</time>
      </trkpt>
      <trkpt lat="44.85749" lon="5.56449">
        <ele>1219.869</ele>
        <time>2021-11-07T12:06:04Z</time>
      </trkpt>
      <trkpt lat="44.85742" lon="5.56458">
        <ele>1222.127</ele>
        <time>2021-11-07T12:06:09Z</time>
      </trkpt>
      <trkpt lat="44.85737" lon="5.56467">
        <ele>1221.668</ele>
        <time>2021-11-07T12:06:14Z</time>
      </trkpt>
      <trkpt lat="44.85732" lon="5.56472">
        <ele>1221.907</ele>
        <time>2021-11-07T12:06:19Z</time>
      </trkpt>
      <trkpt lat="44.85727" lon="5.56467">
        <ele>1222.414</ele>
        <time>2021-11-07T12:06:24Z</time>
      </trkpt>
      <trkpt lat="44.85721" lon="5.5646">
        <ele>1222.205</ele>
        <time>2021-11-07T12:06:29Z</time>
      </trkpt>
      <trkpt lat="44.8572" lon="5.56458">
        <ele>1222.419</ele>
        <time>2021-11-07T12:06:34Z</time>
      </trkpt>
      <trkpt lat="44.8572" lon="5.56457">
        <ele>1221.657</ele>
        <time>2021-11-07T12:06:39Z</time>
      </trkpt>
      <trkpt lat="44.85723" lon="5.56457">
        <ele>1221.647</ele>
        <time>2021-11-07T12:06:44Z</time>
      </trkpt>
      <trkpt lat="44.85723" lon="5.56458">
        <ele>1222.777</ele>
        <time>2021-11-07T12:06:49Z</time>
      </trkpt>
      <trkpt lat="44.85722" lon="5.56457">
        <ele>1223.354</ele>
        <time>2021-11-07T12:06:54Z</time>
      </trkpt>
      <trkpt lat="44.8572" lon="5.56449">
        <ele>1224.62</ele>
        <time>2021-11-07T12:06:59Z</time>
      </trkpt>
      <trkpt lat="44.85721" lon="5.56444">
        <ele>1225.063</ele>
        <time>2021-11-07T12:07:04Z</time>
      </trkpt>
      <trkpt lat="44.8572" lon="5.56439">
        <ele>1224.582</ele>
        <time>2021-11-07T12:07:09Z</time>
      </trkpt>
      <trkpt lat="44.85718" lon="5.56433">
        <ele>1224.658</ele>
        <time>2021-11-07T12:07:14Z</time>
      </trkpt>
      <trkpt lat="44.85716" lon="5.56427">
        <ele>1224.804</ele>
        <time>2021-11-07T12:07:19Z</time>
      </trkpt>
      <trkpt lat="44.85717" lon="5.56425">
        <ele>1225.355</ele>
        <time>2021-11-07T12:07:24Z</time>
      </trkpt>
      <trkpt lat="44.85714" lon="5.56421">
        <ele>1226.74</ele>
        <time>2021-11-07T12:07:29Z</time>
      </trkpt>
      <trkpt lat="44.85714" lon="5.56421">
        <ele>1225.475</ele>
        <time>2021-11-07T12:07:34Z</time>
      </trkpt>
      <trkpt lat="44.85716" lon="5.56419">
        <ele>1223.298</ele>
        <time>2021-11-07T12:07:39Z</time>
      </trkpt>
      <trkpt lat="44.85716" lon="5.5642">
        <ele>1222.995</ele>
        <time>2021-11-07T12:07:44Z</time>
      </trkpt>
      <trkpt lat="44.85715" lon="5.56421">
        <ele>1222.995</ele>
        <time>2021-11-07T12:07:49Z</time>
      </trkpt>
      <trkpt lat="44.85715" lon="5.56421">
        <ele>1223.222</ele>
        <time>2021-11-07T12:07:54Z</time>
      </trkpt>
      <trkpt lat="44.85715" lon="5.56421">
        <ele>1223.212</ele>
        <time>2021-11-07T12:07:59Z</time>
      </trkpt>
      <trkpt lat="44.85715" lon="5.56421">
        <ele>1223.199</ele>
        <time>2021-11-07T12:08:04Z</time>
      </trkpt>
      <trkpt lat="44.85715" lon="5.56421">
        <ele>1223.193</ele>
        <time>2021-11-07T12:08:09Z</time>
      </trkpt>
      <trkpt lat="44.85715" lon="5.56421">
        <ele>1223.192</ele>
        <time>2021-11-07T12:08:14Z</time>
      </trkpt>
      <trkpt lat="44.85715" lon="5.56421">
        <ele>1223.2</ele>
        <time>2021-11-07T12:08:19Z</time>
      </trkpt>
      <trkpt lat="44.85715" lon="5.56421">
        <ele>1223.191</ele>
        <time>2021-11-07T12:08:24Z</time>
      </trkpt>
      <trkpt lat="44.85715" lon="5.56421">
        <ele>1223.184</ele>
        <time>2021-11-07T12:08:29Z</time>
      </trkpt>
      <trkpt lat="44.85715" lon="5.56421">
        <ele>1223.187</ele>
        <time>2021-11-07T12:08:34Z</time>
      </trkpt>
      <trkpt lat="44.85715" lon="5.56421">
        <ele>1223.188</ele>
        <time>2021-11-07T12:08:39Z</time>
      </trkpt>
      <trkpt lat="44.85715" lon="5.56421">
        <ele>1223.184</ele>
        <time>2021-11-07T12:08:44Z</time>
      </trkpt>
      <trkpt lat="44.85715" lon="5.56421">
        <ele>1223.187</ele>
        <time>2021-11-07T12:08:49Z</time>
      </trkpt>
      <trkpt lat="44.85715" lon="5.56421">
        <ele>1223.197</ele>
        <time>2021-11-07T12:08:54Z</time>
      </trkpt>
      <trkpt lat="44.85715" lon="5.56421">
        <ele>1223.202</ele>
        <time>2021-11-07T12:08:59Z</time>
      </trkpt>
      <trkpt lat="44.85715" lon="5.56421">
        <ele>1223.194</ele>
        <time>2021-11-07T12:09:04Z</time>
      </trkpt>
      <trkpt lat="44.85715" lon="5.56421">
        <ele>1223.185</ele>
        <time>2021-11-07T12:09:09Z</time>
      </trkpt>
      <trkpt lat="44.85715" lon="5.56421">
        <ele>1223.176</ele>
        <time>2021-11-07T12:09:14Z</time>
      </trkpt>
      <trkpt lat="44.85715" lon="5.56421">
        <ele>1223.166</ele>
        <time>2021-11-07T12:09:19Z</time>
      </trkpt>
      <trkpt lat="44.85715" lon="5.56421">
        <ele>1223.154</ele>
        <time>2021-11-07T12:09:24Z</time>
      </trkpt>
      <trkpt lat="44.85715" lon="5.56421">
        <ele>1223.157</ele>
        <time>2021-11-07T12:09:29Z</time>
      </trkpt>
      <trkpt lat="44.85715" lon="5.56421">
        <ele>1223.164</ele>
        <time>2021-11-07T12:09:34Z</time>
      </trkpt>
      <trkpt lat="44.85715" lon="5.56421">
        <ele>1223.164</ele>
        <time>2021-11-07T12:09:39Z</time>
      </trkpt>
      <trkpt lat="44.85715" lon="5.56421">
        <ele>1223.163</ele>
        <time>2021-11-07T12:09:44Z</time>
      </trkpt>
      <trkpt lat="44.85715" lon="5.56421">
        <ele>1223.169</ele>
        <time>2021-11-07T12:09:49Z</time>
      </trkpt>
      <trkpt lat="44.85715" lon="5.56421">
        <ele>1223.168</ele>
        <time>2021-11-07T12:09:54Z</time>
      </trkpt>
      <trkpt lat="44.85715" lon="5.56421">
        <ele>1223.168</ele>
        <time>2021-11-07T12:09:59Z</time>
      </trkpt>
      <trkpt lat="44.85715" lon="5.56421">
        <ele>1223.166</ele>
        <time>2021-11-07T12:10:04Z</time>
      </trkpt>
      <trkpt lat="44.85715" lon="5.56421">
        <ele>1223.157</ele>
        <time>2021-11-07T12:10:09Z</time>
      </trkpt>
      <trkpt lat="44.85715" lon="5.56421">
        <ele>1223.155</ele>
        <time>2021-11-07T12:10:14Z</time>
      </trkpt>
      <trkpt lat="44.85715" lon="5.56421">
        <ele>1223.149</ele>
        <time>2021-11-07T12:10:19Z</time>
      </trkpt>
      <trkpt lat="44.85715" lon="5.56421">
        <ele>1223.145</ele>
        <time>2021-11-07T12:10:24Z</time>
      </trkpt>
      <trkpt lat="44.85715" lon="5.56421">
        <ele>1223.144</ele>
        <time>2021-11-07T12:10:29Z</time>
      </trkpt>
      <trkpt lat="44.85715" lon="5.56421">
        <ele>1223.138</ele>
        <time>2021-11-07T12:10:34Z</time>
      </trkpt>
      <trkpt lat="44.85715" lon="5.56421">
        <ele>1223.134</ele>
        <time>2021-11-07T12:10:39Z</time>
      </trkpt>
      <trkpt lat="44.85715" lon="5.56421">
        <ele>1223.132</ele>
        <time>2021-11-07T12:10:44Z</time>
      </trkpt>
      <trkpt lat="44.85715" lon="5.56421">
        <ele>1223.135</ele>
        <time>2021-11-07T12:10:49Z</time>
      </trkpt>
      <trkpt lat="44.85715" lon="5.56421">
        <ele>1223.145</ele>
        <time>2021-11-07T12:10:54Z</time>
      </trkpt>
      <trkpt lat="44.85715" lon="5.56421">
        <ele>1223.156</ele>
        <time>2021-11-07T12:10:59Z</time>
      </trkpt>
      <trkpt lat="44.85715" lon="5.56421">
        <ele>1223.155</ele>
        <time>2021-11-07T12:11:04Z</time>
      </trkpt>
      <trkpt lat="44.85715" lon="5.56421">
        <ele>1223.16</ele>
        <time>2021-11-07T12:11:09Z</time>
      </trkpt>
      <trkpt lat="44.85715" lon="5.56421">
        <ele>1223.167</ele>
        <time>2021-11-07T12:11:14Z</time>
      </trkpt>
      <trkpt lat="44.85715" lon="5.56421">
        <ele>1223.506</ele>
        <time>2021-11-07T12:11:19Z</time>
      </trkpt>
      <trkpt lat="44.85716" lon="5.56422">
        <ele>1223.844</ele>
        <time>2021-11-07T12:11:24Z</time>
      </trkpt>
      <trkpt lat="44.85716" lon="5.56422">
        <ele>1224.3</ele>
        <time>2021-11-07T12:11:29Z</time>
      </trkpt>
      <trkpt lat="44.85716" lon="5.56422">
        <ele>1224.444</ele>
        <time>2021-11-07T12:11:34Z</time>
      </trkpt>
      <trkpt lat="44.85716" lon="5.56422">
        <ele>1224.443</ele>
        <time>2021-11-07T12:11:39Z</time>
      </trkpt>
      <trkpt lat="44.85716" lon="5.56422">
        <ele>1224.428</ele>
        <time>2021-11-07T12:11:44Z</time>
      </trkpt>
      <trkpt lat="44.85716" lon="5.56422">
        <ele>1224.423</ele>
        <time>2021-11-07T12:11:49Z</time>
      </trkpt>
      <trkpt lat="44.85716" lon="5.56422">
        <ele>1224.41</ele>
        <time>2021-11-07T12:11:54Z</time>
      </trkpt>
      <trkpt lat="44.85715" lon="5.56422">
        <ele>1224.407</ele>
        <time>2021-11-07T12:11:59Z</time>
      </trkpt>
      <trkpt lat="44.85715" lon="5.56422">
        <ele>1224.414</ele>
        <time>2021-11-07T12:12:04Z</time>
      </trkpt>
      <trkpt lat="44.85715" lon="5.56422">
        <ele>1224.405</ele>
        <time>2021-11-07T12:12:09Z</time>
      </trkpt>
      <trkpt lat="44.85715" lon="5.56422">
        <ele>1224.403</ele>
        <time>2021-11-07T12:12:14Z</time>
      </trkpt>
      <trkpt lat="44.85715" lon="5.56422">
        <ele>1224.407</ele>
        <time>2021-11-07T12:12:19Z</time>
      </trkpt>
      <trkpt lat="44.85715" lon="5.56422">
        <ele>1224.409</ele>
        <time>2021-11-07T12:12:24Z</time>
      </trkpt>
      <trkpt lat="44.85715" lon="5.56422">
        <ele>1224.411</ele>
        <time>2021-11-07T12:12:29Z</time>
      </trkpt>
      <trkpt lat="44.85715" lon="5.56422">
        <ele>1224.41</ele>
        <time>2021-11-07T12:12:34Z</time>
      </trkpt>
      <trkpt lat="44.85715" lon="5.56422">
        <ele>1224.398</ele>
        <time>2021-11-07T12:12:39Z</time>
      </trkpt>
      <trkpt lat="44.85715" lon="5.56422">
        <ele>1224.402</ele>
        <time>2021-11-07T12:12:44Z</time>
      </trkpt>
      <trkpt lat="44.85715" lon="5.56422">
        <ele>1224.393</ele>
        <time>2021-11-07T12:12:49Z</time>
      </trkpt>
      <trkpt lat="44.85715" lon="5.56422">
        <ele>1224.389</ele>
        <time>2021-11-07T12:12:54Z</time>
      </trkpt>
      <trkpt lat="44.85715" lon="5.56422">
        <ele>1224.394</ele>
        <time>2021-11-07T12:12:59Z</time>
      </trkpt>
      <trkpt lat="44.85715" lon="5.56422">
        <ele>1224.399</ele>
        <time>2021-11-07T12:13:04Z</time>
      </trkpt>
      <trkpt lat="44.85715" lon="5.56422">
        <ele>1224.396</ele>
        <time>2021-11-07T12:13:09Z</time>
      </trkpt>
      <trkpt lat="44.85715" lon="5.56422">
        <ele>1224.397</ele>
        <time>2021-11-07T12:13:14Z</time>
      </trkpt>
      <trkpt lat="44.85715" lon="5.56422">
        <ele>1224.402</ele>
        <time>2021-11-07T12:13:19Z</time>
      </trkpt>
      <trkpt lat="44.85715" lon="5.56422">
        <ele>1224.411</ele>
        <time>2021-11-07T12:13:24Z</time>
      </trkpt>
      <trkpt lat="44.85715" lon="5.56422">
        <ele>1224.412</ele>
        <time>2021-11-07T12:13:29Z</time>
      </trkpt>
      <trkpt lat="44.85715" lon="5.56422">
        <ele>1224.421</ele>
        <time>2021-11-07T12:13:34Z</time>
      </trkpt>
      <trkpt lat="44.85715" lon="5.56422">
        <ele>1224.427</ele>
        <time>2021-11-07T12:13:39Z</time>
      </trkpt>
      <trkpt lat="44.85715" lon="5.56422">
        <ele>1224.444</ele>
        <time>2021-11-07T12:13:44Z</time>
      </trkpt>
      <trkpt lat="44.85715" lon="5.56422">
        <ele>1224.453</ele>
        <time>2021-11-07T12:13:49Z</time>
      </trkpt>
      <trkpt lat="44.85715" lon="5.56422">
        <ele>1224.46</ele>
        <time>2021-11-07T12:13:54Z</time>
      </trkpt>
      <trkpt lat="44.85715" lon="5.56422">
        <ele>1224.468</ele>
        <time>2021-11-07T12:13:59Z</time>
      </trkpt>
      <trkpt lat="44.85715" lon="5.56422">
        <ele>1224.468</ele>
        <time>2021-11-07T12:14:04Z</time>
      </trkpt>
      <trkpt lat="44.85715" lon="5.56422">
        <ele>1224.467</ele>
        <time>2021-11-07T12:14:09Z</time>
      </trkpt>
      <trkpt lat="44.85715" lon="5.56422">
        <ele>1224.46</ele>
        <time>2021-11-07T12:14:14Z</time>
      </trkpt>
      <trkpt lat="44.85715" lon="5.56422">
        <ele>1224.459</ele>
        <time>2021-11-07T12:14:19Z</time>
      </trkpt>
      <trkpt lat="44.85715" lon="5.56422">
        <ele>1224.467</ele>
        <time>2021-11-07T12:14:24Z</time>
      </trkpt>
      <trkpt lat="44.85715" lon="5.56422">
        <ele>1224.459</ele>
        <time>2021-11-07T12:14:29Z</time>
      </trkpt>
      <trkpt lat="44.85715" lon="5.56422">
        <ele>1224.453</ele>
        <time>2021-11-07T12:14:34Z</time>
      </trkpt>
      <trkpt lat="44.85715" lon="5.56422">
        <ele>1224.446</ele>
        <time>2021-11-07T12:14:39Z</time>
      </trkpt>
      <trkpt lat="44.85715" lon="5.56422">
        <ele>1224.446</ele>
        <time>2021-11-07T12:14:44Z</time>
      </trkpt>
      <trkpt lat="44.85715" lon="5.56422">
        <ele>1224.457</ele>
        <time>2021-11-07T12:14:49Z</time>
      </trkpt>
      <trkpt lat="44.85715" lon="5.56422">
        <ele>1224.465</ele>
        <time>2021-11-07T12:14:54Z</time>
      </trkpt>
      <trkpt lat="44.85715" lon="5.56422">
        <ele>1224.471</ele>
        <time>2021-11-07T12:14:59Z</time>
      </trkpt>
      <trkpt lat="44.85715" lon="5.56422">
        <ele>1224.484</ele>
        <time>2021-11-07T12:15:04Z</time>
      </trkpt>
      <trkpt lat="44.85715" lon="5.56422">
        <ele>1224.494</ele>
        <time>2021-11-07T12:15:09Z</time>
      </trkpt>
      <trkpt lat="44.85715" lon="5.56422">
        <ele>1224.503</ele>
        <time>2021-11-07T12:15:14Z</time>
      </trkpt>
      <trkpt lat="44.85715" lon="5.56422">
        <ele>1224.514</ele>
        <time>2021-11-07T12:15:19Z</time>
      </trkpt>
      <trkpt lat="44.85715" lon="5.56422">
        <ele>1224.545</ele>
        <time>2021-11-07T12:15:24Z</time>
      </trkpt>
      <trkpt lat="44.85715" lon="5.56422">
        <ele>1224.57</ele>
        <time>2021-11-07T12:15:29Z</time>
      </trkpt>
      <trkpt lat="44.85715" lon="5.56422">
        <ele>1224.572</ele>
        <time>2021-11-07T12:15:34Z</time>
      </trkpt>
      <trkpt lat="44.85715" lon="5.56422">
        <ele>1224.577</ele>
        <time>2021-11-07T12:15:39Z</time>
      </trkpt>
      <trkpt lat="44.85715" lon="5.56422">
        <ele>1224.588</ele>
        <time>2021-11-07T12:15:44Z</time>
      </trkpt>
      <trkpt lat="44.85715" lon="5.56422">
        <ele>1224.587</ele>
        <time>2021-11-07T12:15:49Z</time>
      </trkpt>
      <trkpt lat="44.85715" lon="5.56422">
        <ele>1224.59</ele>
        <time>2021-11-07T12:15:54Z</time>
      </trkpt>
      <trkpt lat="44.85715" lon="5.56422">
        <ele>1224.598</ele>
        <time>2021-11-07T12:15:59Z</time>
      </trkpt>
      <trkpt lat="44.85715" lon="5.56422">
        <ele>1224.612</ele>
        <time>2021-11-07T12:16:04Z</time>
      </trkpt>
      <trkpt lat="44.85715" lon="5.56422">
        <ele>1224.632</ele>
        <time>2021-11-07T12:16:09Z</time>
      </trkpt>
      <trkpt lat="44.85715" lon="5.56422">
        <ele>1224.641</ele>
        <time>2021-11-07T12:16:14Z</time>
      </trkpt>
      <trkpt lat="44.85715" lon="5.56422">
        <ele>1224.639</ele>
        <time>2021-11-07T12:16:19Z</time>
      </trkpt>
      <trkpt lat="44.85715" lon="5.56422">
        <ele>1224.646</ele>
        <time>2021-11-07T12:16:24Z</time>
      </trkpt>
      <trkpt lat="44.85715" lon="5.56422">
        <ele>1224.65</ele>
        <time>2021-11-07T12:16:29Z</time>
      </trkpt>
      <trkpt lat="44.85715" lon="5.56422">
        <ele>1224.663</ele>
        <time>2021-11-07T12:16:34Z</time>
      </trkpt>
      <trkpt lat="44.85715" lon="5.56422">
        <ele>1224.671</ele>
        <time>2021-11-07T12:16:39Z</time>
      </trkpt>
      <trkpt lat="44.85715" lon="5.56422">
        <ele>1224.678</ele>
        <time>2021-11-07T12:16:44Z</time>
      </trkpt>
      <trkpt lat="44.85715" lon="5.56422">
        <ele>1224.69</ele>
        <time>2021-11-07T12:16:49Z</time>
      </trkpt>
      <trkpt lat="44.85715" lon="5.56422">
        <ele>1224.696</ele>
        <time>2021-11-07T12:16:54Z</time>
      </trkpt>
      <trkpt lat="44.85715" lon="5.56422">
        <ele>1224.706</ele>
        <time>2021-11-07T12:16:59Z</time>
      </trkpt>
      <trkpt lat="44.85715" lon="5.56422">
        <ele>1224.727</ele>
        <time>2021-11-07T12:17:04Z</time>
      </trkpt>
      <trkpt lat="44.85715" lon="5.56422">
        <ele>1224.739</ele>
        <time>2021-11-07T12:17:09Z</time>
      </trkpt>
      <trkpt lat="44.85715" lon="5.56422">
        <ele>1224.749</ele>
        <time>2021-11-07T12:17:14Z</time>
      </trkpt>
      <trkpt lat="44.85715" lon="5.56422">
        <ele>1224.749</ele>
        <time>2021-11-07T12:17:19Z</time>
      </trkpt>
      <trkpt lat="44.85715" lon="5.56422">
        <ele>1224.765</ele>
        <time>2021-11-07T12:17:24Z</time>
      </trkpt>
      <trkpt lat="44.85715" lon="5.56422">
        <ele>1224.776</ele>
        <time>2021-11-07T12:17:29Z</time>
      </trkpt>
      <trkpt lat="44.85715" lon="5.56422">
        <ele>1224.789</ele>
        <time>2021-11-07T12:17:34Z</time>
      </trkpt>
      <trkpt lat="44.85715" lon="5.56422">
        <ele>1224.798</ele>
        <time>2021-11-07T12:17:39Z</time>
      </trkpt>
      <trkpt lat="44.85715" lon="5.56422">
        <ele>1224.817</ele>
        <time>2021-11-07T12:17:44Z</time>
      </trkpt>
      <trkpt lat="44.85715" lon="5.56422">
        <ele>1224.832</ele>
        <time>2021-11-07T12:17:49Z</time>
      </trkpt>
      <trkpt lat="44.85715" lon="5.56422">
        <ele>1224.84</ele>
        <time>2021-11-07T12:17:54Z</time>
      </trkpt>
      <trkpt lat="44.85715" lon="5.56422">
        <ele>1224.845</ele>
        <time>2021-11-07T12:17:59Z</time>
      </trkpt>
      <trkpt lat="44.85715" lon="5.56422">
        <ele>1224.854</ele>
        <time>2021-11-07T12:18:04Z</time>
      </trkpt>
      <trkpt lat="44.85715" lon="5.56422">
        <ele>1224.857</ele>
        <time>2021-11-07T12:18:09Z</time>
      </trkpt>
      <trkpt lat="44.85715" lon="5.56422">
        <ele>1224.857</ele>
        <time>2021-11-07T12:18:14Z</time>
      </trkpt>
      <trkpt lat="44.85715" lon="5.56422">
        <ele>1224.858</ele>
        <time>2021-11-07T12:18:19Z</time>
      </trkpt>
      <trkpt lat="44.85715" lon="5.56422">
        <ele>1224.867</ele>
        <time>2021-11-07T12:18:24Z</time>
      </trkpt>
      <trkpt lat="44.85715" lon="5.56422">
        <ele>1224.88</ele>
        <time>2021-11-07T12:18:29Z</time>
      </trkpt>
      <trkpt lat="44.85715" lon="5.56422">
        <ele>1224.885</ele>
        <time>2021-11-07T12:18:34Z</time>
      </trkpt>
      <trkpt lat="44.85715" lon="5.56422">
        <ele>1224.889</ele>
        <time>2021-11-07T12:18:39Z</time>
      </trkpt>
      <trkpt lat="44.85715" lon="5.56422">
        <ele>1224.901</ele>
        <time>2021-11-07T12:18:44Z</time>
      </trkpt>
      <trkpt lat="44.85715" lon="5.56422">
        <ele>1224.913</ele>
        <time>2021-11-07T12:18:49Z</time>
      </trkpt>
      <trkpt lat="44.85715" lon="5.56422">
        <ele>1224.923</ele>
        <time>2021-11-07T12:18:54Z</time>
      </trkpt>
      <trkpt lat="44.85715" lon="5.56422">
        <ele>1224.931</ele>
        <time>2021-11-07T12:18:59Z</time>
      </trkpt>
      <trkpt lat="44.85715" lon="5.56422">
        <ele>1224.942</ele>
        <time>2021-11-07T12:19:04Z</time>
      </trkpt>
      <trkpt lat="44.85715" lon="5.56422">
        <ele>1224.955</ele>
        <time>2021-11-07T12:19:09Z</time>
      </trkpt>
      <trkpt lat="44.85715" lon="5.56422">
        <ele>1224.954</ele>
        <time>2021-11-07T12:19:14Z</time>
      </trkpt>
      <trkpt lat="44.85715" lon="5.56422">
        <ele>1224.952</ele>
        <time>2021-11-07T12:19:19Z</time>
      </trkpt>
      <trkpt lat="44.85715" lon="5.56422">
        <ele>1224.955</ele>
        <time>2021-11-07T12:19:24Z</time>
      </trkpt>
      <trkpt lat="44.85715" lon="5.56422">
        <ele>1224.964</ele>
        <time>2021-11-07T12:19:29Z</time>
      </trkpt>
      <trkpt lat="44.85715" lon="5.56422">
        <ele>1224.969</ele>
        <time>2021-11-07T12:19:34Z</time>
      </trkpt>
      <trkpt lat="44.85715" lon="5.56422">
        <ele>1224.979</ele>
        <time>2021-11-07T12:19:39Z</time>
      </trkpt>
      <trkpt lat="44.85715" lon="5.56422">
        <ele>1224.989</ele>
        <time>2021-11-07T12:19:44Z</time>
      </trkpt>
      <trkpt lat="44.85715" lon="5.56422">
        <ele>1224.996</ele>
        <time>2021-11-07T12:19:49Z</time>
      </trkpt>
      <trkpt lat="44.85715" lon="5.56422">
        <ele>1225.008</ele>
        <time>2021-11-07T12:19:54Z</time>
      </trkpt>
      <trkpt lat="44.85715" lon="5.56422">
        <ele>1225.008</ele>
        <time>2021-11-07T12:19:59Z</time>
      </trkpt>
      <trkpt lat="44.85715" lon="5.56422">
        <ele>1225.011</ele>
        <time>2021-11-07T12:20:04Z</time>
      </trkpt>
      <trkpt lat="44.85715" lon="5.56422">
        <ele>1225.02</ele>
        <time>2021-11-07T12:20:09Z</time>
      </trkpt>
      <trkpt lat="44.85715" lon="5.56422">
        <ele>1225.032</ele>
        <time>2021-11-07T12:20:14Z</time>
      </trkpt>
      <trkpt lat="44.85715" lon="5.56422">
        <ele>1225.035</ele>
        <time>2021-11-07T12:20:19Z</time>
      </trkpt>
      <trkpt lat="44.85715" lon="5.56422">
        <ele>1225.041</ele>
        <time>2021-11-07T12:20:24Z</time>
      </trkpt>
      <trkpt lat="44.85715" lon="5.56422">
        <ele>1225.053</ele>
        <time>2021-11-07T12:20:29Z</time>
      </trkpt>
      <trkpt lat="44.85715" lon="5.56422">
        <ele>1225.056</ele>
        <time>2021-11-07T12:20:34Z</time>
      </trkpt>
      <trkpt lat="44.85715" lon="5.56422">
        <ele>1225.061</ele>
        <time>2021-11-07T12:20:39Z</time>
      </trkpt>
      <trkpt lat="44.85715" lon="5.56422">
        <ele>1225.071</ele>
        <time>2021-11-07T12:20:44Z</time>
      </trkpt>
      <trkpt lat="44.85715" lon="5.56422">
        <ele>1225.083</ele>
        <time>2021-11-07T12:20:49Z</time>
      </trkpt>
      <trkpt lat="44.85715" lon="5.56422">
        <ele>1225.087</ele>
        <time>2021-11-07T12:20:54Z</time>
      </trkpt>
      <trkpt lat="44.85715" lon="5.56422">
        <ele>1225.09</ele>
        <time>2021-11-07T12:20:59Z</time>
      </trkpt>
      <trkpt lat="44.85715" lon="5.56422">
        <ele>1225.096</ele>
        <time>2021-11-07T12:21:04Z</time>
      </trkpt>
      <trkpt lat="44.85715" lon="5.56422">
        <ele>1225.102</ele>
        <time>2021-11-07T12:21:09Z</time>
      </trkpt>
      <trkpt lat="44.85715" lon="5.56422">
        <ele>1225.107</ele>
        <time>2021-11-07T12:21:14Z</time>
      </trkpt>
      <trkpt lat="44.85715" lon="5.56422">
        <ele>1225.113</ele>
        <time>2021-11-07T12:21:19Z</time>
      </trkpt>
      <trkpt lat="44.85715" lon="5.56422">
        <ele>1225.117</ele>
        <time>2021-11-07T12:21:24Z</time>
      </trkpt>
      <trkpt lat="44.85715" lon="5.56422">
        <ele>1225.12</ele>
        <time>2021-11-07T12:21:29Z</time>
      </trkpt>
      <trkpt lat="44.85715" lon="5.56422">
        <ele>1225.132</ele>
        <time>2021-11-07T12:21:34Z</time>
      </trkpt>
      <trkpt lat="44.85715" lon="5.56422">
        <ele>1225.139</ele>
        <time>2021-11-07T12:21:39Z</time>
      </trkpt>
      <trkpt lat="44.85715" lon="5.56422">
        <ele>1225.145</ele>
        <time>2021-11-07T12:21:44Z</time>
      </trkpt>
      <trkpt lat="44.85715" lon="5.56422">
        <ele>1225.157</ele>
        <time>2021-11-07T12:21:49Z</time>
      </trkpt>
      <trkpt lat="44.85715" lon="5.56422">
        <ele>1225.172</ele>
        <time>2021-11-07T12:21:54Z</time>
      </trkpt>
      <trkpt lat="44.85715" lon="5.56422">
        <ele>1225.188</ele>
        <time>2021-11-07T12:21:59Z</time>
      </trkpt>
      <trkpt lat="44.85715" lon="5.56422">
        <ele>1225.198</ele>
        <time>2021-11-07T12:22:04Z</time>
      </trkpt>
      <trkpt lat="44.85715" lon="5.56422">
        <ele>1225.221</ele>
        <time>2021-11-07T12:22:09Z</time>
      </trkpt>
      <trkpt lat="44.85715" lon="5.56422">
        <ele>1225.235</ele>
        <time>2021-11-07T12:22:14Z</time>
      </trkpt>
      <trkpt lat="44.85715" lon="5.56422">
        <ele>1225.243</ele>
        <time>2021-11-07T12:22:19Z</time>
      </trkpt>
      <trkpt lat="44.85715" lon="5.56421">
        <ele>1225.248</ele>
        <time>2021-11-07T12:22:24Z</time>
      </trkpt>
      <trkpt lat="44.85715" lon="5.56421">
        <ele>1225.257</ele>
        <time>2021-11-07T12:22:29Z</time>
      </trkpt>
      <trkpt lat="44.85715" lon="5.56421">
        <ele>1225.257</ele>
        <time>2021-11-07T12:22:34Z</time>
      </trkpt>
      <trkpt lat="44.85715" lon="5.56421">
        <ele>1225.26</ele>
        <time>2021-11-07T12:22:39Z</time>
      </trkpt>
      <trkpt lat="44.85715" lon="5.56421">
        <ele>1225.267</ele>
        <time>2021-11-07T12:22:44Z</time>
      </trkpt>
      <trkpt lat="44.85715" lon="5.56421">
        <ele>1225.272</ele>
        <time>2021-11-07T12:22:49Z</time>
      </trkpt>
      <trkpt lat="44.85715" lon="5.56421">
        <ele>1225.286</ele>
        <time>2021-11-07T12:22:54Z</time>
      </trkpt>
      <trkpt lat="44.85715" lon="5.56421">
        <ele>1225.3</ele>
        <time>2021-11-07T12:22:59Z</time>
      </trkpt>
      <trkpt lat="44.85715" lon="5.56421">
        <ele>1225.318</ele>
        <time>2021-11-07T12:23:04Z</time>
      </trkpt>
      <trkpt lat="44.85715" lon="5.56421">
        <ele>1225.321</ele>
        <time>2021-11-07T12:23:09Z</time>
      </trkpt>
      <trkpt lat="44.85715" lon="5.56421">
        <ele>1225.329</ele>
        <time>2021-11-07T12:23:14Z</time>
      </trkpt>
      <trkpt lat="44.85715" lon="5.56421">
        <ele>1225.328</ele>
        <time>2021-11-07T12:23:19Z</time>
      </trkpt>
      <trkpt lat="44.85715" lon="5.56421">
        <ele>1225.327</ele>
        <time>2021-11-07T12:23:24Z</time>
      </trkpt>
      <trkpt lat="44.85715" lon="5.56421">
        <ele>1225.328</ele>
        <time>2021-11-07T12:23:29Z</time>
      </trkpt>
      <trkpt lat="44.85715" lon="5.56421">
        <ele>1225.33</ele>
        <time>2021-11-07T12:23:34Z</time>
      </trkpt>
      <trkpt lat="44.85715" lon="5.56421">
        <ele>1225.334</ele>
        <time>2021-11-07T12:23:39Z</time>
      </trkpt>
      <trkpt lat="44.85715" lon="5.56421">
        <ele>1225.341</ele>
        <time>2021-11-07T12:23:44Z</time>
      </trkpt>
      <trkpt lat="44.85715" lon="5.56421">
        <ele>1225.341</ele>
        <time>2021-11-07T12:23:49Z</time>
      </trkpt>
      <trkpt lat="44.85715" lon="5.56421">
        <ele>1225.346</ele>
        <time>2021-11-07T12:23:54Z</time>
      </trkpt>
      <trkpt lat="44.85715" lon="5.56421">
        <ele>1225.35</ele>
        <time>2021-11-07T12:23:59Z</time>
      </trkpt>
      <trkpt lat="44.85715" lon="5.56421">
        <ele>1225.357</ele>
        <time>2021-11-07T12:24:04Z</time>
      </trkpt>
      <trkpt lat="44.85715" lon="5.56421">
        <ele>1225.355</ele>
        <time>2021-11-07T12:24:09Z</time>
      </trkpt>
      <trkpt lat="44.85715" lon="5.56421">
        <ele>1225.355</ele>
        <time>2021-11-07T12:24:14Z</time>
      </trkpt>
      <trkpt lat="44.85715" lon="5.56421">
        <ele>1225.37</ele>
        <time>2021-11-07T12:24:19Z</time>
      </trkpt>
      <trkpt lat="44.85715" lon="5.56421">
        <ele>1225.372</ele>
        <time>2021-11-07T12:24:24Z</time>
      </trkpt>
      <trkpt lat="44.85715" lon="5.56421">
        <ele>1225.375</ele>
        <time>2021-11-07T12:24:29Z</time>
      </trkpt>
      <trkpt lat="44.85715" lon="5.56421">
        <ele>1225.385</ele>
        <time>2021-11-07T12:24:34Z</time>
      </trkpt>
      <trkpt lat="44.85715" lon="5.56421">
        <ele>1225.393</ele>
        <time>2021-11-07T12:24:39Z</time>
      </trkpt>
      <trkpt lat="44.85715" lon="5.56421">
        <ele>1225.402</ele>
        <time>2021-11-07T12:24:44Z</time>
      </trkpt>
      <trkpt lat="44.85715" lon="5.56421">
        <ele>1225.406</ele>
        <time>2021-11-07T12:24:49Z</time>
      </trkpt>
      <trkpt lat="44.85715" lon="5.56421">
        <ele>1225.399</ele>
        <time>2021-11-07T12:24:54Z</time>
      </trkpt>
      <trkpt lat="44.85715" lon="5.56421">
        <ele>1225.402</ele>
        <time>2021-11-07T12:24:59Z</time>
      </trkpt>
      <trkpt lat="44.85715" lon="5.56421">
        <ele>1225.409</ele>
        <time>2021-11-07T12:25:04Z</time>
      </trkpt>
      <trkpt lat="44.85715" lon="5.56421">
        <ele>1225.409</ele>
        <time>2021-11-07T12:25:09Z</time>
      </trkpt>
      <trkpt lat="44.85715" lon="5.56421">
        <ele>1225.408</ele>
        <time>2021-11-07T12:25:14Z</time>
      </trkpt>
      <trkpt lat="44.85715" lon="5.56421">
        <ele>1225.41</ele>
        <time>2021-11-07T12:25:19Z</time>
      </trkpt>
      <trkpt lat="44.85715" lon="5.56421">
        <ele>1225.41</ele>
        <time>2021-11-07T12:25:24Z</time>
      </trkpt>
      <trkpt lat="44.85715" lon="5.56421">
        <ele>1225.408</ele>
        <time>2021-11-07T12:25:29Z</time>
      </trkpt>
      <trkpt lat="44.85715" lon="5.56421">
        <ele>1225.412</ele>
        <time>2021-11-07T12:25:34Z</time>
      </trkpt>
      <trkpt lat="44.85715" lon="5.56421">
        <ele>1225.416</ele>
        <time>2021-11-07T12:25:39Z</time>
      </trkpt>
      <trkpt lat="44.85715" lon="5.56421">
        <ele>1225.423</ele>
        <time>2021-11-07T12:25:44Z</time>
      </trkpt>
      <trkpt lat="44.85715" lon="5.56421">
        <ele>1225.425</ele>
        <time>2021-11-07T12:25:49Z</time>
      </trkpt>
      <trkpt lat="44.85715" lon="5.56421">
        <ele>1225.433</ele>
        <time>2021-11-07T12:25:54Z</time>
      </trkpt>
      <trkpt lat="44.85715" lon="5.56421">
        <ele>1225.446</ele>
        <time>2021-11-07T12:25:59Z</time>
      </trkpt>
      <trkpt lat="44.85715" lon="5.56421">
        <ele>1225.453</ele>
        <time>2021-11-07T12:26:04Z</time>
      </trkpt>
      <trkpt lat="44.85716" lon="5.56421">
        <ele>1225.453</ele>
        <time>2021-11-07T12:26:09Z</time>
      </trkpt>
      <trkpt lat="44.85716" lon="5.56421">
        <ele>1225.456</ele>
        <time>2021-11-07T12:26:14Z</time>
      </trkpt>
      <trkpt lat="44.85716" lon="5.56421">
        <ele>1225.46</ele>
        <time>2021-11-07T12:26:19Z</time>
      </trkpt>
      <trkpt lat="44.85716" lon="5.56421">
        <ele>1225.464</ele>
        <time>2021-11-07T12:26:24Z</time>
      </trkpt>
      <trkpt lat="44.85716" lon="5.56421">
        <ele>1225.46</ele>
        <time>2021-11-07T12:26:29Z</time>
      </trkpt>
      <trkpt lat="44.85716" lon="5.56421">
        <ele>1225.453</ele>
        <time>2021-11-07T12:26:34Z</time>
      </trkpt>
      <trkpt lat="44.85716" lon="5.56421">
        <ele>1225.454</ele>
        <time>2021-11-07T12:26:39Z</time>
      </trkpt>
      <trkpt lat="44.85716" lon="5.56421">
        <ele>1225.46</ele>
        <time>2021-11-07T12:26:44Z</time>
      </trkpt>
      <trkpt lat="44.85716" lon="5.56421">
        <ele>1225.46</ele>
        <time>2021-11-07T12:26:49Z</time>
      </trkpt>
      <trkpt lat="44.85716" lon="5.56421">
        <ele>1225.452</ele>
        <time>2021-11-07T12:26:54Z</time>
      </trkpt>
      <trkpt lat="44.85716" lon="5.56421">
        <ele>1225.455</ele>
        <time>2021-11-07T12:26:59Z</time>
      </trkpt>
      <trkpt lat="44.85716" lon="5.56421">
        <ele>1225.458</ele>
        <time>2021-11-07T12:27:04Z</time>
      </trkpt>
      <trkpt lat="44.85716" lon="5.56421">
        <ele>1225.459</ele>
        <time>2021-11-07T12:27:09Z</time>
      </trkpt>
      <trkpt lat="44.85716" lon="5.56421">
        <ele>1225.453</ele>
        <time>2021-11-07T12:27:14Z</time>
      </trkpt>
      <trkpt lat="44.85716" lon="5.56421">
        <ele>1225.453</ele>
        <time>2021-11-07T12:27:19Z</time>
      </trkpt>
      <trkpt lat="44.85716" lon="5.56421">
        <ele>1225.459</ele>
        <time>2021-11-07T12:27:24Z</time>
      </trkpt>
      <trkpt lat="44.85716" lon="5.56421">
        <ele>1225.471</ele>
        <time>2021-11-07T12:27:29Z</time>
      </trkpt>
      <trkpt lat="44.85716" lon="5.56421">
        <ele>1225.483</ele>
        <time>2021-11-07T12:27:34Z</time>
      </trkpt>
      <trkpt lat="44.85716" lon="5.56421">
        <ele>1225.492</ele>
        <time>2021-11-07T12:27:39Z</time>
      </trkpt>
      <trkpt lat="44.85716" lon="5.56421">
        <ele>1225.492</ele>
        <time>2021-11-07T12:27:44Z</time>
      </trkpt>
      <trkpt lat="44.85716" lon="5.56421">
        <ele>1225.49</ele>
        <time>2021-11-07T12:27:49Z</time>
      </trkpt>
      <trkpt lat="44.85716" lon="5.56421">
        <ele>1225.483</ele>
        <time>2021-11-07T12:27:54Z</time>
      </trkpt>
      <trkpt lat="44.85716" lon="5.56421">
        <ele>1225.481</ele>
        <time>2021-11-07T12:27:59Z</time>
      </trkpt>
      <trkpt lat="44.85716" lon="5.56421">
        <ele>1225.485</ele>
        <time>2021-11-07T12:28:04Z</time>
      </trkpt>
      <trkpt lat="44.85716" lon="5.56421">
        <ele>1225.484</ele>
        <time>2021-11-07T12:28:09Z</time>
      </trkpt>
      <trkpt lat="44.85716" lon="5.56421">
        <ele>1225.473</ele>
        <time>2021-11-07T12:28:14Z</time>
      </trkpt>
      <trkpt lat="44.85716" lon="5.56421">
        <ele>1225.483</ele>
        <time>2021-11-07T12:28:19Z</time>
      </trkpt>
      <trkpt lat="44.85716" lon="5.56421">
        <ele>1225.485</ele>
        <time>2021-11-07T12:28:24Z</time>
      </trkpt>
      <trkpt lat="44.85716" lon="5.56421">
        <ele>1225.483</ele>
        <time>2021-11-07T12:28:29Z</time>
      </trkpt>
      <trkpt lat="44.85716" lon="5.56421">
        <ele>1225.48</ele>
        <time>2021-11-07T12:28:34Z</time>
      </trkpt>
      <trkpt lat="44.85716" lon="5.56421">
        <ele>1225.474</ele>
        <time>2021-11-07T12:28:39Z</time>
      </trkpt>
      <trkpt lat="44.85716" lon="5.56421">
        <ele>1225.47</ele>
        <time>2021-11-07T12:28:44Z</time>
      </trkpt>
      <trkpt lat="44.85716" lon="5.56421">
        <ele>1225.462</ele>
        <time>2021-11-07T12:28:49Z</time>
      </trkpt>
      <trkpt lat="44.85716" lon="5.56421">
        <ele>1225.453</ele>
        <time>2021-11-07T12:28:54Z</time>
      </trkpt>
      <trkpt lat="44.85716" lon="5.56421">
        <ele>1225.452</ele>
        <time>2021-11-07T12:28:59Z</time>
      </trkpt>
      <trkpt lat="44.85716" lon="5.56421">
        <ele>1225.45</ele>
        <time>2021-11-07T12:29:04Z</time>
      </trkpt>
      <trkpt lat="44.85716" lon="5.56421">
        <ele>1225.452</ele>
        <time>2021-11-07T12:29:09Z</time>
      </trkpt>
      <trkpt lat="44.85716" lon="5.56421">
        <ele>1225.45</ele>
        <time>2021-11-07T12:29:14Z</time>
      </trkpt>
      <trkpt lat="44.85716" lon="5.56421">
        <ele>1225.444</ele>
        <time>2021-11-07T12:29:19Z</time>
      </trkpt>
      <trkpt lat="44.85716" lon="5.56421">
        <ele>1225.444</ele>
        <time>2021-11-07T12:29:24Z</time>
      </trkpt>
      <trkpt lat="44.85716" lon="5.56421">
        <ele>1225.44</ele>
        <time>2021-11-07T12:29:29Z</time>
      </trkpt>
      <trkpt lat="44.85716" lon="5.56421">
        <ele>1225.435</ele>
        <time>2021-11-07T12:29:34Z</time>
      </trkpt>
      <trkpt lat="44.85716" lon="5.56421">
        <ele>1225.433</ele>
        <time>2021-11-07T12:29:39Z</time>
      </trkpt>
      <trkpt lat="44.85716" lon="5.56421">
        <ele>1225.431</ele>
        <time>2021-11-07T12:29:44Z</time>
      </trkpt>
      <trkpt lat="44.85716" lon="5.56421">
        <ele>1225.426</ele>
        <time>2021-11-07T12:29:49Z</time>
      </trkpt>
      <trkpt lat="44.85716" lon="5.56421">
        <ele>1225.422</ele>
        <time>2021-11-07T12:29:54Z</time>
      </trkpt>
      <trkpt lat="44.85716" lon="5.56421">
        <ele>1225.409</ele>
        <time>2021-11-07T12:29:59Z</time>
      </trkpt>
      <trkpt lat="44.85716" lon="5.56421">
        <ele>1225.4</ele>
        <time>2021-11-07T12:30:04Z</time>
      </trkpt>
      <trkpt lat="44.85716" lon="5.56421">
        <ele>1225.396</ele>
        <time>2021-11-07T12:30:09Z</time>
      </trkpt>
      <trkpt lat="44.85716" lon="5.56421">
        <ele>1225.391</ele>
        <time>2021-11-07T12:30:14Z</time>
      </trkpt>
      <trkpt lat="44.85716" lon="5.56421">
        <ele>1225.386</ele>
        <time>2021-11-07T12:30:19Z</time>
      </trkpt>
      <trkpt lat="44.85716" lon="5.56421">
        <ele>1225.383</ele>
        <time>2021-11-07T12:30:24Z</time>
      </trkpt>
      <trkpt lat="44.85716" lon="5.56421">
        <ele>1225.383</ele>
        <time>2021-11-07T12:30:29Z</time>
      </trkpt>
      <trkpt lat="44.85716" lon="5.56421">
        <ele>1225.383</ele>
        <time>2021-11-07T12:30:34Z</time>
      </trkpt>
      <trkpt lat="44.85716" lon="5.56421">
        <ele>1225.381</ele>
        <time>2021-11-07T12:30:39Z</time>
      </trkpt>
      <trkpt lat="44.85716" lon="5.56421">
        <ele>1225.382</ele>
        <time>2021-11-07T12:30:44Z</time>
      </trkpt>
      <trkpt lat="44.85716" lon="5.56421">
        <ele>1225.38</ele>
        <time>2021-11-07T12:30:49Z</time>
      </trkpt>
      <trkpt lat="44.85716" lon="5.56421">
        <ele>1225.383</ele>
        <time>2021-11-07T12:30:54Z</time>
      </trkpt>
      <trkpt lat="44.85716" lon="5.56421">
        <ele>1225.384</ele>
        <time>2021-11-07T12:30:59Z</time>
      </trkpt>
      <trkpt lat="44.85716" lon="5.56421">
        <ele>1225.381</ele>
        <time>2021-11-07T12:31:04Z</time>
      </trkpt>
      <trkpt lat="44.85716" lon="5.56421">
        <ele>1225.375</ele>
        <time>2021-11-07T12:31:09Z</time>
      </trkpt>
      <trkpt lat="44.85716" lon="5.56421">
        <ele>1225.368</ele>
        <time>2021-11-07T12:31:14Z</time>
      </trkpt>
      <trkpt lat="44.85716" lon="5.56421">
        <ele>1225.357</ele>
        <time>2021-11-07T12:31:19Z</time>
      </trkpt>
      <trkpt lat="44.85716" lon="5.56421">
        <ele>1225.345</ele>
        <time>2021-11-07T12:31:24Z</time>
      </trkpt>
      <trkpt lat="44.85716" lon="5.56421">
        <ele>1225.339</ele>
        <time>2021-11-07T12:31:29Z</time>
      </trkpt>
      <trkpt lat="44.85716" lon="5.56421">
        <ele>1225.332</ele>
        <time>2021-11-07T12:31:34Z</time>
      </trkpt>
      <trkpt lat="44.85716" lon="5.56421">
        <ele>1225.328</ele>
        <time>2021-11-07T12:31:39Z</time>
      </trkpt>
      <trkpt lat="44.85716" lon="5.56421">
        <ele>1225.328</ele>
        <time>2021-11-07T12:31:44Z</time>
      </trkpt>
      <trkpt lat="44.85716" lon="5.56421">
        <ele>1225.319</ele>
        <time>2021-11-07T12:31:49Z</time>
      </trkpt>
      <trkpt lat="44.85716" lon="5.56421">
        <ele>1225.318</ele>
        <time>2021-11-07T12:31:54Z</time>
      </trkpt>
      <trkpt lat="44.85716" lon="5.56421">
        <ele>1225.311</ele>
        <time>2021-11-07T12:31:59Z</time>
      </trkpt>
      <trkpt lat="44.85716" lon="5.56421">
        <ele>1225.3</ele>
        <time>2021-11-07T12:32:04Z</time>
      </trkpt>
      <trkpt lat="44.85716" lon="5.56421">
        <ele>1225.297</ele>
        <time>2021-11-07T12:32:09Z</time>
      </trkpt>
      <trkpt lat="44.85716" lon="5.56421">
        <ele>1225.293</ele>
        <time>2021-11-07T12:32:14Z</time>
      </trkpt>
      <trkpt lat="44.85716" lon="5.56421">
        <ele>1225.286</ele>
        <time>2021-11-07T12:32:19Z</time>
      </trkpt>
      <trkpt lat="44.85716" lon="5.56421">
        <ele>1225.277</ele>
        <time>2021-11-07T12:32:24Z</time>
      </trkpt>
      <trkpt lat="44.85716" lon="5.56421">
        <ele>1225.267</ele>
        <time>2021-11-07T12:32:29Z</time>
      </trkpt>
      <trkpt lat="44.85716" lon="5.56421">
        <ele>1225.26</ele>
        <time>2021-11-07T12:32:34Z</time>
      </trkpt>
      <trkpt lat="44.85716" lon="5.56421">
        <ele>1225.248</ele>
        <time>2021-11-07T12:32:39Z</time>
      </trkpt>
      <trkpt lat="44.85716" lon="5.56421">
        <ele>1225.236</ele>
        <time>2021-11-07T12:32:44Z</time>
      </trkpt>
      <trkpt lat="44.85716" lon="5.56421">
        <ele>1225.233</ele>
        <time>2021-11-07T12:32:49Z</time>
      </trkpt>
      <trkpt lat="44.85715" lon="5.56421">
        <ele>1225.225</ele>
        <time>2021-11-07T12:32:54Z</time>
      </trkpt>
      <trkpt lat="44.85715" lon="5.56421">
        <ele>1225.216</ele>
        <time>2021-11-07T12:32:59Z</time>
      </trkpt>
      <trkpt lat="44.85715" lon="5.56421">
        <ele>1225.207</ele>
        <time>2021-11-07T12:33:04Z</time>
      </trkpt>
      <trkpt lat="44.85715" lon="5.56421">
        <ele>1225.196</ele>
        <time>2021-11-07T12:33:09Z</time>
      </trkpt>
      <trkpt lat="44.85715" lon="5.56421">
        <ele>1225.191</ele>
        <time>2021-11-07T12:33:14Z</time>
      </trkpt>
      <trkpt lat="44.85715" lon="5.56421">
        <ele>1225.182</ele>
        <time>2021-11-07T12:33:19Z</time>
      </trkpt>
      <trkpt lat="44.85715" lon="5.56421">
        <ele>1225.163</ele>
        <time>2021-11-07T12:33:24Z</time>
      </trkpt>
      <trkpt lat="44.85715" lon="5.56421">
        <ele>1225.148</ele>
        <time>2021-11-07T12:33:29Z</time>
      </trkpt>
      <trkpt lat="44.85715" lon="5.56421">
        <ele>1225.131</ele>
        <time>2021-11-07T12:33:34Z</time>
      </trkpt>
      <trkpt lat="44.85715" lon="5.56421">
        <ele>1225.117</ele>
        <time>2021-11-07T12:33:39Z</time>
      </trkpt>
      <trkpt lat="44.85715" lon="5.56421">
        <ele>1225.112</ele>
        <time>2021-11-07T12:33:44Z</time>
      </trkpt>
      <trkpt lat="44.85715" lon="5.56421">
        <ele>1225.092</ele>
        <time>2021-11-07T12:33:49Z</time>
      </trkpt>
      <trkpt lat="44.85715" lon="5.56421">
        <ele>1225.082</ele>
        <time>2021-11-07T12:33:54Z</time>
      </trkpt>
      <trkpt lat="44.85715" lon="5.56421">
        <ele>1225.068</ele>
        <time>2021-11-07T12:33:59Z</time>
      </trkpt>
      <trkpt lat="44.85715" lon="5.56421">
        <ele>1225.06</ele>
        <time>2021-11-07T12:34:04Z</time>
      </trkpt>
      <trkpt lat="44.85715" lon="5.56421">
        <ele>1225.054</ele>
        <time>2021-11-07T12:34:09Z</time>
      </trkpt>
      <trkpt lat="44.85715" lon="5.56421">
        <ele>1225.04</ele>
        <time>2021-11-07T12:34:14Z</time>
      </trkpt>
      <trkpt lat="44.85715" lon="5.56421">
        <ele>1225.028</ele>
        <time>2021-11-07T12:34:19Z</time>
      </trkpt>
      <trkpt lat="44.85715" lon="5.56421">
        <ele>1225.013</ele>
        <time>2021-11-07T12:34:24Z</time>
      </trkpt>
      <trkpt lat="44.85715" lon="5.56421">
        <ele>1225.007</ele>
        <time>2021-11-07T12:34:29Z</time>
      </trkpt>
      <trkpt lat="44.85715" lon="5.56421">
        <ele>1225.004</ele>
        <time>2021-11-07T12:34:34Z</time>
      </trkpt>
      <trkpt lat="44.85715" lon="5.56421">
        <ele>1224.997</ele>
        <time>2021-11-07T12:34:39Z</time>
      </trkpt>
      <trkpt lat="44.85715" lon="5.56421">
        <ele>1224.988</ele>
        <time>2021-11-07T12:34:44Z</time>
      </trkpt>
      <trkpt lat="44.85715" lon="5.56421">
        <ele>1224.969</ele>
        <time>2021-11-07T12:34:49Z</time>
      </trkpt>
      <trkpt lat="44.85715" lon="5.56421">
        <ele>1224.952</ele>
        <time>2021-11-07T12:34:54Z</time>
      </trkpt>
      <trkpt lat="44.85715" lon="5.56421">
        <ele>1224.938</ele>
        <time>2021-11-07T12:34:59Z</time>
      </trkpt>
      <trkpt lat="44.85715" lon="5.56421">
        <ele>1224.936</ele>
        <time>2021-11-07T12:35:04Z</time>
      </trkpt>
      <trkpt lat="44.85715" lon="5.56421">
        <ele>1224.933</ele>
        <time>2021-11-07T12:35:09Z</time>
      </trkpt>
      <trkpt lat="44.85715" lon="5.56421">
        <ele>1224.934</ele>
        <time>2021-11-07T12:35:14Z</time>
      </trkpt>
      <trkpt lat="44.85715" lon="5.56421">
        <ele>1224.933</ele>
        <time>2021-11-07T12:35:19Z</time>
      </trkpt>
      <trkpt lat="44.85715" lon="5.56421">
        <ele>1224.934</ele>
        <time>2021-11-07T12:35:24Z</time>
      </trkpt>
      <trkpt lat="44.85715" lon="5.56421">
        <ele>1224.934</ele>
        <time>2021-11-07T12:35:29Z</time>
      </trkpt>
      <trkpt lat="44.85715" lon="5.56421">
        <ele>1224.93</ele>
        <time>2021-11-07T12:35:34Z</time>
      </trkpt>
      <trkpt lat="44.85715" lon="5.56421">
        <ele>1224.926</ele>
        <time>2021-11-07T12:35:39Z</time>
      </trkpt>
      <trkpt lat="44.85715" lon="5.56421">
        <ele>1224.926</ele>
        <time>2021-11-07T12:35:44Z</time>
      </trkpt>
      <trkpt lat="44.85715" lon="5.56421">
        <ele>1224.926</ele>
        <time>2021-11-07T12:35:49Z</time>
      </trkpt>
      <trkpt lat="44.85715" lon="5.56421">
        <ele>1224.923</ele>
        <time>2021-11-07T12:35:54Z</time>
      </trkpt>
      <trkpt lat="44.85715" lon="5.56421">
        <ele>1224.923</ele>
        <time>2021-11-07T12:35:59Z</time>
      </trkpt>
      <trkpt lat="44.85715" lon="5.56421">
        <ele>1224.915</ele>
        <time>2021-11-07T12:36:04Z</time>
      </trkpt>
      <trkpt lat="44.85715" lon="5.56421">
        <ele>1224.904</ele>
        <time>2021-11-07T12:36:09Z</time>
      </trkpt>
      <trkpt lat="44.85715" lon="5.56421">
        <ele>1224.902</ele>
        <time>2021-11-07T12:36:14Z</time>
      </trkpt>
      <trkpt lat="44.85715" lon="5.56421">
        <ele>1224.899</ele>
        <time>2021-11-07T12:36:19Z</time>
      </trkpt>
      <trkpt lat="44.85715" lon="5.56421">
        <ele>1224.898</ele>
        <time>2021-11-07T12:36:24Z</time>
      </trkpt>
      <trkpt lat="44.85715" lon="5.56421">
        <ele>1224.899</ele>
        <time>2021-11-07T12:36:29Z</time>
      </trkpt>
      <trkpt lat="44.85715" lon="5.56421">
        <ele>1224.9</ele>
        <time>2021-11-07T12:36:34Z</time>
      </trkpt>
      <trkpt lat="44.85715" lon="5.56421">
        <ele>1224.898</ele>
        <time>2021-11-07T12:36:39Z</time>
      </trkpt>
      <trkpt lat="44.85715" lon="5.56421">
        <ele>1224.893</ele>
        <time>2021-11-07T12:36:44Z</time>
      </trkpt>
      <trkpt lat="44.85715" lon="5.56421">
        <ele>1224.893</ele>
        <time>2021-11-07T12:36:49Z</time>
      </trkpt>
      <trkpt lat="44.85716" lon="5.56421">
        <ele>1224.468</ele>
        <time>2021-11-07T12:36:54Z</time>
      </trkpt>
      <trkpt lat="44.85716" lon="5.56421">
        <ele>1224.18</ele>
        <time>2021-11-07T12:36:59Z</time>
      </trkpt>
      <trkpt lat="44.85716" lon="5.56421">
        <ele>1222.447</ele>
        <time>2021-11-07T12:37:04Z</time>
      </trkpt>
      <trkpt lat="44.85716" lon="5.56421">
        <ele>1222.15</ele>
        <time>2021-11-07T12:37:09Z</time>
      </trkpt>
      <trkpt lat="44.85716" lon="5.56421">
        <ele>1222.158</ele>
        <time>2021-11-07T12:37:14Z</time>
      </trkpt>
      <trkpt lat="44.85716" lon="5.56421">
        <ele>1222.162</ele>
        <time>2021-11-07T12:37:19Z</time>
      </trkpt>
      <trkpt lat="44.85716" lon="5.56421">
        <ele>1222.169</ele>
        <time>2021-11-07T12:37:24Z</time>
      </trkpt>
      <trkpt lat="44.85716" lon="5.56421">
        <ele>1222.169</ele>
        <time>2021-11-07T12:37:29Z</time>
      </trkpt>
      <trkpt lat="44.85716" lon="5.56421">
        <ele>1222.169</ele>
        <time>2021-11-07T12:37:34Z</time>
      </trkpt>
      <trkpt lat="44.85716" lon="5.56421">
        <ele>1222.187</ele>
        <time>2021-11-07T12:37:39Z</time>
      </trkpt>
      <trkpt lat="44.85715" lon="5.56421">
        <ele>1222.188</ele>
        <time>2021-11-07T12:37:44Z</time>
      </trkpt>
      <trkpt lat="44.85715" lon="5.56421">
        <ele>1222.182</ele>
        <time>2021-11-07T12:37:49Z</time>
      </trkpt>
      <trkpt lat="44.85715" lon="5.56421">
        <ele>1222.18</ele>
        <time>2021-11-07T12:37:54Z</time>
      </trkpt>
      <trkpt lat="44.85715" lon="5.56421">
        <ele>1222.174</ele>
        <time>2021-11-07T12:37:59Z</time>
      </trkpt>
      <trkpt lat="44.85715" lon="5.56421">
        <ele>1222.169</ele>
        <time>2021-11-07T12:38:04Z</time>
      </trkpt>
      <trkpt lat="44.85715" lon="5.56421">
        <ele>1222.184</ele>
        <time>2021-11-07T12:38:09Z</time>
      </trkpt>
      <trkpt lat="44.85715" lon="5.56421">
        <ele>1222.188</ele>
        <time>2021-11-07T12:38:14Z</time>
      </trkpt>
      <trkpt lat="44.85715" lon="5.56421">
        <ele>1222.186</ele>
        <time>2021-11-07T12:38:19Z</time>
      </trkpt>
      <trkpt lat="44.85715" lon="5.56421">
        <ele>1222.189</ele>
        <time>2021-11-07T12:38:24Z</time>
      </trkpt>
      <trkpt lat="44.85715" lon="5.56421">
        <ele>1222.195</ele>
        <time>2021-11-07T12:38:29Z</time>
      </trkpt>
      <trkpt lat="44.85715" lon="5.56421">
        <ele>1222.191</ele>
        <time>2021-11-07T12:38:34Z</time>
      </trkpt>
      <trkpt lat="44.85715" lon="5.56421">
        <ele>1222.195</ele>
        <time>2021-11-07T12:38:39Z</time>
      </trkpt>
      <trkpt lat="44.85715" lon="5.56421">
        <ele>1222.196</ele>
        <time>2021-11-07T12:38:44Z</time>
      </trkpt>
      <trkpt lat="44.85715" lon="5.56421">
        <ele>1222.195</ele>
        <time>2021-11-07T12:38:49Z</time>
      </trkpt>
      <trkpt lat="44.85715" lon="5.56421">
        <ele>1222.196</ele>
        <time>2021-11-07T12:38:54Z</time>
      </trkpt>
      <trkpt lat="44.85715" lon="5.56421">
        <ele>1222.182</ele>
        <time>2021-11-07T12:38:59Z</time>
      </trkpt>
      <trkpt lat="44.85715" lon="5.56421">
        <ele>1222.177</ele>
        <time>2021-11-07T12:39:04Z</time>
      </trkpt>
      <trkpt lat="44.85715" lon="5.56421">
        <ele>1222.168</ele>
        <time>2021-11-07T12:39:09Z</time>
      </trkpt>
      <trkpt lat="44.85715" lon="5.56421">
        <ele>1222.151</ele>
        <time>2021-11-07T12:39:14Z</time>
      </trkpt>
      <trkpt lat="44.85715" lon="5.56421">
        <ele>1222.141</ele>
        <time>2021-11-07T12:39:19Z</time>
      </trkpt>
      <trkpt lat="44.85715" lon="5.56421">
        <ele>1222.152</ele>
        <time>2021-11-07T12:39:24Z</time>
      </trkpt>
      <trkpt lat="44.85715" lon="5.56421">
        <ele>1222.16</ele>
        <time>2021-11-07T12:39:29Z</time>
      </trkpt>
      <trkpt lat="44.85715" lon="5.56421">
        <ele>1222.17</ele>
        <time>2021-11-07T12:39:34Z</time>
      </trkpt>
      <trkpt lat="44.85715" lon="5.56421">
        <ele>1222.17</ele>
        <time>2021-11-07T12:39:39Z</time>
      </trkpt>
      <trkpt lat="44.85715" lon="5.56421">
        <ele>1222.17</ele>
        <time>2021-11-07T12:39:44Z</time>
      </trkpt>
      <trkpt lat="44.85715" lon="5.56421">
        <ele>1222.18</ele>
        <time>2021-11-07T12:39:49Z</time>
      </trkpt>
      <trkpt lat="44.85715" lon="5.56421">
        <ele>1222.19</ele>
        <time>2021-11-07T12:39:54Z</time>
      </trkpt>
      <trkpt lat="44.85715" lon="5.56421">
        <ele>1222.21</ele>
        <time>2021-11-07T12:39:59Z</time>
      </trkpt>
      <trkpt lat="44.85716" lon="5.56421">
        <ele>1223.248</ele>
        <time>2021-11-07T12:40:04Z</time>
      </trkpt>
      <trkpt lat="44.85715" lon="5.56421">
        <ele>1224.063</ele>
        <time>2021-11-07T12:40:09Z</time>
      </trkpt>
      <trkpt lat="44.85715" lon="5.56421">
        <ele>1224.707</ele>
        <time>2021-11-07T12:40:14Z</time>
      </trkpt>
      <trkpt lat="44.85715" lon="5.56421">
        <ele>1225.146</ele>
        <time>2021-11-07T12:40:19Z</time>
      </trkpt>
      <trkpt lat="44.85716" lon="5.56421">
        <ele>1225.504</ele>
        <time>2021-11-07T12:40:24Z</time>
      </trkpt>
      <trkpt lat="44.85716" lon="5.56421">
        <ele>1225.509</ele>
        <time>2021-11-07T12:40:29Z</time>
      </trkpt>
      <trkpt lat="44.85716" lon="5.56421">
        <ele>1225.218</ele>
        <time>2021-11-07T12:40:34Z</time>
      </trkpt>
      <trkpt lat="44.85716" lon="5.56421">
        <ele>1225.461</ele>
        <time>2021-11-07T12:40:39Z</time>
      </trkpt>
      <trkpt lat="44.85715" lon="5.56422">
        <ele>1226.421</ele>
        <time>2021-11-07T12:40:44Z</time>
      </trkpt>
      <trkpt lat="44.85715" lon="5.56422">
        <ele>1226.481</ele>
        <time>2021-11-07T12:40:49Z</time>
      </trkpt>
      <trkpt lat="44.85716" lon="5.56422">
        <ele>1226.282</ele>
        <time>2021-11-07T12:40:54Z</time>
      </trkpt>
      <trkpt lat="44.85716" lon="5.56425">
        <ele>1227.244</ele>
        <time>2021-11-07T12:40:59Z</time>
      </trkpt>
      <trkpt lat="44.85717" lon="5.56426">
        <ele>1228.177</ele>
        <time>2021-11-07T12:41:04Z</time>
      </trkpt>
      <trkpt lat="44.85718" lon="5.56428">
        <ele>1229.378</ele>
        <time>2021-11-07T12:41:09Z</time>
      </trkpt>
      <trkpt lat="44.85719" lon="5.56434">
        <ele>1230.082</ele>
        <time>2021-11-07T12:41:14Z</time>
      </trkpt>
      <trkpt lat="44.8572" lon="5.5644">
        <ele>1230.878</ele>
        <time>2021-11-07T12:41:19Z</time>
      </trkpt>
      <trkpt lat="44.85722" lon="5.56443">
        <ele>1230.584</ele>
        <time>2021-11-07T12:41:24Z</time>
      </trkpt>
      <trkpt lat="44.85722" lon="5.56443">
        <ele>1230.437</ele>
        <time>2021-11-07T12:41:29Z</time>
      </trkpt>
      <trkpt lat="44.85722" lon="5.56447">
        <ele>1229.063</ele>
        <time>2021-11-07T12:41:34Z</time>
      </trkpt>
      <trkpt lat="44.8572" lon="5.56453">
        <ele>1228.045</ele>
        <time>2021-11-07T12:41:39Z</time>
      </trkpt>
      <trkpt lat="44.85721" lon="5.56457">
        <ele>1227.777</ele>
        <time>2021-11-07T12:41:44Z</time>
      </trkpt>
      <trkpt lat="44.8572" lon="5.56459">
        <ele>1227.825</ele>
        <time>2021-11-07T12:41:49Z</time>
      </trkpt>
      <trkpt lat="44.85724" lon="5.5646">
        <ele>1227.907</ele>
        <time>2021-11-07T12:41:54Z</time>
      </trkpt>
      <trkpt lat="44.85727" lon="5.56465">
        <ele>1226.997</ele>
        <time>2021-11-07T12:41:59Z</time>
      </trkpt>
      <trkpt lat="44.85732" lon="5.5647">
        <ele>1224.681</ele>
        <time>2021-11-07T12:42:04Z</time>
      </trkpt>
      <trkpt lat="44.85735" lon="5.5647">
        <ele>1226.66</ele>
        <time>2021-11-07T12:42:09Z</time>
      </trkpt>
      <trkpt lat="44.8574" lon="5.56473">
        <ele>1226.149</ele>
        <time>2021-11-07T12:42:14Z</time>
      </trkpt>
      <trkpt lat="44.85742" lon="5.56472">
        <ele>1226.109</ele>
        <time>2021-11-07T12:42:19Z</time>
      </trkpt>
      <trkpt lat="44.85742" lon="5.56471">
        <ele>1225.677</ele>
        <time>2021-11-07T12:42:24Z</time>
      </trkpt>
      <trkpt lat="44.85742" lon="5.56471">
        <ele>1225.754</ele>
        <time>2021-11-07T12:42:29Z</time>
      </trkpt>
      <trkpt lat="44.85742" lon="5.56471">
        <ele>1225.774</ele>
        <time>2021-11-07T12:42:34Z</time>
      </trkpt>
      <trkpt lat="44.85742" lon="5.56471">
        <ele>1225.806</ele>
        <time>2021-11-07T12:42:39Z</time>
      </trkpt>
      <trkpt lat="44.85742" lon="5.56471">
        <ele>1225.817</ele>
        <time>2021-11-07T12:42:44Z</time>
      </trkpt>
      <trkpt lat="44.85742" lon="5.56471">
        <ele>1225.82</ele>
        <time>2021-11-07T12:42:49Z</time>
      </trkpt>
      <trkpt lat="44.85742" lon="5.56471">
        <ele>1225.831</ele>
        <time>2021-11-07T12:42:54Z</time>
      </trkpt>
      <trkpt lat="44.85739" lon="5.56471">
        <ele>1227.348</ele>
        <time>2021-11-07T12:42:59Z</time>
      </trkpt>
      <trkpt lat="44.85736" lon="5.56466">
        <ele>1225.41</ele>
        <time>2021-11-07T12:43:04Z</time>
      </trkpt>
      <trkpt lat="44.85732" lon="5.56463">
        <ele>1225.257</ele>
        <time>2021-11-07T12:43:09Z</time>
      </trkpt>
      <trkpt lat="44.85728" lon="5.56463">
        <ele>1223.115</ele>
        <time>2021-11-07T12:43:14Z</time>
      </trkpt>
      <trkpt lat="44.85725" lon="5.56459">
        <ele>1223.099</ele>
        <time>2021-11-07T12:43:19Z</time>
      </trkpt>
      <trkpt lat="44.85724" lon="5.56458">
        <ele>1222.611</ele>
        <time>2021-11-07T12:43:24Z</time>
      </trkpt>
      <trkpt lat="44.85724" lon="5.56459">
        <ele>1222.582</ele>
        <time>2021-11-07T12:43:29Z</time>
      </trkpt>
      <trkpt lat="44.85723" lon="5.56457">
        <ele>1224.15</ele>
        <time>2021-11-07T12:43:34Z</time>
      </trkpt>
      <trkpt lat="44.85723" lon="5.56459">
        <ele>1224.171</ele>
        <time>2021-11-07T12:43:39Z</time>
      </trkpt>
      <trkpt lat="44.85728" lon="5.56467">
        <ele>1226.122</ele>
        <time>2021-11-07T12:43:44Z</time>
      </trkpt>
      <trkpt lat="44.85728" lon="5.56479">
        <ele>1225.885</ele>
        <time>2021-11-07T12:43:49Z</time>
      </trkpt>
      <trkpt lat="44.85723" lon="5.56486">
        <ele>1227.898</ele>
        <time>2021-11-07T12:43:54Z</time>
      </trkpt>
      <trkpt lat="44.8572" lon="5.56495">
        <ele>1229.726</ele>
        <time>2021-11-07T12:43:59Z</time>
      </trkpt>
      <trkpt lat="44.8572" lon="5.56505">
        <ele>1230.546</ele>
        <time>2021-11-07T12:44:04Z</time>
      </trkpt>
      <trkpt lat="44.85722" lon="5.56515">
        <ele>1231.103</ele>
        <time>2021-11-07T12:44:09Z</time>
      </trkpt>
      <trkpt lat="44.85725" lon="5.56521">
        <ele>1230.597</ele>
        <time>2021-11-07T12:44:14Z</time>
      </trkpt>
      <trkpt lat="44.85729" lon="5.56529">
        <ele>1230.964</ele>
        <time>2021-11-07T12:44:19Z</time>
      </trkpt>
      <trkpt lat="44.85734" lon="5.56534">
        <ele>1231.393</ele>
        <time>2021-11-07T12:44:24Z</time>
      </trkpt>
      <trkpt lat="44.85739" lon="5.56537">
        <ele>1233.864</ele>
        <time>2021-11-07T12:44:29Z</time>
      </trkpt>
      <trkpt lat="44.85744" lon="5.56539">
        <ele>1237.892</ele>
        <time>2021-11-07T12:44:34Z</time>
      </trkpt>
      <trkpt lat="44.8575" lon="5.56539">
        <ele>1238.72</ele>
        <time>2021-11-07T12:44:39Z</time>
      </trkpt>
      <trkpt lat="44.85756" lon="5.5654">
        <ele>1237.92</ele>
        <time>2021-11-07T12:44:44Z</time>
      </trkpt>
      <trkpt lat="44.85763" lon="5.5654">
        <ele>1238.777</ele>
        <time>2021-11-07T12:44:49Z</time>
      </trkpt>
      <trkpt lat="44.85771" lon="5.56541">
        <ele>1237.735</ele>
        <time>2021-11-07T12:44:54Z</time>
      </trkpt>
      <trkpt lat="44.85779" lon="5.56542">
        <ele>1239.478</ele>
        <time>2021-11-07T12:44:59Z</time>
      </trkpt>
      <trkpt lat="44.85786" lon="5.56542">
        <ele>1242.581</ele>
        <time>2021-11-07T12:45:04Z</time>
      </trkpt>
      <trkpt lat="44.85794" lon="5.56542">
        <ele>1243.79</ele>
        <time>2021-11-07T12:45:09Z</time>
      </trkpt>
      <trkpt lat="44.85802" lon="5.56544">
        <ele>1243.245</ele>
        <time>2021-11-07T12:45:14Z</time>
      </trkpt>
      <trkpt lat="44.8581" lon="5.56546">
        <ele>1242.612</ele>
        <time>2021-11-07T12:45:19Z</time>
      </trkpt>
      <trkpt lat="44.85818" lon="5.56548">
        <ele>1243.444</ele>
        <time>2021-11-07T12:45:24Z</time>
      </trkpt>
      <trkpt lat="44.85825" lon="5.56549">
        <ele>1244.004</ele>
        <time>2021-11-07T12:45:29Z</time>
      </trkpt>
      <trkpt lat="44.85834" lon="5.56553">
        <ele>1243.82</ele>
        <time>2021-11-07T12:45:34Z</time>
      </trkpt>
      <trkpt lat="44.85845" lon="5.56555">
        <ele>1247.766</ele>
        <time>2021-11-07T12:45:39Z</time>
      </trkpt>
      <trkpt lat="44.85852" lon="5.56554">
        <ele>1247.228</ele>
        <time>2021-11-07T12:45:44Z</time>
      </trkpt>
      <trkpt lat="44.85861" lon="5.56555">
        <ele>1248.044</ele>
        <time>2021-11-07T12:45:49Z</time>
      </trkpt>
      <trkpt lat="44.85869" lon="5.56557">
        <ele>1249.69</ele>
        <time>2021-11-07T12:45:54Z</time>
      </trkpt>
      <trkpt lat="44.85878" lon="5.5656">
        <ele>1247.771</ele>
        <time>2021-11-07T12:45:59Z</time>
      </trkpt>
      <trkpt lat="44.85885" lon="5.56564">
        <ele>1247.417</ele>
        <time>2021-11-07T12:46:04Z</time>
      </trkpt>
      <trkpt lat="44.85893" lon="5.56567">
        <ele>1247.39</ele>
        <time>2021-11-07T12:46:09Z</time>
      </trkpt>
      <trkpt lat="44.859" lon="5.56569">
        <ele>1247.84</ele>
        <time>2021-11-07T12:46:14Z</time>
      </trkpt>
      <trkpt lat="44.85908" lon="5.56573">
        <ele>1246.711</ele>
        <time>2021-11-07T12:46:19Z</time>
      </trkpt>
      <trkpt lat="44.85915" lon="5.56575">
        <ele>1249.435</ele>
        <time>2021-11-07T12:46:24Z</time>
      </trkpt>
      <trkpt lat="44.85922" lon="5.56578">
        <ele>1249.503</ele>
        <time>2021-11-07T12:46:29Z</time>
      </trkpt>
      <trkpt lat="44.85929" lon="5.5658">
        <ele>1250.5</ele>
        <time>2021-11-07T12:46:34Z</time>
      </trkpt>
      <trkpt lat="44.85936" lon="5.56583">
        <ele>1251.236</ele>
        <time>2021-11-07T12:46:39Z</time>
      </trkpt>
      <trkpt lat="44.85944" lon="5.56586">
        <ele>1252.323</ele>
        <time>2021-11-07T12:46:44Z</time>
      </trkpt>
      <trkpt lat="44.85953" lon="5.56588">
        <ele>1255.104</ele>
        <time>2021-11-07T12:46:49Z</time>
      </trkpt>
      <trkpt lat="44.85961" lon="5.56592">
        <ele>1253.317</ele>
        <time>2021-11-07T12:46:54Z</time>
      </trkpt>
      <trkpt lat="44.85969" lon="5.56594">
        <ele>1255.452</ele>
        <time>2021-11-07T12:46:59Z</time>
      </trkpt>
      <trkpt lat="44.85977" lon="5.56595">
        <ele>1256.302</ele>
        <time>2021-11-07T12:47:04Z</time>
      </trkpt>
      <trkpt lat="44.85986" lon="5.56597">
        <ele>1258.101</ele>
        <time>2021-11-07T12:47:09Z</time>
      </trkpt>
      <trkpt lat="44.85994" lon="5.56598">
        <ele>1259.583</ele>
        <time>2021-11-07T12:47:14Z</time>
      </trkpt>
      <trkpt lat="44.86001" lon="5.566">
        <ele>1258.898</ele>
        <time>2021-11-07T12:47:19Z</time>
      </trkpt>
      <trkpt lat="44.86009" lon="5.56602">
        <ele>1258.93</ele>
        <time>2021-11-07T12:47:24Z</time>
      </trkpt>
      <trkpt lat="44.86016" lon="5.56603">
        <ele>1258.963</ele>
        <time>2021-11-07T12:47:29Z</time>
      </trkpt>
      <trkpt lat="44.86023" lon="5.56605">
        <ele>1260.766</ele>
        <time>2021-11-07T12:47:34Z</time>
      </trkpt>
      <trkpt lat="44.86031" lon="5.56606">
        <ele>1261.019</ele>
        <time>2021-11-07T12:47:39Z</time>
      </trkpt>
      <trkpt lat="44.86038" lon="5.56607">
        <ele>1262.529</ele>
        <time>2021-11-07T12:47:44Z</time>
      </trkpt>
      <trkpt lat="44.86045" lon="5.5661">
        <ele>1262.527</ele>
        <time>2021-11-07T12:47:49Z</time>
      </trkpt>
      <trkpt lat="44.86052" lon="5.56612">
        <ele>1263.119</ele>
        <time>2021-11-07T12:47:54Z</time>
      </trkpt>
      <trkpt lat="44.86058" lon="5.56616">
        <ele>1263.03</ele>
        <time>2021-11-07T12:47:59Z</time>
      </trkpt>
      <trkpt lat="44.86063" lon="5.56619">
        <ele>1264.153</ele>
        <time>2021-11-07T12:48:04Z</time>
      </trkpt>
      <trkpt lat="44.86068" lon="5.56623">
        <ele>1264.557</ele>
        <time>2021-11-07T12:48:09Z</time>
      </trkpt>
      <trkpt lat="44.86074" lon="5.56627">
        <ele>1264.876</ele>
        <time>2021-11-07T12:48:14Z</time>
      </trkpt>
      <trkpt lat="44.86079" lon="5.56632">
        <ele>1266.604</ele>
        <time>2021-11-07T12:48:19Z</time>
      </trkpt>
      <trkpt lat="44.86085" lon="5.56637">
        <ele>1268.856</ele>
        <time>2021-11-07T12:48:24Z</time>
      </trkpt>
      <trkpt lat="44.86091" lon="5.56639">
        <ele>1269.59</ele>
        <time>2021-11-07T12:48:29Z</time>
      </trkpt>
      <trkpt lat="44.86098" lon="5.56643">
        <ele>1269.839</ele>
        <time>2021-11-07T12:48:34Z</time>
      </trkpt>
      <trkpt lat="44.86104" lon="5.56646">
        <ele>1270.113</ele>
        <time>2021-11-07T12:48:39Z</time>
      </trkpt>
      <trkpt lat="44.86111" lon="5.5665">
        <ele>1269.858</ele>
        <time>2021-11-07T12:48:44Z</time>
      </trkpt>
      <trkpt lat="44.86118" lon="5.56654">
        <ele>1268.994</ele>
        <time>2021-11-07T12:48:49Z</time>
      </trkpt>
      <trkpt lat="44.86125" lon="5.56659">
        <ele>1269.676</ele>
        <time>2021-11-07T12:48:54Z</time>
      </trkpt>
      <trkpt lat="44.86131" lon="5.56665">
        <ele>1271.189</ele>
        <time>2021-11-07T12:48:59Z</time>
      </trkpt>
      <trkpt lat="44.86138" lon="5.56673">
        <ele>1271.596</ele>
        <time>2021-11-07T12:49:04Z</time>
      </trkpt>
      <trkpt lat="44.86143" lon="5.5668">
        <ele>1273.298</ele>
        <time>2021-11-07T12:49:09Z</time>
      </trkpt>
      <trkpt lat="44.86149" lon="5.56689">
        <ele>1274.858</ele>
        <time>2021-11-07T12:49:14Z</time>
      </trkpt>
      <trkpt lat="44.86154" lon="5.56698">
        <ele>1275.29</ele>
        <time>2021-11-07T12:49:19Z</time>
      </trkpt>
      <trkpt lat="44.86159" lon="5.56707">
        <ele>1276.787</ele>
        <time>2021-11-07T12:49:24Z</time>
      </trkpt>
      <trkpt lat="44.86164" lon="5.56716">
        <ele>1277.81</ele>
        <time>2021-11-07T12:49:29Z</time>
      </trkpt>
      <trkpt lat="44.86171" lon="5.56724">
        <ele>1278.409</ele>
        <time>2021-11-07T12:49:34Z</time>
      </trkpt>
      <trkpt lat="44.86177" lon="5.56733">
        <ele>1278.224</ele>
        <time>2021-11-07T12:49:39Z</time>
      </trkpt>
      <trkpt lat="44.86183" lon="5.56739">
        <ele>1279.057</ele>
        <time>2021-11-07T12:49:44Z</time>
      </trkpt>
      <trkpt lat="44.86189" lon="5.56745">
        <ele>1280.519</ele>
        <time>2021-11-07T12:49:49Z</time>
      </trkpt>
      <trkpt lat="44.86196" lon="5.56752">
        <ele>1281.235</ele>
        <time>2021-11-07T12:49:54Z</time>
      </trkpt>
      <trkpt lat="44.86203" lon="5.56758">
        <ele>1280.722</ele>
        <time>2021-11-07T12:49:59Z</time>
      </trkpt>
      <trkpt lat="44.86211" lon="5.56764">
        <ele>1281.006</ele>
        <time>2021-11-07T12:50:04Z</time>
      </trkpt>
      <trkpt lat="44.8622" lon="5.56769">
        <ele>1283.346</ele>
        <time>2021-11-07T12:50:09Z</time>
      </trkpt>
      <trkpt lat="44.86229" lon="5.56773">
        <ele>1287.618</ele>
        <time>2021-11-07T12:50:14Z</time>
      </trkpt>
      <trkpt lat="44.86239" lon="5.56779">
        <ele>1287.178</ele>
        <time>2021-11-07T12:50:19Z</time>
      </trkpt>
      <trkpt lat="44.86249" lon="5.56783">
        <ele>1287.032</ele>
        <time>2021-11-07T12:50:24Z</time>
      </trkpt>
      <trkpt lat="44.86256" lon="5.56786">
        <ele>1287.007</ele>
        <time>2021-11-07T12:50:29Z</time>
      </trkpt>
      <trkpt lat="44.86264" lon="5.5679">
        <ele>1287.161</ele>
        <time>2021-11-07T12:50:34Z</time>
      </trkpt>
      <trkpt lat="44.86272" lon="5.56796">
        <ele>1285.492</ele>
        <time>2021-11-07T12:50:39Z</time>
      </trkpt>
      <trkpt lat="44.86275" lon="5.56806">
        <ele>1286.704</ele>
        <time>2021-11-07T12:50:44Z</time>
      </trkpt>
      <trkpt lat="44.86269" lon="5.56814">
        <ele>1286.703</ele>
        <time>2021-11-07T12:50:49Z</time>
      </trkpt>
      <trkpt lat="44.86261" lon="5.56812">
        <ele>1283.384</ele>
        <time>2021-11-07T12:50:54Z</time>
      </trkpt>
      <trkpt lat="44.86254" lon="5.56808">
        <ele>1282.984</ele>
        <time>2021-11-07T12:50:59Z</time>
      </trkpt>
      <trkpt lat="44.86247" lon="5.56805">
        <ele>1281.14</ele>
        <time>2021-11-07T12:51:04Z</time>
      </trkpt>
      <trkpt lat="44.8624" lon="5.56803">
        <ele>1281.679</ele>
        <time>2021-11-07T12:51:09Z</time>
      </trkpt>
      <trkpt lat="44.86234" lon="5.56801">
        <ele>1282.042</ele>
        <time>2021-11-07T12:51:14Z</time>
      </trkpt>
      <trkpt lat="44.86227" lon="5.568">
        <ele>1279.637</ele>
        <time>2021-11-07T12:51:19Z</time>
      </trkpt>
      <trkpt lat="44.86219" lon="5.568">
        <ele>1279.733</ele>
        <time>2021-11-07T12:51:24Z</time>
      </trkpt>
      <trkpt lat="44.8621" lon="5.568">
        <ele>1282.178</ele>
        <time>2021-11-07T12:51:29Z</time>
      </trkpt>
      <trkpt lat="44.86201" lon="5.56799">
        <ele>1281.518</ele>
        <time>2021-11-07T12:51:34Z</time>
      </trkpt>
      <trkpt lat="44.86193" lon="5.56797">
        <ele>1278.293</ele>
        <time>2021-11-07T12:51:39Z</time>
      </trkpt>
      <trkpt lat="44.86185" lon="5.56793">
        <ele>1273.717</ele>
        <time>2021-11-07T12:51:44Z</time>
      </trkpt>
      <trkpt lat="44.86176" lon="5.56791">
        <ele>1280.817</ele>
        <time>2021-11-07T12:51:49Z</time>
      </trkpt>
      <trkpt lat="44.86166" lon="5.56789">
        <ele>1280.788</ele>
        <time>2021-11-07T12:51:54Z</time>
      </trkpt>
      <trkpt lat="44.86157" lon="5.56783">
        <ele>1281.835</ele>
        <time>2021-11-07T12:51:59Z</time>
      </trkpt>
      <trkpt lat="44.86148" lon="5.56775">
        <ele>1283.74</ele>
        <time>2021-11-07T12:52:04Z</time>
      </trkpt>
      <trkpt lat="44.86139" lon="5.56768">
        <ele>1286.449</ele>
        <time>2021-11-07T12:52:09Z</time>
      </trkpt>
      <trkpt lat="44.86133" lon="5.56762">
        <ele>1285.683</ele>
        <time>2021-11-07T12:52:14Z</time>
      </trkpt>
      <trkpt lat="44.86124" lon="5.56758">
        <ele>1286.404</ele>
        <time>2021-11-07T12:52:19Z</time>
      </trkpt>
      <trkpt lat="44.86115" lon="5.56755">
        <ele>1285.147</ele>
        <time>2021-11-07T12:52:24Z</time>
      </trkpt>
      <trkpt lat="44.86107" lon="5.56753">
        <ele>1287.259</ele>
        <time>2021-11-07T12:52:29Z</time>
      </trkpt>
      <trkpt lat="44.86099" lon="5.5675">
        <ele>1292.135</ele>
        <time>2021-11-07T12:52:34Z</time>
      </trkpt>
      <trkpt lat="44.8609" lon="5.56748">
        <ele>1291.694</ele>
        <time>2021-11-07T12:52:39Z</time>
      </trkpt>
      <trkpt lat="44.86081" lon="5.56747">
        <ele>1288.531</ele>
        <time>2021-11-07T12:52:44Z</time>
      </trkpt>
      <trkpt lat="44.86072" lon="5.56745">
        <ele>1287.928</ele>
        <time>2021-11-07T12:52:49Z</time>
      </trkpt>
      <trkpt lat="44.86063" lon="5.56746">
        <ele>1289.341</ele>
        <time>2021-11-07T12:52:54Z</time>
      </trkpt>
      <trkpt lat="44.86054" lon="5.56747">
        <ele>1290.856</ele>
        <time>2021-11-07T12:52:59Z</time>
      </trkpt>
      <trkpt lat="44.86046" lon="5.56751">
        <ele>1297.701</ele>
        <time>2021-11-07T12:53:04Z</time>
      </trkpt>
      <trkpt lat="44.86037" lon="5.56754">
        <ele>1298.019</ele>
        <time>2021-11-07T12:53:09Z</time>
      </trkpt>
      <trkpt lat="44.86029" lon="5.56758">
        <ele>1297.71</ele>
        <time>2021-11-07T12:53:14Z</time>
      </trkpt>
      <trkpt lat="44.86021" lon="5.56761">
        <ele>1296.348</ele>
        <time>2021-11-07T12:53:19Z</time>
      </trkpt>
      <trkpt lat="44.86012" lon="5.56765">
        <ele>1294.631</ele>
        <time>2021-11-07T12:53:24Z</time>
      </trkpt>
      <trkpt lat="44.86003" lon="5.5677">
        <ele>1297.019</ele>
        <time>2021-11-07T12:53:29Z</time>
      </trkpt>
      <trkpt lat="44.85994" lon="5.56775">
        <ele>1298.229</ele>
        <time>2021-11-07T12:53:34Z</time>
      </trkpt>
      <trkpt lat="44.85985" lon="5.56779">
        <ele>1298.547</ele>
        <time>2021-11-07T12:53:39Z</time>
      </trkpt>
      <trkpt lat="44.85977" lon="5.56783">
        <ele>1299.923</ele>
        <time>2021-11-07T12:53:44Z</time>
      </trkpt>
      <trkpt lat="44.85968" lon="5.56786">
        <ele>1300.849</ele>
        <time>2021-11-07T12:53:49Z</time>
      </trkpt>
      <trkpt lat="44.85959" lon="5.56791">
        <ele>1301.313</ele>
        <time>2021-11-07T12:53:54Z</time>
      </trkpt>
      <trkpt lat="44.8595" lon="5.56796">
        <ele>1302.353</ele>
        <time>2021-11-07T12:53:59Z</time>
      </trkpt>
      <trkpt lat="44.85941" lon="5.56801">
        <ele>1305.032</ele>
        <time>2021-11-07T12:54:04Z</time>
      </trkpt>
      <trkpt lat="44.85932" lon="5.56805">
        <ele>1307.48</ele>
        <time>2021-11-07T12:54:09Z</time>
      </trkpt>
      <trkpt lat="44.85923" lon="5.5681">
        <ele>1308.929</ele>
        <time>2021-11-07T12:54:14Z</time>
      </trkpt>
      <trkpt lat="44.85915" lon="5.56816">
        <ele>1309.792</ele>
        <time>2021-11-07T12:54:19Z</time>
      </trkpt>
      <trkpt lat="44.85907" lon="5.56823">
        <ele>1309.481</ele>
        <time>2021-11-07T12:54:24Z</time>
      </trkpt>
      <trkpt lat="44.85899" lon="5.56829">
        <ele>1310.207</ele>
        <time>2021-11-07T12:54:29Z</time>
      </trkpt>
      <trkpt lat="44.85891" lon="5.56832">
        <ele>1310.749</ele>
        <time>2021-11-07T12:54:34Z</time>
      </trkpt>
      <trkpt lat="44.85881" lon="5.56835">
        <ele>1312.205</ele>
        <time>2021-11-07T12:54:39Z</time>
      </trkpt>
      <trkpt lat="44.85871" lon="5.56839">
        <ele>1312.155</ele>
        <time>2021-11-07T12:54:44Z</time>
      </trkpt>
      <trkpt lat="44.85862" lon="5.56844">
        <ele>1313.798</ele>
        <time>2021-11-07T12:54:49Z</time>
      </trkpt>
      <trkpt lat="44.85853" lon="5.56849">
        <ele>1315.615</ele>
        <time>2021-11-07T12:54:54Z</time>
      </trkpt>
      <trkpt lat="44.85844" lon="5.56854">
        <ele>1315.239</ele>
        <time>2021-11-07T12:54:59Z</time>
      </trkpt>
      <trkpt lat="44.85835" lon="5.56859">
        <ele>1317.076</ele>
        <time>2021-11-07T12:55:04Z</time>
      </trkpt>
      <trkpt lat="44.85827" lon="5.56863">
        <ele>1317.801</ele>
        <time>2021-11-07T12:55:09Z</time>
      </trkpt>
      <trkpt lat="44.85818" lon="5.56867">
        <ele>1316.856</ele>
        <time>2021-11-07T12:55:14Z</time>
      </trkpt>
      <trkpt lat="44.85808" lon="5.56871">
        <ele>1314.647</ele>
        <time>2021-11-07T12:55:19Z</time>
      </trkpt>
      <trkpt lat="44.85799" lon="5.56875">
        <ele>1316.807</ele>
        <time>2021-11-07T12:55:24Z</time>
      </trkpt>
      <trkpt lat="44.85789" lon="5.56877">
        <ele>1317.212</ele>
        <time>2021-11-07T12:55:29Z</time>
      </trkpt>
      <trkpt lat="44.8578" lon="5.56882">
        <ele>1320.739</ele>
        <time>2021-11-07T12:55:34Z</time>
      </trkpt>
      <trkpt lat="44.85771" lon="5.56888">
        <ele>1321.897</ele>
        <time>2021-11-07T12:55:39Z</time>
      </trkpt>
      <trkpt lat="44.85761" lon="5.56894">
        <ele>1323.588</ele>
        <time>2021-11-07T12:55:44Z</time>
      </trkpt>
      <trkpt lat="44.85752" lon="5.56902">
        <ele>1324.49</ele>
        <time>2021-11-07T12:55:49Z</time>
      </trkpt>
      <trkpt lat="44.85742" lon="5.56905">
        <ele>1325.199</ele>
        <time>2021-11-07T12:55:54Z</time>
      </trkpt>
      <trkpt lat="44.85731" lon="5.56907">
        <ele>1325.092</ele>
        <time>2021-11-07T12:55:59Z</time>
      </trkpt>
      <trkpt lat="44.85721" lon="5.56909">
        <ele>1322.672</ele>
        <time>2021-11-07T12:56:04Z</time>
      </trkpt>
      <trkpt lat="44.85711" lon="5.56912">
        <ele>1322.765</ele>
        <time>2021-11-07T12:56:09Z</time>
      </trkpt>
      <trkpt lat="44.85701" lon="5.56915">
        <ele>1324.501</ele>
        <time>2021-11-07T12:56:14Z</time>
      </trkpt>
      <trkpt lat="44.8569" lon="5.56916">
        <ele>1325.96</ele>
        <time>2021-11-07T12:56:19Z</time>
      </trkpt>
      <trkpt lat="44.85679" lon="5.56918">
        <ele>1323.66</ele>
        <time>2021-11-07T12:56:24Z</time>
      </trkpt>
      <trkpt lat="44.85668" lon="5.56921">
        <ele>1325.855</ele>
        <time>2021-11-07T12:56:29Z</time>
      </trkpt>
      <trkpt lat="44.8566" lon="5.56924">
        <ele>1328.63</ele>
        <time>2021-11-07T12:56:34Z</time>
      </trkpt>
      <trkpt lat="44.85654" lon="5.56928">
        <ele>1330.295</ele>
        <time>2021-11-07T12:56:39Z</time>
      </trkpt>
      <trkpt lat="44.85655" lon="5.56938">
        <ele>1331.281</ele>
        <time>2021-11-07T12:56:44Z</time>
      </trkpt>
      <trkpt lat="44.85667" lon="5.56943">
        <ele>1334.112</ele>
        <time>2021-11-07T12:56:49Z</time>
      </trkpt>
      <trkpt lat="44.85674" lon="5.56944">
        <ele>1335.706</ele>
        <time>2021-11-07T12:56:54Z</time>
      </trkpt>
      <trkpt lat="44.8568" lon="5.56943">
        <ele>1336.067</ele>
        <time>2021-11-07T12:56:59Z</time>
      </trkpt>
      <trkpt lat="44.8568" lon="5.56935">
        <ele>1335.11</ele>
        <time>2021-11-07T12:57:04Z</time>
      </trkpt>
      <trkpt lat="44.85674" lon="5.56932">
        <ele>1334.759</ele>
        <time>2021-11-07T12:57:09Z</time>
      </trkpt>
      <trkpt lat="44.85666" lon="5.56926">
        <ele>1330.053</ele>
        <time>2021-11-07T12:57:14Z</time>
      </trkpt>
      <trkpt lat="44.85648" lon="5.56931">
        <ele>1331.558</ele>
        <time>2021-11-07T12:57:19Z</time>
      </trkpt>
      <trkpt lat="44.85643" lon="5.56934">
        <ele>1332.552</ele>
        <time>2021-11-07T12:57:24Z</time>
      </trkpt>
      <trkpt lat="44.85643" lon="5.56934">
        <ele>1332.329</ele>
        <time>2021-11-07T12:57:29Z</time>
      </trkpt>
      <trkpt lat="44.85643" lon="5.56934">
        <ele>1331.889</ele>
        <time>2021-11-07T12:57:34Z</time>
      </trkpt>
      <trkpt lat="44.85643" lon="5.56934">
        <ele>1331.886</ele>
        <time>2021-11-07T12:57:39Z</time>
      </trkpt>
      <trkpt lat="44.85643" lon="5.56934">
        <ele>1331.894</ele>
        <time>2021-11-07T12:57:44Z</time>
      </trkpt>
      <trkpt lat="44.85643" lon="5.56934">
        <ele>1331.896</ele>
        <time>2021-11-07T12:57:49Z</time>
      </trkpt>
      <trkpt lat="44.85643" lon="5.56934">
        <ele>1331.892</ele>
        <time>2021-11-07T12:57:54Z</time>
      </trkpt>
      <trkpt lat="44.85643" lon="5.56934">
        <ele>1331.897</ele>
        <time>2021-11-07T12:57:59Z</time>
      </trkpt>
      <trkpt lat="44.85643" lon="5.56934">
        <ele>1331.896</ele>
        <time>2021-11-07T12:58:04Z</time>
      </trkpt>
      <trkpt lat="44.85643" lon="5.56934">
        <ele>1331.891</ele>
        <time>2021-11-07T12:58:09Z</time>
      </trkpt>
      <trkpt lat="44.85643" lon="5.56934">
        <ele>1331.885</ele>
        <time>2021-11-07T12:58:14Z</time>
      </trkpt>
      <trkpt lat="44.85643" lon="5.56934">
        <ele>1331.874</ele>
        <time>2021-11-07T12:58:19Z</time>
      </trkpt>
      <trkpt lat="44.85643" lon="5.56935">
        <ele>1331.454</ele>
        <time>2021-11-07T12:58:24Z</time>
      </trkpt>
      <trkpt lat="44.85643" lon="5.56935">
        <ele>1331.51</ele>
        <time>2021-11-07T12:58:29Z</time>
      </trkpt>
      <trkpt lat="44.85643" lon="5.56934">
        <ele>1331.706</ele>
        <time>2021-11-07T12:58:34Z</time>
      </trkpt>
      <trkpt lat="44.85642" lon="5.56934">
        <ele>1331.013</ele>
        <time>2021-11-07T12:58:39Z</time>
      </trkpt>
      <trkpt lat="44.85642" lon="5.56934">
        <ele>1330.143</ele>
        <time>2021-11-07T12:58:44Z</time>
      </trkpt>
      <trkpt lat="44.85642" lon="5.56934">
        <ele>1330.165</ele>
        <time>2021-11-07T12:58:49Z</time>
      </trkpt>
      <trkpt lat="44.85642" lon="5.56934">
        <ele>1330.156</ele>
        <time>2021-11-07T12:58:54Z</time>
      </trkpt>
      <trkpt lat="44.85642" lon="5.56934">
        <ele>1330.159</ele>
        <time>2021-11-07T12:58:59Z</time>
      </trkpt>
      <trkpt lat="44.85642" lon="5.56934">
        <ele>1330.162</ele>
        <time>2021-11-07T12:59:04Z</time>
      </trkpt>
      <trkpt lat="44.85642" lon="5.56934">
        <ele>1330.161</ele>
        <time>2021-11-07T12:59:09Z</time>
      </trkpt>
      <trkpt lat="44.85642" lon="5.56934">
        <ele>1330.162</ele>
        <time>2021-11-07T12:59:14Z</time>
      </trkpt>
      <trkpt lat="44.85642" lon="5.56934">
        <ele>1330.151</ele>
        <time>2021-11-07T12:59:19Z</time>
      </trkpt>
      <trkpt lat="44.85642" lon="5.56934">
        <ele>1330.147</ele>
        <time>2021-11-07T12:59:24Z</time>
      </trkpt>
      <trkpt lat="44.85642" lon="5.56934">
        <ele>1330.146</ele>
        <time>2021-11-07T12:59:29Z</time>
      </trkpt>
      <trkpt lat="44.85642" lon="5.56934">
        <ele>1330.145</ele>
        <time>2021-11-07T12:59:34Z</time>
      </trkpt>
      <trkpt lat="44.85642" lon="5.56934">
        <ele>1330.139</ele>
        <time>2021-11-07T12:59:39Z</time>
      </trkpt>
      <trkpt lat="44.85642" lon="5.56934">
        <ele>1330.135</ele>
        <time>2021-11-07T12:59:44Z</time>
      </trkpt>
      <trkpt lat="44.85642" lon="5.56934">
        <ele>1330.132</ele>
        <time>2021-11-07T12:59:49Z</time>
      </trkpt>
      <trkpt lat="44.85642" lon="5.56934">
        <ele>1330.13</ele>
        <time>2021-11-07T12:59:54Z</time>
      </trkpt>
      <trkpt lat="44.85642" lon="5.56934">
        <ele>1330.126</ele>
        <time>2021-11-07T12:59:59Z</time>
      </trkpt>
      <trkpt lat="44.85642" lon="5.56934">
        <ele>1330.123</ele>
        <time>2021-11-07T13:00:04Z</time>
      </trkpt>
      <trkpt lat="44.85644" lon="5.5693">
        <ele>1329.087</ele>
        <time>2021-11-07T13:00:09Z</time>
      </trkpt>
      <trkpt lat="44.8565" lon="5.56932">
        <ele>1330.118</ele>
        <time>2021-11-07T13:00:14Z</time>
      </trkpt>
      <trkpt lat="44.85655" lon="5.56939">
        <ele>1330.679</ele>
        <time>2021-11-07T13:00:19Z</time>
      </trkpt>
      <trkpt lat="44.85661" lon="5.56947">
        <ele>1330.275</ele>
        <time>2021-11-07T13:00:24Z</time>
      </trkpt>
      <trkpt lat="44.85671" lon="5.56966">
        <ele>1329.533</ele>
        <time>2021-11-07T13:00:29Z</time>
      </trkpt>
      <trkpt lat="44.85688" lon="5.57001">
        <ele>1326.015</ele>
        <time>2021-11-07T13:00:34Z</time>
      </trkpt>
      <trkpt lat="44.8571" lon="5.57043">
        <ele>1322.507</ele>
        <time>2021-11-07T13:00:39Z</time>
      </trkpt>
      <trkpt lat="44.85744" lon="5.57083">
        <ele>1318.88</ele>
        <time>2021-11-07T13:00:44Z</time>
      </trkpt>
      <trkpt lat="44.85766" lon="5.57128">
        <ele>1312.948</ele>
        <time>2021-11-07T13:00:49Z</time>
      </trkpt>
      <trkpt lat="44.85786" lon="5.57175">
        <ele>1310.579</ele>
        <time>2021-11-07T13:00:54Z</time>
      </trkpt>
      <trkpt lat="44.85806" lon="5.57224">
        <ele>1305.474</ele>
        <time>2021-11-07T13:00:59Z</time>
      </trkpt>
      <trkpt lat="44.85813" lon="5.57277">
        <ele>1302.492</ele>
        <time>2021-11-07T13:01:04Z</time>
      </trkpt>
      <trkpt lat="44.85803" lon="5.57332">
        <ele>1298.271</ele>
        <time>2021-11-07T13:01:09Z</time>
      </trkpt>
      <trkpt lat="44.85797" lon="5.57389">
        <ele>1294.202</ele>
        <time>2021-11-07T13:01:14Z</time>
      </trkpt>
      <trkpt lat="44.85791" lon="5.57448">
        <ele>1291.89</ele>
        <time>2021-11-07T13:01:19Z</time>
      </trkpt>
      <trkpt lat="44.85785" lon="5.57485">
        <ele>1292.226</ele>
        <time>2021-11-07T13:01:24Z</time>
      </trkpt>
      <trkpt lat="44.85782" lon="5.57497">
        <ele>1293.977</ele>
        <time>2021-11-07T13:01:29Z</time>
      </trkpt>
      <trkpt lat="44.8578" lon="5.57503">
        <ele>1293.904</ele>
        <time>2021-11-07T13:01:34Z</time>
      </trkpt>
      <trkpt lat="44.85782" lon="5.57491">
        <ele>1289.884</ele>
        <time>2021-11-07T13:01:39Z</time>
      </trkpt>
      <trkpt lat="44.85788" lon="5.57483">
        <ele>1289.067</ele>
        <time>2021-11-07T13:01:44Z</time>
      </trkpt>
      <trkpt lat="44.85793" lon="5.57496">
        <ele>1288.246</ele>
        <time>2021-11-07T13:01:49Z</time>
      </trkpt>
      <trkpt lat="44.85792" lon="5.57497">
        <ele>1289.22</ele>
        <time>2021-11-07T13:01:54Z</time>
      </trkpt>
      <trkpt lat="44.85792" lon="5.57497">
        <ele>1289.352</ele>
        <time>2021-11-07T13:01:59Z</time>
      </trkpt>
      <trkpt lat="44.85792" lon="5.57498">
        <ele>1289.11</ele>
        <time>2021-11-07T13:02:04Z</time>
      </trkpt>
      <trkpt lat="44.85791" lon="5.57511">
        <ele>1288.74</ele>
        <time>2021-11-07T13:02:09Z</time>
      </trkpt>
      <trkpt lat="44.85792" lon="5.57531">
        <ele>1289.471</ele>
        <time>2021-11-07T13:02:14Z</time>
      </trkpt>
      <trkpt lat="44.85795" lon="5.5756">
        <ele>1289.02</ele>
        <time>2021-11-07T13:02:19Z</time>
      </trkpt>
      <trkpt lat="44.85799" lon="5.576">
        <ele>1288.053</ele>
        <time>2021-11-07T13:02:24Z</time>
      </trkpt>
      <trkpt lat="44.85803" lon="5.57653">
        <ele>1286.482</ele>
        <time>2021-11-07T13:02:29Z</time>
      </trkpt>
      <trkpt lat="44.85801" lon="5.57708">
        <ele>1279.503</ele>
        <time>2021-11-07T13:02:34Z</time>
      </trkpt>
      <trkpt lat="44.85794" lon="5.57769">
        <ele>1275.554</ele>
        <time>2021-11-07T13:02:39Z</time>
      </trkpt>
      <trkpt lat="44.85789" lon="5.57824">
        <ele>1272.154</ele>
        <time>2021-11-07T13:02:44Z</time>
      </trkpt>
      <trkpt lat="44.85785" lon="5.57881">
        <ele>1270.155</ele>
        <time>2021-11-07T13:02:49Z</time>
      </trkpt>
      <trkpt lat="44.8578" lon="5.57939">
        <ele>1268.027</ele>
        <time>2021-11-07T13:02:54Z</time>
      </trkpt>
      <trkpt lat="44.8578" lon="5.57995">
        <ele>1264.691</ele>
        <time>2021-11-07T13:02:59Z</time>
      </trkpt>
      <trkpt lat="44.85787" lon="5.58048">
        <ele>1261.922</ele>
        <time>2021-11-07T13:03:04Z</time>
      </trkpt>
      <trkpt lat="44.85784" lon="5.58106">
        <ele>1258.241</ele>
        <time>2021-11-07T13:03:09Z</time>
      </trkpt>
      <trkpt lat="44.85783" lon="5.58167">
        <ele>1255.302</ele>
        <time>2021-11-07T13:03:14Z</time>
      </trkpt>
      <trkpt lat="44.85784" lon="5.58226">
        <ele>1251.742</ele>
        <time>2021-11-07T13:03:19Z</time>
      </trkpt>
      <trkpt lat="44.85771" lon="5.58281">
        <ele>1247.401</ele>
        <time>2021-11-07T13:03:24Z</time>
      </trkpt>
      <trkpt lat="44.85753" lon="5.58336">
        <ele>1245.908</ele>
        <time>2021-11-07T13:03:29Z</time>
      </trkpt>
      <trkpt lat="44.85748" lon="5.58356">
        <ele>1244.646</ele>
        <time>2021-11-07T13:03:34Z</time>
      </trkpt>
      <trkpt lat="44.85748" lon="5.58356">
        <ele>1244.51</ele>
        <time>2021-11-07T13:03:39Z</time>
      </trkpt>
      <trkpt lat="44.85748" lon="5.58356">
        <ele>1245.083</ele>
        <time>2021-11-07T13:03:44Z</time>
      </trkpt>
      <trkpt lat="44.85748" lon="5.58356">
        <ele>1245.137</ele>
        <time>2021-11-07T13:03:49Z</time>
      </trkpt>
      <trkpt lat="44.85748" lon="5.5836">
        <ele>1243.982</ele>
        <time>2021-11-07T13:03:54Z</time>
      </trkpt>
      <trkpt lat="44.85748" lon="5.58368">
        <ele>1244.654</ele>
        <time>2021-11-07T13:03:59Z</time>
      </trkpt>
      <trkpt lat="44.85747" lon="5.58368">
        <ele>1244.914</ele>
        <time>2021-11-07T13:04:04Z</time>
      </trkpt>
      <trkpt lat="44.85741" lon="5.58366">
        <ele>1242.941</ele>
        <time>2021-11-07T13:04:09Z</time>
      </trkpt>
      <trkpt lat="44.85743" lon="5.58366">
        <ele>1242.081</ele>
        <time>2021-11-07T13:04:14Z</time>
      </trkpt>
      <trkpt lat="44.85743" lon="5.58366">
        <ele>1241.156</ele>
        <time>2021-11-07T13:04:19Z</time>
      </trkpt>
      <trkpt lat="44.85742" lon="5.58366">
        <ele>1241.514</ele>
        <time>2021-11-07T13:04:24Z</time>
      </trkpt>
      <trkpt lat="44.85742" lon="5.58367">
        <ele>1241.542</ele>
        <time>2021-11-07T13:04:29Z</time>
      </trkpt>
      <trkpt lat="44.85742" lon="5.58367">
        <ele>1241.605</ele>
        <time>2021-11-07T13:04:34Z</time>
      </trkpt>
      <trkpt lat="44.85743" lon="5.58365">
        <ele>1241.513</ele>
        <time>2021-11-07T13:04:39Z</time>
      </trkpt>
      <trkpt lat="44.85743" lon="5.58366">
        <ele>1241.05</ele>
        <time>2021-11-07T13:04:44Z</time>
      </trkpt>
      <trkpt lat="44.85741" lon="5.58375">
        <ele>1240.465</ele>
        <time>2021-11-07T13:04:49Z</time>
      </trkpt>
      <trkpt lat="44.85738" lon="5.58384">
        <ele>1240.004</ele>
        <time>2021-11-07T13:04:54Z</time>
      </trkpt>
      <trkpt lat="44.85738" lon="5.58384">
        <ele>1239.526</ele>
        <time>2021-11-07T13:04:59Z</time>
      </trkpt>
      <trkpt lat="44.85736" lon="5.5839">
        <ele>1240.029</ele>
        <time>2021-11-07T13:05:04Z</time>
      </trkpt>
      <trkpt lat="44.85731" lon="5.58395">
        <ele>1238.824</ele>
        <time>2021-11-07T13:05:09Z</time>
      </trkpt>
      <trkpt lat="44.85731" lon="5.58396">
        <ele>1239.24</ele>
        <time>2021-11-07T13:05:14Z</time>
      </trkpt>
      <trkpt lat="44.85731" lon="5.58396">
        <ele>1239.793</ele>
        <time>2021-11-07T13:05:19Z</time>
      </trkpt>
      <trkpt lat="44.85732" lon="5.58395">
        <ele>1239.631</ele>
        <time>2021-11-07T13:05:24Z</time>
      </trkpt>
      <trkpt lat="44.85733" lon="5.58394">
        <ele>1239.364</ele>
        <time>2021-11-07T13:05:29Z</time>
      </trkpt>
      <trkpt lat="44.85733" lon="5.58393">
        <ele>1239.128</ele>
        <time>2021-11-07T13:05:34Z</time>
      </trkpt>
      <trkpt lat="44.85733" lon="5.58394">
        <ele>1238.984</ele>
        <time>2021-11-07T13:05:39Z</time>
      </trkpt>
      <trkpt lat="44.85733" lon="5.58394">
        <ele>1238.976</ele>
        <time>2021-11-07T13:05:44Z</time>
      </trkpt>
      <trkpt lat="44.85733" lon="5.58394">
        <ele>1238.98</ele>
        <time>2021-11-07T13:05:49Z</time>
      </trkpt>
      <trkpt lat="44.85733" lon="5.58394">
        <ele>1238.978</ele>
        <time>2021-11-07T13:05:54Z</time>
      </trkpt>
      <trkpt lat="44.85733" lon="5.58394">
        <ele>1238.978</ele>
        <time>2021-11-07T13:05:59Z</time>
      </trkpt>
      <trkpt lat="44.85733" lon="5.58394">
        <ele>1238.987</ele>
        <time>2021-11-07T13:06:04Z</time>
      </trkpt>
      <trkpt lat="44.85733" lon="5.58395">
        <ele>1237.979</ele>
        <time>2021-11-07T13:06:09Z</time>
      </trkpt>
      <trkpt lat="44.85737" lon="5.5839">
        <ele>1238.79</ele>
        <time>2021-11-07T13:06:14Z</time>
      </trkpt>
      <trkpt lat="44.85737" lon="5.58389">
        <ele>1239.073</ele>
        <time>2021-11-07T13:06:19Z</time>
      </trkpt>
      <trkpt lat="44.85736" lon="5.58389">
        <ele>1239.08</ele>
        <time>2021-11-07T13:06:24Z</time>
      </trkpt>
      <trkpt lat="44.85737" lon="5.58387">
        <ele>1238.814</ele>
        <time>2021-11-07T13:06:29Z</time>
      </trkpt>
      <trkpt lat="44.85737" lon="5.58388">
        <ele>1238.594</ele>
        <time>2021-11-07T13:06:34Z</time>
      </trkpt>
      <trkpt lat="44.85736" lon="5.58389">
        <ele>1238.232</ele>
        <time>2021-11-07T13:06:39Z</time>
      </trkpt>
      <trkpt lat="44.85724" lon="5.58394">
        <ele>1232.792</ele>
        <time>2021-11-07T13:06:44Z</time>
      </trkpt>
      <trkpt lat="44.85706" lon="5.58392">
        <ele>1227.088</ele>
        <time>2021-11-07T13:06:49Z</time>
      </trkpt>
      <trkpt lat="44.85675" lon="5.58399">
        <ele>1224.604</ele>
        <time>2021-11-07T13:06:54Z</time>
      </trkpt>
      <trkpt lat="44.85651" lon="5.5841">
        <ele>1218.174</ele>
        <time>2021-11-07T13:06:59Z</time>
      </trkpt>
      <trkpt lat="44.8564" lon="5.5842">
        <ele>1210.854</ele>
        <time>2021-11-07T13:07:04Z</time>
      </trkpt>
      <trkpt lat="44.85634" lon="5.58422">
        <ele>1208.776</ele>
        <time>2021-11-07T13:07:09Z</time>
      </trkpt>
      <trkpt lat="44.8562" lon="5.5842">
        <ele>1205.208</ele>
        <time>2021-11-07T13:07:14Z</time>
      </trkpt>
      <trkpt lat="44.85597" lon="5.58404">
        <ele>1199.806</ele>
        <time>2021-11-07T13:07:19Z</time>
      </trkpt>
      <trkpt lat="44.85572" lon="5.58388">
        <ele>1193.327</ele>
        <time>2021-11-07T13:07:24Z</time>
      </trkpt>
      <trkpt lat="44.85548" lon="5.58372">
        <ele>1188.748</ele>
        <time>2021-11-07T13:07:29Z</time>
      </trkpt>
      <trkpt lat="44.85527" lon="5.58355">
        <ele>1183.96</ele>
        <time>2021-11-07T13:07:34Z</time>
      </trkpt>
      <trkpt lat="44.85518" lon="5.58352">
        <ele>1181.428</ele>
        <time>2021-11-07T13:07:39Z</time>
      </trkpt>
      <trkpt lat="44.85516" lon="5.58351">
        <ele>1181.907</ele>
        <time>2021-11-07T13:07:44Z</time>
      </trkpt>
      <trkpt lat="44.85516" lon="5.58351">
        <ele>1181.618</ele>
        <time>2021-11-07T13:07:49Z</time>
      </trkpt>
      <trkpt lat="44.85516" lon="5.58351">
        <ele>1181.514</ele>
        <time>2021-11-07T13:07:54Z</time>
      </trkpt>
      <trkpt lat="44.85516" lon="5.58351">
        <ele>1181.49</ele>
        <time>2021-11-07T13:07:59Z</time>
      </trkpt>
      <trkpt lat="44.85516" lon="5.58351">
        <ele>1181.465</ele>
        <time>2021-11-07T13:08:04Z</time>
      </trkpt>
      <trkpt lat="44.85516" lon="5.58351">
        <ele>1181.442</ele>
        <time>2021-11-07T13:08:09Z</time>
      </trkpt>
      <trkpt lat="44.85516" lon="5.58351">
        <ele>1181.441</ele>
        <time>2021-11-07T13:08:14Z</time>
      </trkpt>
      <trkpt lat="44.85516" lon="5.58351">
        <ele>1181.436</ele>
        <time>2021-11-07T13:08:19Z</time>
      </trkpt>
      <trkpt lat="44.85516" lon="5.58351">
        <ele>1181.416</ele>
        <time>2021-11-07T13:08:24Z</time>
      </trkpt>
      <trkpt lat="44.85516" lon="5.58351">
        <ele>1181.415</ele>
        <time>2021-11-07T13:08:29Z</time>
      </trkpt>
      <trkpt lat="44.85516" lon="5.58351">
        <ele>1181.426</ele>
        <time>2021-11-07T13:08:34Z</time>
      </trkpt>
      <trkpt lat="44.85516" lon="5.58351">
        <ele>1181.422</ele>
        <time>2021-11-07T13:08:39Z</time>
      </trkpt>
      <trkpt lat="44.85516" lon="5.58351">
        <ele>1181.412</ele>
        <time>2021-11-07T13:08:44Z</time>
      </trkpt>
      <trkpt lat="44.85516" lon="5.58351">
        <ele>1181.412</ele>
        <time>2021-11-07T13:08:49Z</time>
      </trkpt>
      <trkpt lat="44.85516" lon="5.58351">
        <ele>1181.409</ele>
        <time>2021-11-07T13:08:54Z</time>
      </trkpt>
      <trkpt lat="44.85516" lon="5.58351">
        <ele>1181.42</ele>
        <time>2021-11-07T13:08:59Z</time>
      </trkpt>
      <trkpt lat="44.85515" lon="5.58351">
        <ele>1182.116</ele>
        <time>2021-11-07T13:09:04Z</time>
      </trkpt>
      <trkpt lat="44.85516" lon="5.58351">
        <ele>1181.227</ele>
        <time>2021-11-07T13:09:09Z</time>
      </trkpt>
      <trkpt lat="44.85516" lon="5.58351">
        <ele>1180.628</ele>
        <time>2021-11-07T13:09:14Z</time>
      </trkpt>
      <trkpt lat="44.85516" lon="5.58351">
        <ele>1180.58</ele>
        <time>2021-11-07T13:09:19Z</time>
      </trkpt>
      <trkpt lat="44.85515" lon="5.58352">
        <ele>1181.263</ele>
        <time>2021-11-07T13:09:24Z</time>
      </trkpt>
      <trkpt lat="44.85515" lon="5.58352">
        <ele>1181.377</ele>
        <time>2021-11-07T13:09:29Z</time>
      </trkpt>
      <trkpt lat="44.85515" lon="5.58353">
        <ele>1181.197</ele>
        <time>2021-11-07T13:09:34Z</time>
      </trkpt>
      <trkpt lat="44.85515" lon="5.58353">
        <ele>1181.193</ele>
        <time>2021-11-07T13:09:39Z</time>
      </trkpt>
      <trkpt lat="44.85515" lon="5.58353">
        <ele>1181.192</ele>
        <time>2021-11-07T13:09:44Z</time>
      </trkpt>
      <trkpt lat="44.85515" lon="5.58353">
        <ele>1181.2</ele>
        <time>2021-11-07T13:09:49Z</time>
      </trkpt>
      <trkpt lat="44.85515" lon="5.58353">
        <ele>1181.203</ele>
        <time>2021-11-07T13:09:54Z</time>
      </trkpt>
      <trkpt lat="44.85515" lon="5.58353">
        <ele>1181.212</ele>
        <time>2021-11-07T13:09:59Z</time>
      </trkpt>
      <trkpt lat="44.85515" lon="5.58353">
        <ele>1181.219</ele>
        <time>2021-11-07T13:10:04Z</time>
      </trkpt>
      <trkpt lat="44.85515" lon="5.58353">
        <ele>1181.218</ele>
        <time>2021-11-07T13:10:09Z</time>
      </trkpt>
      <trkpt lat="44.85515" lon="5.58353">
        <ele>1181.234</ele>
        <time>2021-11-07T13:10:14Z</time>
      </trkpt>
      <trkpt lat="44.85515" lon="5.58353">
        <ele>1181.252</ele>
        <time>2021-11-07T13:10:19Z</time>
      </trkpt>
      <trkpt lat="44.85515" lon="5.58353">
        <ele>1181.263</ele>
        <time>2021-11-07T13:10:24Z</time>
      </trkpt>
      <trkpt lat="44.85515" lon="5.58353">
        <ele>1181.27</ele>
        <time>2021-11-07T13:10:29Z</time>
      </trkpt>
      <trkpt lat="44.85515" lon="5.58353">
        <ele>1181.277</ele>
        <time>2021-11-07T13:10:34Z</time>
      </trkpt>
      <trkpt lat="44.85515" lon="5.58352">
        <ele>1178.364</ele>
        <time>2021-11-07T13:10:39Z</time>
      </trkpt>
      <trkpt lat="44.85515" lon="5.58352">
        <ele>1177.876</ele>
        <time>2021-11-07T13:10:44Z</time>
      </trkpt>
      <trkpt lat="44.85515" lon="5.58352">
        <ele>1177.926</ele>
        <time>2021-11-07T13:10:49Z</time>
      </trkpt>
      <trkpt lat="44.85515" lon="5.58352">
        <ele>1177.931</ele>
        <time>2021-11-07T13:10:54Z</time>
      </trkpt>
      <trkpt lat="44.85515" lon="5.58352">
        <ele>1177.927</ele>
        <time>2021-11-07T13:10:59Z</time>
      </trkpt>
      <trkpt lat="44.85515" lon="5.58352">
        <ele>1177.927</ele>
        <time>2021-11-07T13:11:04Z</time>
      </trkpt>
      <trkpt lat="44.85503" lon="5.58355">
        <ele>1177.625</ele>
        <time>2021-11-07T13:11:09Z</time>
      </trkpt>
      <trkpt lat="44.85472" lon="5.5835">
        <ele>1175.978</ele>
        <time>2021-11-07T13:11:14Z</time>
      </trkpt>
      <trkpt lat="44.85435" lon="5.58338">
        <ele>1170.631</ele>
        <time>2021-11-07T13:11:19Z</time>
      </trkpt>
      <trkpt lat="44.8541" lon="5.58329">
        <ele>1168.816</ele>
        <time>2021-11-07T13:11:24Z</time>
      </trkpt>
      <trkpt lat="44.85393" lon="5.58318">
        <ele>1167.951</ele>
        <time>2021-11-07T13:11:29Z</time>
      </trkpt>
      <trkpt lat="44.85353" lon="5.58293">
        <ele>1164.987</ele>
        <time>2021-11-07T13:11:34Z</time>
      </trkpt>
      <trkpt lat="44.8533" lon="5.58279">
        <ele>1158.156</ele>
        <time>2021-11-07T13:11:39Z</time>
      </trkpt>
      <trkpt lat="44.85329" lon="5.58279">
        <ele>1156.735</ele>
        <time>2021-11-07T13:11:44Z</time>
      </trkpt>
      <trkpt lat="44.85328" lon="5.58279">
        <ele>1157.849</ele>
        <time>2021-11-07T13:11:49Z</time>
      </trkpt>
      <trkpt lat="44.85326" lon="5.58279">
        <ele>1157.78</ele>
        <time>2021-11-07T13:11:54Z</time>
      </trkpt>
      <trkpt lat="44.85315" lon="5.58269">
        <ele>1155.117</ele>
        <time>2021-11-07T13:11:59Z</time>
      </trkpt>
      <trkpt lat="44.85293" lon="5.58253">
        <ele>1150.192</ele>
        <time>2021-11-07T13:12:04Z</time>
      </trkpt>
      <trkpt lat="44.85275" lon="5.58216">
        <ele>1144.934</ele>
        <time>2021-11-07T13:12:09Z</time>
      </trkpt>
      <trkpt lat="44.85253" lon="5.58208">
        <ele>1140.199</ele>
        <time>2021-11-07T13:12:14Z</time>
      </trkpt>
      <trkpt lat="44.85229" lon="5.58208">
        <ele>1133.063</ele>
        <time>2021-11-07T13:12:19Z</time>
      </trkpt>
      <trkpt lat="44.85204" lon="5.58203">
        <ele>1128.123</ele>
        <time>2021-11-07T13:12:24Z</time>
      </trkpt>
      <trkpt lat="44.85173" lon="5.58196">
        <ele>1121.984</ele>
        <time>2021-11-07T13:12:29Z</time>
      </trkpt>
      <trkpt lat="44.85148" lon="5.58196">
        <ele>1114.246</ele>
        <time>2021-11-07T13:12:34Z</time>
      </trkpt>
      <trkpt lat="44.85138" lon="5.5819">
        <ele>1111.16</ele>
        <time>2021-11-07T13:12:39Z</time>
      </trkpt>
      <trkpt lat="44.85137" lon="5.58191">
        <ele>1108.81</ele>
        <time>2021-11-07T13:12:44Z</time>
      </trkpt>
      <trkpt lat="44.85137" lon="5.58191">
        <ele>1108.713</ele>
        <time>2021-11-07T13:12:49Z</time>
      </trkpt>
      <trkpt lat="44.85136" lon="5.58191">
        <ele>1108.732</ele>
        <time>2021-11-07T13:12:54Z</time>
      </trkpt>
      <trkpt lat="44.85136" lon="5.58191">
        <ele>1108.734</ele>
        <time>2021-11-07T13:12:59Z</time>
      </trkpt>
      <trkpt lat="44.85136" lon="5.58191">
        <ele>1108.74</ele>
        <time>2021-11-07T13:13:04Z</time>
      </trkpt>
      <trkpt lat="44.85135" lon="5.58189">
        <ele>1106.512</ele>
        <time>2021-11-07T13:13:09Z</time>
      </trkpt>
      <trkpt lat="44.85121" lon="5.58162">
        <ele>1102.58</ele>
        <time>2021-11-07T13:13:14Z</time>
      </trkpt>
      <trkpt lat="44.85109" lon="5.58141">
        <ele>1100.08</ele>
        <time>2021-11-07T13:13:19Z</time>
      </trkpt>
      <trkpt lat="44.85092" lon="5.58124">
        <ele>1095.975</ele>
        <time>2021-11-07T13:13:24Z</time>
      </trkpt>
      <trkpt lat="44.85076" lon="5.58113">
        <ele>1093.631</ele>
        <time>2021-11-07T13:13:29Z</time>
      </trkpt>
      <trkpt lat="44.85065" lon="5.58105">
        <ele>1090.005</ele>
        <time>2021-11-07T13:13:34Z</time>
      </trkpt>
      <trkpt lat="44.85055" lon="5.58094">
        <ele>1087.191</ele>
        <time>2021-11-07T13:13:39Z</time>
      </trkpt>
      <trkpt lat="44.85042" lon="5.58086">
        <ele>1083.239</ele>
        <time>2021-11-07T13:13:44Z</time>
      </trkpt>
      <trkpt lat="44.8503" lon="5.58084">
        <ele>1078.998</ele>
        <time>2021-11-07T13:13:49Z</time>
      </trkpt>
      <trkpt lat="44.85017" lon="5.58071">
        <ele>1075.32</ele>
        <time>2021-11-07T13:13:54Z</time>
      </trkpt>
      <trkpt lat="44.85007" lon="5.58055">
        <ele>1070.007</ele>
        <time>2021-11-07T13:13:59Z</time>
      </trkpt>
      <trkpt lat="44.84992" lon="5.58042">
        <ele>1064.279</ele>
        <time>2021-11-07T13:14:04Z</time>
      </trkpt>
      <trkpt lat="44.84972" lon="5.58031">
        <ele>1061.132</ele>
        <time>2021-11-07T13:14:09Z</time>
      </trkpt>
      <trkpt lat="44.84944" lon="5.58031">
        <ele>1058.026</ele>
        <time>2021-11-07T13:14:14Z</time>
      </trkpt>
      <trkpt lat="44.84924" lon="5.5803">
        <ele>1052.447</ele>
        <time>2021-11-07T13:14:19Z</time>
      </trkpt>
      <trkpt lat="44.84897" lon="5.58022">
        <ele>1047.331</ele>
        <time>2021-11-07T13:14:24Z</time>
      </trkpt>
      <trkpt lat="44.84869" lon="5.58018">
        <ele>1046.75</ele>
        <time>2021-11-07T13:14:29Z</time>
      </trkpt>
      <trkpt lat="44.84848" lon="5.58015">
        <ele>1042.679</ele>
        <time>2021-11-07T13:14:34Z</time>
      </trkpt>
      <trkpt lat="44.84836" lon="5.58002">
        <ele>1042.353</ele>
        <time>2021-11-07T13:14:39Z</time>
      </trkpt>
      <trkpt lat="44.84823" lon="5.57983">
        <ele>1036.631</ele>
        <time>2021-11-07T13:14:44Z</time>
      </trkpt>
      <trkpt lat="44.84806" lon="5.57981">
        <ele>1034.524</ele>
        <time>2021-11-07T13:14:49Z</time>
      </trkpt>
      <trkpt lat="44.84795" lon="5.57972">
        <ele>1034.474</ele>
        <time>2021-11-07T13:14:54Z</time>
      </trkpt>
      <trkpt lat="44.84795" lon="5.57968">
        <ele>1032.3</ele>
        <time>2021-11-07T13:14:59Z</time>
      </trkpt>
      <trkpt lat="44.84796" lon="5.57967">
        <ele>1031.019</ele>
        <time>2021-11-07T13:15:04Z</time>
      </trkpt>
      <trkpt lat="44.84796" lon="5.57967">
        <ele>1031.659</ele>
        <time>2021-11-07T13:15:09Z</time>
      </trkpt>
      <trkpt lat="44.84796" lon="5.57967">
        <ele>1031.68</ele>
        <time>2021-11-07T13:15:14Z</time>
      </trkpt>
      <trkpt lat="44.84796" lon="5.57967">
        <ele>1031.681</ele>
        <time>2021-11-07T13:15:19Z</time>
      </trkpt>
      <trkpt lat="44.84796" lon="5.57967">
        <ele>1031.679</ele>
        <time>2021-11-07T13:15:24Z</time>
      </trkpt>
      <trkpt lat="44.84796" lon="5.57967">
        <ele>1031.667</ele>
        <time>2021-11-07T13:15:29Z</time>
      </trkpt>
      <trkpt lat="44.84796" lon="5.57967">
        <ele>1031.67</ele>
        <time>2021-11-07T13:15:34Z</time>
      </trkpt>
      <trkpt lat="44.84795" lon="5.57967">
        <ele>1031.674</ele>
        <time>2021-11-07T13:15:39Z</time>
      </trkpt>
      <trkpt lat="44.84795" lon="5.57967">
        <ele>1031.674</ele>
        <time>2021-11-07T13:15:44Z</time>
      </trkpt>
      <trkpt lat="44.84795" lon="5.57967">
        <ele>1031.661</ele>
        <time>2021-11-07T13:15:49Z</time>
      </trkpt>
      <trkpt lat="44.84795" lon="5.57967">
        <ele>1031.659</ele>
        <time>2021-11-07T13:15:54Z</time>
      </trkpt>
      <trkpt lat="44.84795" lon="5.57967">
        <ele>1031.653</ele>
        <time>2021-11-07T13:15:59Z</time>
      </trkpt>
      <trkpt lat="44.84795" lon="5.57967">
        <ele>1031.656</ele>
        <time>2021-11-07T13:16:04Z</time>
      </trkpt>
      <trkpt lat="44.84795" lon="5.57967">
        <ele>1031.645</ele>
        <time>2021-11-07T13:16:09Z</time>
      </trkpt>
      <trkpt lat="44.84795" lon="5.57967">
        <ele>1031.634</ele>
        <time>2021-11-07T13:16:14Z</time>
      </trkpt>
      <trkpt lat="44.84795" lon="5.57967">
        <ele>1031.654</ele>
        <time>2021-11-07T13:16:19Z</time>
      </trkpt>
      <trkpt lat="44.84795" lon="5.57967">
        <ele>1031.681</ele>
        <time>2021-11-07T13:16:24Z</time>
      </trkpt>
      <trkpt lat="44.84795" lon="5.57967">
        <ele>1031.679</ele>
        <time>2021-11-07T13:16:29Z</time>
      </trkpt>
      <trkpt lat="44.84795" lon="5.57967">
        <ele>1031.668</ele>
        <time>2021-11-07T13:16:34Z</time>
      </trkpt>
      <trkpt lat="44.84795" lon="5.57967">
        <ele>1031.663</ele>
        <time>2021-11-07T13:16:39Z</time>
      </trkpt>
      <trkpt lat="44.84795" lon="5.57967">
        <ele>1031.643</ele>
        <time>2021-11-07T13:16:44Z</time>
      </trkpt>
      <trkpt lat="44.84795" lon="5.57967">
        <ele>1031.658</ele>
        <time>2021-11-07T13:16:49Z</time>
      </trkpt>
      <trkpt lat="44.84795" lon="5.57967">
        <ele>1031.655</ele>
        <time>2021-11-07T13:16:54Z</time>
      </trkpt>
      <trkpt lat="44.84795" lon="5.57967">
        <ele>1031.655</ele>
        <time>2021-11-07T13:16:59Z</time>
      </trkpt>
      <trkpt lat="44.84795" lon="5.57967">
        <ele>1031.656</ele>
        <time>2021-11-07T13:17:04Z</time>
      </trkpt>
      <trkpt lat="44.84795" lon="5.57967">
        <ele>1031.647</ele>
        <time>2021-11-07T13:17:09Z</time>
      </trkpt>
      <trkpt lat="44.84795" lon="5.57967">
        <ele>1031.618</ele>
        <time>2021-11-07T13:17:14Z</time>
      </trkpt>
      <trkpt lat="44.84795" lon="5.57967">
        <ele>1031.61</ele>
        <time>2021-11-07T13:17:19Z</time>
      </trkpt>
      <trkpt lat="44.84795" lon="5.57967">
        <ele>1031.61</ele>
        <time>2021-11-07T13:17:24Z</time>
      </trkpt>
      <trkpt lat="44.84795" lon="5.57967">
        <ele>1031.746</ele>
        <time>2021-11-07T13:17:29Z</time>
      </trkpt>
      <trkpt lat="44.84787" lon="5.57968">
        <ele>1032.578</ele>
        <time>2021-11-07T13:17:34Z</time>
      </trkpt>
      <trkpt lat="44.84768" lon="5.57972">
        <ele>1031.181</ele>
        <time>2021-11-07T13:17:39Z</time>
      </trkpt>
      <trkpt lat="44.84746" lon="5.5798">
        <ele>1031.505</ele>
        <time>2021-11-07T13:17:44Z</time>
      </trkpt>
      <trkpt lat="44.84721" lon="5.5799">
        <ele>1031.975</ele>
        <time>2021-11-07T13:17:49Z</time>
      </trkpt>
      <trkpt lat="44.84691" lon="5.57996">
        <ele>1030.426</ele>
        <time>2021-11-07T13:17:54Z</time>
      </trkpt>
      <trkpt lat="44.84662" lon="5.57985">
        <ele>1028.896</ele>
        <time>2021-11-07T13:17:59Z</time>
      </trkpt>
      <trkpt lat="44.84645" lon="5.57978">
        <ele>1028.377</ele>
        <time>2021-11-07T13:18:04Z</time>
      </trkpt>
      <trkpt lat="44.8464" lon="5.57964">
        <ele>1027.078</ele>
        <time>2021-11-07T13:18:09Z</time>
      </trkpt>
      <trkpt lat="44.84634" lon="5.57947">
        <ele>1026.633</ele>
        <time>2021-11-07T13:18:14Z</time>
      </trkpt>
      <trkpt lat="44.84616" lon="5.57947">
        <ele>1025.411</ele>
        <time>2021-11-07T13:18:19Z</time>
      </trkpt>
      <trkpt lat="44.84596" lon="5.57951">
        <ele>1024.989</ele>
        <time>2021-11-07T13:18:24Z</time>
      </trkpt>
      <trkpt lat="44.84579" lon="5.57953">
        <ele>1024.748</ele>
        <time>2021-11-07T13:18:29Z</time>
      </trkpt>
      <trkpt lat="44.84563" lon="5.57958">
        <ele>1025.649</ele>
        <time>2021-11-07T13:18:34Z</time>
      </trkpt>
      <trkpt lat="44.84551" lon="5.5797">
        <ele>1024.204</ele>
        <time>2021-11-07T13:18:39Z</time>
      </trkpt>
      <trkpt lat="44.84539" lon="5.58001">
        <ele>1023.161</ele>
        <time>2021-11-07T13:18:44Z</time>
      </trkpt>
      <trkpt lat="44.84519" lon="5.58021">
        <ele>1022.975</ele>
        <time>2021-11-07T13:18:49Z</time>
      </trkpt>
      <trkpt lat="44.84494" lon="5.58019">
        <ele>1022.241</ele>
        <time>2021-11-07T13:18:54Z</time>
      </trkpt>
      <trkpt lat="44.84486" lon="5.58002">
        <ele>1021.004</ele>
        <time>2021-11-07T13:18:59Z</time>
      </trkpt>
      <trkpt lat="44.84487" lon="5.57991">
        <ele>1020.502</ele>
        <time>2021-11-07T13:19:04Z</time>
      </trkpt>
      <trkpt lat="44.84488" lon="5.57991">
        <ele>1021.194</ele>
        <time>2021-11-07T13:19:09Z</time>
      </trkpt>
      <trkpt lat="44.84489" lon="5.57992">
        <ele>1020.749</ele>
        <time>2021-11-07T13:19:14Z</time>
      </trkpt>
      <trkpt lat="44.84489" lon="5.58">
        <ele>1020.66</ele>
        <time>2021-11-07T13:19:19Z</time>
      </trkpt>
      <trkpt lat="44.84486" lon="5.58011">
        <ele>1020.856</ele>
        <time>2021-11-07T13:19:24Z</time>
      </trkpt>
      <trkpt lat="44.8448" lon="5.58016">
        <ele>1019.952</ele>
        <time>2021-11-07T13:19:29Z</time>
      </trkpt>
      <trkpt lat="44.84465" lon="5.58012">
        <ele>1018.408</ele>
        <time>2021-11-07T13:19:34Z</time>
      </trkpt>
      <trkpt lat="44.84449" lon="5.58018">
        <ele>1017.525</ele>
        <time>2021-11-07T13:19:39Z</time>
      </trkpt>
      <trkpt lat="44.84439" lon="5.58021">
        <ele>1016.777</ele>
        <time>2021-11-07T13:19:44Z</time>
      </trkpt>
      <trkpt lat="44.84438" lon="5.58021">
        <ele>1016.003</ele>
        <time>2021-11-07T13:19:49Z</time>
      </trkpt>
      <trkpt lat="44.84437" lon="5.58021">
        <ele>1016.106</ele>
        <time>2021-11-07T13:19:54Z</time>
      </trkpt>
      <trkpt lat="44.84437" lon="5.58021">
        <ele>1016.333</ele>
        <time>2021-11-07T13:19:59Z</time>
      </trkpt>
      <trkpt lat="44.84437" lon="5.58021">
        <ele>1016.337</ele>
        <time>2021-11-07T13:20:04Z</time>
      </trkpt>
      <trkpt lat="44.84437" lon="5.58021">
        <ele>1016.321</ele>
        <time>2021-11-07T13:20:09Z</time>
      </trkpt>
      <trkpt lat="44.84437" lon="5.58021">
        <ele>1016.31</ele>
        <time>2021-11-07T13:20:14Z</time>
      </trkpt>
      <trkpt lat="44.84437" lon="5.58021">
        <ele>1016.3</ele>
        <time>2021-11-07T13:20:19Z</time>
      </trkpt>
      <trkpt lat="44.84437" lon="5.58021">
        <ele>1016.29</ele>
        <time>2021-11-07T13:20:24Z</time>
      </trkpt>
      <trkpt lat="44.84437" lon="5.58021">
        <ele>1016.287</ele>
        <time>2021-11-07T13:20:29Z</time>
      </trkpt>
      <trkpt lat="44.84437" lon="5.58021">
        <ele>1016.28</ele>
        <time>2021-11-07T13:20:34Z</time>
      </trkpt>
      <trkpt lat="44.84437" lon="5.58021">
        <ele>1016.273</ele>
        <time>2021-11-07T13:20:39Z</time>
      </trkpt>
      <trkpt lat="44.84437" lon="5.58021">
        <ele>1016.263</ele>
        <time>2021-11-07T13:20:44Z</time>
      </trkpt>
      <trkpt lat="44.84437" lon="5.58021">
        <ele>1016.249</ele>
        <time>2021-11-07T13:20:49Z</time>
      </trkpt>
      <trkpt lat="44.84436" lon="5.58022">
        <ele>1016.611</ele>
        <time>2021-11-07T13:20:54Z</time>
      </trkpt>
      <trkpt lat="44.84431" lon="5.5803">
        <ele>1017.156</ele>
        <time>2021-11-07T13:20:59Z</time>
      </trkpt>
      <trkpt lat="44.84421" lon="5.58039">
        <ele>1016.565</ele>
        <time>2021-11-07T13:21:04Z</time>
      </trkpt>
      <trkpt lat="44.8441" lon="5.5805">
        <ele>1016.085</ele>
        <time>2021-11-07T13:21:09Z</time>
      </trkpt>
      <trkpt lat="44.84396" lon="5.58061">
        <ele>1015.306</ele>
        <time>2021-11-07T13:21:14Z</time>
      </trkpt>
      <trkpt lat="44.84381" lon="5.58068">
        <ele>1014.861</ele>
        <time>2021-11-07T13:21:19Z</time>
      </trkpt>
      <trkpt lat="44.84369" lon="5.58082">
        <ele>1014.319</ele>
        <time>2021-11-07T13:21:24Z</time>
      </trkpt>
      <trkpt lat="44.84361" lon="5.58107">
        <ele>1014.737</ele>
        <time>2021-11-07T13:21:29Z</time>
      </trkpt>
      <trkpt lat="44.84356" lon="5.58128">
        <ele>1015.461</ele>
        <time>2021-11-07T13:21:34Z</time>
      </trkpt>
      <trkpt lat="44.84345" lon="5.5815">
        <ele>1014.611</ele>
        <time>2021-11-07T13:21:39Z</time>
      </trkpt>
      <trkpt lat="44.84327" lon="5.58167">
        <ele>1014.171</ele>
        <time>2021-11-07T13:21:44Z</time>
      </trkpt>
      <trkpt lat="44.84305" lon="5.58177">
        <ele>1014.928</ele>
        <time>2021-11-07T13:21:49Z</time>
      </trkpt>
      <trkpt lat="44.84286" lon="5.58191">
        <ele>1012.976</ele>
        <time>2021-11-07T13:21:54Z</time>
      </trkpt>
      <trkpt lat="44.84271" lon="5.58204">
        <ele>1014.323</ele>
        <time>2021-11-07T13:21:59Z</time>
      </trkpt>
      <trkpt lat="44.84255" lon="5.58216">
        <ele>1014.281</ele>
        <time>2021-11-07T13:22:04Z</time>
      </trkpt>
      <trkpt lat="44.84238" lon="5.58224">
        <ele>1014.135</ele>
        <time>2021-11-07T13:22:09Z</time>
      </trkpt>
      <trkpt lat="44.84217" lon="5.58229">
        <ele>1014.383</ele>
        <time>2021-11-07T13:22:14Z</time>
      </trkpt>
      <trkpt lat="44.84198" lon="5.58234">
        <ele>1014.012</ele>
        <time>2021-11-07T13:22:19Z</time>
      </trkpt>
      <trkpt lat="44.84182" lon="5.58241">
        <ele>1016.178</ele>
        <time>2021-11-07T13:22:24Z</time>
      </trkpt>
      <trkpt lat="44.84165" lon="5.58247">
        <ele>1018.039</ele>
        <time>2021-11-07T13:22:29Z</time>
      </trkpt>
      <trkpt lat="44.84147" lon="5.58255">
        <ele>1018.304</ele>
        <time>2021-11-07T13:22:34Z</time>
      </trkpt>
      <trkpt lat="44.84133" lon="5.58262">
        <ele>1019.012</ele>
        <time>2021-11-07T13:22:39Z</time>
      </trkpt>
      <trkpt lat="44.84121" lon="5.58268">
        <ele>1021.464</ele>
        <time>2021-11-07T13:22:44Z</time>
      </trkpt>
      <trkpt lat="44.84111" lon="5.58271">
        <ele>1022.947</ele>
        <time>2021-11-07T13:22:49Z</time>
      </trkpt>
      <trkpt lat="44.84102" lon="5.58275">
        <ele>1025.233</ele>
        <time>2021-11-07T13:22:54Z</time>
      </trkpt>
      <trkpt lat="44.84093" lon="5.5828">
        <ele>1026.834</ele>
        <time>2021-11-07T13:22:59Z</time>
      </trkpt>
      <trkpt lat="44.84086" lon="5.58285">
        <ele>1027.336</ele>
        <time>2021-11-07T13:23:04Z</time>
      </trkpt>
      <trkpt lat="44.84079" lon="5.58291">
        <ele>1026.969</ele>
        <time>2021-11-07T13:23:09Z</time>
      </trkpt>
      <trkpt lat="44.84068" lon="5.58296">
        <ele>1027.008</ele>
        <time>2021-11-07T13:23:14Z</time>
      </trkpt>
      <trkpt lat="44.84053" lon="5.58294">
        <ele>1026.283</ele>
        <time>2021-11-07T13:23:19Z</time>
      </trkpt>
      <trkpt lat="44.84036" lon="5.58285">
        <ele>1025.858</ele>
        <time>2021-11-07T13:23:24Z</time>
      </trkpt>
      <trkpt lat="44.84011" lon="5.58271">
        <ele>1023.647</ele>
        <time>2021-11-07T13:23:29Z</time>
      </trkpt>
      <trkpt lat="44.83978" lon="5.58257">
        <ele>1020.389</ele>
        <time>2021-11-07T13:23:34Z</time>
      </trkpt>
      <trkpt lat="44.83944" lon="5.58241">
        <ele>1017.61</ele>
        <time>2021-11-07T13:23:39Z</time>
      </trkpt>
      <trkpt lat="44.83914" lon="5.58242">
        <ele>1018.734</ele>
        <time>2021-11-07T13:23:44Z</time>
      </trkpt>
      <trkpt lat="44.83886" lon="5.58264">
        <ele>1013.93</ele>
        <time>2021-11-07T13:23:49Z</time>
      </trkpt>
      <trkpt lat="44.83855" lon="5.58281">
        <ele>1010.824</ele>
        <time>2021-11-07T13:23:54Z</time>
      </trkpt>
      <trkpt lat="44.83825" lon="5.58293">
        <ele>1008.174</ele>
        <time>2021-11-07T13:23:59Z</time>
      </trkpt>
      <trkpt lat="44.83797" lon="5.58303">
        <ele>1005.9</ele>
        <time>2021-11-07T13:24:04Z</time>
      </trkpt>
      <trkpt lat="44.83772" lon="5.58313">
        <ele>1003.846</ele>
        <time>2021-11-07T13:24:09Z</time>
      </trkpt>
      <trkpt lat="44.83746" lon="5.58318">
        <ele>1004.454</ele>
        <time>2021-11-07T13:24:14Z</time>
      </trkpt>
      <trkpt lat="44.8374" lon="5.58315">
        <ele>1004.917</ele>
        <time>2021-11-07T13:24:19Z</time>
      </trkpt>
      <trkpt lat="44.83739" lon="5.58314">
        <ele>1006.155</ele>
        <time>2021-11-07T13:24:24Z</time>
      </trkpt>
      <trkpt lat="44.83739" lon="5.58314">
        <ele>1006.022</ele>
        <time>2021-11-07T13:24:29Z</time>
      </trkpt>
      <trkpt lat="44.83739" lon="5.58314">
        <ele>1006.015</ele>
        <time>2021-11-07T13:24:34Z</time>
      </trkpt>
      <trkpt lat="44.83728" lon="5.58314">
        <ele>1001.624</ele>
        <time>2021-11-07T13:24:39Z</time>
      </trkpt>
      <trkpt lat="44.83711" lon="5.58309">
        <ele>1001.262</ele>
        <time>2021-11-07T13:24:44Z</time>
      </trkpt>
      <trkpt lat="44.8369" lon="5.58305">
        <ele>999.288</ele>
        <time>2021-11-07T13:24:49Z</time>
      </trkpt>
      <trkpt lat="44.83666" lon="5.58294">
        <ele>998.008</ele>
        <time>2021-11-07T13:24:54Z</time>
      </trkpt>
      <trkpt lat="44.83638" lon="5.58287">
        <ele>996.888</ele>
        <time>2021-11-07T13:24:59Z</time>
      </trkpt>
      <trkpt lat="44.83608" lon="5.58287">
        <ele>994.35</ele>
        <time>2021-11-07T13:25:04Z</time>
      </trkpt>
      <trkpt lat="44.83593" lon="5.58293">
        <ele>993.118</ele>
        <time>2021-11-07T13:25:09Z</time>
      </trkpt>
      <trkpt lat="44.83585" lon="5.58295">
        <ele>990.812</ele>
        <time>2021-11-07T13:25:14Z</time>
      </trkpt>
      <trkpt lat="44.8358" lon="5.58297">
        <ele>990.059</ele>
        <time>2021-11-07T13:25:19Z</time>
      </trkpt>
      <trkpt lat="44.83575" lon="5.583">
        <ele>988.12</ele>
        <time>2021-11-07T13:25:24Z</time>
      </trkpt>
      <trkpt lat="44.83561" lon="5.5831">
        <ele>985.837</ele>
        <time>2021-11-07T13:25:29Z</time>
      </trkpt>
      <trkpt lat="44.8353" lon="5.58336">
        <ele>982.069</ele>
        <time>2021-11-07T13:25:34Z</time>
      </trkpt>
      <trkpt lat="44.83502" lon="5.58346">
        <ele>978.229</ele>
        <time>2021-11-07T13:25:39Z</time>
      </trkpt>
      <trkpt lat="44.83488" lon="5.58351">
        <ele>974.446</ele>
        <time>2021-11-07T13:25:44Z</time>
      </trkpt>
      <trkpt lat="44.83472" lon="5.58353">
        <ele>969.271</ele>
        <time>2021-11-07T13:25:49Z</time>
      </trkpt>
      <trkpt lat="44.83452" lon="5.58354">
        <ele>964.475</ele>
        <time>2021-11-07T13:25:54Z</time>
      </trkpt>
      <trkpt lat="44.83432" lon="5.58358">
        <ele>959.534</ele>
        <time>2021-11-07T13:25:59Z</time>
      </trkpt>
      <trkpt lat="44.83423" lon="5.58391">
        <ele>955.72</ele>
        <time>2021-11-07T13:26:04Z</time>
      </trkpt>
      <trkpt lat="44.83405" lon="5.58423">
        <ele>952.639</ele>
        <time>2021-11-07T13:26:09Z</time>
      </trkpt>
      <trkpt lat="44.83384" lon="5.58451">
        <ele>950.704</ele>
        <time>2021-11-07T13:26:14Z</time>
      </trkpt>
      <trkpt lat="44.83374" lon="5.58468">
        <ele>948.228</ele>
        <time>2021-11-07T13:26:19Z</time>
      </trkpt>
      <trkpt lat="44.83366" lon="5.58493">
        <ele>945.178</ele>
        <time>2021-11-07T13:26:24Z</time>
      </trkpt>
      <trkpt lat="44.83354" lon="5.58527">
        <ele>936.719</ele>
        <time>2021-11-07T13:26:29Z</time>
      </trkpt>
      <trkpt lat="44.83344" lon="5.58559">
        <ele>930.036</ele>
        <time>2021-11-07T13:26:34Z</time>
      </trkpt>
      <trkpt lat="44.83333" lon="5.58585">
        <ele>925.278</ele>
        <time>2021-11-07T13:26:39Z</time>
      </trkpt>
      <trkpt lat="44.83325" lon="5.58612">
        <ele>917.779</ele>
        <time>2021-11-07T13:26:44Z</time>
      </trkpt>
      <trkpt lat="44.83314" lon="5.58638">
        <ele>913.415</ele>
        <time>2021-11-07T13:26:49Z</time>
      </trkpt>
      <trkpt lat="44.83306" lon="5.58662">
        <ele>907.27</ele>
        <time>2021-11-07T13:26:54Z</time>
      </trkpt>
      <trkpt lat="44.83299" lon="5.58675">
        <ele>906.05</ele>
        <time>2021-11-07T13:26:59Z</time>
      </trkpt>
      <trkpt lat="44.83294" lon="5.58684">
        <ele>905.153</ele>
        <time>2021-11-07T13:27:04Z</time>
      </trkpt>
      <trkpt lat="44.83293" lon="5.58688">
        <ele>904.52</ele>
        <time>2021-11-07T13:27:09Z</time>
      </trkpt>
      <trkpt lat="44.83292" lon="5.58689">
        <ele>904.001</ele>
        <time>2021-11-07T13:27:14Z</time>
      </trkpt>
      <trkpt lat="44.83292" lon="5.58689">
        <ele>903.489</ele>
        <time>2021-11-07T13:27:19Z</time>
      </trkpt>
      <trkpt lat="44.83292" lon="5.58689">
        <ele>903.453</ele>
        <time>2021-11-07T13:27:24Z</time>
      </trkpt>
      <trkpt lat="44.83292" lon="5.58689">
        <ele>903.502</ele>
        <time>2021-11-07T13:27:29Z</time>
      </trkpt>
      <trkpt lat="44.83291" lon="5.58689">
        <ele>903.695</ele>
        <time>2021-11-07T13:27:34Z</time>
      </trkpt>
      <trkpt lat="44.83291" lon="5.58689">
        <ele>903.725</ele>
        <time>2021-11-07T13:27:39Z</time>
      </trkpt>
      <trkpt lat="44.83291" lon="5.58689">
        <ele>903.748</ele>
        <time>2021-11-07T13:27:44Z</time>
      </trkpt>
      <trkpt lat="44.83291" lon="5.58689">
        <ele>903.747</ele>
        <time>2021-11-07T13:27:49Z</time>
      </trkpt>
      <trkpt lat="44.83291" lon="5.58689">
        <ele>903.736</ele>
        <time>2021-11-07T13:27:54Z</time>
      </trkpt>
      <trkpt lat="44.83291" lon="5.58689">
        <ele>903.699</ele>
        <time>2021-11-07T13:28:00Z</time>
      </trkpt>
      <trkpt lat="44.83291" lon="5.58689">
        <ele>903.682</ele>
        <time>2021-11-07T13:28:05Z</time>
      </trkpt>
      <trkpt lat="44.83291" lon="5.58689">
        <ele>903.665</ele>
        <time>2021-11-07T13:28:10Z</time>
      </trkpt>
      <trkpt lat="44.83291" lon="5.58689">
        <ele>903.628</ele>
        <time>2021-11-07T13:28:15Z</time>
      </trkpt>
      <trkpt lat="44.83291" lon="5.58689">
        <ele>903.623</ele>
        <time>2021-11-07T13:28:20Z</time>
      </trkpt>
      <trkpt lat="44.83291" lon="5.58689">
        <ele>903.613</ele>
        <time>2021-11-07T13:28:25Z</time>
      </trkpt>
      <trkpt lat="44.83291" lon="5.58689">
        <ele>903.593</ele>
        <time>2021-11-07T13:28:30Z</time>
      </trkpt>
      <trkpt lat="44.83291" lon="5.58689">
        <ele>903.588</ele>
        <time>2021-11-07T13:28:35Z</time>
      </trkpt>
      <trkpt lat="44.83291" lon="5.58689">
        <ele>903.584</ele>
        <time>2021-11-07T13:28:40Z</time>
      </trkpt>
      <trkpt lat="44.83291" lon="5.58689">
        <ele>903.576</ele>
        <time>2021-11-07T13:28:45Z</time>
      </trkpt>
      <trkpt lat="44.83291" lon="5.58689">
        <ele>903.571</ele>
        <time>2021-11-07T13:28:50Z</time>
      </trkpt>
      <trkpt lat="44.83291" lon="5.58689">
        <ele>903.561</ele>
        <time>2021-11-07T13:28:55Z</time>
      </trkpt>
      <trkpt lat="44.83291" lon="5.58689">
        <ele>903.546</ele>
        <time>2021-11-07T13:29:00Z</time>
      </trkpt>
      <trkpt lat="44.83291" lon="5.58689">
        <ele>903.535</ele>
        <time>2021-11-07T13:29:05Z</time>
      </trkpt>
      <trkpt lat="44.83291" lon="5.58689">
        <ele>903.522</ele>
        <time>2021-11-07T13:29:10Z</time>
      </trkpt>
      <trkpt lat="44.83291" lon="5.58689">
        <ele>903.493</ele>
        <time>2021-11-07T13:29:15Z</time>
      </trkpt>
      <trkpt lat="44.83291" lon="5.58689">
        <ele>902.434</ele>
        <time>2021-11-07T13:29:20Z</time>
      </trkpt>
      <trkpt lat="44.83288" lon="5.58698">
        <ele>901.16</ele>
        <time>2021-11-07T13:29:25Z</time>
      </trkpt>
      <trkpt lat="44.83268" lon="5.58724">
        <ele>893.278</ele>
        <time>2021-11-07T13:29:30Z</time>
      </trkpt>
      <trkpt lat="44.83249" lon="5.58753">
        <ele>885.703</ele>
        <time>2021-11-07T13:29:35Z</time>
      </trkpt>
      <trkpt lat="44.83228" lon="5.58777">
        <ele>878.094</ele>
        <time>2021-11-07T13:29:40Z</time>
      </trkpt>
      <trkpt lat="44.83214" lon="5.588">
        <ele>873.698</ele>
        <time>2021-11-07T13:29:45Z</time>
      </trkpt>
      <trkpt lat="44.83206" lon="5.58811">
        <ele>873.378</ele>
        <time>2021-11-07T13:29:50Z</time>
      </trkpt>
      <trkpt lat="44.83195" lon="5.58822">
        <ele>869.695</ele>
        <time>2021-11-07T13:29:55Z</time>
      </trkpt>
      <trkpt lat="44.83182" lon="5.58833">
        <ele>867.519</ele>
        <time>2021-11-07T13:30:00Z</time>
      </trkpt>
      <trkpt lat="44.8317" lon="5.58843">
        <ele>863.24</ele>
        <time>2021-11-07T13:30:05Z</time>
      </trkpt>
      <trkpt lat="44.83159" lon="5.58855">
        <ele>860.748</ele>
        <time>2021-11-07T13:30:10Z</time>
      </trkpt>
      <trkpt lat="44.8315" lon="5.58871">
        <ele>858.17</ele>
        <time>2021-11-07T13:30:15Z</time>
      </trkpt>
      <trkpt lat="44.83137" lon="5.58894">
        <ele>852.456</ele>
        <time>2021-11-07T13:30:20Z</time>
      </trkpt>
      <trkpt lat="44.8313" lon="5.58925">
        <ele>846.835</ele>
        <time>2021-11-07T13:30:25Z</time>
      </trkpt>
      <trkpt lat="44.83129" lon="5.58962">
        <ele>843.867</ele>
        <time>2021-11-07T13:30:30Z</time>
      </trkpt>
      <trkpt lat="44.83135" lon="5.58986">
        <ele>842.447</ele>
        <time>2021-11-07T13:30:35Z</time>
      </trkpt>
      <trkpt lat="44.83134" lon="5.58991">
        <ele>842.094</ele>
        <time>2021-11-07T13:30:40Z</time>
      </trkpt>
      <trkpt lat="44.83134" lon="5.58991">
        <ele>842.331</ele>
        <time>2021-11-07T13:30:45Z</time>
      </trkpt>
      <trkpt lat="44.83135" lon="5.58991">
        <ele>842.54</ele>
        <time>2021-11-07T13:30:50Z</time>
      </trkpt>
      <trkpt lat="44.83135" lon="5.58991">
        <ele>842.527</ele>
        <time>2021-11-07T13:30:55Z</time>
      </trkpt>
      <trkpt lat="44.83132" lon="5.58988">
        <ele>842.257</ele>
        <time>2021-11-07T13:31:00Z</time>
      </trkpt>
      <trkpt lat="44.83132" lon="5.58985">
        <ele>842.566</ele>
        <time>2021-11-07T13:31:05Z</time>
      </trkpt>
      <trkpt lat="44.83131" lon="5.58981">
        <ele>843.728</ele>
        <time>2021-11-07T13:31:10Z</time>
      </trkpt>
      <trkpt lat="44.83131" lon="5.58979">
        <ele>842.23</ele>
        <time>2021-11-07T13:31:15Z</time>
      </trkpt>
      <trkpt lat="44.83135" lon="5.58978">
        <ele>842.714</ele>
        <time>2021-11-07T13:31:20Z</time>
      </trkpt>
      <trkpt lat="44.83136" lon="5.58983">
        <ele>843.952</ele>
        <time>2021-11-07T13:31:25Z</time>
      </trkpt>
      <trkpt lat="44.83138" lon="5.58998">
        <ele>842.213</ele>
        <time>2021-11-07T13:31:30Z</time>
      </trkpt>
      <trkpt lat="44.83145" lon="5.59012">
        <ele>844.31</ele>
        <time>2021-11-07T13:31:35Z</time>
      </trkpt>
      <trkpt lat="44.83151" lon="5.59028">
        <ele>845.901</ele>
        <time>2021-11-07T13:31:40Z</time>
      </trkpt>
      <trkpt lat="44.83159" lon="5.59044">
        <ele>846.149</ele>
        <time>2021-11-07T13:31:45Z</time>
      </trkpt>
      <trkpt lat="44.8317" lon="5.59059">
        <ele>849.328</ele>
        <time>2021-11-07T13:31:50Z</time>
      </trkpt>
      <trkpt lat="44.83181" lon="5.59067">
        <ele>849.472</ele>
        <time>2021-11-07T13:31:55Z</time>
      </trkpt>
      <trkpt lat="44.83191" lon="5.59075">
        <ele>852.447</ele>
        <time>2021-11-07T13:32:00Z</time>
      </trkpt>
      <trkpt lat="44.83199" lon="5.59082">
        <ele>852.664</ele>
        <time>2021-11-07T13:32:05Z</time>
      </trkpt>
      <trkpt lat="44.83207" lon="5.5909">
        <ele>852.918</ele>
        <time>2021-11-07T13:32:10Z</time>
      </trkpt>
      <trkpt lat="44.83215" lon="5.59098">
        <ele>854.357</ele>
        <time>2021-11-07T13:32:15Z</time>
      </trkpt>
      <trkpt lat="44.8322" lon="5.59104">
        <ele>855.552</ele>
        <time>2021-11-07T13:32:20Z</time>
      </trkpt>
      <trkpt lat="44.83227" lon="5.59112">
        <ele>858.08</ele>
        <time>2021-11-07T13:32:25Z</time>
      </trkpt>
      <trkpt lat="44.83233" lon="5.5912">
        <ele>858.814</ele>
        <time>2021-11-07T13:32:30Z</time>
      </trkpt>
      <trkpt lat="44.8324" lon="5.59127">
        <ele>859.708</ele>
        <time>2021-11-07T13:32:35Z</time>
      </trkpt>
      <trkpt lat="44.83246" lon="5.59136">
        <ele>860.149</ele>
        <time>2021-11-07T13:32:40Z</time>
      </trkpt>
      <trkpt lat="44.83252" lon="5.59146">
        <ele>856.803</ele>
        <time>2021-11-07T13:32:45Z</time>
      </trkpt>
      <trkpt lat="44.83256" lon="5.5915">
        <ele>858.47</ele>
        <time>2021-11-07T13:32:50Z</time>
      </trkpt>
      <trkpt lat="44.8326" lon="5.59156">
        <ele>859.923</ele>
        <time>2021-11-07T13:32:55Z</time>
      </trkpt>
      <trkpt lat="44.83261" lon="5.5916">
        <ele>861.981</ele>
        <time>2021-11-07T13:33:00Z</time>
      </trkpt>
      <trkpt lat="44.83263" lon="5.59165">
        <ele>860.863</ele>
        <time>2021-11-07T13:33:05Z</time>
      </trkpt>
      <trkpt lat="44.83265" lon="5.59172">
        <ele>860.19</ele>
        <time>2021-11-07T13:33:10Z</time>
      </trkpt>
      <trkpt lat="44.83268" lon="5.59185">
        <ele>860.499</ele>
        <time>2021-11-07T13:33:15Z</time>
      </trkpt>
      <trkpt lat="44.83274" lon="5.59195">
        <ele>858.767</ele>
        <time>2021-11-07T13:33:20Z</time>
      </trkpt>
      <trkpt lat="44.83277" lon="5.59208">
        <ele>856.887</ele>
        <time>2021-11-07T13:33:25Z</time>
      </trkpt>
      <trkpt lat="44.83284" lon="5.59213">
        <ele>857.823</ele>
        <time>2021-11-07T13:33:30Z</time>
      </trkpt>
      <trkpt lat="44.83292" lon="5.59226">
        <ele>854.572</ele>
        <time>2021-11-07T13:33:35Z</time>
      </trkpt>
      <trkpt lat="44.833" lon="5.59239">
        <ele>851.013</ele>
        <time>2021-11-07T13:33:40Z</time>
      </trkpt>
      <trkpt lat="44.83309" lon="5.59247">
        <ele>852.378</ele>
        <time>2021-11-07T13:33:45Z</time>
      </trkpt>
      <trkpt lat="44.83317" lon="5.59258">
        <ele>851.918</ele>
        <time>2021-11-07T13:33:50Z</time>
      </trkpt>
      <trkpt lat="44.83316" lon="5.59268">
        <ele>851.506</ele>
        <time>2021-11-07T13:33:55Z</time>
      </trkpt>
      <trkpt lat="44.83315" lon="5.59274">
        <ele>852.943</ele>
        <time>2021-11-07T13:34:00Z</time>
      </trkpt>
      <trkpt lat="44.83316" lon="5.59277">
        <ele>854.489</ele>
        <time>2021-11-07T13:34:05Z</time>
      </trkpt>
      <trkpt lat="44.83317" lon="5.5928">
        <ele>855.525</ele>
        <time>2021-11-07T13:34:10Z</time>
      </trkpt>
      <trkpt lat="44.8332" lon="5.5929">
        <ele>856.502</ele>
        <time>2021-11-07T13:34:15Z</time>
      </trkpt>
      <trkpt lat="44.83334" lon="5.59317">
        <ele>852.143</ele>
        <time>2021-11-07T13:34:20Z</time>
      </trkpt>
      <trkpt lat="44.83347" lon="5.59339">
        <ele>853.016</ele>
        <time>2021-11-07T13:34:25Z</time>
      </trkpt>
      <trkpt lat="44.83352" lon="5.59349">
        <ele>855.306</ele>
        <time>2021-11-07T13:34:30Z</time>
      </trkpt>
      <trkpt lat="44.83355" lon="5.59362">
        <ele>855.033</ele>
        <time>2021-11-07T13:34:35Z</time>
      </trkpt>
      <trkpt lat="44.83359" lon="5.59379">
        <ele>854.774</ele>
        <time>2021-11-07T13:34:40Z</time>
      </trkpt>
      <trkpt lat="44.83362" lon="5.59394">
        <ele>854.24</ele>
        <time>2021-11-07T13:34:45Z</time>
      </trkpt>
      <trkpt lat="44.83368" lon="5.59412">
        <ele>855.364</ele>
        <time>2021-11-07T13:34:50Z</time>
      </trkpt>
      <trkpt lat="44.83372" lon="5.59422">
        <ele>856.582</ele>
        <time>2021-11-07T13:34:55Z</time>
      </trkpt>
      <trkpt lat="44.83372" lon="5.59421">
        <ele>856.259</ele>
        <time>2021-11-07T13:35:00Z</time>
      </trkpt>
      <trkpt lat="44.83372" lon="5.59422">
        <ele>855.698</ele>
        <time>2021-11-07T13:35:05Z</time>
      </trkpt>
      <trkpt lat="44.83372" lon="5.59426">
        <ele>853.607</ele>
        <time>2021-11-07T13:35:10Z</time>
      </trkpt>
      <trkpt lat="44.83372" lon="5.59435">
        <ele>853.273</ele>
        <time>2021-11-07T13:35:15Z</time>
      </trkpt>
      <trkpt lat="44.83373" lon="5.59437">
        <ele>854.465</ele>
        <time>2021-11-07T13:35:20Z</time>
      </trkpt>
      <trkpt lat="44.83373" lon="5.59438">
        <ele>854.384</ele>
        <time>2021-11-07T13:35:25Z</time>
      </trkpt>
      <trkpt lat="44.83376" lon="5.59448">
        <ele>854.69</ele>
        <time>2021-11-07T13:35:30Z</time>
      </trkpt>
      <trkpt lat="44.83381" lon="5.59467">
        <ele>854.093</ele>
        <time>2021-11-07T13:35:35Z</time>
      </trkpt>
      <trkpt lat="44.83389" lon="5.59485">
        <ele>855.97</ele>
        <time>2021-11-07T13:35:40Z</time>
      </trkpt>
      <trkpt lat="44.83384" lon="5.59502">
        <ele>857.074</ele>
        <time>2021-11-07T13:35:45Z</time>
      </trkpt>
      <trkpt lat="44.83387" lon="5.5952">
        <ele>856.713</ele>
        <time>2021-11-07T13:35:50Z</time>
      </trkpt>
      <trkpt lat="44.83388" lon="5.59536">
        <ele>856.246</ele>
        <time>2021-11-07T13:35:55Z</time>
      </trkpt>
      <trkpt lat="44.83389" lon="5.59554">
        <ele>857.036</ele>
        <time>2021-11-07T13:36:00Z</time>
      </trkpt>
      <trkpt lat="44.83391" lon="5.59575">
        <ele>855.939</ele>
        <time>2021-11-07T13:36:05Z</time>
      </trkpt>
      <trkpt lat="44.83396" lon="5.59597">
        <ele>857.752</ele>
        <time>2021-11-07T13:36:10Z</time>
      </trkpt>
      <trkpt lat="44.83397" lon="5.59617">
        <ele>858.127</ele>
        <time>2021-11-07T13:36:15Z</time>
      </trkpt>
      <trkpt lat="44.83397" lon="5.59636">
        <ele>858.725</ele>
        <time>2021-11-07T13:36:20Z</time>
      </trkpt>
      <trkpt lat="44.83401" lon="5.59657">
        <ele>858.133</ele>
        <time>2021-11-07T13:36:25Z</time>
      </trkpt>
      <trkpt lat="44.83407" lon="5.59679">
        <ele>858.564</ele>
        <time>2021-11-07T13:36:29Z</time>
      </trkpt>
      <trkpt lat="44.83414" lon="5.59705">
        <ele>857.512</ele>
        <time>2021-11-07T13:36:35Z</time>
      </trkpt>
      <trkpt lat="44.83424" lon="5.59726">
        <ele>857.195</ele>
        <time>2021-11-07T13:36:40Z</time>
      </trkpt>
      <trkpt lat="44.83438" lon="5.59742">
        <ele>855.902</ele>
        <time>2021-11-07T13:36:45Z</time>
      </trkpt>
      <trkpt lat="44.8345" lon="5.59753">
        <ele>855.025</ele>
        <time>2021-11-07T13:36:50Z</time>
      </trkpt>
      <trkpt lat="44.83463" lon="5.59771">
        <ele>854.758</ele>
        <time>2021-11-07T13:36:55Z</time>
      </trkpt>
      <trkpt lat="44.83472" lon="5.59785">
        <ele>852.495</ele>
        <time>2021-11-07T13:37:00Z</time>
      </trkpt>
      <trkpt lat="44.83481" lon="5.59801">
        <ele>856.535</ele>
        <time>2021-11-07T13:37:05Z</time>
      </trkpt>
      <trkpt lat="44.83493" lon="5.59817">
        <ele>860.731</ele>
        <time>2021-11-07T13:37:11Z</time>
      </trkpt>
      <trkpt lat="44.83501" lon="5.59827">
        <ele>862.143</ele>
        <time>2021-11-07T13:37:16Z</time>
      </trkpt>
      <trkpt lat="44.83509" lon="5.59836">
        <ele>862.1</ele>
        <time>2021-11-07T13:37:21Z</time>
      </trkpt>
      <trkpt lat="44.83517" lon="5.59849">
        <ele>862.422</ele>
        <time>2021-11-07T13:37:26Z</time>
      </trkpt>
      <trkpt lat="44.83525" lon="5.59864">
        <ele>860.005</ele>
        <time>2021-11-07T13:37:31Z</time>
      </trkpt>
      <trkpt lat="44.83537" lon="5.5988">
        <ele>859.422</ele>
        <time>2021-11-07T13:37:36Z</time>
      </trkpt>
      <trkpt lat="44.83547" lon="5.59893">
        <ele>861.687</ele>
        <time>2021-11-07T13:37:41Z</time>
      </trkpt>
      <trkpt lat="44.83557" lon="5.59902">
        <ele>862.452</ele>
        <time>2021-11-07T13:37:46Z</time>
      </trkpt>
      <trkpt lat="44.83565" lon="5.59909">
        <ele>861.196</ele>
        <time>2021-11-07T13:37:51Z</time>
      </trkpt>
      <trkpt lat="44.83575" lon="5.59916">
        <ele>860.285</ele>
        <time>2021-11-07T13:37:56Z</time>
      </trkpt>
      <trkpt lat="44.83584" lon="5.59919">
        <ele>863.389</ele>
        <time>2021-11-07T13:38:01Z</time>
      </trkpt>
      <trkpt lat="44.83592" lon="5.59919">
        <ele>865.613</ele>
        <time>2021-11-07T13:38:06Z</time>
      </trkpt>
      <trkpt lat="44.83598" lon="5.5992">
        <ele>866.048</ele>
        <time>2021-11-07T13:38:11Z</time>
      </trkpt>
      <trkpt lat="44.83607" lon="5.59922">
        <ele>865.127</ele>
        <time>2021-11-07T13:38:16Z</time>
      </trkpt>
      <trkpt lat="44.83609" lon="5.59923">
        <ele>866.026</ele>
        <time>2021-11-07T13:38:21Z</time>
      </trkpt>
      <trkpt lat="44.83613" lon="5.59922">
        <ele>866.125</ele>
        <time>2021-11-07T13:38:26Z</time>
      </trkpt>
      <trkpt lat="44.83614" lon="5.59924">
        <ele>865.851</ele>
        <time>2021-11-07T13:38:31Z</time>
      </trkpt>
      <trkpt lat="44.83615" lon="5.59924">
        <ele>865.142</ele>
        <time>2021-11-07T13:38:36Z</time>
      </trkpt>
      <trkpt lat="44.83617" lon="5.59924">
        <ele>865.856</ele>
        <time>2021-11-07T13:38:41Z</time>
      </trkpt>
      <trkpt lat="44.83617" lon="5.59924">
        <ele>866.783</ele>
        <time>2021-11-07T13:38:46Z</time>
      </trkpt>
      <trkpt lat="44.8362" lon="5.59923">
        <ele>868.154</ele>
        <time>2021-11-07T13:38:51Z</time>
      </trkpt>
      <trkpt lat="44.83623" lon="5.59922">
        <ele>866.401</ele>
        <time>2021-11-07T13:38:56Z</time>
      </trkpt>
      <trkpt lat="44.83626" lon="5.59921">
        <ele>868.451</ele>
        <time>2021-11-07T13:39:01Z</time>
      </trkpt>
      <trkpt lat="44.83629" lon="5.59923">
        <ele>869.337</ele>
        <time>2021-11-07T13:39:06Z</time>
      </trkpt>
      <trkpt lat="44.83629" lon="5.59923">
        <ele>869.09</ele>
        <time>2021-11-07T13:39:11Z</time>
      </trkpt>
      <trkpt lat="44.83629" lon="5.59923">
        <ele>869.516</ele>
        <time>2021-11-07T13:39:16Z</time>
      </trkpt>
      <trkpt lat="44.83629" lon="5.59923">
        <ele>868.691</ele>
        <time>2021-11-07T13:39:21Z</time>
      </trkpt>
      <trkpt lat="44.83634" lon="5.59921">
        <ele>871.011</ele>
        <time>2021-11-07T13:39:26Z</time>
      </trkpt>
      <trkpt lat="44.83642" lon="5.5992">
        <ele>870.191</ele>
        <time>2021-11-07T13:39:31Z</time>
      </trkpt>
      <trkpt lat="44.83648" lon="5.59923">
        <ele>869.973</ele>
        <time>2021-11-07T13:39:36Z</time>
      </trkpt>
      <trkpt lat="44.83652" lon="5.59925">
        <ele>869.336</ele>
        <time>2021-11-07T13:39:41Z</time>
      </trkpt>
      <trkpt lat="44.83656" lon="5.59926">
        <ele>870.794</ele>
        <time>2021-11-07T13:39:46Z</time>
      </trkpt>
      <trkpt lat="44.83657" lon="5.59926">
        <ele>870.759</ele>
        <time>2021-11-07T13:39:51Z</time>
      </trkpt>
      <trkpt lat="44.83661" lon="5.59926">
        <ele>869.15</ele>
        <time>2021-11-07T13:39:56Z</time>
      </trkpt>
      <trkpt lat="44.83666" lon="5.59929">
        <ele>868.093</ele>
        <time>2021-11-07T13:40:01Z</time>
      </trkpt>
      <trkpt lat="44.83672" lon="5.59934">
        <ele>869.285</ele>
        <time>2021-11-07T13:40:06Z</time>
      </trkpt>
      <trkpt lat="44.83677" lon="5.59936">
        <ele>870.998</ele>
        <time>2021-11-07T13:40:11Z</time>
      </trkpt>
      <trkpt lat="44.8368" lon="5.59937">
        <ele>871.601</ele>
        <time>2021-11-07T13:40:16Z</time>
      </trkpt>
      <trkpt lat="44.83685" lon="5.59939">
        <ele>869.956</ele>
        <time>2021-11-07T13:40:21Z</time>
      </trkpt>
      <trkpt lat="44.83689" lon="5.59941">
        <ele>870.787</ele>
        <time>2021-11-07T13:40:26Z</time>
      </trkpt>
      <trkpt lat="44.83693" lon="5.59942">
        <ele>871.742</ele>
        <time>2021-11-07T13:40:31Z</time>
      </trkpt>
      <trkpt lat="44.83696" lon="5.59943">
        <ele>871.605</ele>
        <time>2021-11-07T13:40:36Z</time>
      </trkpt>
      <trkpt lat="44.83696" lon="5.59943">
        <ele>871.337</ele>
        <time>2021-11-07T13:40:41Z</time>
      </trkpt>
      <trkpt lat="44.83697" lon="5.59943">
        <ele>871.716</ele>
        <time>2021-11-07T13:40:46Z</time>
      </trkpt>
      <trkpt lat="44.83699" lon="5.59943">
        <ele>874.473</ele>
        <time>2021-11-07T13:40:51Z</time>
      </trkpt>
      <trkpt lat="44.83701" lon="5.59943">
        <ele>877.022</ele>
        <time>2021-11-07T13:40:56Z</time>
      </trkpt>
      <trkpt lat="44.83699" lon="5.5994">
        <ele>875.898</ele>
        <time>2021-11-07T13:41:01Z</time>
      </trkpt>
      <trkpt lat="44.83698" lon="5.59939">
        <ele>875.614</ele>
        <time>2021-11-07T13:41:06Z</time>
      </trkpt>
      <trkpt lat="44.83697" lon="5.59938">
        <ele>876.322</ele>
        <time>2021-11-07T13:41:11Z</time>
      </trkpt>
      <trkpt lat="44.83696" lon="5.59938">
        <ele>876.198</ele>
        <time>2021-11-07T13:41:16Z</time>
      </trkpt>
      <trkpt lat="44.83696" lon="5.59936">
        <ele>878.66</ele>
        <time>2021-11-07T13:41:21Z</time>
      </trkpt>
      <trkpt lat="44.83696" lon="5.59934">
        <ele>880.055</ele>
        <time>2021-11-07T13:41:26Z</time>
      </trkpt>
      <trkpt lat="44.83701" lon="5.59936">
        <ele>880.597</ele>
        <time>2021-11-07T13:41:31Z</time>
      </trkpt>
      <trkpt lat="44.83707" lon="5.59944">
        <ele>880.965</ele>
        <time>2021-11-07T13:41:36Z</time>
      </trkpt>
      <trkpt lat="44.83716" lon="5.59945">
        <ele>882.216</ele>
        <time>2021-11-07T13:41:41Z</time>
      </trkpt>
      <trkpt lat="44.83719" lon="5.59954">
        <ele>884.599</ele>
        <time>2021-11-07T13:41:46Z</time>
      </trkpt>
      <trkpt lat="44.83721" lon="5.59963">
        <ele>886.401</ele>
        <time>2021-11-07T13:41:51Z</time>
      </trkpt>
      <trkpt lat="44.83719" lon="5.59973">
        <ele>888.007</ele>
        <time>2021-11-07T13:41:56Z</time>
      </trkpt>
      <trkpt lat="44.83716" lon="5.59981">
        <ele>888.94</ele>
        <time>2021-11-07T13:42:01Z</time>
      </trkpt>
      <trkpt lat="44.83717" lon="5.59981">
        <ele>889.924</ele>
        <time>2021-11-07T13:42:06Z</time>
      </trkpt>
      <trkpt lat="44.8372" lon="5.59977">
        <ele>889.627</ele>
        <time>2021-11-07T13:42:11Z</time>
      </trkpt>
      <trkpt lat="44.83724" lon="5.59973">
        <ele>890.479</ele>
        <time>2021-11-07T13:42:16Z</time>
      </trkpt>
      <trkpt lat="44.83727" lon="5.59968">
        <ele>891.232</ele>
        <time>2021-11-07T13:42:21Z</time>
      </trkpt>
      <trkpt lat="44.83728" lon="5.59966">
        <ele>891.926</ele>
        <time>2021-11-07T13:42:26Z</time>
      </trkpt>
      <trkpt lat="44.83728" lon="5.59969">
        <ele>894.195</ele>
        <time>2021-11-07T13:42:31Z</time>
      </trkpt>
      <trkpt lat="44.83727" lon="5.59974">
        <ele>892.701</ele>
        <time>2021-11-07T13:42:36Z</time>
      </trkpt>
      <trkpt lat="44.83726" lon="5.59977">
        <ele>893.337</ele>
        <time>2021-11-07T13:42:41Z</time>
      </trkpt>
      <trkpt lat="44.83724" lon="5.59981">
        <ele>892.765</ele>
        <time>2021-11-07T13:42:46Z</time>
      </trkpt>
      <trkpt lat="44.83725" lon="5.59987">
        <ele>892.334</ele>
        <time>2021-11-07T13:42:51Z</time>
      </trkpt>
      <trkpt lat="44.83726" lon="5.59985">
        <ele>892.553</ele>
        <time>2021-11-07T13:42:56Z</time>
      </trkpt>
      <trkpt lat="44.83729" lon="5.5998">
        <ele>895.086</ele>
        <time>2021-11-07T13:43:01Z</time>
      </trkpt>
      <trkpt lat="44.83733" lon="5.5998">
        <ele>896.463</ele>
        <time>2021-11-07T13:43:06Z</time>
      </trkpt>
      <trkpt lat="44.83736" lon="5.59976">
        <ele>896.616</ele>
        <time>2021-11-07T13:43:11Z</time>
      </trkpt>
      <trkpt lat="44.83738" lon="5.59977">
        <ele>897.796</ele>
        <time>2021-11-07T13:43:16Z</time>
      </trkpt>
      <trkpt lat="44.83739" lon="5.59981">
        <ele>899.857</ele>
        <time>2021-11-07T13:43:21Z</time>
      </trkpt>
      <trkpt lat="44.83736" lon="5.59985">
        <ele>899.744</ele>
        <time>2021-11-07T13:43:26Z</time>
      </trkpt>
      <trkpt lat="44.83735" lon="5.59991">
        <ele>899.674</ele>
        <time>2021-11-07T13:43:31Z</time>
      </trkpt>
      <trkpt lat="44.83737" lon="5.59996">
        <ele>902.062</ele>
        <time>2021-11-07T13:43:36Z</time>
      </trkpt>
      <trkpt lat="44.8374" lon="5.60002">
        <ele>902.894</ele>
        <time>2021-11-07T13:43:41Z</time>
      </trkpt>
      <trkpt lat="44.83742" lon="5.60008">
        <ele>903.942</ele>
        <time>2021-11-07T13:43:46Z</time>
      </trkpt>
      <trkpt lat="44.83743" lon="5.60009">
        <ele>902.158</ele>
        <time>2021-11-07T13:43:51Z</time>
      </trkpt>
      <trkpt lat="44.83742" lon="5.60011">
        <ele>901.743</ele>
        <time>2021-11-07T13:43:56Z</time>
      </trkpt>
      <trkpt lat="44.83746" lon="5.6002">
        <ele>903.22</ele>
        <time>2021-11-07T13:44:01Z</time>
      </trkpt>
      <trkpt lat="44.83747" lon="5.60022">
        <ele>903.358</ele>
        <time>2021-11-07T13:44:06Z</time>
      </trkpt>
      <trkpt lat="44.83748" lon="5.60028">
        <ele>903.404</ele>
        <time>2021-11-07T13:44:11Z</time>
      </trkpt>
      <trkpt lat="44.83749" lon="5.60029">
        <ele>903.654</ele>
        <time>2021-11-07T13:44:16Z</time>
      </trkpt>
      <trkpt lat="44.8375" lon="5.60029">
        <ele>903.294</ele>
        <time>2021-11-07T13:44:21Z</time>
      </trkpt>
      <trkpt lat="44.8375" lon="5.60029">
        <ele>903.235</ele>
        <time>2021-11-07T13:44:26Z</time>
      </trkpt>
      <trkpt lat="44.8375" lon="5.60029">
        <ele>903.215</ele>
        <time>2021-11-07T13:44:31Z</time>
      </trkpt>
      <trkpt lat="44.8375" lon="5.60029">
        <ele>903.204</ele>
        <time>2021-11-07T13:44:36Z</time>
      </trkpt>
      <trkpt lat="44.83751" lon="5.60033">
        <ele>902.799</ele>
        <time>2021-11-07T13:44:41Z</time>
      </trkpt>
      <trkpt lat="44.83762" lon="5.6006">
        <ele>901.391</ele>
        <time>2021-11-07T13:44:46Z</time>
      </trkpt>
      <trkpt lat="44.83762" lon="5.60067">
        <ele>897.502</ele>
        <time>2021-11-07T13:44:51Z</time>
      </trkpt>
      <trkpt lat="44.83749" lon="5.60059">
        <ele>895.027</ele>
        <time>2021-11-07T13:44:56Z</time>
      </trkpt>
      <trkpt lat="44.83743" lon="5.60055">
        <ele>893.53</ele>
        <time>2021-11-07T13:45:01Z</time>
      </trkpt>
      <trkpt lat="44.83741" lon="5.60055">
        <ele>893.01</ele>
        <time>2021-11-07T13:45:06Z</time>
      </trkpt>
      <trkpt lat="44.83744" lon="5.60068">
        <ele>891.543</ele>
        <time>2021-11-07T13:45:11Z</time>
      </trkpt>
      <trkpt lat="44.8375" lon="5.60082">
        <ele>888.387</ele>
        <time>2021-11-07T13:45:16Z</time>
      </trkpt>
      <trkpt lat="44.83761" lon="5.60103">
        <ele>885.091</ele>
        <time>2021-11-07T13:45:21Z</time>
      </trkpt>
      <trkpt lat="44.83764" lon="5.6011">
        <ele>883.713</ele>
        <time>2021-11-07T13:45:26Z</time>
      </trkpt>
      <trkpt lat="44.83764" lon="5.60111">
        <ele>882.58</ele>
        <time>2021-11-07T13:45:31Z</time>
      </trkpt>
      <trkpt lat="44.83763" lon="5.60111">
        <ele>881.938</ele>
        <time>2021-11-07T13:45:36Z</time>
      </trkpt>
      <trkpt lat="44.83761" lon="5.60108">
        <ele>880.659</ele>
        <time>2021-11-07T13:45:41Z</time>
      </trkpt>
      <trkpt lat="44.8376" lon="5.60107">
        <ele>881.365</ele>
        <time>2021-11-07T13:45:46Z</time>
      </trkpt>
      <trkpt lat="44.8376" lon="5.60108">
        <ele>881.168</ele>
        <time>2021-11-07T13:45:51Z</time>
      </trkpt>
      <trkpt lat="44.83762" lon="5.60115">
        <ele>880.333</ele>
        <time>2021-11-07T13:45:56Z</time>
      </trkpt>
      <trkpt lat="44.83771" lon="5.60123">
        <ele>878.771</ele>
        <time>2021-11-07T13:46:01Z</time>
      </trkpt>
      <trkpt lat="44.83781" lon="5.60134">
        <ele>874.66</ele>
        <time>2021-11-07T13:46:06Z</time>
      </trkpt>
      <trkpt lat="44.83794" lon="5.6015">
        <ele>870.962</ele>
        <time>2021-11-07T13:46:11Z</time>
      </trkpt>
      <trkpt lat="44.83784" lon="5.60152">
        <ele>866.173</ele>
        <time>2021-11-07T13:46:16Z</time>
      </trkpt>
      <trkpt lat="44.83762" lon="5.60145">
        <ele>863.056</ele>
        <time>2021-11-07T13:46:21Z</time>
      </trkpt>
      <trkpt lat="44.83754" lon="5.60148">
        <ele>861.175</ele>
        <time>2021-11-07T13:46:26Z</time>
      </trkpt>
      <trkpt lat="44.8376" lon="5.60159">
        <ele>859.163</ele>
        <time>2021-11-07T13:46:31Z</time>
      </trkpt>
      <trkpt lat="44.83761" lon="5.60162">
        <ele>858.425</ele>
        <time>2021-11-07T13:46:36Z</time>
      </trkpt>
      <trkpt lat="44.83762" lon="5.60162">
        <ele>858.694</ele>
        <time>2021-11-07T13:46:41Z</time>
      </trkpt>
      <trkpt lat="44.83762" lon="5.6016">
        <ele>859.613</ele>
        <time>2021-11-07T13:46:46Z</time>
      </trkpt>
      <trkpt lat="44.83762" lon="5.6016">
        <ele>859.646</ele>
        <time>2021-11-07T13:46:51Z</time>
      </trkpt>
      <trkpt lat="44.83762" lon="5.6016">
        <ele>859.658</ele>
        <time>2021-11-07T13:46:56Z</time>
      </trkpt>
      <trkpt lat="44.83762" lon="5.6016">
        <ele>859.659</ele>
        <time>2021-11-07T13:47:01Z</time>
      </trkpt>
      <trkpt lat="44.83762" lon="5.6016">
        <ele>859.658</ele>
        <time>2021-11-07T13:47:06Z</time>
      </trkpt>
      <trkpt lat="44.83762" lon="5.6016">
        <ele>859.662</ele>
        <time>2021-11-07T13:47:11Z</time>
      </trkpt>
      <trkpt lat="44.83762" lon="5.6016">
        <ele>859.667</ele>
        <time>2021-11-07T13:47:16Z</time>
      </trkpt>
      <trkpt lat="44.83762" lon="5.6016">
        <ele>859.666</ele>
        <time>2021-11-07T13:47:21Z</time>
      </trkpt>
      <trkpt lat="44.83762" lon="5.6016">
        <ele>859.67</ele>
        <time>2021-11-07T13:47:26Z</time>
      </trkpt>
      <trkpt lat="44.83762" lon="5.6016">
        <ele>859.677</ele>
        <time>2021-11-07T13:47:31Z</time>
      </trkpt>
      <trkpt lat="44.83762" lon="5.6016">
        <ele>859.69</ele>
        <time>2021-11-07T13:47:36Z</time>
      </trkpt>
      <trkpt lat="44.83762" lon="5.6016">
        <ele>859.699</ele>
        <time>2021-11-07T13:47:41Z</time>
      </trkpt>
      <trkpt lat="44.83762" lon="5.6016">
        <ele>859.704</ele>
        <time>2021-11-07T13:47:46Z</time>
      </trkpt>
      <trkpt lat="44.83762" lon="5.6016">
        <ele>859.702</ele>
        <time>2021-11-07T13:47:51Z</time>
      </trkpt>
      <trkpt lat="44.83762" lon="5.6016">
        <ele>859.709</ele>
        <time>2021-11-07T13:47:56Z</time>
      </trkpt>
      <trkpt lat="44.83762" lon="5.6016">
        <ele>859.709</ele>
        <time>2021-11-07T13:48:01Z</time>
      </trkpt>
      <trkpt lat="44.83762" lon="5.6016">
        <ele>859.703</ele>
        <time>2021-11-07T13:48:06Z</time>
      </trkpt>
      <trkpt lat="44.83762" lon="5.6016">
        <ele>859.691</ele>
        <time>2021-11-07T13:48:11Z</time>
      </trkpt>
      <trkpt lat="44.83762" lon="5.6016">
        <ele>859.672</ele>
        <time>2021-11-07T13:48:16Z</time>
      </trkpt>
      <trkpt lat="44.83762" lon="5.6016">
        <ele>859.672</ele>
        <time>2021-11-07T13:48:21Z</time>
      </trkpt>
      <trkpt lat="44.83762" lon="5.6016">
        <ele>859.673</ele>
        <time>2021-11-07T13:48:26Z</time>
      </trkpt>
      <trkpt lat="44.83762" lon="5.6016">
        <ele>859.674</ele>
        <time>2021-11-07T13:48:31Z</time>
      </trkpt>
      <trkpt lat="44.83762" lon="5.6016">
        <ele>859.685</ele>
        <time>2021-11-07T13:48:36Z</time>
      </trkpt>
      <trkpt lat="44.83762" lon="5.6016">
        <ele>859.693</ele>
        <time>2021-11-07T13:48:41Z</time>
      </trkpt>
      <trkpt lat="44.83762" lon="5.6016">
        <ele>859.701</ele>
        <time>2021-11-07T13:48:46Z</time>
      </trkpt>
      <trkpt lat="44.83762" lon="5.6016">
        <ele>859.703</ele>
        <time>2021-11-07T13:48:51Z</time>
      </trkpt>
      <trkpt lat="44.83762" lon="5.6016">
        <ele>859.717</ele>
        <time>2021-11-07T13:48:56Z</time>
      </trkpt>
      <trkpt lat="44.83762" lon="5.6016">
        <ele>859.74</ele>
        <time>2021-11-07T13:49:01Z</time>
      </trkpt>
      <trkpt lat="44.83762" lon="5.6016">
        <ele>859.76</ele>
        <time>2021-11-07T13:49:06Z</time>
      </trkpt>
      <trkpt lat="44.83762" lon="5.6016">
        <ele>859.768</ele>
        <time>2021-11-07T13:49:11Z</time>
      </trkpt>
      <trkpt lat="44.83762" lon="5.6016">
        <ele>859.773</ele>
        <time>2021-11-07T13:49:16Z</time>
      </trkpt>
      <trkpt lat="44.83762" lon="5.6016">
        <ele>859.789</ele>
        <time>2021-11-07T13:49:21Z</time>
      </trkpt>
      <trkpt lat="44.83762" lon="5.6016">
        <ele>859.775</ele>
        <time>2021-11-07T13:49:26Z</time>
      </trkpt>
      <trkpt lat="44.83762" lon="5.6016">
        <ele>859.772</ele>
        <time>2021-11-07T13:49:31Z</time>
      </trkpt>
      <trkpt lat="44.83762" lon="5.6016">
        <ele>859.769</ele>
        <time>2021-11-07T13:49:36Z</time>
      </trkpt>
      <trkpt lat="44.83762" lon="5.6016">
        <ele>859.774</ele>
        <time>2021-11-07T13:49:41Z</time>
      </trkpt>
      <trkpt lat="44.83762" lon="5.6016">
        <ele>859.784</ele>
        <time>2021-11-07T13:49:46Z</time>
      </trkpt>
      <trkpt lat="44.83762" lon="5.6016">
        <ele>859.792</ele>
        <time>2021-11-07T13:49:51Z</time>
      </trkpt>
      <trkpt lat="44.83762" lon="5.6016">
        <ele>859.79</ele>
        <time>2021-11-07T13:49:56Z</time>
      </trkpt>
      <trkpt lat="44.83762" lon="5.6016">
        <ele>859.786</ele>
        <time>2021-11-07T13:50:01Z</time>
      </trkpt>
      <trkpt lat="44.83762" lon="5.6016">
        <ele>859.774</ele>
        <time>2021-11-07T13:50:06Z</time>
      </trkpt>
      <trkpt lat="44.83762" lon="5.6016">
        <ele>859.769</ele>
        <time>2021-11-07T13:50:11Z</time>
      </trkpt>
      <trkpt lat="44.83762" lon="5.6016">
        <ele>859.77</ele>
        <time>2021-11-07T13:50:16Z</time>
      </trkpt>
      <trkpt lat="44.83762" lon="5.6016">
        <ele>859.766</ele>
        <time>2021-11-07T13:50:21Z</time>
      </trkpt>
      <trkpt lat="44.83766" lon="5.60168">
        <ele>859.192</ele>
        <time>2021-11-07T13:50:26Z</time>
      </trkpt>
      <trkpt lat="44.83775" lon="5.60186">
        <ele>858.442</ele>
        <time>2021-11-07T13:50:31Z</time>
      </trkpt>
      <trkpt lat="44.83796" lon="5.60211">
        <ele>853.402</ele>
        <time>2021-11-07T13:50:36Z</time>
      </trkpt>
      <trkpt lat="44.83813" lon="5.6023">
        <ele>851</ele>
        <time>2021-11-07T13:50:41Z</time>
      </trkpt>
      <trkpt lat="44.83809" lon="5.60248">
        <ele>848.252</ele>
        <time>2021-11-07T13:50:46Z</time>
      </trkpt>
      <trkpt lat="44.8381" lon="5.6025">
        <ele>847.681</ele>
        <time>2021-11-07T13:50:51Z</time>
      </trkpt>
      <trkpt lat="44.8381" lon="5.6025">
        <ele>847.858</ele>
        <time>2021-11-07T13:50:56Z</time>
      </trkpt>
      <trkpt lat="44.8381" lon="5.6025">
        <ele>847.506</ele>
        <time>2021-11-07T13:51:01Z</time>
      </trkpt>
      <trkpt lat="44.8381" lon="5.6025">
        <ele>847.621</ele>
        <time>2021-11-07T13:51:06Z</time>
      </trkpt>
      <trkpt lat="44.83811" lon="5.6025">
        <ele>846.881</ele>
        <time>2021-11-07T13:51:11Z</time>
      </trkpt>
      <trkpt lat="44.8382" lon="5.60247">
        <ele>845.916</ele>
        <time>2021-11-07T13:51:16Z</time>
      </trkpt>
      <trkpt lat="44.83825" lon="5.60249">
        <ele>848.61</ele>
        <time>2021-11-07T13:51:21Z</time>
      </trkpt>
      <trkpt lat="44.83826" lon="5.60258">
        <ele>849.886</ele>
        <time>2021-11-07T13:51:26Z</time>
      </trkpt>
      <trkpt lat="44.83828" lon="5.60268">
        <ele>850.79</ele>
        <time>2021-11-07T13:51:31Z</time>
      </trkpt>
      <trkpt lat="44.83836" lon="5.60278">
        <ele>851.567</ele>
        <time>2021-11-07T13:51:36Z</time>
      </trkpt>
      <trkpt lat="44.83842" lon="5.60292">
        <ele>851.488</ele>
        <time>2021-11-07T13:51:41Z</time>
      </trkpt>
      <trkpt lat="44.83856" lon="5.60295">
        <ele>851.442</ele>
        <time>2021-11-07T13:51:46Z</time>
      </trkpt>
      <trkpt lat="44.83868" lon="5.60298">
        <ele>852.537</ele>
        <time>2021-11-07T13:51:51Z</time>
      </trkpt>
      <trkpt lat="44.83876" lon="5.60297">
        <ele>853.18</ele>
        <time>2021-11-07T13:51:56Z</time>
      </trkpt>
      <trkpt lat="44.83887" lon="5.60297">
        <ele>851.864</ele>
        <time>2021-11-07T13:52:01Z</time>
      </trkpt>
      <trkpt lat="44.83888" lon="5.60297">
        <ele>848.804</ele>
        <time>2021-11-07T13:52:06Z</time>
      </trkpt>
      <trkpt lat="44.8389" lon="5.60299">
        <ele>847.18</ele>
        <time>2021-11-07T13:52:11Z</time>
      </trkpt>
      <trkpt lat="44.83886" lon="5.60302">
        <ele>843.091</ele>
        <time>2021-11-07T13:52:16Z</time>
      </trkpt>
      <trkpt lat="44.83886" lon="5.60303">
        <ele>842.136</ele>
        <time>2021-11-07T13:52:21Z</time>
      </trkpt>
      <trkpt lat="44.83886" lon="5.60305">
        <ele>838.635</ele>
        <time>2021-11-07T13:52:26Z</time>
      </trkpt>
      <trkpt lat="44.83886" lon="5.60307">
        <ele>836.599</ele>
        <time>2021-11-07T13:52:31Z</time>
      </trkpt>
      <trkpt lat="44.83885" lon="5.6031">
        <ele>837.383</ele>
        <time>2021-11-07T13:52:36Z</time>
      </trkpt>
      <trkpt lat="44.83885" lon="5.6031">
        <ele>838.101</ele>
        <time>2021-11-07T13:52:41Z</time>
      </trkpt>
      <trkpt lat="44.83883" lon="5.60314">
        <ele>839.666</ele>
        <time>2021-11-07T13:52:46Z</time>
      </trkpt>
      <trkpt lat="44.83878" lon="5.60319">
        <ele>842.844</ele>
        <time>2021-11-07T13:52:51Z</time>
      </trkpt>
      <trkpt lat="44.83876" lon="5.6032">
        <ele>845.172</ele>
        <time>2021-11-07T13:52:56Z</time>
      </trkpt>
      <trkpt lat="44.83876" lon="5.60322">
        <ele>843.006</ele>
        <time>2021-11-07T13:53:01Z</time>
      </trkpt>
      <trkpt lat="44.83878" lon="5.60324">
        <ele>840.789</ele>
        <time>2021-11-07T13:53:06Z</time>
      </trkpt>
      <trkpt lat="44.83883" lon="5.60326">
        <ele>841.409</ele>
        <time>2021-11-07T13:53:11Z</time>
      </trkpt>
      <trkpt lat="44.83886" lon="5.60326">
        <ele>843.251</ele>
        <time>2021-11-07T13:53:16Z</time>
      </trkpt>
      <trkpt lat="44.83887" lon="5.60326">
        <ele>845.225</ele>
        <time>2021-11-07T13:53:21Z</time>
      </trkpt>
      <trkpt lat="44.83888" lon="5.60326">
        <ele>846.195</ele>
        <time>2021-11-07T13:53:26Z</time>
      </trkpt>
      <trkpt lat="44.83892" lon="5.60329">
        <ele>849.526</ele>
        <time>2021-11-07T13:53:31Z</time>
      </trkpt>
      <trkpt lat="44.83897" lon="5.60336">
        <ele>851.199</ele>
        <time>2021-11-07T13:53:36Z</time>
      </trkpt>
      <trkpt lat="44.839" lon="5.60345">
        <ele>852.452</ele>
        <time>2021-11-07T13:53:41Z</time>
      </trkpt>
      <trkpt lat="44.83901" lon="5.60354">
        <ele>851.111</ele>
        <time>2021-11-07T13:53:46Z</time>
      </trkpt>
      <trkpt lat="44.83903" lon="5.60358">
        <ele>849.587</ele>
        <time>2021-11-07T13:53:51Z</time>
      </trkpt>
      <trkpt lat="44.83903" lon="5.60367">
        <ele>850.078</ele>
        <time>2021-11-07T13:53:56Z</time>
      </trkpt>
      <trkpt lat="44.83903" lon="5.60379">
        <ele>851.015</ele>
        <time>2021-11-07T13:54:01Z</time>
      </trkpt>
      <trkpt lat="44.83905" lon="5.60389">
        <ele>853.152</ele>
        <time>2021-11-07T13:54:06Z</time>
      </trkpt>
      <trkpt lat="44.83905" lon="5.604">
        <ele>856.199</ele>
        <time>2021-11-07T13:54:11Z</time>
      </trkpt>
      <trkpt lat="44.83905" lon="5.60411">
        <ele>856.505</ele>
        <time>2021-11-07T13:54:16Z</time>
      </trkpt>
      <trkpt lat="44.83906" lon="5.6042">
        <ele>856.536</ele>
        <time>2021-11-07T13:54:21Z</time>
      </trkpt>
      <trkpt lat="44.83907" lon="5.60427">
        <ele>857.235</ele>
        <time>2021-11-07T13:54:26Z</time>
      </trkpt>
      <trkpt lat="44.83908" lon="5.60429">
        <ele>857.477</ele>
        <time>2021-11-07T13:54:31Z</time>
      </trkpt>
      <trkpt lat="44.8391" lon="5.60432">
        <ele>857.887</ele>
        <time>2021-11-07T13:54:36Z</time>
      </trkpt>
      <trkpt lat="44.83912" lon="5.60433">
        <ele>857.526</ele>
        <time>2021-11-07T13:54:41Z</time>
      </trkpt>
      <trkpt lat="44.83918" lon="5.60454">
        <ele>855.127</ele>
        <time>2021-11-07T13:54:46Z</time>
      </trkpt>
      <trkpt lat="44.83925" lon="5.6047">
        <ele>853.483</ele>
        <time>2021-11-07T13:54:51Z</time>
      </trkpt>
      <trkpt lat="44.83932" lon="5.6048">
        <ele>853.968</ele>
        <time>2021-11-07T13:54:56Z</time>
      </trkpt>
      <trkpt lat="44.83942" lon="5.60493">
        <ele>855.214</ele>
        <time>2021-11-07T13:55:01Z</time>
      </trkpt>
      <trkpt lat="44.83947" lon="5.60504">
        <ele>854.193</ele>
        <time>2021-11-07T13:55:06Z</time>
      </trkpt>
      <trkpt lat="44.83951" lon="5.60512">
        <ele>855.653</ele>
        <time>2021-11-07T13:55:11Z</time>
      </trkpt>
      <trkpt lat="44.83954" lon="5.60519">
        <ele>855.567</ele>
        <time>2021-11-07T13:55:16Z</time>
      </trkpt>
      <trkpt lat="44.8396" lon="5.60526">
        <ele>855.448</ele>
        <time>2021-11-07T13:55:21Z</time>
      </trkpt>
      <trkpt lat="44.83965" lon="5.60526">
        <ele>857.039</ele>
        <time>2021-11-07T13:55:26Z</time>
      </trkpt>
      <trkpt lat="44.8397" lon="5.60533">
        <ele>857.123</ele>
        <time>2021-11-07T13:55:31Z</time>
      </trkpt>
      <trkpt lat="44.83972" lon="5.60535">
        <ele>857.095</ele>
        <time>2021-11-07T13:55:36Z</time>
      </trkpt>
      <trkpt lat="44.83972" lon="5.60535">
        <ele>856.996</ele>
        <time>2021-11-07T13:55:41Z</time>
      </trkpt>
      <trkpt lat="44.83972" lon="5.60535">
        <ele>857.336</ele>
        <time>2021-11-07T13:55:46Z</time>
      </trkpt>
      <trkpt lat="44.83972" lon="5.60535">
        <ele>857.397</ele>
        <time>2021-11-07T13:55:51Z</time>
      </trkpt>
      <trkpt lat="44.83973" lon="5.60536">
        <ele>858.345</ele>
        <time>2021-11-07T13:55:56Z</time>
      </trkpt>
      <trkpt lat="44.83973" lon="5.60537">
        <ele>858.813</ele>
        <time>2021-11-07T13:56:01Z</time>
      </trkpt>
      <trkpt lat="44.83974" lon="5.60537">
        <ele>858.855</ele>
        <time>2021-11-07T13:56:06Z</time>
      </trkpt>
      <trkpt lat="44.83974" lon="5.60538">
        <ele>858.675</ele>
        <time>2021-11-07T13:56:11Z</time>
      </trkpt>
      <trkpt lat="44.83975" lon="5.60538">
        <ele>858.784</ele>
        <time>2021-11-07T13:56:16Z</time>
      </trkpt>
      <trkpt lat="44.83975" lon="5.60538">
        <ele>858.773</ele>
        <time>2021-11-07T13:56:21Z</time>
      </trkpt>
      <trkpt lat="44.83975" lon="5.60538">
        <ele>858.767</ele>
        <time>2021-11-07T13:56:26Z</time>
      </trkpt>
      <trkpt lat="44.83975" lon="5.60538">
        <ele>858.766</ele>
        <time>2021-11-07T13:56:31Z</time>
      </trkpt>
      <trkpt lat="44.83975" lon="5.60538">
        <ele>858.78</ele>
        <time>2021-11-07T13:56:36Z</time>
      </trkpt>
      <trkpt lat="44.83975" lon="5.60538">
        <ele>858.774</ele>
        <time>2021-11-07T13:56:41Z</time>
      </trkpt>
      <trkpt lat="44.83975" lon="5.60538">
        <ele>858.786</ele>
        <time>2021-11-07T13:56:46Z</time>
      </trkpt>
      <trkpt lat="44.83975" lon="5.60538">
        <ele>858.8</ele>
        <time>2021-11-07T13:56:51Z</time>
      </trkpt>
      <trkpt lat="44.83975" lon="5.60538">
        <ele>858.803</ele>
        <time>2021-11-07T13:56:56Z</time>
      </trkpt>
      <trkpt lat="44.83975" lon="5.60538">
        <ele>858.804</ele>
        <time>2021-11-07T13:57:01Z</time>
      </trkpt>
      <trkpt lat="44.83975" lon="5.60538">
        <ele>858.81</ele>
        <time>2021-11-07T13:57:06Z</time>
      </trkpt>
      <trkpt lat="44.83975" lon="5.60538">
        <ele>858.808</ele>
        <time>2021-11-07T13:57:11Z</time>
      </trkpt>
      <trkpt lat="44.83975" lon="5.60538">
        <ele>858.815</ele>
        <time>2021-11-07T13:57:16Z</time>
      </trkpt>
      <trkpt lat="44.83975" lon="5.60538">
        <ele>858.815</ele>
        <time>2021-11-07T13:57:21Z</time>
      </trkpt>
      <trkpt lat="44.83975" lon="5.60537">
        <ele>858.815</ele>
        <time>2021-11-07T13:57:26Z</time>
      </trkpt>
      <trkpt lat="44.83975" lon="5.60537">
        <ele>858.823</ele>
        <time>2021-11-07T13:57:31Z</time>
      </trkpt>
      <trkpt lat="44.83975" lon="5.60537">
        <ele>858.832</ele>
        <time>2021-11-07T13:57:36Z</time>
      </trkpt>
      <trkpt lat="44.83975" lon="5.60537">
        <ele>858.846</ele>
        <time>2021-11-07T13:57:41Z</time>
      </trkpt>
      <trkpt lat="44.83975" lon="5.60537">
        <ele>858.866</ele>
        <time>2021-11-07T13:57:46Z</time>
      </trkpt>
      <trkpt lat="44.83975" lon="5.60538">
        <ele>858.882</ele>
        <time>2021-11-07T13:57:51Z</time>
      </trkpt>
      <trkpt lat="44.83975" lon="5.60538">
        <ele>858.887</ele>
        <time>2021-11-07T13:57:56Z</time>
      </trkpt>
      <trkpt lat="44.83975" lon="5.60538">
        <ele>859.195</ele>
        <time>2021-11-07T13:58:01Z</time>
      </trkpt>
      <trkpt lat="44.83977" lon="5.60539">
        <ele>859.722</ele>
        <time>2021-11-07T13:58:06Z</time>
      </trkpt>
      <trkpt lat="44.83976" lon="5.60539">
        <ele>860.069</ele>
        <time>2021-11-07T13:58:11Z</time>
      </trkpt>
      <trkpt lat="44.83976" lon="5.60539">
        <ele>859.695</ele>
        <time>2021-11-07T13:58:16Z</time>
      </trkpt>
      <trkpt lat="44.83976" lon="5.60539">
        <ele>859.705</ele>
        <time>2021-11-07T13:58:21Z</time>
      </trkpt>
      <trkpt lat="44.83976" lon="5.60539">
        <ele>859.719</ele>
        <time>2021-11-07T13:58:26Z</time>
      </trkpt>
      <trkpt lat="44.83976" lon="5.60539">
        <ele>859.734</ele>
        <time>2021-11-07T13:58:31Z</time>
      </trkpt>
      <trkpt lat="44.83976" lon="5.60539">
        <ele>859.732</ele>
        <time>2021-11-07T13:58:36Z</time>
      </trkpt>
      <trkpt lat="44.83976" lon="5.60539">
        <ele>859.716</ele>
        <time>2021-11-07T13:58:41Z</time>
      </trkpt>
      <trkpt lat="44.83976" lon="5.60539">
        <ele>859.718</ele>
        <time>2021-11-07T13:58:46Z</time>
      </trkpt>
      <trkpt lat="44.83976" lon="5.60539">
        <ele>859.717</ele>
        <time>2021-11-07T13:58:51Z</time>
      </trkpt>
      <trkpt lat="44.83976" lon="5.60539">
        <ele>859.724</ele>
        <time>2021-11-07T13:58:56Z</time>
      </trkpt>
      <trkpt lat="44.83976" lon="5.60539">
        <ele>859.723</ele>
        <time>2021-11-07T13:59:01Z</time>
      </trkpt>
      <trkpt lat="44.83976" lon="5.60539">
        <ele>859.722</ele>
        <time>2021-11-07T13:59:06Z</time>
      </trkpt>
      <trkpt lat="44.83976" lon="5.60539">
        <ele>859.714</ele>
        <time>2021-11-07T13:59:11Z</time>
      </trkpt>
      <trkpt lat="44.83976" lon="5.60539">
        <ele>859.716</ele>
        <time>2021-11-07T13:59:16Z</time>
      </trkpt>
      <trkpt lat="44.83976" lon="5.60539">
        <ele>859.71</ele>
        <time>2021-11-07T13:59:21Z</time>
      </trkpt>
      <trkpt lat="44.83976" lon="5.60539">
        <ele>859.694</ele>
        <time>2021-11-07T13:59:26Z</time>
      </trkpt>
      <trkpt lat="44.83976" lon="5.60539">
        <ele>859.69</ele>
        <time>2021-11-07T13:59:31Z</time>
      </trkpt>
      <trkpt lat="44.83976" lon="5.60539">
        <ele>859.688</ele>
        <time>2021-11-07T13:59:36Z</time>
      </trkpt>
      <trkpt lat="44.83976" lon="5.60539">
        <ele>859.687</ele>
        <time>2021-11-07T13:59:41Z</time>
      </trkpt>
      <trkpt lat="44.83976" lon="5.60539">
        <ele>859.681</ele>
        <time>2021-11-07T13:59:46Z</time>
      </trkpt>
      <trkpt lat="44.83976" lon="5.60539">
        <ele>859.69</ele>
        <time>2021-11-07T13:59:51Z</time>
      </trkpt>
      <trkpt lat="44.83976" lon="5.60539">
        <ele>859.68</ele>
        <time>2021-11-07T13:59:56Z</time>
      </trkpt>
      <trkpt lat="44.83976" lon="5.60539">
        <ele>859.676</ele>
        <time>2021-11-07T14:00:01Z</time>
      </trkpt>
      <trkpt lat="44.83976" lon="5.60539">
        <ele>859.664</ele>
        <time>2021-11-07T14:00:06Z</time>
      </trkpt>
      <trkpt lat="44.83976" lon="5.60539">
        <ele>859.645</ele>
        <time>2021-11-07T14:00:11Z</time>
      </trkpt>
      <trkpt lat="44.83976" lon="5.60539">
        <ele>859.624</ele>
        <time>2021-11-07T14:00:16Z</time>
      </trkpt>
      <trkpt lat="44.83976" lon="5.60539">
        <ele>859.612</ele>
        <time>2021-11-07T14:00:21Z</time>
      </trkpt>
      <trkpt lat="44.83976" lon="5.60539">
        <ele>859.602</ele>
        <time>2021-11-07T14:00:26Z</time>
      </trkpt>
      <trkpt lat="44.83976" lon="5.60539">
        <ele>859.606</ele>
        <time>2021-11-07T14:00:31Z</time>
      </trkpt>
      <trkpt lat="44.83976" lon="5.60539">
        <ele>859.729</ele>
        <time>2021-11-07T14:00:36Z</time>
      </trkpt>
      <trkpt lat="44.83976" lon="5.60538">
        <ele>859.92</ele>
        <time>2021-11-07T14:00:41Z</time>
      </trkpt>
      <trkpt lat="44.83976" lon="5.60538">
        <ele>860.593</ele>
        <time>2021-11-07T14:00:46Z</time>
      </trkpt>
      <trkpt lat="44.83974" lon="5.60536">
        <ele>859.719</ele>
        <time>2021-11-07T14:00:51Z</time>
      </trkpt>
      <trkpt lat="44.83974" lon="5.60535">
        <ele>860.023</ele>
        <time>2021-11-07T14:00:56Z</time>
      </trkpt>
      <trkpt lat="44.83974" lon="5.60535">
        <ele>859.891</ele>
        <time>2021-11-07T14:01:01Z</time>
      </trkpt>
      <trkpt lat="44.83974" lon="5.60535">
        <ele>860.283</ele>
        <time>2021-11-07T14:01:06Z</time>
      </trkpt>
      <trkpt lat="44.83974" lon="5.60535">
        <ele>860.276</ele>
        <time>2021-11-07T14:01:11Z</time>
      </trkpt>
      <trkpt lat="44.83974" lon="5.60535">
        <ele>860.275</ele>
        <time>2021-11-07T14:01:16Z</time>
      </trkpt>
      <trkpt lat="44.83974" lon="5.60535">
        <ele>860.271</ele>
        <time>2021-11-07T14:01:21Z</time>
      </trkpt>
      <trkpt lat="44.83975" lon="5.60537">
        <ele>858.773</ele>
        <time>2021-11-07T14:01:26Z</time>
      </trkpt>
      <trkpt lat="44.83976" lon="5.60537">
        <ele>859.752</ele>
        <time>2021-11-07T14:01:31Z</time>
      </trkpt>
      <trkpt lat="44.83976" lon="5.60538">
        <ele>859.418</ele>
        <time>2021-11-07T14:01:36Z</time>
      </trkpt>
      <trkpt lat="44.83981" lon="5.60544">
        <ele>858.423</ele>
        <time>2021-11-07T14:01:41Z</time>
      </trkpt>
      <trkpt lat="44.83986" lon="5.60557">
        <ele>858.462</ele>
        <time>2021-11-07T14:01:46Z</time>
      </trkpt>
      <trkpt lat="44.8398" lon="5.60564">
        <ele>858.927</ele>
        <time>2021-11-07T14:01:51Z</time>
      </trkpt>
      <trkpt lat="44.83977" lon="5.60565">
        <ele>858.891</ele>
        <time>2021-11-07T14:01:56Z</time>
      </trkpt>
      <trkpt lat="44.83976" lon="5.60566">
        <ele>859.855</ele>
        <time>2021-11-07T14:02:01Z</time>
      </trkpt>
      <trkpt lat="44.83976" lon="5.60567">
        <ele>860.341</ele>
        <time>2021-11-07T14:02:06Z</time>
      </trkpt>
      <trkpt lat="44.83976" lon="5.60567">
        <ele>860.624</ele>
        <time>2021-11-07T14:02:11Z</time>
      </trkpt>
      <trkpt lat="44.83976" lon="5.60566">
        <ele>862.111</ele>
        <time>2021-11-07T14:02:16Z</time>
      </trkpt>
      <trkpt lat="44.83976" lon="5.60566">
        <ele>862.358</ele>
        <time>2021-11-07T14:02:21Z</time>
      </trkpt>
      <trkpt lat="44.83976" lon="5.60566">
        <ele>862.751</ele>
        <time>2021-11-07T14:02:26Z</time>
      </trkpt>
      <trkpt lat="44.83976" lon="5.60566">
        <ele>862.744</ele>
        <time>2021-11-07T14:02:31Z</time>
      </trkpt>
      <trkpt lat="44.83976" lon="5.60566">
        <ele>862.737</ele>
        <time>2021-11-07T14:02:36Z</time>
      </trkpt>
      <trkpt lat="44.8398" lon="5.60569">
        <ele>861.673</ele>
        <time>2021-11-07T14:02:41Z</time>
      </trkpt>
      <trkpt lat="44.83987" lon="5.60575">
        <ele>861.053</ele>
        <time>2021-11-07T14:02:46Z</time>
      </trkpt>
      <trkpt lat="44.83997" lon="5.60585">
        <ele>860.604</ele>
        <time>2021-11-07T14:02:51Z</time>
      </trkpt>
      <trkpt lat="44.84005" lon="5.60591">
        <ele>861.881</ele>
        <time>2021-11-07T14:02:56Z</time>
      </trkpt>
      <trkpt lat="44.84011" lon="5.60596">
        <ele>863.144</ele>
        <time>2021-11-07T14:03:01Z</time>
      </trkpt>
      <trkpt lat="44.84017" lon="5.60602">
        <ele>864.334</ele>
        <time>2021-11-07T14:03:06Z</time>
      </trkpt>
      <trkpt lat="44.84022" lon="5.60608">
        <ele>865.804</ele>
        <time>2021-11-07T14:03:11Z</time>
      </trkpt>
      <trkpt lat="44.84027" lon="5.60613">
        <ele>867.082</ele>
        <time>2021-11-07T14:03:16Z</time>
      </trkpt>
      <trkpt lat="44.84033" lon="5.60617">
        <ele>867.766</ele>
        <time>2021-11-07T14:03:21Z</time>
      </trkpt>
      <trkpt lat="44.84038" lon="5.60619">
        <ele>868.657</ele>
        <time>2021-11-07T14:03:26Z</time>
      </trkpt>
      <trkpt lat="44.84044" lon="5.60625">
        <ele>868.059</ele>
        <time>2021-11-07T14:03:31Z</time>
      </trkpt>
      <trkpt lat="44.8405" lon="5.60635">
        <ele>868.771</ele>
        <time>2021-11-07T14:03:36Z</time>
      </trkpt>
      <trkpt lat="44.84055" lon="5.60646">
        <ele>868.828</ele>
        <time>2021-11-07T14:03:41Z</time>
      </trkpt>
      <trkpt lat="44.84062" lon="5.60655">
        <ele>869.251</ele>
        <time>2021-11-07T14:03:46Z</time>
      </trkpt>
      <trkpt lat="44.84068" lon="5.60665">
        <ele>868.911</ele>
        <time>2021-11-07T14:03:51Z</time>
      </trkpt>
      <trkpt lat="44.84074" lon="5.60673">
        <ele>867.943</ele>
        <time>2021-11-07T14:03:56Z</time>
      </trkpt>
      <trkpt lat="44.84076" lon="5.60675">
        <ele>867.948</ele>
        <time>2021-11-07T14:04:01Z</time>
      </trkpt>
      <trkpt lat="44.84076" lon="5.60675">
        <ele>867.887</ele>
        <time>2021-11-07T14:04:06Z</time>
      </trkpt>
      <trkpt lat="44.84076" lon="5.60675">
        <ele>868.191</ele>
        <time>2021-11-07T14:04:11Z</time>
      </trkpt>
      <trkpt lat="44.84078" lon="5.60677">
        <ele>868.398</ele>
        <time>2021-11-07T14:04:16Z</time>
      </trkpt>
      <trkpt lat="44.84083" lon="5.60675">
        <ele>866.993</ele>
        <time>2021-11-07T14:04:21Z</time>
      </trkpt>
      <trkpt lat="44.84078" lon="5.60667">
        <ele>867.227</ele>
        <time>2021-11-07T14:04:26Z</time>
      </trkpt>
      <trkpt lat="44.84073" lon="5.60659">
        <ele>868.359</ele>
        <time>2021-11-07T14:04:31Z</time>
      </trkpt>
      <trkpt lat="44.84069" lon="5.6065">
        <ele>869.644</ele>
        <time>2021-11-07T14:04:36Z</time>
      </trkpt>
      <trkpt lat="44.84066" lon="5.60642">
        <ele>870.832</ele>
        <time>2021-11-07T14:04:41Z</time>
      </trkpt>
      <trkpt lat="44.84063" lon="5.60633">
        <ele>872.197</ele>
        <time>2021-11-07T14:04:46Z</time>
      </trkpt>
      <trkpt lat="44.84062" lon="5.60623">
        <ele>873.528</ele>
        <time>2021-11-07T14:04:51Z</time>
      </trkpt>
      <trkpt lat="44.84064" lon="5.60615">
        <ele>874.048</ele>
        <time>2021-11-07T14:04:56Z</time>
      </trkpt>
      <trkpt lat="44.84067" lon="5.60608">
        <ele>874.884</ele>
        <time>2021-11-07T14:05:01Z</time>
      </trkpt>
      <trkpt lat="44.84071" lon="5.60602">
        <ele>875.643</ele>
        <time>2021-11-07T14:05:06Z</time>
      </trkpt>
      <trkpt lat="44.84077" lon="5.60597">
        <ele>877.774</ele>
        <time>2021-11-07T14:05:11Z</time>
      </trkpt>
      <trkpt lat="44.84082" lon="5.60592">
        <ele>878.49</ele>
        <time>2021-11-07T14:05:16Z</time>
      </trkpt>
      <trkpt lat="44.84086" lon="5.60587">
        <ele>880.354</ele>
        <time>2021-11-07T14:05:21Z</time>
      </trkpt>
      <trkpt lat="44.8409" lon="5.60581">
        <ele>881.7</ele>
        <time>2021-11-07T14:05:26Z</time>
      </trkpt>
      <trkpt lat="44.84095" lon="5.60577">
        <ele>882.511</ele>
        <time>2021-11-07T14:05:31Z</time>
      </trkpt>
      <trkpt lat="44.84099" lon="5.60573">
        <ele>883.535</ele>
        <time>2021-11-07T14:05:36Z</time>
      </trkpt>
      <trkpt lat="44.84103" lon="5.60569">
        <ele>884.833</ele>
        <time>2021-11-07T14:05:41Z</time>
      </trkpt>
      <trkpt lat="44.84106" lon="5.60563">
        <ele>886.173</ele>
        <time>2021-11-07T14:05:46Z</time>
      </trkpt>
      <trkpt lat="44.8411" lon="5.60559">
        <ele>887.447</ele>
        <time>2021-11-07T14:05:51Z</time>
      </trkpt>
      <trkpt lat="44.84114" lon="5.60553">
        <ele>888.118</ele>
        <time>2021-11-07T14:05:56Z</time>
      </trkpt>
      <trkpt lat="44.84118" lon="5.60549">
        <ele>889.188</ele>
        <time>2021-11-07T14:06:01Z</time>
      </trkpt>
      <trkpt lat="44.84122" lon="5.60542">
        <ele>889.622</ele>
        <time>2021-11-07T14:06:06Z</time>
      </trkpt>
      <trkpt lat="44.84125" lon="5.60536">
        <ele>891.242</ele>
        <time>2021-11-07T14:06:11Z</time>
      </trkpt>
      <trkpt lat="44.84129" lon="5.6053">
        <ele>892.936</ele>
        <time>2021-11-07T14:06:16Z</time>
      </trkpt>
      <trkpt lat="44.84132" lon="5.60524">
        <ele>893.208</ele>
        <time>2021-11-07T14:06:21Z</time>
      </trkpt>
      <trkpt lat="44.84135" lon="5.60519">
        <ele>894.123</ele>
        <time>2021-11-07T14:06:26Z</time>
      </trkpt>
      <trkpt lat="44.84138" lon="5.60513">
        <ele>894.535</ele>
        <time>2021-11-07T14:06:31Z</time>
      </trkpt>
      <trkpt lat="44.84141" lon="5.60508">
        <ele>896.221</ele>
        <time>2021-11-07T14:06:36Z</time>
      </trkpt>
      <trkpt lat="44.84144" lon="5.60502">
        <ele>897.874</ele>
        <time>2021-11-07T14:06:41Z</time>
      </trkpt>
      <trkpt lat="44.84148" lon="5.60496">
        <ele>899.147</ele>
        <time>2021-11-07T14:06:46Z</time>
      </trkpt>
      <trkpt lat="44.84151" lon="5.60491">
        <ele>900.273</ele>
        <time>2021-11-07T14:06:51Z</time>
      </trkpt>
      <trkpt lat="44.84151" lon="5.6049">
        <ele>900.47</ele>
        <time>2021-11-07T14:06:56Z</time>
      </trkpt>
      <trkpt lat="44.84151" lon="5.6049">
        <ele>900.54</ele>
        <time>2021-11-07T14:07:01Z</time>
      </trkpt>
      <trkpt lat="44.84152" lon="5.6049">
        <ele>900.453</ele>
        <time>2021-11-07T14:07:06Z</time>
      </trkpt>
      <trkpt lat="44.84153" lon="5.6049">
        <ele>900.306</ele>
        <time>2021-11-07T14:07:11Z</time>
      </trkpt>
      <trkpt lat="44.84159" lon="5.60488">
        <ele>902.864</ele>
        <time>2021-11-07T14:07:16Z</time>
      </trkpt>
      <trkpt lat="44.84165" lon="5.60488">
        <ele>903.853</ele>
        <time>2021-11-07T14:07:21Z</time>
      </trkpt>
      <trkpt lat="44.84171" lon="5.60489">
        <ele>904.546</ele>
        <time>2021-11-07T14:07:26Z</time>
      </trkpt>
      <trkpt lat="44.84177" lon="5.60492">
        <ele>905.52</ele>
        <time>2021-11-07T14:07:31Z</time>
      </trkpt>
      <trkpt lat="44.84183" lon="5.60499">
        <ele>906.394</ele>
        <time>2021-11-07T14:07:36Z</time>
      </trkpt>
      <trkpt lat="44.84187" lon="5.60507">
        <ele>907.736</ele>
        <time>2021-11-07T14:07:41Z</time>
      </trkpt>
      <trkpt lat="44.8419" lon="5.60514">
        <ele>907.874</ele>
        <time>2021-11-07T14:07:46Z</time>
      </trkpt>
      <trkpt lat="44.84195" lon="5.60523">
        <ele>907.61</ele>
        <time>2021-11-07T14:07:51Z</time>
      </trkpt>
      <trkpt lat="44.84199" lon="5.60531">
        <ele>907.592</ele>
        <time>2021-11-07T14:07:56Z</time>
      </trkpt>
      <trkpt lat="44.84204" lon="5.60538">
        <ele>907.383</ele>
        <time>2021-11-07T14:08:01Z</time>
      </trkpt>
      <trkpt lat="44.8421" lon="5.60543">
        <ele>909.725</ele>
        <time>2021-11-07T14:08:06Z</time>
      </trkpt>
      <trkpt lat="44.84216" lon="5.60545">
        <ele>911.454</ele>
        <time>2021-11-07T14:08:11Z</time>
      </trkpt>
      <trkpt lat="44.84223" lon="5.60545">
        <ele>913.475</ele>
        <time>2021-11-07T14:08:16Z</time>
      </trkpt>
      <trkpt lat="44.8423" lon="5.60545">
        <ele>914.378</ele>
        <time>2021-11-07T14:08:21Z</time>
      </trkpt>
      <trkpt lat="44.84236" lon="5.60547">
        <ele>916.478</ele>
        <time>2021-11-07T14:08:26Z</time>
      </trkpt>
      <trkpt lat="44.84243" lon="5.60548">
        <ele>916.861</ele>
        <time>2021-11-07T14:08:31Z</time>
      </trkpt>
      <trkpt lat="44.84249" lon="5.60551">
        <ele>917.63</ele>
        <time>2021-11-07T14:08:36Z</time>
      </trkpt>
      <trkpt lat="44.84255" lon="5.60552">
        <ele>918.591</ele>
        <time>2021-11-07T14:08:41Z</time>
      </trkpt>
      <trkpt lat="44.84261" lon="5.60555">
        <ele>919.768</ele>
        <time>2021-11-07T14:08:46Z</time>
      </trkpt>
      <trkpt lat="44.84268" lon="5.60557">
        <ele>921.453</ele>
        <time>2021-11-07T14:08:51Z</time>
      </trkpt>
      <trkpt lat="44.84274" lon="5.60561">
        <ele>921.661</ele>
        <time>2021-11-07T14:08:56Z</time>
      </trkpt>
      <trkpt lat="44.84281" lon="5.60563">
        <ele>923.055</ele>
        <time>2021-11-07T14:09:01Z</time>
      </trkpt>
      <trkpt lat="44.84287" lon="5.60565">
        <ele>924.777</ele>
        <time>2021-11-07T14:09:06Z</time>
      </trkpt>
      <trkpt lat="44.84294" lon="5.60567">
        <ele>925.676</ele>
        <time>2021-11-07T14:09:11Z</time>
      </trkpt>
      <trkpt lat="44.843" lon="5.60568">
        <ele>927.371</ele>
        <time>2021-11-07T14:09:16Z</time>
      </trkpt>
      <trkpt lat="44.84305" lon="5.60568">
        <ele>928.495</ele>
        <time>2021-11-07T14:09:21Z</time>
      </trkpt>
      <trkpt lat="44.8431" lon="5.60569">
        <ele>929.422</ele>
        <time>2021-11-07T14:09:26Z</time>
      </trkpt>
      <trkpt lat="44.84315" lon="5.6057">
        <ele>930.973</ele>
        <time>2021-11-07T14:09:31Z</time>
      </trkpt>
      <trkpt lat="44.8432" lon="5.60576">
        <ele>932.072</ele>
        <time>2021-11-07T14:09:36Z</time>
      </trkpt>
      <trkpt lat="44.84325" lon="5.60581">
        <ele>931.933</ele>
        <time>2021-11-07T14:09:41Z</time>
      </trkpt>
      <trkpt lat="44.84327" lon="5.60588">
        <ele>932.992</ele>
        <time>2021-11-07T14:09:46Z</time>
      </trkpt>
      <trkpt lat="44.84331" lon="5.60593">
        <ele>932.771</ele>
        <time>2021-11-07T14:09:51Z</time>
      </trkpt>
      <trkpt lat="44.84336" lon="5.60596">
        <ele>933.452</ele>
        <time>2021-11-07T14:09:56Z</time>
      </trkpt>
      <trkpt lat="44.84341" lon="5.60599">
        <ele>934.839</ele>
        <time>2021-11-07T14:10:01Z</time>
      </trkpt>
      <trkpt lat="44.84345" lon="5.60603">
        <ele>935.653</ele>
        <time>2021-11-07T14:10:06Z</time>
      </trkpt>
      <trkpt lat="44.8435" lon="5.60607">
        <ele>937.855</ele>
        <time>2021-11-07T14:10:11Z</time>
      </trkpt>
      <trkpt lat="44.84354" lon="5.60611">
        <ele>936.342</ele>
        <time>2021-11-07T14:10:16Z</time>
      </trkpt>
      <trkpt lat="44.84359" lon="5.60615">
        <ele>935.063</ele>
        <time>2021-11-07T14:10:21Z</time>
      </trkpt>
      <trkpt lat="44.84364" lon="5.60619">
        <ele>936.582</ele>
        <time>2021-11-07T14:10:26Z</time>
      </trkpt>
      <trkpt lat="44.84371" lon="5.60623">
        <ele>937.44</ele>
        <time>2021-11-07T14:10:31Z</time>
      </trkpt>
      <trkpt lat="44.84377" lon="5.60626">
        <ele>937.642</ele>
        <time>2021-11-07T14:10:36Z</time>
      </trkpt>
      <trkpt lat="44.84384" lon="5.60631">
        <ele>937.321</ele>
        <time>2021-11-07T14:10:41Z</time>
      </trkpt>
      <trkpt lat="44.84389" lon="5.60639">
        <ele>937.228</ele>
        <time>2021-11-07T14:10:46Z</time>
      </trkpt>
      <trkpt lat="44.84392" lon="5.60647">
        <ele>936.972</ele>
        <time>2021-11-07T14:10:51Z</time>
      </trkpt>
      <trkpt lat="44.84392" lon="5.60648">
        <ele>936.978</ele>
        <time>2021-11-07T14:10:56Z</time>
      </trkpt>
      <trkpt lat="44.84392" lon="5.60648">
        <ele>936.916</ele>
        <time>2021-11-07T14:11:01Z</time>
      </trkpt>
      <trkpt lat="44.84392" lon="5.60648">
        <ele>937.009</ele>
        <time>2021-11-07T14:11:06Z</time>
      </trkpt>
      <trkpt lat="44.84392" lon="5.60648">
        <ele>937.025</ele>
        <time>2021-11-07T14:11:11Z</time>
      </trkpt>
      <trkpt lat="44.84392" lon="5.60648">
        <ele>938.089</ele>
        <time>2021-11-07T14:11:16Z</time>
      </trkpt>
      <trkpt lat="44.84391" lon="5.60648">
        <ele>938.476</ele>
        <time>2021-11-07T14:11:21Z</time>
      </trkpt>
      <trkpt lat="44.84391" lon="5.60648">
        <ele>938.599</ele>
        <time>2021-11-07T14:11:26Z</time>
      </trkpt>
      <trkpt lat="44.84391" lon="5.60648">
        <ele>938.603</ele>
        <time>2021-11-07T14:11:31Z</time>
      </trkpt>
      <trkpt lat="44.84391" lon="5.60648">
        <ele>938.598</ele>
        <time>2021-11-07T14:11:36Z</time>
      </trkpt>
      <trkpt lat="44.84391" lon="5.60648">
        <ele>938.584</ele>
        <time>2021-11-07T14:11:41Z</time>
      </trkpt>
      <trkpt lat="44.84391" lon="5.60648">
        <ele>938.572</ele>
        <time>2021-11-07T14:11:46Z</time>
      </trkpt>
      <trkpt lat="44.84391" lon="5.60648">
        <ele>938.935</ele>
        <time>2021-11-07T14:11:51Z</time>
      </trkpt>
      <trkpt lat="44.84391" lon="5.60648">
        <ele>938.907</ele>
        <time>2021-11-07T14:11:56Z</time>
      </trkpt>
      <trkpt lat="44.84391" lon="5.60648">
        <ele>938.817</ele>
        <time>2021-11-07T14:12:01Z</time>
      </trkpt>
      <trkpt lat="44.84391" lon="5.60648">
        <ele>938.829</ele>
        <time>2021-11-07T14:12:06Z</time>
      </trkpt>
      <trkpt lat="44.84391" lon="5.60648">
        <ele>938.832</ele>
        <time>2021-11-07T14:12:11Z</time>
      </trkpt>
      <trkpt lat="44.84391" lon="5.60648">
        <ele>938.831</ele>
        <time>2021-11-07T14:12:16Z</time>
      </trkpt>
      <trkpt lat="44.84391" lon="5.60648">
        <ele>938.834</ele>
        <time>2021-11-07T14:12:21Z</time>
      </trkpt>
      <trkpt lat="44.84391" lon="5.60648">
        <ele>938.84</ele>
        <time>2021-11-07T14:12:26Z</time>
      </trkpt>
      <trkpt lat="44.84391" lon="5.60648">
        <ele>938.84</ele>
        <time>2021-11-07T14:12:31Z</time>
      </trkpt>
      <trkpt lat="44.84391" lon="5.60648">
        <ele>938.839</ele>
        <time>2021-11-07T14:12:36Z</time>
      </trkpt>
      <trkpt lat="44.84391" lon="5.60648">
        <ele>938.845</ele>
        <time>2021-11-07T14:12:41Z</time>
      </trkpt>
      <trkpt lat="44.84391" lon="5.60648">
        <ele>938.85</ele>
        <time>2021-11-07T14:12:46Z</time>
      </trkpt>
      <trkpt lat="44.84391" lon="5.60648">
        <ele>938.855</ele>
        <time>2021-11-07T14:12:51Z</time>
      </trkpt>
      <trkpt lat="44.84391" lon="5.60648">
        <ele>938.867</ele>
        <time>2021-11-07T14:12:56Z</time>
      </trkpt>
      <trkpt lat="44.84391" lon="5.60648">
        <ele>938.877</ele>
        <time>2021-11-07T14:13:01Z</time>
      </trkpt>
      <trkpt lat="44.84391" lon="5.60648">
        <ele>938.882</ele>
        <time>2021-11-07T14:13:06Z</time>
      </trkpt>
      <trkpt lat="44.84391" lon="5.60648">
        <ele>938.884</ele>
        <time>2021-11-07T14:13:11Z</time>
      </trkpt>
      <trkpt lat="44.84391" lon="5.60648">
        <ele>938.885</ele>
        <time>2021-11-07T14:13:16Z</time>
      </trkpt>
      <trkpt lat="44.84391" lon="5.60649">
        <ele>941.232</ele>
        <time>2021-11-07T14:13:21Z</time>
      </trkpt>
      <trkpt lat="44.84391" lon="5.60649">
        <ele>942.116</ele>
        <time>2021-11-07T14:13:26Z</time>
      </trkpt>
      <trkpt lat="44.84395" lon="5.60653">
        <ele>940.423</ele>
        <time>2021-11-07T14:13:31Z</time>
      </trkpt>
      <trkpt lat="44.8441" lon="5.60664">
        <ele>940.672</ele>
        <time>2021-11-07T14:13:36Z</time>
      </trkpt>
      <trkpt lat="44.84427" lon="5.60675">
        <ele>939.881</ele>
        <time>2021-11-07T14:13:41Z</time>
      </trkpt>
      <trkpt lat="44.8444" lon="5.60684">
        <ele>941.357</ele>
        <time>2021-11-07T14:13:46Z</time>
      </trkpt>
      <trkpt lat="44.84451" lon="5.60693">
        <ele>943.795</ele>
        <time>2021-11-07T14:13:51Z</time>
      </trkpt>
      <trkpt lat="44.84463" lon="5.607">
        <ele>945.837</ele>
        <time>2021-11-07T14:13:56Z</time>
      </trkpt>
      <trkpt lat="44.84472" lon="5.60707">
        <ele>945.965</ele>
        <time>2021-11-07T14:14:01Z</time>
      </trkpt>
      <trkpt lat="44.84484" lon="5.60718">
        <ele>945.531</ele>
        <time>2021-11-07T14:14:06Z</time>
      </trkpt>
      <trkpt lat="44.84501" lon="5.60733">
        <ele>943.767</ele>
        <time>2021-11-07T14:14:11Z</time>
      </trkpt>
      <trkpt lat="44.84517" lon="5.60746">
        <ele>943.185</ele>
        <time>2021-11-07T14:14:16Z</time>
      </trkpt>
      <trkpt lat="44.84531" lon="5.60758">
        <ele>944.298</ele>
        <time>2021-11-07T14:14:21Z</time>
      </trkpt>
      <trkpt lat="44.84542" lon="5.60766">
        <ele>945.198</ele>
        <time>2021-11-07T14:14:26Z</time>
      </trkpt>
      <trkpt lat="44.84553" lon="5.60772">
        <ele>946.661</ele>
        <time>2021-11-07T14:14:31Z</time>
      </trkpt>
      <trkpt lat="44.84564" lon="5.60778">
        <ele>946.504</ele>
        <time>2021-11-07T14:14:36Z</time>
      </trkpt>
      <trkpt lat="44.84575" lon="5.60785">
        <ele>947.101</ele>
        <time>2021-11-07T14:14:41Z</time>
      </trkpt>
      <trkpt lat="44.84586" lon="5.60791">
        <ele>947.237</ele>
        <time>2021-11-07T14:14:46Z</time>
      </trkpt>
      <trkpt lat="44.84596" lon="5.60798">
        <ele>949.073</ele>
        <time>2021-11-07T14:14:51Z</time>
      </trkpt>
      <trkpt lat="44.84606" lon="5.60803">
        <ele>950.88</ele>
        <time>2021-11-07T14:14:56Z</time>
      </trkpt>
      <trkpt lat="44.84616" lon="5.60805">
        <ele>952.49</ele>
        <time>2021-11-07T14:15:01Z</time>
      </trkpt>
      <trkpt lat="44.84628" lon="5.60805">
        <ele>952.842</ele>
        <time>2021-11-07T14:15:06Z</time>
      </trkpt>
      <trkpt lat="44.84639" lon="5.60804">
        <ele>954.18</ele>
        <time>2021-11-07T14:15:11Z</time>
      </trkpt>
      <trkpt lat="44.84649" lon="5.60804">
        <ele>955.513</ele>
        <time>2021-11-07T14:15:16Z</time>
      </trkpt>
      <trkpt lat="44.84659" lon="5.60803">
        <ele>955.827</ele>
        <time>2021-11-07T14:15:21Z</time>
      </trkpt>
      <trkpt lat="44.84673" lon="5.60803">
        <ele>955.081</ele>
        <time>2021-11-07T14:15:26Z</time>
      </trkpt>
      <trkpt lat="44.84687" lon="5.60801">
        <ele>956.145</ele>
        <time>2021-11-07T14:15:31Z</time>
      </trkpt>
      <trkpt lat="44.84701" lon="5.60798">
        <ele>956.768</ele>
        <time>2021-11-07T14:15:36Z</time>
      </trkpt>
      <trkpt lat="44.84715" lon="5.60792">
        <ele>956.838</ele>
        <time>2021-11-07T14:15:41Z</time>
      </trkpt>
      <trkpt lat="44.84728" lon="5.60787">
        <ele>957.188</ele>
        <time>2021-11-07T14:15:46Z</time>
      </trkpt>
      <trkpt lat="44.84742" lon="5.6079">
        <ele>958.753</ele>
        <time>2021-11-07T14:15:51Z</time>
      </trkpt>
      <trkpt lat="44.84761" lon="5.60797">
        <ele>955.851</ele>
        <time>2021-11-07T14:15:56Z</time>
      </trkpt>
      <trkpt lat="44.84783" lon="5.60806">
        <ele>955.049</ele>
        <time>2021-11-07T14:16:01Z</time>
      </trkpt>
      <trkpt lat="44.84811" lon="5.60813">
        <ele>951.971</ele>
        <time>2021-11-07T14:16:06Z</time>
      </trkpt>
      <trkpt lat="44.84846" lon="5.60797">
        <ele>949.421</ele>
        <time>2021-11-07T14:16:11Z</time>
      </trkpt>
      <trkpt lat="44.8487" lon="5.60792">
        <ele>949.739</ele>
        <time>2021-11-07T14:16:16Z</time>
      </trkpt>
      <trkpt lat="44.84885" lon="5.60787">
        <ele>949.252</ele>
        <time>2021-11-07T14:16:21Z</time>
      </trkpt>
      <trkpt lat="44.84903" lon="5.6078">
        <ele>948.756</ele>
        <time>2021-11-07T14:16:26Z</time>
      </trkpt>
      <trkpt lat="44.84912" lon="5.60776">
        <ele>950.028</ele>
        <time>2021-11-07T14:16:31Z</time>
      </trkpt>
      <trkpt lat="44.8492" lon="5.60772">
        <ele>953.11</ele>
        <time>2021-11-07T14:16:36Z</time>
      </trkpt>
      <trkpt lat="44.84926" lon="5.60766">
        <ele>952.011</ele>
        <time>2021-11-07T14:16:41Z</time>
      </trkpt>
      <trkpt lat="44.84931" lon="5.60761">
        <ele>951.853</ele>
        <time>2021-11-07T14:16:46Z</time>
      </trkpt>
      <trkpt lat="44.84935" lon="5.60755">
        <ele>952.501</ele>
        <time>2021-11-07T14:16:51Z</time>
      </trkpt>
      <trkpt lat="44.84941" lon="5.6075">
        <ele>953.461</ele>
        <time>2021-11-07T14:16:56Z</time>
      </trkpt>
      <trkpt lat="44.84948" lon="5.60745">
        <ele>956.313</ele>
        <time>2021-11-07T14:17:01Z</time>
      </trkpt>
      <trkpt lat="44.84954" lon="5.60739">
        <ele>957.003</ele>
        <time>2021-11-07T14:17:06Z</time>
      </trkpt>
      <trkpt lat="44.8496" lon="5.60735">
        <ele>959.314</ele>
        <time>2021-11-07T14:17:11Z</time>
      </trkpt>
      <trkpt lat="44.84966" lon="5.6073">
        <ele>961.236</ele>
        <time>2021-11-07T14:17:16Z</time>
      </trkpt>
      <trkpt lat="44.84969" lon="5.60728">
        <ele>962.102</ele>
        <time>2021-11-07T14:17:21Z</time>
      </trkpt>
      <trkpt lat="44.84975" lon="5.60728">
        <ele>962.461</ele>
        <time>2021-11-07T14:17:26Z</time>
      </trkpt>
      <trkpt lat="44.84978" lon="5.60728">
        <ele>963.018</ele>
        <time>2021-11-07T14:17:31Z</time>
      </trkpt>
      <trkpt lat="44.84979" lon="5.60728">
        <ele>962.004</ele>
        <time>2021-11-07T14:17:36Z</time>
      </trkpt>
      <trkpt lat="44.84979" lon="5.60728">
        <ele>961.906</ele>
        <time>2021-11-07T14:17:41Z</time>
      </trkpt>
      <trkpt lat="44.84979" lon="5.60728">
        <ele>961.927</ele>
        <time>2021-11-07T14:17:46Z</time>
      </trkpt>
      <trkpt lat="44.84979" lon="5.60728">
        <ele>961.927</ele>
        <time>2021-11-07T14:17:51Z</time>
      </trkpt>
      <trkpt lat="44.84979" lon="5.60728">
        <ele>961.927</ele>
        <time>2021-11-07T14:17:56Z</time>
      </trkpt>
      <trkpt lat="44.84982" lon="5.60729">
        <ele>962.342</ele>
        <time>2021-11-07T14:18:01Z</time>
      </trkpt>
      <trkpt lat="44.84989" lon="5.60737">
        <ele>959.686</ele>
        <time>2021-11-07T14:18:06Z</time>
      </trkpt>
      <trkpt lat="44.8499" lon="5.60738">
        <ele>959.792</ele>
        <time>2021-11-07T14:18:11Z</time>
      </trkpt>
      <trkpt lat="44.8499" lon="5.60738">
        <ele>960.133</ele>
        <time>2021-11-07T14:18:16Z</time>
      </trkpt>
      <trkpt lat="44.8499" lon="5.60738">
        <ele>960.134</ele>
        <time>2021-11-07T14:18:21Z</time>
      </trkpt>
      <trkpt lat="44.8499" lon="5.60738">
        <ele>960.141</ele>
        <time>2021-11-07T14:18:26Z</time>
      </trkpt>
      <trkpt lat="44.8499" lon="5.60738">
        <ele>960.153</ele>
        <time>2021-11-07T14:18:31Z</time>
      </trkpt>
      <trkpt lat="44.8499" lon="5.60738">
        <ele>960.161</ele>
        <time>2021-11-07T14:18:36Z</time>
      </trkpt>
      <trkpt lat="44.8499" lon="5.60738">
        <ele>960.183</ele>
        <time>2021-11-07T14:18:41Z</time>
      </trkpt>
      <trkpt lat="44.8499" lon="5.60738">
        <ele>960.199</ele>
        <time>2021-11-07T14:18:46Z</time>
      </trkpt>
      <trkpt lat="44.8499" lon="5.60738">
        <ele>960.209</ele>
        <time>2021-11-07T14:18:51Z</time>
      </trkpt>
      <trkpt lat="44.8499" lon="5.60738">
        <ele>960.209</ele>
        <time>2021-11-07T14:18:56Z</time>
      </trkpt>
      <trkpt lat="44.8499" lon="5.60738">
        <ele>960.203</ele>
        <time>2021-11-07T14:19:01Z</time>
      </trkpt>
      <trkpt lat="44.8499" lon="5.60738">
        <ele>960.195</ele>
        <time>2021-11-07T14:19:06Z</time>
      </trkpt>
      <trkpt lat="44.8499" lon="5.60738">
        <ele>960.188</ele>
        <time>2021-11-07T14:19:11Z</time>
      </trkpt>
      <trkpt lat="44.8499" lon="5.60738">
        <ele>960.17</ele>
        <time>2021-11-07T14:19:16Z</time>
      </trkpt>
      <trkpt lat="44.84992" lon="5.60739">
        <ele>959.38</ele>
        <time>2021-11-07T14:19:21Z</time>
      </trkpt>
      <trkpt lat="44.85003" lon="5.60746">
        <ele>956.577</ele>
        <time>2021-11-07T14:19:26Z</time>
      </trkpt>
      <trkpt lat="44.85015" lon="5.60747">
        <ele>955.36</ele>
        <time>2021-11-07T14:19:31Z</time>
      </trkpt>
      <trkpt lat="44.85031" lon="5.60745">
        <ele>955.353</ele>
        <time>2021-11-07T14:19:36Z</time>
      </trkpt>
      <trkpt lat="44.85046" lon="5.60742">
        <ele>955.775</ele>
        <time>2021-11-07T14:19:41Z</time>
      </trkpt>
      <trkpt lat="44.85084" lon="5.60742">
        <ele>952.032</ele>
        <time>2021-11-07T14:19:46Z</time>
      </trkpt>
      <trkpt lat="44.85121" lon="5.60759">
        <ele>947.23</ele>
        <time>2021-11-07T14:19:51Z</time>
      </trkpt>
      <trkpt lat="44.85154" lon="5.60774">
        <ele>943.915</ele>
        <time>2021-11-07T14:19:56Z</time>
      </trkpt>
      <trkpt lat="44.85177" lon="5.60785">
        <ele>944.771</ele>
        <time>2021-11-07T14:20:01Z</time>
      </trkpt>
      <trkpt lat="44.85196" lon="5.60788">
        <ele>945.104</ele>
        <time>2021-11-07T14:20:06Z</time>
      </trkpt>
      <trkpt lat="44.85212" lon="5.60788">
        <ele>946.132</ele>
        <time>2021-11-07T14:20:11Z</time>
      </trkpt>
      <trkpt lat="44.85228" lon="5.60784">
        <ele>945.911</ele>
        <time>2021-11-07T14:20:16Z</time>
      </trkpt>
      <trkpt lat="44.85251" lon="5.60783">
        <ele>945.231</ele>
        <time>2021-11-07T14:20:21Z</time>
      </trkpt>
      <trkpt lat="44.85277" lon="5.60781">
        <ele>945.048</ele>
        <time>2021-11-07T14:20:26Z</time>
      </trkpt>
      <trkpt lat="44.85284" lon="5.60785">
        <ele>945.453</ele>
        <time>2021-11-07T14:20:31Z</time>
      </trkpt>
      <trkpt lat="44.85283" lon="5.60785">
        <ele>946.467</ele>
        <time>2021-11-07T14:20:36Z</time>
      </trkpt>
      <trkpt lat="44.85286" lon="5.60785">
        <ele>946.805</ele>
        <time>2021-11-07T14:20:41Z</time>
      </trkpt>
      <trkpt lat="44.85286" lon="5.60784">
        <ele>948.797</ele>
        <time>2021-11-07T14:20:46Z</time>
      </trkpt>
      <trkpt lat="44.85286" lon="5.60785">
        <ele>949.999</ele>
        <time>2021-11-07T14:20:51Z</time>
      </trkpt>
      <trkpt lat="44.85286" lon="5.60785">
        <ele>951.459</ele>
        <time>2021-11-07T14:20:56Z</time>
      </trkpt>
      <trkpt lat="44.85287" lon="5.60785">
        <ele>951.606</ele>
        <time>2021-11-07T14:21:01Z</time>
      </trkpt>
      <trkpt lat="44.85287" lon="5.60785">
        <ele>951.597</ele>
        <time>2021-11-07T14:21:06Z</time>
      </trkpt>
      <trkpt lat="44.85287" lon="5.60785">
        <ele>951.599</ele>
        <time>2021-11-07T14:21:11Z</time>
      </trkpt>
      <trkpt lat="44.85287" lon="5.60785">
        <ele>951.603</ele>
        <time>2021-11-07T14:21:16Z</time>
      </trkpt>
      <trkpt lat="44.85287" lon="5.60785">
        <ele>951.589</ele>
        <time>2021-11-07T14:21:21Z</time>
      </trkpt>
      <trkpt lat="44.85286" lon="5.60794">
        <ele>949.733</ele>
        <time>2021-11-07T14:21:26Z</time>
      </trkpt>
      <trkpt lat="44.85286" lon="5.60824">
        <ele>944.403</ele>
        <time>2021-11-07T14:21:31Z</time>
      </trkpt>
      <trkpt lat="44.8529" lon="5.6086">
        <ele>938.801</ele>
        <time>2021-11-07T14:21:36Z</time>
      </trkpt>
      <trkpt lat="44.85301" lon="5.60884">
        <ele>935.477</ele>
        <time>2021-11-07T14:21:41Z</time>
      </trkpt>
      <trkpt lat="44.85313" lon="5.60879">
        <ele>933.86</ele>
        <time>2021-11-07T14:21:46Z</time>
      </trkpt>
      <trkpt lat="44.85325" lon="5.60854">
        <ele>931.264</ele>
        <time>2021-11-07T14:21:51Z</time>
      </trkpt>
      <trkpt lat="44.85351" lon="5.6083">
        <ele>929.153</ele>
        <time>2021-11-07T14:21:56Z</time>
      </trkpt>
      <trkpt lat="44.85378" lon="5.60799">
        <ele>928.444</ele>
        <time>2021-11-07T14:22:01Z</time>
      </trkpt>
      <trkpt lat="44.85401" lon="5.60778">
        <ele>924.897</ele>
        <time>2021-11-07T14:22:06Z</time>
      </trkpt>
      <trkpt lat="44.85424" lon="5.6076">
        <ele>922.465</ele>
        <time>2021-11-07T14:22:11Z</time>
      </trkpt>
      <trkpt lat="44.85441" lon="5.60748">
        <ele>917.161</ele>
        <time>2021-11-07T14:22:16Z</time>
      </trkpt>
      <trkpt lat="44.85455" lon="5.60741">
        <ele>911.85</ele>
        <time>2021-11-07T14:22:21Z</time>
      </trkpt>
      <trkpt lat="44.85469" lon="5.60731">
        <ele>907.578</ele>
        <time>2021-11-07T14:22:26Z</time>
      </trkpt>
      <trkpt lat="44.85481" lon="5.60726">
        <ele>904.794</ele>
        <time>2021-11-07T14:22:31Z</time>
      </trkpt>
      <trkpt lat="44.85486" lon="5.60719">
        <ele>902.115</ele>
        <time>2021-11-07T14:22:36Z</time>
      </trkpt>
      <trkpt lat="44.85494" lon="5.60715">
        <ele>900.052</ele>
        <time>2021-11-07T14:22:41Z</time>
      </trkpt>
      <trkpt lat="44.85503" lon="5.6072">
        <ele>899.577</ele>
        <time>2021-11-07T14:22:46Z</time>
      </trkpt>
      <trkpt lat="44.8552" lon="5.60716">
        <ele>896.447</ele>
        <time>2021-11-07T14:22:51Z</time>
      </trkpt>
      <trkpt lat="44.85524" lon="5.60714">
        <ele>894.568</ele>
        <time>2021-11-07T14:22:56Z</time>
      </trkpt>
      <trkpt lat="44.85529" lon="5.60711">
        <ele>894.749</ele>
        <time>2021-11-07T14:23:01Z</time>
      </trkpt>
      <trkpt lat="44.85534" lon="5.60704">
        <ele>895.828</ele>
        <time>2021-11-07T14:23:06Z</time>
      </trkpt>
      <trkpt lat="44.85544" lon="5.60698">
        <ele>894.956</ele>
        <time>2021-11-07T14:23:11Z</time>
      </trkpt>
      <trkpt lat="44.8555" lon="5.60685">
        <ele>896.722</ele>
        <time>2021-11-07T14:23:16Z</time>
      </trkpt>
      <trkpt lat="44.85561" lon="5.60671">
        <ele>897.873</ele>
        <time>2021-11-07T14:23:21Z</time>
      </trkpt>
      <trkpt lat="44.85573" lon="5.60663">
        <ele>900.384</ele>
        <time>2021-11-07T14:23:26Z</time>
      </trkpt>
      <trkpt lat="44.85582" lon="5.60652">
        <ele>902.503</ele>
        <time>2021-11-07T14:23:31Z</time>
      </trkpt>
      <trkpt lat="44.856" lon="5.60622">
        <ele>898.957</ele>
        <time>2021-11-07T14:23:36Z</time>
      </trkpt>
      <trkpt lat="44.85611" lon="5.6058">
        <ele>895.704</ele>
        <time>2021-11-07T14:23:41Z</time>
      </trkpt>
      <trkpt lat="44.8562" lon="5.60539">
        <ele>894.961</ele>
        <time>2021-11-07T14:23:46Z</time>
      </trkpt>
      <trkpt lat="44.85637" lon="5.60528">
        <ele>893.318</ele>
        <time>2021-11-07T14:23:51Z</time>
      </trkpt>
      <trkpt lat="44.85648" lon="5.60515">
        <ele>891.501</ele>
        <time>2021-11-07T14:23:56Z</time>
      </trkpt>
      <trkpt lat="44.85659" lon="5.60499">
        <ele>890.288</ele>
        <time>2021-11-07T14:24:01Z</time>
      </trkpt>
      <trkpt lat="44.85673" lon="5.60485">
        <ele>887.402</ele>
        <time>2021-11-07T14:24:06Z</time>
      </trkpt>
      <trkpt lat="44.85685" lon="5.60474">
        <ele>887.484</ele>
        <time>2021-11-07T14:24:11Z</time>
      </trkpt>
      <trkpt lat="44.85699" lon="5.6046">
        <ele>883.272</ele>
        <time>2021-11-07T14:24:16Z</time>
      </trkpt>
      <trkpt lat="44.85709" lon="5.60448">
        <ele>881.759</ele>
        <time>2021-11-07T14:24:21Z</time>
      </trkpt>
      <trkpt lat="44.85709" lon="5.60446">
        <ele>881.546</ele>
        <time>2021-11-07T14:24:26Z</time>
      </trkpt>
      <trkpt lat="44.8571" lon="5.60445">
        <ele>880.933</ele>
        <time>2021-11-07T14:24:31Z</time>
      </trkpt>
      <trkpt lat="44.8571" lon="5.60445">
        <ele>880.705</ele>
        <time>2021-11-07T14:24:36Z</time>
      </trkpt>
      <trkpt lat="44.8571" lon="5.60445">
        <ele>880.734</ele>
        <time>2021-11-07T14:24:41Z</time>
      </trkpt>
      <trkpt lat="44.8571" lon="5.60443">
        <ele>879.656</ele>
        <time>2021-11-07T14:24:46Z</time>
      </trkpt>
      <trkpt lat="44.85709" lon="5.60443">
        <ele>880.254</ele>
        <time>2021-11-07T14:24:51Z</time>
      </trkpt>
      <trkpt lat="44.85712" lon="5.6044">
        <ele>879.688</ele>
        <time>2021-11-07T14:24:56Z</time>
      </trkpt>
      <trkpt lat="44.85713" lon="5.60441">
        <ele>876.354</ele>
        <time>2021-11-07T14:25:01Z</time>
      </trkpt>
      <trkpt lat="44.85713" lon="5.60442">
        <ele>874.967</ele>
        <time>2021-11-07T14:25:06Z</time>
      </trkpt>
      <trkpt lat="44.85713" lon="5.60442">
        <ele>874.838</ele>
        <time>2021-11-07T14:25:11Z</time>
      </trkpt>
      <trkpt lat="44.85713" lon="5.60442">
        <ele>874.834</ele>
        <time>2021-11-07T14:25:16Z</time>
      </trkpt>
      <trkpt lat="44.85713" lon="5.60442">
        <ele>874.831</ele>
        <time>2021-11-07T14:25:21Z</time>
      </trkpt>
      <trkpt lat="44.85713" lon="5.60442">
        <ele>874.826</ele>
        <time>2021-11-07T14:25:26Z</time>
      </trkpt>
      <trkpt lat="44.85713" lon="5.60442">
        <ele>874.829</ele>
        <time>2021-11-07T14:25:31Z</time>
      </trkpt>
      <trkpt lat="44.85713" lon="5.60442">
        <ele>874.855</ele>
        <time>2021-11-07T14:25:36Z</time>
      </trkpt>
      <trkpt lat="44.85713" lon="5.60442">
        <ele>874.206</ele>
        <time>2021-11-07T14:25:41Z</time>
      </trkpt>
      <trkpt lat="44.85717" lon="5.60442">
        <ele>874.406</ele>
        <time>2021-11-07T14:25:46Z</time>
      </trkpt>
      <trkpt lat="44.85719" lon="5.60442">
        <ele>875.277</ele>
        <time>2021-11-07T14:25:51Z</time>
      </trkpt>
      <trkpt lat="44.85717" lon="5.60443">
        <ele>874.364</ele>
        <time>2021-11-07T14:25:56Z</time>
      </trkpt>
      <trkpt lat="44.85711" lon="5.60446">
        <ele>873.915</ele>
        <time>2021-11-07T14:26:01Z</time>
      </trkpt>
      <trkpt lat="44.8571" lon="5.60447">
        <ele>872.987</ele>
        <time>2021-11-07T14:26:06Z</time>
      </trkpt>
      <trkpt lat="44.85708" lon="5.60447">
        <ele>874.099</ele>
        <time>2021-11-07T14:26:11Z</time>
      </trkpt>
      <trkpt lat="44.8571" lon="5.60443">
        <ele>875.956</ele>
        <time>2021-11-07T14:26:16Z</time>
      </trkpt>
      <trkpt lat="44.8573" lon="5.60432">
        <ele>875.782</ele>
        <time>2021-11-07T14:26:21Z</time>
      </trkpt>
      <trkpt lat="44.85746" lon="5.60428">
        <ele>872.294</ele>
        <time>2021-11-07T14:26:26Z</time>
      </trkpt>
      <trkpt lat="44.85747" lon="5.60426">
        <ele>871.27</ele>
        <time>2021-11-07T14:26:31Z</time>
      </trkpt>
      <trkpt lat="44.85747" lon="5.60426">
        <ele>871.436</ele>
        <time>2021-11-07T14:26:36Z</time>
      </trkpt>
      <trkpt lat="44.85747" lon="5.60426">
        <ele>871.442</ele>
        <time>2021-11-07T14:26:41Z</time>
      </trkpt>
      <trkpt lat="44.85747" lon="5.60425">
        <ele>871.926</ele>
        <time>2021-11-07T14:26:46Z</time>
      </trkpt>
      <trkpt lat="44.85759" lon="5.60414">
        <ele>870.825</ele>
        <time>2021-11-07T14:26:51Z</time>
      </trkpt>
      <trkpt lat="44.85783" lon="5.60394">
        <ele>867.445</ele>
        <time>2021-11-07T14:26:56Z</time>
      </trkpt>
      <trkpt lat="44.8581" lon="5.60379">
        <ele>863.198</ele>
        <time>2021-11-07T14:27:01Z</time>
      </trkpt>
      <trkpt lat="44.85826" lon="5.6036">
        <ele>859.951</ele>
        <time>2021-11-07T14:27:06Z</time>
      </trkpt>
      <trkpt lat="44.85834" lon="5.60337">
        <ele>855.624</ele>
        <time>2021-11-07T14:27:11Z</time>
      </trkpt>
      <trkpt lat="44.85842" lon="5.60321">
        <ele>852.125</ele>
        <time>2021-11-07T14:27:16Z</time>
      </trkpt>
      <trkpt lat="44.85855" lon="5.60296">
        <ele>850.681</ele>
        <time>2021-11-07T14:27:21Z</time>
      </trkpt>
      <trkpt lat="44.85869" lon="5.60277">
        <ele>850.262</ele>
        <time>2021-11-07T14:27:26Z</time>
      </trkpt>
      <trkpt lat="44.85885" lon="5.60259">
        <ele>848.23</ele>
        <time>2021-11-07T14:27:31Z</time>
      </trkpt>
      <trkpt lat="44.8591" lon="5.6024">
        <ele>842.03</ele>
        <time>2021-11-07T14:27:36Z</time>
      </trkpt>
      <trkpt lat="44.85924" lon="5.60222">
        <ele>840.17</ele>
        <time>2021-11-07T14:27:41Z</time>
      </trkpt>
      <trkpt lat="44.8594" lon="5.60205">
        <ele>839.527</ele>
        <time>2021-11-07T14:27:46Z</time>
      </trkpt>
      <trkpt lat="44.85963" lon="5.60188">
        <ele>835.63</ele>
        <time>2021-11-07T14:27:51Z</time>
      </trkpt>
      <trkpt lat="44.85986" lon="5.6017">
        <ele>832.072</ele>
        <time>2021-11-07T14:27:56Z</time>
      </trkpt>
      <trkpt lat="44.86003" lon="5.60154">
        <ele>828.873</ele>
        <time>2021-11-07T14:28:01Z</time>
      </trkpt>
      <trkpt lat="44.86018" lon="5.60137">
        <ele>827.515</ele>
        <time>2021-11-07T14:28:06Z</time>
      </trkpt>
      <trkpt lat="44.86027" lon="5.60129">
        <ele>825.706</ele>
        <time>2021-11-07T14:28:11Z</time>
      </trkpt>
      <trkpt lat="44.86036" lon="5.60119">
        <ele>825.825</ele>
        <time>2021-11-07T14:28:16Z</time>
      </trkpt>
      <trkpt lat="44.86047" lon="5.60101">
        <ele>824.769</ele>
        <time>2021-11-07T14:28:21Z</time>
      </trkpt>
      <trkpt lat="44.8606" lon="5.60088">
        <ele>825.398</ele>
        <time>2021-11-07T14:28:26Z</time>
      </trkpt>
      <trkpt lat="44.86073" lon="5.60077">
        <ele>826.994</ele>
        <time>2021-11-07T14:28:31Z</time>
      </trkpt>
      <trkpt lat="44.86086" lon="5.60073">
        <ele>825.512</ele>
        <time>2021-11-07T14:28:36Z</time>
      </trkpt>
      <trkpt lat="44.86104" lon="5.60089">
        <ele>821.863</ele>
        <time>2021-11-07T14:28:41Z</time>
      </trkpt>
      <trkpt lat="44.86113" lon="5.60089">
        <ele>820.943</ele>
        <time>2021-11-07T14:28:46Z</time>
      </trkpt>
      <trkpt lat="44.86116" lon="5.60083">
        <ele>820.679</ele>
        <time>2021-11-07T14:28:51Z</time>
      </trkpt>
      <trkpt lat="44.8612" lon="5.60075">
        <ele>820.356</ele>
        <time>2021-11-07T14:28:56Z</time>
      </trkpt>
      <trkpt lat="44.86123" lon="5.60065">
        <ele>821.573</ele>
        <time>2021-11-07T14:29:01Z</time>
      </trkpt>
      <trkpt lat="44.86127" lon="5.60053">
        <ele>822.73</ele>
        <time>2021-11-07T14:29:06Z</time>
      </trkpt>
      <trkpt lat="44.86132" lon="5.60045">
        <ele>823.467</ele>
        <time>2021-11-07T14:29:11Z</time>
      </trkpt>
      <trkpt lat="44.86136" lon="5.60035">
        <ele>825.226</ele>
        <time>2021-11-07T14:29:16Z</time>
      </trkpt>
      <trkpt lat="44.86138" lon="5.60025">
        <ele>826.259</ele>
        <time>2021-11-07T14:29:21Z</time>
      </trkpt>
      <trkpt lat="44.86138" lon="5.60014">
        <ele>825.109</ele>
        <time>2021-11-07T14:29:26Z</time>
      </trkpt>
      <trkpt lat="44.86136" lon="5.60003">
        <ele>824.728</ele>
        <time>2021-11-07T14:29:31Z</time>
      </trkpt>
      <trkpt lat="44.86135" lon="5.5999">
        <ele>824.888</ele>
        <time>2021-11-07T14:29:36Z</time>
      </trkpt>
      <trkpt lat="44.86133" lon="5.59977">
        <ele>826.261</ele>
        <time>2021-11-07T14:29:41Z</time>
      </trkpt>
      <trkpt lat="44.86131" lon="5.59965">
        <ele>827.036</ele>
        <time>2021-11-07T14:29:46Z</time>
      </trkpt>
      <trkpt lat="44.86129" lon="5.59952">
        <ele>827.988</ele>
        <time>2021-11-07T14:29:51Z</time>
      </trkpt>
      <trkpt lat="44.86128" lon="5.5994">
        <ele>828.518</ele>
        <time>2021-11-07T14:29:56Z</time>
      </trkpt>
      <trkpt lat="44.86128" lon="5.59927">
        <ele>829.88</ele>
        <time>2021-11-07T14:30:01Z</time>
      </trkpt>
      <trkpt lat="44.86129" lon="5.59917">
        <ele>831.03</ele>
        <time>2021-11-07T14:30:06Z</time>
      </trkpt>
      <trkpt lat="44.86131" lon="5.59907">
        <ele>831.806</ele>
        <time>2021-11-07T14:30:11Z</time>
      </trkpt>
      <trkpt lat="44.86133" lon="5.59896">
        <ele>832.812</ele>
        <time>2021-11-07T14:30:16Z</time>
      </trkpt>
      <trkpt lat="44.86134" lon="5.59885">
        <ele>833.697</ele>
        <time>2021-11-07T14:30:21Z</time>
      </trkpt>
      <trkpt lat="44.86135" lon="5.59876">
        <ele>834.732</ele>
        <time>2021-11-07T14:30:26Z</time>
      </trkpt>
      <trkpt lat="44.86135" lon="5.59869">
        <ele>835.535</ele>
        <time>2021-11-07T14:30:31Z</time>
      </trkpt>
      <trkpt lat="44.86135" lon="5.59869">
        <ele>835.553</ele>
        <time>2021-11-07T14:30:36Z</time>
      </trkpt>
      <trkpt lat="44.86135" lon="5.59869">
        <ele>835.622</ele>
        <time>2021-11-07T14:30:41Z</time>
      </trkpt>
      <trkpt lat="44.86135" lon="5.59869">
        <ele>835.643</ele>
        <time>2021-11-07T14:30:46Z</time>
      </trkpt>
      <trkpt lat="44.86135" lon="5.59869">
        <ele>835.647</ele>
        <time>2021-11-07T14:30:51Z</time>
      </trkpt>
      <trkpt lat="44.86135" lon="5.59869">
        <ele>835.657</ele>
        <time>2021-11-07T14:30:56Z</time>
      </trkpt>
      <trkpt lat="44.86135" lon="5.59869">
        <ele>835.657</ele>
        <time>2021-11-07T14:31:01Z</time>
      </trkpt>
      <trkpt lat="44.86135" lon="5.59869">
        <ele>835.657</ele>
        <time>2021-11-07T14:31:06Z</time>
      </trkpt>
      <trkpt lat="44.86135" lon="5.59869">
        <ele>835.651</ele>
        <time>2021-11-07T14:31:11Z</time>
      </trkpt>
      <trkpt lat="44.86135" lon="5.59869">
        <ele>835.649</ele>
        <time>2021-11-07T14:31:16Z</time>
      </trkpt>
      <trkpt lat="44.86135" lon="5.59869">
        <ele>835.659</ele>
        <time>2021-11-07T14:31:21Z</time>
      </trkpt>
      <trkpt lat="44.86135" lon="5.59869">
        <ele>835.657</ele>
        <time>2021-11-07T14:31:26Z</time>
      </trkpt>
      <trkpt lat="44.86135" lon="5.59869">
        <ele>835.652</ele>
        <time>2021-11-07T14:31:31Z</time>
      </trkpt>
      <trkpt lat="44.86135" lon="5.59869">
        <ele>835.652</ele>
        <time>2021-11-07T14:31:36Z</time>
      </trkpt>
      <trkpt lat="44.86136" lon="5.59868">
        <ele>835.339</ele>
        <time>2021-11-07T14:31:41Z</time>
      </trkpt>
      <trkpt lat="44.86136" lon="5.59867">
        <ele>836.449</ele>
        <time>2021-11-07T14:31:46Z</time>
      </trkpt>
      <trkpt lat="44.86136" lon="5.59867">
        <ele>835.92</ele>
        <time>2021-11-07T14:31:51Z</time>
      </trkpt>
      <trkpt lat="44.86136" lon="5.59867">
        <ele>835.867</ele>
        <time>2021-11-07T14:31:56Z</time>
      </trkpt>
      <trkpt lat="44.86136" lon="5.59867">
        <ele>835.294</ele>
        <time>2021-11-07T14:32:01Z</time>
      </trkpt>
      <trkpt lat="44.86135" lon="5.59866">
        <ele>834.531</ele>
        <time>2021-11-07T14:32:06Z</time>
      </trkpt>
      <trkpt lat="44.86134" lon="5.59854">
        <ele>835.075</ele>
        <time>2021-11-07T14:32:11Z</time>
      </trkpt>
      <trkpt lat="44.86135" lon="5.59844">
        <ele>834.766</ele>
        <time>2021-11-07T14:32:16Z</time>
      </trkpt>
      <trkpt lat="44.86135" lon="5.59832">
        <ele>835.276</ele>
        <time>2021-11-07T14:32:21Z</time>
      </trkpt>
      <trkpt lat="44.86135" lon="5.59819">
        <ele>835.858</ele>
        <time>2021-11-07T14:32:26Z</time>
      </trkpt>
      <trkpt lat="44.86136" lon="5.59805">
        <ele>836.787</ele>
        <time>2021-11-07T14:32:31Z</time>
      </trkpt>
      <trkpt lat="44.86138" lon="5.59791">
        <ele>836.539</ele>
        <time>2021-11-07T14:32:36Z</time>
      </trkpt>
      <trkpt lat="44.86142" lon="5.59774">
        <ele>836.86</ele>
        <time>2021-11-07T14:32:41Z</time>
      </trkpt>
      <trkpt lat="44.86147" lon="5.59754">
        <ele>835.919</ele>
        <time>2021-11-07T14:32:46Z</time>
      </trkpt>
      <trkpt lat="44.86156" lon="5.59724">
        <ele>834.606</ele>
        <time>2021-11-07T14:32:51Z</time>
      </trkpt>
      <trkpt lat="44.86171" lon="5.59688">
        <ele>833.072</ele>
        <time>2021-11-07T14:32:56Z</time>
      </trkpt>
      <trkpt lat="44.86191" lon="5.59652">
        <ele>832.588</ele>
        <time>2021-11-07T14:33:01Z</time>
      </trkpt>
      <trkpt lat="44.86212" lon="5.59617">
        <ele>830.673</ele>
        <time>2021-11-07T14:33:06Z</time>
      </trkpt>
      <trkpt lat="44.86236" lon="5.59609">
        <ele>830.144</ele>
        <time>2021-11-07T14:33:11Z</time>
      </trkpt>
      <trkpt lat="44.86251" lon="5.59626">
        <ele>828.969</ele>
        <time>2021-11-07T14:33:16Z</time>
      </trkpt>
      <trkpt lat="44.86269" lon="5.59637">
        <ele>829.44</ele>
        <time>2021-11-07T14:33:21Z</time>
      </trkpt>
      <trkpt lat="44.86275" lon="5.59659">
        <ele>827.147</ele>
        <time>2021-11-07T14:33:26Z</time>
      </trkpt>
      <trkpt lat="44.86269" lon="5.59681">
        <ele>825.55</ele>
        <time>2021-11-07T14:33:31Z</time>
      </trkpt>
      <trkpt lat="44.86259" lon="5.59703">
        <ele>824.208</ele>
        <time>2021-11-07T14:33:36Z</time>
      </trkpt>
      <trkpt lat="44.86257" lon="5.59713">
        <ele>823.218</ele>
        <time>2021-11-07T14:33:41Z</time>
      </trkpt>
      <trkpt lat="44.86262" lon="5.59719">
        <ele>823.885</ele>
        <time>2021-11-07T14:33:46Z</time>
      </trkpt>
      <trkpt lat="44.86262" lon="5.59715">
        <ele>825.76</ele>
        <time>2021-11-07T14:33:51Z</time>
      </trkpt>
      <trkpt lat="44.86251" lon="5.59712">
        <ele>825.472</ele>
        <time>2021-11-07T14:33:56Z</time>
      </trkpt>
      <trkpt lat="44.86246" lon="5.5973">
        <ele>824.741</ele>
        <time>2021-11-07T14:34:01Z</time>
      </trkpt>
      <trkpt lat="44.86245" lon="5.59749">
        <ele>823.523</ele>
        <time>2021-11-07T14:34:06Z</time>
      </trkpt>
      <trkpt lat="44.86243" lon="5.59774">
        <ele>822.048</ele>
        <time>2021-11-07T14:34:11Z</time>
      </trkpt>
      <trkpt lat="44.86232" lon="5.59809">
        <ele>818.554</ele>
        <time>2021-11-07T14:34:16Z</time>
      </trkpt>
      <trkpt lat="44.86218" lon="5.59841">
        <ele>815.59</ele>
        <time>2021-11-07T14:34:21Z</time>
      </trkpt>
      <trkpt lat="44.86219" lon="5.59849">
        <ele>814.975</ele>
        <time>2021-11-07T14:34:26Z</time>
      </trkpt>
      <trkpt lat="44.86245" lon="5.59841">
        <ele>812.009</ele>
        <time>2021-11-07T14:34:31Z</time>
      </trkpt>
      <trkpt lat="44.86276" lon="5.59802">
        <ele>810.277</ele>
        <time>2021-11-07T14:34:36Z</time>
      </trkpt>
      <trkpt lat="44.86314" lon="5.59802">
        <ele>808.501</ele>
        <time>2021-11-07T14:34:41Z</time>
      </trkpt>
      <trkpt lat="44.86342" lon="5.59816">
        <ele>805.908</ele>
        <time>2021-11-07T14:34:46Z</time>
      </trkpt>
      <trkpt lat="44.86363" lon="5.5982">
        <ele>800.96</ele>
        <time>2021-11-07T14:34:51Z</time>
      </trkpt>
      <trkpt lat="44.86377" lon="5.59821">
        <ele>800.9</ele>
        <time>2021-11-07T14:34:56Z</time>
      </trkpt>
      <trkpt lat="44.86378" lon="5.59821">
        <ele>799.344</ele>
        <time>2021-11-07T14:35:01Z</time>
      </trkpt>
      <trkpt lat="44.86378" lon="5.59821">
        <ele>798.096</ele>
        <time>2021-11-07T14:35:06Z</time>
      </trkpt>
      <trkpt lat="44.86379" lon="5.5982">
        <ele>798.653</ele>
        <time>2021-11-07T14:35:11Z</time>
      </trkpt>
      <trkpt lat="44.86384" lon="5.59821">
        <ele>797.824</ele>
        <time>2021-11-07T14:35:16Z</time>
      </trkpt>
      <trkpt lat="44.86385" lon="5.59821">
        <ele>795.926</ele>
        <time>2021-11-07T14:35:21Z</time>
      </trkpt>
      <trkpt lat="44.86385" lon="5.59821">
        <ele>794.805</ele>
        <time>2021-11-07T14:35:26Z</time>
      </trkpt>
      <trkpt lat="44.8638" lon="5.59822">
        <ele>795.854</ele>
        <time>2021-11-07T14:35:31Z</time>
      </trkpt>
      <trkpt lat="44.86375" lon="5.59824">
        <ele>798.434</ele>
        <time>2021-11-07T14:35:36Z</time>
      </trkpt>
      <trkpt lat="44.86374" lon="5.59825">
        <ele>799.539</ele>
        <time>2021-11-07T14:35:41Z</time>
      </trkpt>
      <trkpt lat="44.86369" lon="5.59825">
        <ele>798.314</ele>
        <time>2021-11-07T14:35:46Z</time>
      </trkpt>
      <trkpt lat="44.86364" lon="5.59825">
        <ele>802.686</ele>
        <time>2021-11-07T14:35:51Z</time>
      </trkpt>
      <trkpt lat="44.86362" lon="5.59823">
        <ele>803.859</ele>
        <time>2021-11-07T14:35:56Z</time>
      </trkpt>
      <trkpt lat="44.86357" lon="5.5982">
        <ele>804.479</ele>
        <time>2021-11-07T14:36:01Z</time>
      </trkpt>
      <trkpt lat="44.86352" lon="5.59819">
        <ele>804.809</ele>
        <time>2021-11-07T14:36:06Z</time>
      </trkpt>
      <trkpt lat="44.86348" lon="5.59817">
        <ele>805.326</ele>
        <time>2021-11-07T14:36:11Z</time>
      </trkpt>
      <trkpt lat="44.86341" lon="5.59812">
        <ele>802.295</ele>
        <time>2021-11-07T14:36:16Z</time>
      </trkpt>
      <trkpt lat="44.86329" lon="5.59807">
        <ele>803.206</ele>
        <time>2021-11-07T14:36:21Z</time>
      </trkpt>
      <trkpt lat="44.86317" lon="5.59805">
        <ele>803.429</ele>
        <time>2021-11-07T14:36:26Z</time>
      </trkpt>
      <trkpt lat="44.86304" lon="5.59818">
        <ele>798.905</ele>
        <time>2021-11-07T14:36:31Z</time>
      </trkpt>
      <trkpt lat="44.86291" lon="5.5985">
        <ele>794.502</ele>
        <time>2021-11-07T14:36:36Z</time>
      </trkpt>
      <trkpt lat="44.86296" lon="5.59884">
        <ele>787.651</ele>
        <time>2021-11-07T14:36:41Z</time>
      </trkpt>
      <trkpt lat="44.86319" lon="5.59884">
        <ele>783.466</ele>
        <time>2021-11-07T14:36:46Z</time>
      </trkpt>
      <trkpt lat="44.86331" lon="5.59885">
        <ele>779.986</ele>
        <time>2021-11-07T14:36:51Z</time>
      </trkpt>
      <trkpt lat="44.8633" lon="5.59885">
        <ele>779.242</ele>
        <time>2021-11-07T14:36:56Z</time>
      </trkpt>
      <trkpt lat="44.86331" lon="5.59885">
        <ele>778.609</ele>
        <time>2021-11-07T14:37:01Z</time>
      </trkpt>
      <trkpt lat="44.86339" lon="5.5989">
        <ele>773.818</ele>
        <time>2021-11-07T14:37:06Z</time>
      </trkpt>
      <trkpt lat="44.86352" lon="5.59881">
        <ele>775.133</ele>
        <time>2021-11-07T14:37:11Z</time>
      </trkpt>
      <trkpt lat="44.86365" lon="5.59879">
        <ele>772.97</ele>
        <time>2021-11-07T14:37:16Z</time>
      </trkpt>
      <trkpt lat="44.86388" lon="5.59873">
        <ele>771.297</ele>
        <time>2021-11-07T14:37:21Z</time>
      </trkpt>
      <trkpt lat="44.86419" lon="5.59862">
        <ele>769.603</ele>
        <time>2021-11-07T14:37:26Z</time>
      </trkpt>
      <trkpt lat="44.86453" lon="5.59853">
        <ele>768.828</ele>
        <time>2021-11-07T14:37:31Z</time>
      </trkpt>
      <trkpt lat="44.8648" lon="5.59846">
        <ele>768.906</ele>
        <time>2021-11-07T14:37:36Z</time>
      </trkpt>
      <trkpt lat="44.86503" lon="5.5985">
        <ele>768.237</ele>
        <time>2021-11-07T14:37:41Z</time>
      </trkpt>
      <trkpt lat="44.86523" lon="5.59857">
        <ele>768.53</ele>
        <time>2021-11-07T14:37:46Z</time>
      </trkpt>
      <trkpt lat="44.86541" lon="5.59865">
        <ele>769.847</ele>
        <time>2021-11-07T14:37:51Z</time>
      </trkpt>
      <trkpt lat="44.86557" lon="5.59873">
        <ele>771.071</ele>
        <time>2021-11-07T14:37:56Z</time>
      </trkpt>
      <trkpt lat="44.86572" lon="5.59883">
        <ele>770.939</ele>
        <time>2021-11-07T14:38:01Z</time>
      </trkpt>
      <trkpt lat="44.86587" lon="5.59895">
        <ele>772.45</ele>
        <time>2021-11-07T14:38:06Z</time>
      </trkpt>
      <trkpt lat="44.86601" lon="5.59908">
        <ele>773.991</ele>
        <time>2021-11-07T14:38:11Z</time>
      </trkpt>
      <trkpt lat="44.86612" lon="5.59919">
        <ele>775.651</ele>
        <time>2021-11-07T14:38:16Z</time>
      </trkpt>
      <trkpt lat="44.86621" lon="5.59929">
        <ele>775.675</ele>
        <time>2021-11-07T14:38:21Z</time>
      </trkpt>
      <trkpt lat="44.86628" lon="5.5994">
        <ele>776.146</ele>
        <time>2021-11-07T14:38:26Z</time>
      </trkpt>
      <trkpt lat="44.86631" lon="5.59959">
        <ele>775.962</ele>
        <time>2021-11-07T14:38:31Z</time>
      </trkpt>
      <trkpt lat="44.86638" lon="5.59979">
        <ele>776.591</ele>
        <time>2021-11-07T14:38:36Z</time>
      </trkpt>
      <trkpt lat="44.86645" lon="5.59998">
        <ele>778.072</ele>
        <time>2021-11-07T14:38:41Z</time>
      </trkpt>
      <trkpt lat="44.86651" lon="5.60014">
        <ele>779.525</ele>
        <time>2021-11-07T14:38:46Z</time>
      </trkpt>
      <trkpt lat="44.86658" lon="5.60031">
        <ele>780.178</ele>
        <time>2021-11-07T14:38:51Z</time>
      </trkpt>
      <trkpt lat="44.86664" lon="5.60049">
        <ele>780.534</ele>
        <time>2021-11-07T14:38:56Z</time>
      </trkpt>
      <trkpt lat="44.86673" lon="5.60067">
        <ele>781.436</ele>
        <time>2021-11-07T14:39:01Z</time>
      </trkpt>
      <trkpt lat="44.8668" lon="5.60083">
        <ele>782.921</ele>
        <time>2021-11-07T14:39:06Z</time>
      </trkpt>
      <trkpt lat="44.86686" lon="5.60102">
        <ele>784.378</ele>
        <time>2021-11-07T14:39:11Z</time>
      </trkpt>
      <trkpt lat="44.86689" lon="5.60124">
        <ele>785.75</ele>
        <time>2021-11-07T14:39:16Z</time>
      </trkpt>
      <trkpt lat="44.86691" lon="5.60145">
        <ele>786.176</ele>
        <time>2021-11-07T14:39:21Z</time>
      </trkpt>
      <trkpt lat="44.86692" lon="5.60167">
        <ele>786.764</ele>
        <time>2021-11-07T14:39:26Z</time>
      </trkpt>
      <trkpt lat="44.86691" lon="5.6019">
        <ele>788.621</ele>
        <time>2021-11-07T14:39:31Z</time>
      </trkpt>
      <trkpt lat="44.8669" lon="5.60215">
        <ele>790.565</ele>
        <time>2021-11-07T14:39:36Z</time>
      </trkpt>
      <trkpt lat="44.86689" lon="5.60237">
        <ele>791.833</ele>
        <time>2021-11-07T14:39:41Z</time>
      </trkpt>
      <trkpt lat="44.86687" lon="5.60261">
        <ele>792.136</ele>
        <time>2021-11-07T14:39:46Z</time>
      </trkpt>
      <trkpt lat="44.86686" lon="5.60283">
        <ele>793.424</ele>
        <time>2021-11-07T14:39:51Z</time>
      </trkpt>
      <trkpt lat="44.86685" lon="5.60304">
        <ele>794.301</ele>
        <time>2021-11-07T14:39:56Z</time>
      </trkpt>
      <trkpt lat="44.86684" lon="5.60325">
        <ele>794.52</ele>
        <time>2021-11-07T14:40:01Z</time>
      </trkpt>
      <trkpt lat="44.86684" lon="5.60345">
        <ele>795.191</ele>
        <time>2021-11-07T14:40:06Z</time>
      </trkpt>
      <trkpt lat="44.86685" lon="5.60365">
        <ele>796.755</ele>
        <time>2021-11-07T14:40:11Z</time>
      </trkpt>
      <trkpt lat="44.86687" lon="5.60388">
        <ele>798.499</ele>
        <time>2021-11-07T14:40:16Z</time>
      </trkpt>
      <trkpt lat="44.86691" lon="5.60409">
        <ele>800.496</ele>
        <time>2021-11-07T14:40:21Z</time>
      </trkpt>
      <trkpt lat="44.86696" lon="5.6043">
        <ele>800.844</ele>
        <time>2021-11-07T14:40:26Z</time>
      </trkpt>
      <trkpt lat="44.86702" lon="5.60451">
        <ele>801.799</ele>
        <time>2021-11-07T14:40:31Z</time>
      </trkpt>
      <trkpt lat="44.86708" lon="5.60473">
        <ele>802.747</ele>
        <time>2021-11-07T14:40:36Z</time>
      </trkpt>
      <trkpt lat="44.86715" lon="5.60494">
        <ele>803.383</ele>
        <time>2021-11-07T14:40:41Z</time>
      </trkpt>
      <trkpt lat="44.86723" lon="5.60514">
        <ele>803.645</ele>
        <time>2021-11-07T14:40:46Z</time>
      </trkpt>
      <trkpt lat="44.86731" lon="5.60529">
        <ele>804.608</ele>
        <time>2021-11-07T14:40:51Z</time>
      </trkpt>
      <trkpt lat="44.86739" lon="5.60545">
        <ele>804.747</ele>
        <time>2021-11-07T14:40:56Z</time>
      </trkpt>
      <trkpt lat="44.86753" lon="5.60556">
        <ele>804.99</ele>
        <time>2021-11-07T14:41:01Z</time>
      </trkpt>
      <trkpt lat="44.86766" lon="5.60548">
        <ele>805.098</ele>
        <time>2021-11-07T14:41:06Z</time>
      </trkpt>
      <trkpt lat="44.86759" lon="5.60515">
        <ele>804.83</ele>
        <time>2021-11-07T14:41:11Z</time>
      </trkpt>
      <trkpt lat="44.86753" lon="5.60479">
        <ele>805.033</ele>
        <time>2021-11-07T14:41:16Z</time>
      </trkpt>
      <trkpt lat="44.86748" lon="5.60449">
        <ele>805.661</ele>
        <time>2021-11-07T14:41:21Z</time>
      </trkpt>
      <trkpt lat="44.86745" lon="5.60426">
        <ele>807.369</ele>
        <time>2021-11-07T14:41:26Z</time>
      </trkpt>
      <trkpt lat="44.86742" lon="5.60403">
        <ele>808.835</ele>
        <time>2021-11-07T14:41:31Z</time>
      </trkpt>
      <trkpt lat="44.86738" lon="5.60378">
        <ele>810.99</ele>
        <time>2021-11-07T14:41:36Z</time>
      </trkpt>
      <trkpt lat="44.86736" lon="5.60356">
        <ele>812.4</ele>
        <time>2021-11-07T14:41:41Z</time>
      </trkpt>
      <trkpt lat="44.86736" lon="5.60336">
        <ele>813.175</ele>
        <time>2021-11-07T14:41:46Z</time>
      </trkpt>
      <trkpt lat="44.86738" lon="5.60315">
        <ele>814.782</ele>
        <time>2021-11-07T14:41:51Z</time>
      </trkpt>
      <trkpt lat="44.86742" lon="5.60295">
        <ele>816.173</ele>
        <time>2021-11-07T14:41:56Z</time>
      </trkpt>
      <trkpt lat="44.86749" lon="5.60276">
        <ele>817.539</ele>
        <time>2021-11-07T14:42:01Z</time>
      </trkpt>
      <trkpt lat="44.86759" lon="5.6026">
        <ele>819.041</ele>
        <time>2021-11-07T14:42:06Z</time>
      </trkpt>
      <trkpt lat="44.86771" lon="5.60246">
        <ele>821.32</ele>
        <time>2021-11-07T14:42:11Z</time>
      </trkpt>
      <trkpt lat="44.86783" lon="5.60235">
        <ele>822.32</ele>
        <time>2021-11-07T14:42:16Z</time>
      </trkpt>
      <trkpt lat="44.86795" lon="5.60224">
        <ele>824.799</ele>
        <time>2021-11-07T14:42:21Z</time>
      </trkpt>
      <trkpt lat="44.86807" lon="5.60214">
        <ele>827.178</ele>
        <time>2021-11-07T14:42:26Z</time>
      </trkpt>
      <trkpt lat="44.86819" lon="5.60206">
        <ele>828.609</ele>
        <time>2021-11-07T14:42:31Z</time>
      </trkpt>
      <trkpt lat="44.86831" lon="5.60199">
        <ele>829.802</ele>
        <time>2021-11-07T14:42:36Z</time>
      </trkpt>
      <trkpt lat="44.86839" lon="5.60187">
        <ele>830.196</ele>
        <time>2021-11-07T14:42:41Z</time>
      </trkpt>
      <trkpt lat="44.86843" lon="5.60175">
        <ele>830.327</ele>
        <time>2021-11-07T14:42:46Z</time>
      </trkpt>
      <trkpt lat="44.86844" lon="5.60159">
        <ele>831.47</ele>
        <time>2021-11-07T14:42:51Z</time>
      </trkpt>
      <trkpt lat="44.86847" lon="5.60141">
        <ele>833.042</ele>
        <time>2021-11-07T14:42:56Z</time>
      </trkpt>
      <trkpt lat="44.86849" lon="5.60124">
        <ele>833.035</ele>
        <time>2021-11-07T14:43:01Z</time>
      </trkpt>
      <trkpt lat="44.86852" lon="5.60108">
        <ele>833.626</ele>
        <time>2021-11-07T14:43:06Z</time>
      </trkpt>
      <trkpt lat="44.86858" lon="5.60091">
        <ele>835.481</ele>
        <time>2021-11-07T14:43:11Z</time>
      </trkpt>
      <trkpt lat="44.86864" lon="5.60077">
        <ele>836.59</ele>
        <time>2021-11-07T14:43:16Z</time>
      </trkpt>
      <trkpt lat="44.8687" lon="5.60064">
        <ele>837.703</ele>
        <time>2021-11-07T14:43:21Z</time>
      </trkpt>
      <trkpt lat="44.86876" lon="5.60052">
        <ele>838.375</ele>
        <time>2021-11-07T14:43:26Z</time>
      </trkpt>
      <trkpt lat="44.86882" lon="5.60041">
        <ele>839.248</ele>
        <time>2021-11-07T14:43:31Z</time>
      </trkpt>
      <trkpt lat="44.86887" lon="5.6003">
        <ele>840.341</ele>
        <time>2021-11-07T14:43:36Z</time>
      </trkpt>
      <trkpt lat="44.86892" lon="5.60019">
        <ele>842.118</ele>
        <time>2021-11-07T14:43:41Z</time>
      </trkpt>
      <trkpt lat="44.86898" lon="5.60007">
        <ele>843.36</ele>
        <time>2021-11-07T14:43:46Z</time>
      </trkpt>
      <trkpt lat="44.86903" lon="5.59994">
        <ele>844.674</ele>
        <time>2021-11-07T14:43:51Z</time>
      </trkpt>
      <trkpt lat="44.86908" lon="5.59981">
        <ele>845.752</ele>
        <time>2021-11-07T14:43:56Z</time>
      </trkpt>
      <trkpt lat="44.86913" lon="5.59968">
        <ele>846.828</ele>
        <time>2021-11-07T14:44:01Z</time>
      </trkpt>
      <trkpt lat="44.86917" lon="5.59954">
        <ele>848.059</ele>
        <time>2021-11-07T14:44:06Z</time>
      </trkpt>
      <trkpt lat="44.86923" lon="5.59942">
        <ele>849.632</ele>
        <time>2021-11-07T14:44:11Z</time>
      </trkpt>
      <trkpt lat="44.86927" lon="5.59929">
        <ele>851.233</ele>
        <time>2021-11-07T14:44:16Z</time>
      </trkpt>
      <trkpt lat="44.86931" lon="5.59916">
        <ele>852.626</ele>
        <time>2021-11-07T14:44:21Z</time>
      </trkpt>
      <trkpt lat="44.86934" lon="5.59903">
        <ele>853.279</ele>
        <time>2021-11-07T14:44:26Z</time>
      </trkpt>
      <trkpt lat="44.86937" lon="5.59891">
        <ele>853.927</ele>
        <time>2021-11-07T14:44:31Z</time>
      </trkpt>
      <trkpt lat="44.86939" lon="5.59879">
        <ele>855.787</ele>
        <time>2021-11-07T14:44:36Z</time>
      </trkpt>
      <trkpt lat="44.8694" lon="5.59867">
        <ele>856.263</ele>
        <time>2021-11-07T14:44:41Z</time>
      </trkpt>
      <trkpt lat="44.86941" lon="5.59854">
        <ele>857.521</ele>
        <time>2021-11-07T14:44:46Z</time>
      </trkpt>
      <trkpt lat="44.86941" lon="5.59841">
        <ele>858.561</ele>
        <time>2021-11-07T14:44:51Z</time>
      </trkpt>
      <trkpt lat="44.86941" lon="5.59827">
        <ele>859.495</ele>
        <time>2021-11-07T14:44:56Z</time>
      </trkpt>
      <trkpt lat="44.86941" lon="5.59814">
        <ele>860.451</ele>
        <time>2021-11-07T14:45:01Z</time>
      </trkpt>
      <trkpt lat="44.8694" lon="5.59801">
        <ele>860.704</ele>
        <time>2021-11-07T14:45:06Z</time>
      </trkpt>
      <trkpt lat="44.8694" lon="5.59788">
        <ele>862.03</ele>
        <time>2021-11-07T14:45:11Z</time>
      </trkpt>
      <trkpt lat="44.86941" lon="5.59774">
        <ele>863.431</ele>
        <time>2021-11-07T14:45:16Z</time>
      </trkpt>
      <trkpt lat="44.86942" lon="5.59759">
        <ele>864.682</ele>
        <time>2021-11-07T14:45:21Z</time>
      </trkpt>
      <trkpt lat="44.86944" lon="5.59745">
        <ele>866.384</ele>
        <time>2021-11-07T14:45:26Z</time>
      </trkpt>
      <trkpt lat="44.86947" lon="5.59733">
        <ele>868.161</ele>
        <time>2021-11-07T14:45:31Z</time>
      </trkpt>
      <trkpt lat="44.86952" lon="5.59724">
        <ele>869.438</ele>
        <time>2021-11-07T14:45:36Z</time>
      </trkpt>
      <trkpt lat="44.86959" lon="5.59718">
        <ele>871.899</ele>
        <time>2021-11-07T14:45:41Z</time>
      </trkpt>
      <trkpt lat="44.86963" lon="5.59713">
        <ele>873.592</ele>
        <time>2021-11-07T14:45:46Z</time>
      </trkpt>
      <trkpt lat="44.86968" lon="5.59708">
        <ele>874.185</ele>
        <time>2021-11-07T14:45:51Z</time>
      </trkpt>
      <trkpt lat="44.86974" lon="5.59703">
        <ele>876.633</ele>
        <time>2021-11-07T14:45:56Z</time>
      </trkpt>
      <trkpt lat="44.86979" lon="5.59698">
        <ele>877.196</ele>
        <time>2021-11-07T14:46:01Z</time>
      </trkpt>
      <trkpt lat="44.86985" lon="5.59695">
        <ele>879.158</ele>
        <time>2021-11-07T14:46:06Z</time>
      </trkpt>
      <trkpt lat="44.8699" lon="5.5969">
        <ele>881.076</ele>
        <time>2021-11-07T14:46:11Z</time>
      </trkpt>
      <trkpt lat="44.86997" lon="5.59686">
        <ele>881.78</ele>
        <time>2021-11-07T14:46:16Z</time>
      </trkpt>
      <trkpt lat="44.87003" lon="5.5968">
        <ele>882.602</ele>
        <time>2021-11-07T14:46:21Z</time>
      </trkpt>
      <trkpt lat="44.87006" lon="5.59671">
        <ele>882.519</ele>
        <time>2021-11-07T14:46:26Z</time>
      </trkpt>
      <trkpt lat="44.87002" lon="5.59658">
        <ele>882.574</ele>
        <time>2021-11-07T14:46:31Z</time>
      </trkpt>
      <trkpt lat="44.86998" lon="5.59647">
        <ele>881.593</ele>
        <time>2021-11-07T14:46:36Z</time>
      </trkpt>
      <trkpt lat="44.86994" lon="5.59638">
        <ele>880.297</ele>
        <time>2021-11-07T14:46:41Z</time>
      </trkpt>
      <trkpt lat="44.86992" lon="5.59632">
        <ele>880.329</ele>
        <time>2021-11-07T14:46:46Z</time>
      </trkpt>
      <trkpt lat="44.86988" lon="5.5963">
        <ele>880.423</ele>
        <time>2021-11-07T14:46:51Z</time>
      </trkpt>
      <trkpt lat="44.86994" lon="5.59641">
        <ele>878.715</ele>
        <time>2021-11-07T14:46:56Z</time>
      </trkpt>
      <trkpt lat="44.87003" lon="5.5966">
        <ele>877.382</ele>
        <time>2021-11-07T14:47:01Z</time>
      </trkpt>
      <trkpt lat="44.87012" lon="5.59682">
        <ele>877.462</ele>
        <time>2021-11-07T14:47:06Z</time>
      </trkpt>
      <trkpt lat="44.87019" lon="5.59701">
        <ele>877.562</ele>
        <time>2021-11-07T14:47:11Z</time>
      </trkpt>
      <trkpt lat="44.87024" lon="5.59719">
        <ele>877.414</ele>
        <time>2021-11-07T14:47:16Z</time>
      </trkpt>
      <trkpt lat="44.87024" lon="5.59737">
        <ele>876.901</ele>
        <time>2021-11-07T14:47:21Z</time>
      </trkpt>
      <trkpt lat="44.87024" lon="5.59751">
        <ele>876.037</ele>
        <time>2021-11-07T14:47:26Z</time>
      </trkpt>
      <trkpt lat="44.87023" lon="5.59754">
        <ele>876.519</ele>
        <time>2021-11-07T14:47:31Z</time>
      </trkpt>
      <trkpt lat="44.87023" lon="5.59754">
        <ele>876.958</ele>
        <time>2021-11-07T14:47:36Z</time>
      </trkpt>
      <trkpt lat="44.87026" lon="5.59755">
        <ele>876.924</ele>
        <time>2021-11-07T14:47:41Z</time>
      </trkpt>
      <trkpt lat="44.87025" lon="5.59755">
        <ele>878.564</ele>
        <time>2021-11-07T14:47:46Z</time>
      </trkpt>
    </trkseg>
  </trk>
</gpx>